<?xml version="1.0" encoding="UTF-8" standalone="no" ?>
<gpx xmlns="http://www.topografix.com/GPX/1/1" xmlns:xsi="http://www.w3.org/2001/XMLSchema-instance" xsi:schemaLocation="http://www.topografix.com/GPX/1/1 http://www.topografix.com/GPX/1/1/gpx.xsd" version="1.1" creator="VisuGPX - https://www.visugpx.com">
  <metadata>
    <name>Pornichet VTT 30 mai 2019</name>
    <desc><![CDATA[Sortie VTT du jeudi 30 mai 2019]]></desc>
  </metadata>
  <trk>
    <name><![CDATA[Pornichet Cyclisme]]></name>
    <trkseg>
      <trkpt lat="47.2641" lon="-2.31563">
        <ele>3</ele>
        <time>2019-05-30T07:25:25.000Z</time>
      </trkpt>
      <trkpt lat="47.26409" lon="-2.31575">
        <ele>3</ele>
        <time>2019-05-30T07:25:28.000Z</time>
      </trkpt>
      <trkpt lat="47.26408" lon="-2.3158">
        <ele>3</ele>
        <time>2019-05-30T07:25:29.000Z</time>
      </trkpt>
      <trkpt lat="47.26408" lon="-2.31584">
        <ele>3</ele>
        <time>2019-05-30T07:25:30.000Z</time>
      </trkpt>
      <trkpt lat="47.26408" lon="-2.31632">
        <ele>3</ele>
        <time>2019-05-30T07:25:39.000Z</time>
      </trkpt>
      <trkpt lat="47.26408" lon="-2.31642">
        <ele>3</ele>
        <time>2019-05-30T07:25:43.000Z</time>
      </trkpt>
      <trkpt lat="47.26408" lon="-2.31631">
        <ele>3</ele>
        <time>2019-05-30T07:25:46.000Z</time>
      </trkpt>
      <trkpt lat="47.26407" lon="-2.31616">
        <ele>3</ele>
        <time>2019-05-30T07:25:49.000Z</time>
      </trkpt>
      <trkpt lat="47.26407" lon="-2.31604">
        <ele>3</ele>
        <time>2019-05-30T07:25:51.000Z</time>
      </trkpt>
      <trkpt lat="47.26407" lon="-2.3157">
        <ele>3</ele>
        <time>2019-05-30T07:25:57.000Z</time>
      </trkpt>
      <trkpt lat="47.26413" lon="-2.31552">
        <ele>3</ele>
        <time>2019-05-30T07:26:01.000Z</time>
      </trkpt>
      <trkpt lat="47.26418" lon="-2.31552">
        <ele>3</ele>
        <time>2019-05-30T07:26:04.000Z</time>
      </trkpt>
      <trkpt lat="47.26417" lon="-2.31551">
        <ele>3</ele>
        <time>2019-05-30T07:26:08.000Z</time>
      </trkpt>
      <trkpt lat="47.26414" lon="-2.3155">
        <ele>3</ele>
        <time>2019-05-30T07:27:00.000Z</time>
      </trkpt>
      <trkpt lat="47.26412" lon="-2.31553">
        <ele>3</ele>
        <time>2019-05-30T07:27:03.000Z</time>
      </trkpt>
      <trkpt lat="47.26409" lon="-2.31553">
        <ele>3</ele>
        <time>2019-05-30T07:27:07.000Z</time>
      </trkpt>
      <trkpt lat="47.26406" lon="-2.3156">
        <ele>3</ele>
        <time>2019-05-30T07:27:09.000Z</time>
      </trkpt>
      <trkpt lat="47.26406" lon="-2.3157">
        <ele>3</ele>
        <time>2019-05-30T07:27:11.000Z</time>
      </trkpt>
      <trkpt lat="47.26407" lon="-2.31581">
        <ele>3</ele>
        <time>2019-05-30T07:27:13.000Z</time>
      </trkpt>
      <trkpt lat="47.26406" lon="-2.31618">
        <ele>3</ele>
        <time>2019-05-30T07:27:19.000Z</time>
      </trkpt>
      <trkpt lat="47.26408" lon="-2.3165">
        <ele>3</ele>
        <time>2019-05-30T07:27:24.000Z</time>
      </trkpt>
      <trkpt lat="47.26408" lon="-2.31661">
        <ele>3</ele>
        <time>2019-05-30T07:27:26.000Z</time>
      </trkpt>
      <trkpt lat="47.264" lon="-2.31667">
        <ele>3</ele>
        <time>2019-05-30T07:27:29.000Z</time>
      </trkpt>
      <trkpt lat="47.26396" lon="-2.31669">
        <ele>3</ele>
        <time>2019-05-30T07:27:30.000Z</time>
      </trkpt>
      <trkpt lat="47.26379" lon="-2.31678">
        <ele>3</ele>
        <time>2019-05-30T07:27:34.000Z</time>
      </trkpt>
      <trkpt lat="47.26351" lon="-2.31696">
        <ele>2.5999999046326</ele>
        <time>2019-05-30T07:27:40.000Z</time>
      </trkpt>
      <trkpt lat="47.26346" lon="-2.31699">
        <ele>2.2000000476837</ele>
        <time>2019-05-30T07:27:41.000Z</time>
      </trkpt>
      <trkpt lat="47.26341" lon="-2.31702">
        <ele>1.7999999523163</ele>
        <time>2019-05-30T07:27:42.000Z</time>
      </trkpt>
      <trkpt lat="47.26335" lon="-2.31703">
        <ele>1.3999999761581</ele>
        <time>2019-05-30T07:27:43.000Z</time>
      </trkpt>
      <trkpt lat="47.2633" lon="-2.31706">
        <ele>1</ele>
        <time>2019-05-30T07:27:44.000Z</time>
      </trkpt>
      <trkpt lat="47.26324" lon="-2.3171">
        <ele>1</ele>
        <time>2019-05-30T07:27:45.000Z</time>
      </trkpt>
      <trkpt lat="47.26319" lon="-2.31713">
        <ele>1</ele>
        <time>2019-05-30T07:27:46.000Z</time>
      </trkpt>
      <trkpt lat="47.2631" lon="-2.31716">
        <ele>1</ele>
        <time>2019-05-30T07:27:48.000Z</time>
      </trkpt>
      <trkpt lat="47.26306" lon="-2.31716">
        <ele>0.60000002384186</ele>
        <time>2019-05-30T07:27:49.000Z</time>
      </trkpt>
      <trkpt lat="47.26303" lon="-2.31714">
        <ele>0.20000000298023</ele>
        <time>2019-05-30T07:27:50.000Z</time>
      </trkpt>
      <trkpt lat="47.26299" lon="-2.3171">
        <ele>-0.20000000298023</ele>
        <time>2019-05-30T07:27:51.000Z</time>
      </trkpt>
      <trkpt lat="47.26295" lon="-2.31705">
        <ele>-0.60000002384186</ele>
        <time>2019-05-30T07:27:52.000Z</time>
      </trkpt>
      <trkpt lat="47.26292" lon="-2.317">
        <ele>-1</ele>
        <time>2019-05-30T07:27:53.000Z</time>
      </trkpt>
      <trkpt lat="47.26289" lon="-2.31694">
        <ele>-1</ele>
        <time>2019-05-30T07:27:54.000Z</time>
      </trkpt>
      <trkpt lat="47.26287" lon="-2.3169">
        <ele>-1</ele>
        <time>2019-05-30T07:27:55.000Z</time>
      </trkpt>
      <trkpt lat="47.26269" lon="-2.31657">
        <ele>-1</ele>
        <time>2019-05-30T07:28:02.000Z</time>
      </trkpt>
      <trkpt lat="47.26256" lon="-2.31628">
        <ele>-1</ele>
        <time>2019-05-30T07:28:07.000Z</time>
      </trkpt>
      <trkpt lat="47.26244" lon="-2.31613">
        <ele>-1</ele>
        <time>2019-05-30T07:28:10.000Z</time>
      </trkpt>
      <trkpt lat="47.26236" lon="-2.31606">
        <ele>-1</ele>
        <time>2019-05-30T07:28:12.000Z</time>
      </trkpt>
      <trkpt lat="47.26227" lon="-2.31601">
        <ele>-1</ele>
        <time>2019-05-30T07:28:14.000Z</time>
      </trkpt>
      <trkpt lat="47.26213" lon="-2.31596">
        <ele>-1</ele>
        <time>2019-05-30T07:28:17.000Z</time>
      </trkpt>
      <trkpt lat="47.26208" lon="-2.31596">
        <ele>-1</ele>
        <time>2019-05-30T07:28:18.000Z</time>
      </trkpt>
      <trkpt lat="47.26194" lon="-2.31598">
        <ele>-1</ele>
        <time>2019-05-30T07:28:21.000Z</time>
      </trkpt>
      <trkpt lat="47.26167" lon="-2.31603">
        <ele>-1</ele>
        <time>2019-05-30T07:28:27.000Z</time>
      </trkpt>
      <trkpt lat="47.26154" lon="-2.31608">
        <ele>-1</ele>
        <time>2019-05-30T07:28:30.000Z</time>
      </trkpt>
      <trkpt lat="47.26136" lon="-2.31615">
        <ele>-1</ele>
        <time>2019-05-30T07:28:34.000Z</time>
      </trkpt>
      <trkpt lat="47.26123" lon="-2.31615">
        <ele>-1</ele>
        <time>2019-05-30T07:28:37.000Z</time>
      </trkpt>
      <trkpt lat="47.26099" lon="-2.31611">
        <ele>-1</ele>
        <time>2019-05-30T07:28:43.000Z</time>
      </trkpt>
      <trkpt lat="47.26093" lon="-2.31597">
        <ele>-1</ele>
        <time>2019-05-30T07:28:46.000Z</time>
      </trkpt>
      <trkpt lat="47.26083" lon="-2.31582">
        <ele>-1</ele>
        <time>2019-05-30T07:28:51.000Z</time>
      </trkpt>
      <trkpt lat="47.26072" lon="-2.31573">
        <ele>-1</ele>
        <time>2019-05-30T07:28:56.000Z</time>
      </trkpt>
      <trkpt lat="47.26069" lon="-2.31563">
        <ele>-1</ele>
        <time>2019-05-30T07:28:58.000Z</time>
      </trkpt>
      <trkpt lat="47.26065" lon="-2.31553">
        <ele>-1</ele>
        <time>2019-05-30T07:29:00.000Z</time>
      </trkpt>
      <trkpt lat="47.26058" lon="-2.31538">
        <ele>-1</ele>
        <time>2019-05-30T07:29:03.000Z</time>
      </trkpt>
      <trkpt lat="47.26047" lon="-2.3152">
        <ele>-1</ele>
        <time>2019-05-30T07:29:07.000Z</time>
      </trkpt>
      <trkpt lat="47.26036" lon="-2.31516">
        <ele>-1</ele>
        <time>2019-05-30T07:29:11.000Z</time>
      </trkpt>
      <trkpt lat="47.2603" lon="-2.31534">
        <ele>-1</ele>
        <time>2019-05-30T07:29:15.000Z</time>
      </trkpt>
      <trkpt lat="47.26026" lon="-2.31546">
        <ele>-1</ele>
        <time>2019-05-30T07:29:17.000Z</time>
      </trkpt>
      <trkpt lat="47.26024" lon="-2.31551">
        <ele>-0.60000002384186</ele>
        <time>2019-05-30T07:29:18.000Z</time>
      </trkpt>
      <trkpt lat="47.26021" lon="-2.31556">
        <ele>-0.20000000298023</ele>
        <time>2019-05-30T07:29:19.000Z</time>
      </trkpt>
      <trkpt lat="47.26019" lon="-2.3156">
        <ele>0.20000000298023</ele>
        <time>2019-05-30T07:29:20.000Z</time>
      </trkpt>
      <trkpt lat="47.26015" lon="-2.31564">
        <ele>0.60000002384186</ele>
        <time>2019-05-30T07:29:21.000Z</time>
      </trkpt>
      <trkpt lat="47.26013" lon="-2.31565">
        <ele>1</ele>
        <time>2019-05-30T07:29:22.000Z</time>
      </trkpt>
      <trkpt lat="47.26009" lon="-2.31562">
        <ele>1</ele>
        <time>2019-05-30T07:29:24.000Z</time>
      </trkpt>
      <trkpt lat="47.26003" lon="-2.31553">
        <ele>1</ele>
        <time>2019-05-30T07:29:26.000Z</time>
      </trkpt>
      <trkpt lat="47.25997" lon="-2.31544">
        <ele>1</ele>
        <time>2019-05-30T07:29:28.000Z</time>
      </trkpt>
      <trkpt lat="47.25983" lon="-2.31519">
        <ele>1</ele>
        <time>2019-05-30T07:29:33.000Z</time>
      </trkpt>
      <trkpt lat="47.25978" lon="-2.31508">
        <ele>1</ele>
        <time>2019-05-30T07:29:35.000Z</time>
      </trkpt>
      <trkpt lat="47.25971" lon="-2.31491">
        <ele>1</ele>
        <time>2019-05-30T07:29:38.000Z</time>
      </trkpt>
      <trkpt lat="47.25965" lon="-2.31482">
        <ele>1</ele>
        <time>2019-05-30T07:29:40.000Z</time>
      </trkpt>
      <trkpt lat="47.25961" lon="-2.31479">
        <ele>1</ele>
        <time>2019-05-30T07:29:41.000Z</time>
      </trkpt>
      <trkpt lat="47.25951" lon="-2.31467">
        <ele>1</ele>
        <time>2019-05-30T07:29:44.000Z</time>
      </trkpt>
      <trkpt lat="47.2594" lon="-2.31462">
        <ele>1</ele>
        <time>2019-05-30T07:29:47.000Z</time>
      </trkpt>
      <trkpt lat="47.25927" lon="-2.31468">
        <ele>1</ele>
        <time>2019-05-30T07:29:51.000Z</time>
      </trkpt>
      <trkpt lat="47.25919" lon="-2.31483">
        <ele>1</ele>
        <time>2019-05-30T07:29:55.000Z</time>
      </trkpt>
      <trkpt lat="47.2591" lon="-2.31507">
        <ele>1</ele>
        <time>2019-05-30T07:30:02.000Z</time>
      </trkpt>
      <trkpt lat="47.2591" lon="-2.31508">
        <ele>1</ele>
        <time>2019-05-30T07:30:03.000Z</time>
      </trkpt>
      <trkpt lat="47.25911" lon="-2.3151">
        <ele>1</ele>
        <time>2019-05-30T07:30:05.000Z</time>
      </trkpt>
      <trkpt lat="47.2591" lon="-2.31512">
        <ele>1</ele>
        <time>2019-05-30T07:30:06.000Z</time>
      </trkpt>
      <trkpt lat="47.25903" lon="-2.31525">
        <ele>1</ele>
        <time>2019-05-30T07:30:10.000Z</time>
      </trkpt>
      <trkpt lat="47.25894" lon="-2.31548">
        <ele>1</ele>
        <time>2019-05-30T07:30:15.000Z</time>
      </trkpt>
      <trkpt lat="47.25892" lon="-2.31553">
        <ele>1.7999999523163</ele>
        <time>2019-05-30T07:30:16.000Z</time>
      </trkpt>
      <trkpt lat="47.25891" lon="-2.31558">
        <ele>2.2000000476837</ele>
        <time>2019-05-30T07:30:17.000Z</time>
      </trkpt>
      <trkpt lat="47.25888" lon="-2.31563">
        <ele>2.5999999046326</ele>
        <time>2019-05-30T07:30:18.000Z</time>
      </trkpt>
      <trkpt lat="47.25886" lon="-2.31567">
        <ele>3</ele>
        <time>2019-05-30T07:30:19.000Z</time>
      </trkpt>
      <trkpt lat="47.25872" lon="-2.31588">
        <ele>3</ele>
        <time>2019-05-30T07:30:22.000Z</time>
      </trkpt>
      <trkpt lat="47.25852" lon="-2.31604">
        <ele>3.4000000953674</ele>
        <time>2019-05-30T07:30:30.000Z</time>
      </trkpt>
      <trkpt lat="47.25849" lon="-2.31607">
        <ele>3.7999999523163</ele>
        <time>2019-05-30T07:30:31.000Z</time>
      </trkpt>
      <trkpt lat="47.25846" lon="-2.3161">
        <ele>4.1999998092651</ele>
        <time>2019-05-30T07:30:32.000Z</time>
      </trkpt>
      <trkpt lat="47.25843" lon="-2.31613">
        <ele>4.5999999046326</ele>
        <time>2019-05-30T07:30:33.000Z</time>
      </trkpt>
      <trkpt lat="47.2584" lon="-2.31616">
        <ele>5</ele>
        <time>2019-05-30T07:30:34.000Z</time>
      </trkpt>
      <trkpt lat="47.25831" lon="-2.31625">
        <ele>5</ele>
        <time>2019-05-30T07:30:37.000Z</time>
      </trkpt>
      <trkpt lat="47.25813" lon="-2.31637">
        <ele>5</ele>
        <time>2019-05-30T07:30:42.000Z</time>
      </trkpt>
      <trkpt lat="47.25805" lon="-2.31643">
        <ele>5</ele>
        <time>2019-05-30T07:30:44.000Z</time>
      </trkpt>
      <trkpt lat="47.25777" lon="-2.31665">
        <ele>5</ele>
        <time>2019-05-30T07:30:51.000Z</time>
      </trkpt>
      <trkpt lat="47.25736" lon="-2.31694">
        <ele>5</ele>
        <time>2019-05-30T07:31:00.000Z</time>
      </trkpt>
      <trkpt lat="47.25731" lon="-2.31697">
        <ele>5</ele>
        <time>2019-05-30T07:31:01.000Z</time>
      </trkpt>
      <trkpt lat="47.25717" lon="-2.31698">
        <ele>5</ele>
        <time>2019-05-30T07:31:04.000Z</time>
      </trkpt>
      <trkpt lat="47.25702" lon="-2.31689">
        <ele>5</ele>
        <time>2019-05-30T07:31:08.000Z</time>
      </trkpt>
      <trkpt lat="47.25683" lon="-2.31679">
        <ele>5</ele>
        <time>2019-05-30T07:31:13.000Z</time>
      </trkpt>
      <trkpt lat="47.25679" lon="-2.31677">
        <ele>5</ele>
        <time>2019-05-30T07:31:14.000Z</time>
      </trkpt>
      <trkpt lat="47.25666" lon="-2.31682">
        <ele>5</ele>
        <time>2019-05-30T07:31:18.000Z</time>
      </trkpt>
      <trkpt lat="47.25659" lon="-2.31687">
        <ele>5</ele>
        <time>2019-05-30T07:31:20.000Z</time>
      </trkpt>
      <trkpt lat="47.2565" lon="-2.31696">
        <ele>5</ele>
        <time>2019-05-30T07:31:23.000Z</time>
      </trkpt>
      <trkpt lat="47.2564" lon="-2.3171">
        <ele>5.4000000953674</ele>
        <time>2019-05-30T07:31:27.000Z</time>
      </trkpt>
      <trkpt lat="47.25638" lon="-2.31713">
        <ele>6</ele>
        <time>2019-05-30T07:31:28.000Z</time>
      </trkpt>
      <trkpt lat="47.25635" lon="-2.31716">
        <ele>6.4000000953674</ele>
        <time>2019-05-30T07:31:29.000Z</time>
      </trkpt>
      <trkpt lat="47.25632" lon="-2.31719">
        <ele>6.8000001907349</ele>
        <time>2019-05-30T07:31:30.000Z</time>
      </trkpt>
      <trkpt lat="47.2563" lon="-2.31722">
        <ele>7.1999998092651</ele>
        <time>2019-05-30T07:31:31.000Z</time>
      </trkpt>
      <trkpt lat="47.25626" lon="-2.31737">
        <ele>7.1999998092651</ele>
        <time>2019-05-30T07:31:34.000Z</time>
      </trkpt>
      <trkpt lat="47.25617" lon="-2.31762">
        <ele>7.5999999046326</ele>
        <time>2019-05-30T07:31:39.000Z</time>
      </trkpt>
      <trkpt lat="47.25613" lon="-2.31764">
        <ele>8</ele>
        <time>2019-05-30T07:31:40.000Z</time>
      </trkpt>
      <trkpt lat="47.25609" lon="-2.31766">
        <ele>8.3999996185303</ele>
        <time>2019-05-30T07:31:41.000Z</time>
      </trkpt>
      <trkpt lat="47.25605" lon="-2.31767">
        <ele>8.8000001907349</ele>
        <time>2019-05-30T07:31:42.000Z</time>
      </trkpt>
      <trkpt lat="47.25601" lon="-2.31767">
        <ele>9.1999998092651</ele>
        <time>2019-05-30T07:31:43.000Z</time>
      </trkpt>
      <trkpt lat="47.25589" lon="-2.31768">
        <ele>9.1999998092651</ele>
        <time>2019-05-30T07:31:46.000Z</time>
      </trkpt>
      <trkpt lat="47.25578" lon="-2.31774">
        <ele>9.1999998092651</ele>
        <time>2019-05-30T07:31:49.000Z</time>
      </trkpt>
      <trkpt lat="47.25563" lon="-2.31794">
        <ele>9.1999998092651</ele>
        <time>2019-05-30T07:31:55.000Z</time>
      </trkpt>
      <trkpt lat="47.25559" lon="-2.31804">
        <ele>9.1999998092651</ele>
        <time>2019-05-30T07:31:58.000Z</time>
      </trkpt>
      <trkpt lat="47.25557" lon="-2.31805">
        <ele>9.1999998092651</ele>
        <time>2019-05-30T07:31:59.000Z</time>
      </trkpt>
      <trkpt lat="47.25547" lon="-2.31805">
        <ele>9.1999998092651</ele>
        <time>2019-05-30T07:32:02.000Z</time>
      </trkpt>
      <trkpt lat="47.25544" lon="-2.31805">
        <ele>9.1999998092651</ele>
        <time>2019-05-30T07:32:03.000Z</time>
      </trkpt>
      <trkpt lat="47.25542" lon="-2.31806">
        <ele>9.6000003814697</ele>
        <time>2019-05-30T07:32:04.000Z</time>
      </trkpt>
      <trkpt lat="47.2554" lon="-2.31806">
        <ele>10</ele>
        <time>2019-05-30T07:32:05.000Z</time>
      </trkpt>
      <trkpt lat="47.25537" lon="-2.31807">
        <ele>10.39999961853</ele>
        <time>2019-05-30T07:32:06.000Z</time>
      </trkpt>
      <trkpt lat="47.25534" lon="-2.31808">
        <ele>10.800000190735</ele>
        <time>2019-05-30T07:32:07.000Z</time>
      </trkpt>
      <trkpt lat="47.25532" lon="-2.31809">
        <ele>11.199999809265</ele>
        <time>2019-05-30T07:32:08.000Z</time>
      </trkpt>
      <trkpt lat="47.2553" lon="-2.31811">
        <ele>11.199999809265</ele>
        <time>2019-05-30T07:32:09.000Z</time>
      </trkpt>
      <trkpt lat="47.25513" lon="-2.31814">
        <ele>11.199999809265</ele>
        <time>2019-05-30T07:32:15.000Z</time>
      </trkpt>
      <trkpt lat="47.25502" lon="-2.31816">
        <ele>11.199999809265</ele>
        <time>2019-05-30T07:32:21.000Z</time>
      </trkpt>
      <trkpt lat="47.25501" lon="-2.31815">
        <ele>11.199999809265</ele>
        <time>2019-05-30T07:32:23.000Z</time>
      </trkpt>
      <trkpt lat="47.25506" lon="-2.31815">
        <ele>11.199999809265</ele>
        <time>2019-05-30T07:39:31.000Z</time>
      </trkpt>
      <trkpt lat="47.25507" lon="-2.31814">
        <ele>11.199999809265</ele>
        <time>2019-05-30T07:39:32.000Z</time>
      </trkpt>
      <trkpt lat="47.25517" lon="-2.31807">
        <ele>11.199999809265</ele>
        <time>2019-05-30T07:39:36.000Z</time>
      </trkpt>
      <trkpt lat="47.25532" lon="-2.31804">
        <ele>11.199999809265</ele>
        <time>2019-05-30T07:39:41.000Z</time>
      </trkpt>
      <trkpt lat="47.25549" lon="-2.31798">
        <ele>11.199999809265</ele>
        <time>2019-05-30T07:39:46.000Z</time>
      </trkpt>
      <trkpt lat="47.25557" lon="-2.31795">
        <ele>11.199999809265</ele>
        <time>2019-05-30T07:39:48.000Z</time>
      </trkpt>
      <trkpt lat="47.25563" lon="-2.31787">
        <ele>11.199999809265</ele>
        <time>2019-05-30T07:39:50.000Z</time>
      </trkpt>
      <trkpt lat="47.25569" lon="-2.31776">
        <ele>11.199999809265</ele>
        <time>2019-05-30T07:39:52.000Z</time>
      </trkpt>
      <trkpt lat="47.2558" lon="-2.3176">
        <ele>11.199999809265</ele>
        <time>2019-05-30T07:39:55.000Z</time>
      </trkpt>
      <trkpt lat="47.25584" lon="-2.31754">
        <ele>10.800000190735</ele>
        <time>2019-05-30T07:39:56.000Z</time>
      </trkpt>
      <trkpt lat="47.25587" lon="-2.31746">
        <ele>10.39999961853</ele>
        <time>2019-05-30T07:39:57.000Z</time>
      </trkpt>
      <trkpt lat="47.25589" lon="-2.31739">
        <ele>10</ele>
        <time>2019-05-30T07:39:58.000Z</time>
      </trkpt>
      <trkpt lat="47.25591" lon="-2.31732">
        <ele>9.6000003814697</ele>
        <time>2019-05-30T07:39:59.000Z</time>
      </trkpt>
      <trkpt lat="47.25592" lon="-2.31725">
        <ele>9.1999998092651</ele>
        <time>2019-05-30T07:40:00.000Z</time>
      </trkpt>
      <trkpt lat="47.25602" lon="-2.3171">
        <ele>9.1999998092651</ele>
        <time>2019-05-30T07:40:03.000Z</time>
      </trkpt>
      <trkpt lat="47.25618" lon="-2.31705">
        <ele>9.1999998092651</ele>
        <time>2019-05-30T07:40:06.000Z</time>
      </trkpt>
      <trkpt lat="47.25629" lon="-2.31703">
        <ele>9.1999998092651</ele>
        <time>2019-05-30T07:40:08.000Z</time>
      </trkpt>
      <trkpt lat="47.25645" lon="-2.31693">
        <ele>9.1999998092651</ele>
        <time>2019-05-30T07:40:11.000Z</time>
      </trkpt>
      <trkpt lat="47.25649" lon="-2.31688">
        <ele>8.8000001907349</ele>
        <time>2019-05-30T07:40:12.000Z</time>
      </trkpt>
      <trkpt lat="47.25652" lon="-2.31682">
        <ele>8.3999996185303</ele>
        <time>2019-05-30T07:40:13.000Z</time>
      </trkpt>
      <trkpt lat="47.25654" lon="-2.31676">
        <ele>8</ele>
        <time>2019-05-30T07:40:14.000Z</time>
      </trkpt>
      <trkpt lat="47.25657" lon="-2.31669">
        <ele>7.5999999046326</ele>
        <time>2019-05-30T07:40:15.000Z</time>
      </trkpt>
      <trkpt lat="47.25659" lon="-2.31664">
        <ele>7.1999998092651</ele>
        <time>2019-05-30T07:40:16.000Z</time>
      </trkpt>
      <trkpt lat="47.25667" lon="-2.31661">
        <ele>7.1999998092651</ele>
        <time>2019-05-30T07:40:18.000Z</time>
      </trkpt>
      <trkpt lat="47.25681" lon="-2.31672">
        <ele>7.1999998092651</ele>
        <time>2019-05-30T07:40:21.000Z</time>
      </trkpt>
      <trkpt lat="47.2569" lon="-2.31676">
        <ele>7.1999998092651</ele>
        <time>2019-05-30T07:40:23.000Z</time>
      </trkpt>
      <trkpt lat="47.25695" lon="-2.31678">
        <ele>6.5999999046326</ele>
        <time>2019-05-30T07:40:24.000Z</time>
      </trkpt>
      <trkpt lat="47.25701" lon="-2.3168">
        <ele>6.1999998092651</ele>
        <time>2019-05-30T07:40:25.000Z</time>
      </trkpt>
      <trkpt lat="47.25706" lon="-2.31683">
        <ele>5.8000001907349</ele>
        <time>2019-05-30T07:40:26.000Z</time>
      </trkpt>
      <trkpt lat="47.25711" lon="-2.31686">
        <ele>5.1999998092651</ele>
        <time>2019-05-30T07:40:27.000Z</time>
      </trkpt>
      <trkpt lat="47.25716" lon="-2.31689">
        <ele>4.8000001907349</ele>
        <time>2019-05-30T07:40:28.000Z</time>
      </trkpt>
      <trkpt lat="47.25721" lon="-2.31692">
        <ele>4.8000001907349</ele>
        <time>2019-05-30T07:40:29.000Z</time>
      </trkpt>
      <trkpt lat="47.25732" lon="-2.3169">
        <ele>4.8000001907349</ele>
        <time>2019-05-30T07:40:31.000Z</time>
      </trkpt>
      <trkpt lat="47.25741" lon="-2.31684">
        <ele>4.8000001907349</ele>
        <time>2019-05-30T07:40:33.000Z</time>
      </trkpt>
      <trkpt lat="47.25764" lon="-2.31664">
        <ele>4.8000001907349</ele>
        <time>2019-05-30T07:40:38.000Z</time>
      </trkpt>
      <trkpt lat="47.25801" lon="-2.31635">
        <ele>4.8000001907349</ele>
        <time>2019-05-30T07:40:47.000Z</time>
      </trkpt>
      <trkpt lat="47.25832" lon="-2.3161">
        <ele>4.8000001907349</ele>
        <time>2019-05-30T07:40:55.000Z</time>
      </trkpt>
      <trkpt lat="47.2586" lon="-2.31585">
        <ele>4.8000001907349</ele>
        <time>2019-05-30T07:41:01.000Z</time>
      </trkpt>
      <trkpt lat="47.25881" lon="-2.31564">
        <ele>4.8000001907349</ele>
        <time>2019-05-30T07:41:05.000Z</time>
      </trkpt>
      <trkpt lat="47.25888" lon="-2.31548">
        <ele>4.8000001907349</ele>
        <time>2019-05-30T07:41:07.000Z</time>
      </trkpt>
      <trkpt lat="47.25896" lon="-2.31525">
        <ele>4.8000001907349</ele>
        <time>2019-05-30T07:41:10.000Z</time>
      </trkpt>
      <trkpt lat="47.25899" lon="-2.3152">
        <ele>4.8000001907349</ele>
        <time>2019-05-30T07:41:11.000Z</time>
      </trkpt>
      <trkpt lat="47.25902" lon="-2.31516">
        <ele>4.4000000953674</ele>
        <time>2019-05-30T07:41:12.000Z</time>
      </trkpt>
      <trkpt lat="47.25906" lon="-2.31513">
        <ele>4</ele>
        <time>2019-05-30T07:41:13.000Z</time>
      </trkpt>
      <trkpt lat="47.25909" lon="-2.31511">
        <ele>3.4000000953674</ele>
        <time>2019-05-30T07:41:14.000Z</time>
      </trkpt>
      <trkpt lat="47.2591" lon="-2.31508">
        <ele>3</ele>
        <time>2019-05-30T07:41:15.000Z</time>
      </trkpt>
      <trkpt lat="47.2591" lon="-2.31506">
        <ele>2.5999999046326</ele>
        <time>2019-05-30T07:41:16.000Z</time>
      </trkpt>
      <trkpt lat="47.2591" lon="-2.31502">
        <ele>2.5999999046326</ele>
        <time>2019-05-30T07:41:19.000Z</time>
      </trkpt>
      <trkpt lat="47.25912" lon="-2.31496">
        <ele>2.5999999046326</ele>
        <time>2019-05-30T07:41:21.000Z</time>
      </trkpt>
      <trkpt lat="47.25915" lon="-2.31488">
        <ele>2.5999999046326</ele>
        <time>2019-05-30T07:41:23.000Z</time>
      </trkpt>
      <trkpt lat="47.2593" lon="-2.31454">
        <ele>2.2000000476837</ele>
        <time>2019-05-30T07:41:30.000Z</time>
      </trkpt>
      <trkpt lat="47.25932" lon="-2.31453">
        <ele>1.7999999523163</ele>
        <time>2019-05-30T07:41:31.000Z</time>
      </trkpt>
      <trkpt lat="47.25935" lon="-2.31453">
        <ele>1.3999999761581</ele>
        <time>2019-05-30T07:41:32.000Z</time>
      </trkpt>
      <trkpt lat="47.25937" lon="-2.31454">
        <ele>1</ele>
        <time>2019-05-30T07:41:33.000Z</time>
      </trkpt>
      <trkpt lat="47.2594" lon="-2.31457">
        <ele>0.40000000596046</ele>
        <time>2019-05-30T07:41:34.000Z</time>
      </trkpt>
      <trkpt lat="47.25944" lon="-2.31461">
        <ele>0.40000000596046</ele>
        <time>2019-05-30T07:41:35.000Z</time>
      </trkpt>
      <trkpt lat="47.25953" lon="-2.31472">
        <ele>0.40000000596046</ele>
        <time>2019-05-30T07:41:37.000Z</time>
      </trkpt>
      <trkpt lat="47.25957" lon="-2.31477">
        <ele>0.40000000596046</ele>
        <time>2019-05-30T07:41:38.000Z</time>
      </trkpt>
      <trkpt lat="47.25968" lon="-2.31497">
        <ele>0.40000000596046</ele>
        <time>2019-05-30T07:41:41.000Z</time>
      </trkpt>
      <trkpt lat="47.25994" lon="-2.31544">
        <ele>0.40000000596046</ele>
        <time>2019-05-30T07:41:49.000Z</time>
      </trkpt>
      <trkpt lat="47.26008" lon="-2.31561">
        <ele>0.40000000596046</ele>
        <time>2019-05-30T07:41:53.000Z</time>
      </trkpt>
      <trkpt lat="47.26013" lon="-2.31561">
        <ele>0.40000000596046</ele>
        <time>2019-05-30T07:41:54.000Z</time>
      </trkpt>
      <trkpt lat="47.26022" lon="-2.31548">
        <ele>0.40000000596046</ele>
        <time>2019-05-30T07:41:57.000Z</time>
      </trkpt>
      <trkpt lat="47.26027" lon="-2.31537">
        <ele>0.40000000596046</ele>
        <time>2019-05-30T07:41:59.000Z</time>
      </trkpt>
      <trkpt lat="47.26031" lon="-2.3153">
        <ele>0.40000000596046</ele>
        <time>2019-05-30T07:42:01.000Z</time>
      </trkpt>
      <trkpt lat="47.26034" lon="-2.31529">
        <ele>0.40000000596046</ele>
        <time>2019-05-30T07:42:02.000Z</time>
      </trkpt>
      <trkpt lat="47.26049" lon="-2.3153">
        <ele>0.40000000596046</ele>
        <time>2019-05-30T07:42:06.000Z</time>
      </trkpt>
      <trkpt lat="47.26058" lon="-2.31539">
        <ele>0.40000000596046</ele>
        <time>2019-05-30T07:42:10.000Z</time>
      </trkpt>
      <trkpt lat="47.26072" lon="-2.31569">
        <ele>0.40000000596046</ele>
        <time>2019-05-30T07:42:16.000Z</time>
      </trkpt>
      <trkpt lat="47.26077" lon="-2.31577">
        <ele>0.40000000596046</ele>
        <time>2019-05-30T07:42:18.000Z</time>
      </trkpt>
      <trkpt lat="47.26079" lon="-2.31578">
        <ele>0.40000000596046</ele>
        <time>2019-05-30T07:42:19.000Z</time>
      </trkpt>
      <trkpt lat="47.26096" lon="-2.31593">
        <ele>0.40000000596046</ele>
        <time>2019-05-30T07:42:25.000Z</time>
      </trkpt>
      <trkpt lat="47.26104" lon="-2.31606">
        <ele>4.4</ele>
        <time>2019-05-30T07:42:28.000Z</time>
      </trkpt>
      <trkpt lat="47.26108" lon="-2.31611">
        <ele>-0.40000000596046</ele>
        <time>2019-05-30T07:42:29.000Z</time>
      </trkpt>
      <trkpt lat="47.26112" lon="-2.31615">
        <ele>-0.80000001192093</ele>
        <time>2019-05-30T07:42:30.000Z</time>
      </trkpt>
      <trkpt lat="47.26116" lon="-2.31616">
        <ele>-1.2000000476837</ele>
        <time>2019-05-30T07:42:31.000Z</time>
      </trkpt>
      <trkpt lat="47.2612" lon="-2.31616">
        <ele>-1.6000000238419</ele>
        <time>2019-05-30T07:42:32.000Z</time>
      </trkpt>
      <trkpt lat="47.26125" lon="-2.31615">
        <ele>-1.6000000238419</ele>
        <time>2019-05-30T07:42:33.000Z</time>
      </trkpt>
      <trkpt lat="47.26129" lon="-2.31614">
        <ele>-1.6000000238419</ele>
        <time>2019-05-30T07:42:34.000Z</time>
      </trkpt>
      <trkpt lat="47.26133" lon="-2.31614">
        <ele>-1.6000000238419</ele>
        <time>2019-05-30T07:42:35.000Z</time>
      </trkpt>
      <trkpt lat="47.26146" lon="-2.31611">
        <ele>-1.6000000238419</ele>
        <time>2019-05-30T07:42:38.000Z</time>
      </trkpt>
      <trkpt lat="47.26165" lon="-2.31603">
        <ele>-1.6000000238419</ele>
        <time>2019-05-30T07:42:42.000Z</time>
      </trkpt>
      <trkpt lat="47.26179" lon="-2.31598">
        <ele>-1.6000000238419</ele>
        <time>2019-05-30T07:42:45.000Z</time>
      </trkpt>
      <trkpt lat="47.26207" lon="-2.31587">
        <ele>-1.6000000238419</ele>
        <time>2019-05-30T07:42:51.000Z</time>
      </trkpt>
      <trkpt lat="47.26212" lon="-2.31587">
        <ele>-1.6000000238419</ele>
        <time>2019-05-30T07:42:52.000Z</time>
      </trkpt>
      <trkpt lat="47.26226" lon="-2.31592">
        <ele>-1.6000000238419</ele>
        <time>2019-05-30T07:42:55.000Z</time>
      </trkpt>
      <trkpt lat="47.2623" lon="-2.31594">
        <ele>-1.6000000238419</ele>
        <time>2019-05-30T07:42:56.000Z</time>
      </trkpt>
      <trkpt lat="47.26234" lon="-2.31597">
        <ele>-1.6000000238419</ele>
        <time>2019-05-30T07:42:57.000Z</time>
      </trkpt>
      <trkpt lat="47.26246" lon="-2.31608">
        <ele>-1.6000000238419</ele>
        <time>2019-05-30T07:43:00.000Z</time>
      </trkpt>
      <trkpt lat="47.26249" lon="-2.31612">
        <ele>-1.6000000238419</ele>
        <time>2019-05-30T07:43:01.000Z</time>
      </trkpt>
      <trkpt lat="47.26259" lon="-2.31629">
        <ele>-1.6000000238419</ele>
        <time>2019-05-30T07:43:04.000Z</time>
      </trkpt>
      <trkpt lat="47.26262" lon="-2.31635">
        <ele>-1.6000000238419</ele>
        <time>2019-05-30T07:43:05.000Z</time>
      </trkpt>
      <trkpt lat="47.26265" lon="-2.31642">
        <ele>-1.6000000238419</ele>
        <time>2019-05-30T07:43:06.000Z</time>
      </trkpt>
      <trkpt lat="47.26267" lon="-2.31648">
        <ele>-1.6000000238419</ele>
        <time>2019-05-30T07:43:07.000Z</time>
      </trkpt>
      <trkpt lat="47.26272" lon="-2.31659">
        <ele>-1.6000000238419</ele>
        <time>2019-05-30T07:43:09.000Z</time>
      </trkpt>
      <trkpt lat="47.26276" lon="-2.31664">
        <ele>-1.6000000238419</ele>
        <time>2019-05-30T07:43:10.000Z</time>
      </trkpt>
      <trkpt lat="47.26279" lon="-2.3167">
        <ele>-1.6000000238419</ele>
        <time>2019-05-30T07:43:11.000Z</time>
      </trkpt>
      <trkpt lat="47.26293" lon="-2.31698">
        <ele>-1.6000000238419</ele>
        <time>2019-05-30T07:43:16.000Z</time>
      </trkpt>
      <trkpt lat="47.26297" lon="-2.31703">
        <ele>-1.6000000238419</ele>
        <time>2019-05-30T07:43:17.000Z</time>
      </trkpt>
      <trkpt lat="47.26305" lon="-2.31708">
        <ele>-1.6000000238419</ele>
        <time>2019-05-30T07:43:19.000Z</time>
      </trkpt>
      <trkpt lat="47.2632" lon="-2.31701">
        <ele>-1.6000000238419</ele>
        <time>2019-05-30T07:43:23.000Z</time>
      </trkpt>
      <trkpt lat="47.26329" lon="-2.31693">
        <ele>-1.6000000238419</ele>
        <time>2019-05-30T07:43:26.000Z</time>
      </trkpt>
      <trkpt lat="47.26332" lon="-2.31688">
        <ele>-1.6000000238419</ele>
        <time>2019-05-30T07:43:27.000Z</time>
      </trkpt>
      <trkpt lat="47.26337" lon="-2.31683">
        <ele>-1.6000000238419</ele>
        <time>2019-05-30T07:43:29.000Z</time>
      </trkpt>
      <trkpt lat="47.26341" lon="-2.31681">
        <ele>-1.6000000238419</ele>
        <time>2019-05-30T07:43:30.000Z</time>
      </trkpt>
      <trkpt lat="47.26349" lon="-2.31679">
        <ele>-1.2000000476837</ele>
        <time>2019-05-30T07:43:32.000Z</time>
      </trkpt>
      <trkpt lat="47.26353" lon="-2.31677">
        <ele>-0.80000001192093</ele>
        <time>2019-05-30T07:43:33.000Z</time>
      </trkpt>
      <trkpt lat="47.26357" lon="-2.31675">
        <ele>-0.20000000298023</ele>
        <time>2019-05-30T07:43:34.000Z</time>
      </trkpt>
      <trkpt lat="47.26361" lon="-2.31674">
        <ele>0.20000000298023</ele>
        <time>2019-05-30T07:43:35.000Z</time>
      </trkpt>
      <trkpt lat="47.26365" lon="-2.31672">
        <ele>0.60000002384186</ele>
        <time>2019-05-30T07:43:36.000Z</time>
      </trkpt>
      <trkpt lat="47.26369" lon="-2.3167">
        <ele>0.60000002384186</ele>
        <time>2019-05-30T07:43:37.000Z</time>
      </trkpt>
      <trkpt lat="47.26381" lon="-2.31664">
        <ele>0.60000002384186</ele>
        <time>2019-05-30T07:43:40.000Z</time>
      </trkpt>
      <trkpt lat="47.26389" lon="-2.3166">
        <ele>0.60000002384186</ele>
        <time>2019-05-30T07:43:42.000Z</time>
      </trkpt>
      <trkpt lat="47.26393" lon="-2.31658">
        <ele>0.60000002384186</ele>
        <time>2019-05-30T07:43:43.000Z</time>
      </trkpt>
      <trkpt lat="47.26405" lon="-2.31651">
        <ele>0.60000002384186</ele>
        <time>2019-05-30T07:43:47.000Z</time>
      </trkpt>
      <trkpt lat="47.26406" lon="-2.3164">
        <ele>0.60000002384186</ele>
        <time>2019-05-30T07:43:50.000Z</time>
      </trkpt>
      <trkpt lat="47.26405" lon="-2.31635">
        <ele>0.60000002384186</ele>
        <time>2019-05-30T07:43:51.000Z</time>
      </trkpt>
      <trkpt lat="47.26404" lon="-2.31612">
        <ele>0.60000002384186</ele>
        <time>2019-05-30T07:43:55.000Z</time>
      </trkpt>
      <trkpt lat="47.26404" lon="-2.31606">
        <ele>0.60000002384186</ele>
        <time>2019-05-30T07:43:56.000Z</time>
      </trkpt>
      <trkpt lat="47.26406" lon="-2.31583">
        <ele>1</ele>
        <time>2019-05-30T07:44:00.000Z</time>
      </trkpt>
      <trkpt lat="47.26406" lon="-2.31577">
        <ele>1.3999999761581</ele>
        <time>2019-05-30T07:44:01.000Z</time>
      </trkpt>
      <trkpt lat="47.26406" lon="-2.31571">
        <ele>1.7999999523163</ele>
        <time>2019-05-30T07:44:02.000Z</time>
      </trkpt>
      <trkpt lat="47.26406" lon="-2.31566">
        <ele>2.2000000476837</ele>
        <time>2019-05-30T07:44:03.000Z</time>
      </trkpt>
      <trkpt lat="47.26406" lon="-2.31561">
        <ele>2.5999999046326</ele>
        <time>2019-05-30T07:44:04.000Z</time>
      </trkpt>
      <trkpt lat="47.26408" lon="-2.31558">
        <ele>2.5999999046326</ele>
        <time>2019-05-30T07:44:05.000Z</time>
      </trkpt>
      <trkpt lat="47.26413" lon="-2.31554">
        <ele>2.5999999046326</ele>
        <time>2019-05-30T07:44:07.000Z</time>
      </trkpt>
      <trkpt lat="47.26422" lon="-2.31558">
        <ele>2.5999999046326</ele>
        <time>2019-05-30T07:44:11.000Z</time>
      </trkpt>
      <trkpt lat="47.26426" lon="-2.31561">
        <ele>2.5999999046326</ele>
        <time>2019-05-30T07:44:17.000Z</time>
      </trkpt>
      <trkpt lat="47.26426" lon="-2.31562">
        <ele>2.5999999046326</ele>
        <time>2019-05-30T07:44:18.000Z</time>
      </trkpt>
      <trkpt lat="47.26411" lon="-2.31556">
        <ele>2.5999999046326</ele>
        <time>2019-05-30T07:46:19.000Z</time>
      </trkpt>
      <trkpt lat="47.26407" lon="-2.31554">
        <ele>2.5999999046326</ele>
        <time>2019-05-30T07:46:21.000Z</time>
      </trkpt>
      <trkpt lat="47.26406" lon="-2.31554">
        <ele>2.5999999046326</ele>
        <time>2019-05-30T07:46:23.000Z</time>
      </trkpt>
      <trkpt lat="47.26406" lon="-2.31553">
        <ele>2.5999999046326</ele>
        <time>2019-05-30T07:46:25.000Z</time>
      </trkpt>
      <trkpt lat="47.26406" lon="-2.31557">
        <ele>2.5999999046326</ele>
        <time>2019-05-30T07:46:55.000Z</time>
      </trkpt>
      <trkpt lat="47.26406" lon="-2.31563">
        <ele>2.5999999046326</ele>
        <time>2019-05-30T07:46:57.000Z</time>
      </trkpt>
      <trkpt lat="47.26407" lon="-2.31571">
        <ele>2.5999999046326</ele>
        <time>2019-05-30T07:46:59.000Z</time>
      </trkpt>
      <trkpt lat="47.26408" lon="-2.31587">
        <ele>2.5999999046326</ele>
        <time>2019-05-30T07:47:02.000Z</time>
      </trkpt>
      <trkpt lat="47.26407" lon="-2.31607">
        <ele>2.5999999046326</ele>
        <time>2019-05-30T07:47:07.000Z</time>
      </trkpt>
      <trkpt lat="47.26407" lon="-2.31629">
        <ele>2.5999999046326</ele>
        <time>2019-05-30T07:47:13.000Z</time>
      </trkpt>
      <trkpt lat="47.26409" lon="-2.31649">
        <ele>2.5999999046326</ele>
        <time>2019-05-30T07:47:19.000Z</time>
      </trkpt>
      <trkpt lat="47.26408" lon="-2.31663">
        <ele>2.5999999046326</ele>
        <time>2019-05-30T07:47:24.000Z</time>
      </trkpt>
      <trkpt lat="47.26399" lon="-2.3167">
        <ele>2.5999999046326</ele>
        <time>2019-05-30T07:47:27.000Z</time>
      </trkpt>
      <trkpt lat="47.2637" lon="-2.31685">
        <ele>2.5999999046326</ele>
        <time>2019-05-30T07:47:34.000Z</time>
      </trkpt>
      <trkpt lat="47.26349" lon="-2.31698">
        <ele>2.2000000476837</ele>
        <time>2019-05-30T07:47:39.000Z</time>
      </trkpt>
      <trkpt lat="47.26345" lon="-2.317">
        <ele>1.7999999523163</ele>
        <time>2019-05-30T07:47:40.000Z</time>
      </trkpt>
      <trkpt lat="47.26341" lon="-2.31702">
        <ele>1.3999999761581</ele>
        <time>2019-05-30T07:47:41.000Z</time>
      </trkpt>
      <trkpt lat="47.26338" lon="-2.31702">
        <ele>1</ele>
        <time>2019-05-30T07:47:42.000Z</time>
      </trkpt>
      <trkpt lat="47.26335" lon="-2.31704">
        <ele>0.60000002384186</ele>
        <time>2019-05-30T07:47:43.000Z</time>
      </trkpt>
      <trkpt lat="47.26329" lon="-2.31706">
        <ele>0.60000002384186</ele>
        <time>2019-05-30T07:47:45.000Z</time>
      </trkpt>
      <trkpt lat="47.26314" lon="-2.31717">
        <ele>0.60000002384186</ele>
        <time>2019-05-30T07:47:50.000Z</time>
      </trkpt>
      <trkpt lat="47.26305" lon="-2.31723">
        <ele>0.20000000298023</ele>
        <time>2019-05-30T07:47:53.000Z</time>
      </trkpt>
      <trkpt lat="47.26303" lon="-2.31728">
        <ele>-0.20000000298023</ele>
        <time>2019-05-30T07:47:54.000Z</time>
      </trkpt>
      <trkpt lat="47.26302" lon="-2.31732">
        <ele>-0.60000002384186</ele>
        <time>2019-05-30T07:47:55.000Z</time>
      </trkpt>
      <trkpt lat="47.26302" lon="-2.31735">
        <ele>-1.2000000476837</ele>
        <time>2019-05-30T07:47:56.000Z</time>
      </trkpt>
      <trkpt lat="47.26302" lon="-2.31739">
        <ele>-1.6000000238419</ele>
        <time>2019-05-30T07:47:57.000Z</time>
      </trkpt>
      <trkpt lat="47.26303" lon="-2.31747">
        <ele>-1.6000000238419</ele>
        <time>2019-05-30T07:47:59.000Z</time>
      </trkpt>
      <trkpt lat="47.26305" lon="-2.31765">
        <ele>-1.6000000238419</ele>
        <time>2019-05-30T07:48:03.000Z</time>
      </trkpt>
      <trkpt lat="47.26307" lon="-2.3179">
        <ele>-1.6000000238419</ele>
        <time>2019-05-30T07:48:08.000Z</time>
      </trkpt>
      <trkpt lat="47.26304" lon="-2.31821">
        <ele>-1.6000000238419</ele>
        <time>2019-05-30T07:48:13.000Z</time>
      </trkpt>
      <trkpt lat="47.26301" lon="-2.31846">
        <ele>-1.6000000238419</ele>
        <time>2019-05-30T07:48:18.000Z</time>
      </trkpt>
      <trkpt lat="47.263" lon="-2.31883">
        <ele>-1.6000000238419</ele>
        <time>2019-05-30T07:48:24.000Z</time>
      </trkpt>
      <trkpt lat="47.26301" lon="-2.31916">
        <ele>-1.6000000238419</ele>
        <time>2019-05-30T07:48:29.000Z</time>
      </trkpt>
      <trkpt lat="47.26306" lon="-2.31928">
        <ele>-1.6000000238419</ele>
        <time>2019-05-30T07:48:32.000Z</time>
      </trkpt>
      <trkpt lat="47.26309" lon="-2.3193">
        <ele>-1.6000000238419</ele>
        <time>2019-05-30T07:48:33.000Z</time>
      </trkpt>
      <trkpt lat="47.26326" lon="-2.31925">
        <ele>-1.6000000238419</ele>
        <time>2019-05-30T07:48:38.000Z</time>
      </trkpt>
      <trkpt lat="47.26335" lon="-2.31927">
        <ele>-1.6000000238419</ele>
        <time>2019-05-30T07:48:41.000Z</time>
      </trkpt>
      <trkpt lat="47.26338" lon="-2.31931">
        <ele>-1.6000000238419</ele>
        <time>2019-05-30T07:48:42.000Z</time>
      </trkpt>
      <trkpt lat="47.26349" lon="-2.31952">
        <ele>-1.6000000238419</ele>
        <time>2019-05-30T07:48:46.000Z</time>
      </trkpt>
      <trkpt lat="47.26361" lon="-2.31969">
        <ele>-1.6000000238419</ele>
        <time>2019-05-30T07:48:51.000Z</time>
      </trkpt>
      <trkpt lat="47.26369" lon="-2.31973">
        <ele>-1</ele>
        <time>2019-05-30T07:48:54.000Z</time>
      </trkpt>
      <trkpt lat="47.26372" lon="-2.31974">
        <ele>-0.60000002384186</ele>
        <time>2019-05-30T07:48:55.000Z</time>
      </trkpt>
      <trkpt lat="47.26375" lon="-2.31975">
        <ele>-0.20000000298023</ele>
        <time>2019-05-30T07:48:56.000Z</time>
      </trkpt>
      <trkpt lat="47.26377" lon="-2.31975">
        <ele>0.20000000298023</ele>
        <time>2019-05-30T07:48:57.000Z</time>
      </trkpt>
      <trkpt lat="47.2638" lon="-2.31975">
        <ele>0.80000001192093</ele>
        <time>2019-05-30T07:48:58.000Z</time>
      </trkpt>
      <trkpt lat="47.26386" lon="-2.31979">
        <ele>0.80000001192093</ele>
        <time>2019-05-30T07:49:00.000Z</time>
      </trkpt>
      <trkpt lat="47.26392" lon="-2.31982">
        <ele>0.80000001192093</ele>
        <time>2019-05-30T07:49:02.000Z</time>
      </trkpt>
      <trkpt lat="47.26395" lon="-2.31983">
        <ele>1.2000000476837</ele>
        <time>2019-05-30T07:49:04.000Z</time>
      </trkpt>
      <trkpt lat="47.26398" lon="-2.31983">
        <ele>1.6000000238419</ele>
        <time>2019-05-30T07:49:05.000Z</time>
      </trkpt>
      <trkpt lat="47.264" lon="-2.31984">
        <ele>2</ele>
        <time>2019-05-30T07:49:06.000Z</time>
      </trkpt>
      <trkpt lat="47.26403" lon="-2.31985">
        <ele>2.4000000953674</ele>
        <time>2019-05-30T07:49:07.000Z</time>
      </trkpt>
      <trkpt lat="47.26406" lon="-2.31985">
        <ele>2.7999999523163</ele>
        <time>2019-05-30T07:49:08.000Z</time>
      </trkpt>
      <trkpt lat="47.26409" lon="-2.31986">
        <ele>2.7999999523163</ele>
        <time>2019-05-30T07:49:09.000Z</time>
      </trkpt>
      <trkpt lat="47.26428" lon="-2.31991">
        <ele>2.7999999523163</ele>
        <time>2019-05-30T07:49:13.000Z</time>
      </trkpt>
      <trkpt lat="47.26436" lon="-2.31992">
        <ele>3.2000000476837</ele>
        <time>2019-05-30T07:49:15.000Z</time>
      </trkpt>
      <trkpt lat="47.2644" lon="-2.31993">
        <ele>3.7999999523163</ele>
        <time>2019-05-30T07:49:16.000Z</time>
      </trkpt>
      <trkpt lat="47.26444" lon="-2.31993">
        <ele>4.1999998092651</ele>
        <time>2019-05-30T07:49:17.000Z</time>
      </trkpt>
      <trkpt lat="47.26447" lon="-2.31993">
        <ele>4.5999999046326</ele>
        <time>2019-05-30T07:49:18.000Z</time>
      </trkpt>
      <trkpt lat="47.26451" lon="-2.31993">
        <ele>5</ele>
        <time>2019-05-30T07:49:19.000Z</time>
      </trkpt>
      <trkpt lat="47.26471" lon="-2.31996">
        <ele>5</ele>
        <time>2019-05-30T07:49:25.000Z</time>
      </trkpt>
      <trkpt lat="47.2648" lon="-2.31995">
        <ele>5.4000000953674</ele>
        <time>2019-05-30T07:49:28.000Z</time>
      </trkpt>
      <trkpt lat="47.26483" lon="-2.31996">
        <ele>5.8000001907349</ele>
        <time>2019-05-30T07:49:29.000Z</time>
      </trkpt>
      <trkpt lat="47.26486" lon="-2.31996">
        <ele>6.1999998092651</ele>
        <time>2019-05-30T07:49:30.000Z</time>
      </trkpt>
      <trkpt lat="47.26488" lon="-2.31995">
        <ele>6.5999999046326</ele>
        <time>2019-05-30T07:49:31.000Z</time>
      </trkpt>
      <trkpt lat="47.2649" lon="-2.31995">
        <ele>7</ele>
        <time>2019-05-30T07:49:32.000Z</time>
      </trkpt>
      <trkpt lat="47.26502" lon="-2.31994">
        <ele>7</ele>
        <time>2019-05-30T07:49:37.000Z</time>
      </trkpt>
      <trkpt lat="47.26507" lon="-2.31994">
        <ele>7.5999999046326</ele>
        <time>2019-05-30T07:49:39.000Z</time>
      </trkpt>
      <trkpt lat="47.26509" lon="-2.31994">
        <ele>8</ele>
        <time>2019-05-30T07:49:40.000Z</time>
      </trkpt>
      <trkpt lat="47.26512" lon="-2.31995">
        <ele>8.3999996185303</ele>
        <time>2019-05-30T07:49:41.000Z</time>
      </trkpt>
      <trkpt lat="47.26515" lon="-2.31996">
        <ele>8.8000001907349</ele>
        <time>2019-05-30T07:49:42.000Z</time>
      </trkpt>
      <trkpt lat="47.26517" lon="-2.31998">
        <ele>9.1999998092651</ele>
        <time>2019-05-30T07:49:43.000Z</time>
      </trkpt>
      <trkpt lat="47.26521" lon="-2.31999">
        <ele>9.1999998092651</ele>
        <time>2019-05-30T07:49:45.000Z</time>
      </trkpt>
      <trkpt lat="47.26525" lon="-2.32002">
        <ele>9.6000003814697</ele>
        <time>2019-05-30T07:49:47.000Z</time>
      </trkpt>
      <trkpt lat="47.26527" lon="-2.32004">
        <ele>10</ele>
        <time>2019-05-30T07:49:48.000Z</time>
      </trkpt>
      <trkpt lat="47.26529" lon="-2.32007">
        <ele>10.39999961853</ele>
        <time>2019-05-30T07:49:49.000Z</time>
      </trkpt>
      <trkpt lat="47.26531" lon="-2.32009">
        <ele>10.800000190735</ele>
        <time>2019-05-30T07:49:50.000Z</time>
      </trkpt>
      <trkpt lat="47.26532" lon="-2.32012">
        <ele>11.199999809265</ele>
        <time>2019-05-30T07:49:51.000Z</time>
      </trkpt>
      <trkpt lat="47.26534" lon="-2.32013">
        <ele>11.199999809265</ele>
        <time>2019-05-30T07:49:52.000Z</time>
      </trkpt>
      <trkpt lat="47.26539" lon="-2.32021">
        <ele>11.199999809265</ele>
        <time>2019-05-30T07:49:55.000Z</time>
      </trkpt>
      <trkpt lat="47.26541" lon="-2.32028">
        <ele>11.199999809265</ele>
        <time>2019-05-30T07:49:57.000Z</time>
      </trkpt>
      <trkpt lat="47.26544" lon="-2.32035">
        <ele>11.199999809265</ele>
        <time>2019-05-30T07:50:00.000Z</time>
      </trkpt>
      <trkpt lat="47.26546" lon="-2.32036">
        <ele>11.199999809265</ele>
        <time>2019-05-30T07:50:01.000Z</time>
      </trkpt>
      <trkpt lat="47.26554" lon="-2.32035">
        <ele>11.60000038147</ele>
        <time>2019-05-30T07:50:04.000Z</time>
      </trkpt>
      <trkpt lat="47.26557" lon="-2.32034">
        <ele>12</ele>
        <time>2019-05-30T07:50:05.000Z</time>
      </trkpt>
      <trkpt lat="47.2656" lon="-2.32033">
        <ele>12.39999961853</ele>
        <time>2019-05-30T07:50:06.000Z</time>
      </trkpt>
      <trkpt lat="47.26563" lon="-2.32032">
        <ele>12.800000190735</ele>
        <time>2019-05-30T07:50:07.000Z</time>
      </trkpt>
      <trkpt lat="47.26566" lon="-2.32031">
        <ele>13.199999809265</ele>
        <time>2019-05-30T07:50:08.000Z</time>
      </trkpt>
      <trkpt lat="47.26576" lon="-2.32028">
        <ele>13.199999809265</ele>
        <time>2019-05-30T07:50:11.000Z</time>
      </trkpt>
      <trkpt lat="47.26595" lon="-2.3202">
        <ele>13.800000190735</ele>
        <time>2019-05-30T07:50:17.000Z</time>
      </trkpt>
      <trkpt lat="47.26599" lon="-2.32019">
        <ele>14.199999809265</ele>
        <time>2019-05-30T07:50:18.000Z</time>
      </trkpt>
      <trkpt lat="47.26602" lon="-2.32018">
        <ele>14.60000038147</ele>
        <time>2019-05-30T07:50:19.000Z</time>
      </trkpt>
      <trkpt lat="47.26606" lon="-2.32018">
        <ele>15</ele>
        <time>2019-05-30T07:50:20.000Z</time>
      </trkpt>
      <trkpt lat="47.26609" lon="-2.32017">
        <ele>15.39999961853</ele>
        <time>2019-05-30T07:50:21.000Z</time>
      </trkpt>
      <trkpt lat="47.26625" lon="-2.32011">
        <ele>15.39999961853</ele>
        <time>2019-05-30T07:50:26.000Z</time>
      </trkpt>
      <trkpt lat="47.2664" lon="-2.32005">
        <ele>15.39999961853</ele>
        <time>2019-05-30T07:50:32.000Z</time>
      </trkpt>
      <trkpt lat="47.26643" lon="-2.32006">
        <ele>15.39999961853</ele>
        <time>2019-05-30T07:50:35.000Z</time>
      </trkpt>
      <trkpt lat="47.26644" lon="-2.32009">
        <ele>15.39999961853</ele>
        <time>2019-05-30T07:50:54.000Z</time>
      </trkpt>
      <trkpt lat="47.2665" lon="-2.32028">
        <ele>15.39999961853</ele>
        <time>2019-05-30T07:50:59.000Z</time>
      </trkpt>
      <trkpt lat="47.2666" lon="-2.32071">
        <ele>15.39999961853</ele>
        <time>2019-05-30T07:51:06.000Z</time>
      </trkpt>
      <trkpt lat="47.26673" lon="-2.32119">
        <ele>15.39999961853</ele>
        <time>2019-05-30T07:51:14.000Z</time>
      </trkpt>
      <trkpt lat="47.26683" lon="-2.32158">
        <ele>15.39999961853</ele>
        <time>2019-05-30T07:51:21.000Z</time>
      </trkpt>
      <trkpt lat="47.26695" lon="-2.32209">
        <ele>15.39999961853</ele>
        <time>2019-05-30T07:51:29.000Z</time>
      </trkpt>
      <trkpt lat="47.26695" lon="-2.32216">
        <ele>15.39999961853</ele>
        <time>2019-05-30T07:51:30.000Z</time>
      </trkpt>
      <trkpt lat="47.26693" lon="-2.32238">
        <ele>15.39999961853</ele>
        <time>2019-05-30T07:51:33.000Z</time>
      </trkpt>
      <trkpt lat="47.26688" lon="-2.32264">
        <ele>15.39999961853</ele>
        <time>2019-05-30T07:51:37.000Z</time>
      </trkpt>
      <trkpt lat="47.26692" lon="-2.32283">
        <ele>15.39999961853</ele>
        <time>2019-05-30T07:51:40.000Z</time>
      </trkpt>
      <trkpt lat="47.26693" lon="-2.3229">
        <ele>15.39999961853</ele>
        <time>2019-05-30T07:51:41.000Z</time>
      </trkpt>
      <trkpt lat="47.26703" lon="-2.32329">
        <ele>15.39999961853</ele>
        <time>2019-05-30T07:51:46.000Z</time>
      </trkpt>
      <trkpt lat="47.26719" lon="-2.32376">
        <ele>15.39999961853</ele>
        <time>2019-05-30T07:51:52.000Z</time>
      </trkpt>
      <trkpt lat="47.26734" lon="-2.32387">
        <ele>15.39999961853</ele>
        <time>2019-05-30T07:51:55.000Z</time>
      </trkpt>
      <trkpt lat="47.2675" lon="-2.32378">
        <ele>15.39999961853</ele>
        <time>2019-05-30T07:51:58.000Z</time>
      </trkpt>
      <trkpt lat="47.26756" lon="-2.32376">
        <ele>15.39999961853</ele>
        <time>2019-05-30T07:51:59.000Z</time>
      </trkpt>
      <trkpt lat="47.26771" lon="-2.32375">
        <ele>15.39999961853</ele>
        <time>2019-05-30T07:52:02.000Z</time>
      </trkpt>
      <trkpt lat="47.26775" lon="-2.32379">
        <ele>15.39999961853</ele>
        <time>2019-05-30T07:52:03.000Z</time>
      </trkpt>
      <trkpt lat="47.26781" lon="-2.32396">
        <ele>15</ele>
        <time>2019-05-30T07:52:06.000Z</time>
      </trkpt>
      <trkpt lat="47.26783" lon="-2.32403">
        <ele>14.199999809265</ele>
        <time>2019-05-30T07:52:07.000Z</time>
      </trkpt>
      <trkpt lat="47.26784" lon="-2.32411">
        <ele>13.800000190735</ele>
        <time>2019-05-30T07:52:08.000Z</time>
      </trkpt>
      <trkpt lat="47.26785" lon="-2.3242">
        <ele>13.199999809265</ele>
        <time>2019-05-30T07:52:09.000Z</time>
      </trkpt>
      <trkpt lat="47.26788" lon="-2.32438">
        <ele>13.199999809265</ele>
        <time>2019-05-30T07:52:11.000Z</time>
      </trkpt>
      <trkpt lat="47.26794" lon="-2.32493">
        <ele>13.199999809265</ele>
        <time>2019-05-30T07:52:17.000Z</time>
      </trkpt>
      <trkpt lat="47.26799" lon="-2.32566">
        <ele>13.199999809265</ele>
        <time>2019-05-30T07:52:25.000Z</time>
      </trkpt>
      <trkpt lat="47.268" lon="-2.32583">
        <ele>12.800000190735</ele>
        <time>2019-05-30T07:52:27.000Z</time>
      </trkpt>
      <trkpt lat="47.26802" lon="-2.32591">
        <ele>12.39999961853</ele>
        <time>2019-05-30T07:52:28.000Z</time>
      </trkpt>
      <trkpt lat="47.26803" lon="-2.32599">
        <ele>12</ele>
        <time>2019-05-30T07:52:29.000Z</time>
      </trkpt>
      <trkpt lat="47.26804" lon="-2.32606">
        <ele>11.60000038147</ele>
        <time>2019-05-30T07:52:30.000Z</time>
      </trkpt>
      <trkpt lat="47.26806" lon="-2.32614">
        <ele>11.199999809265</ele>
        <time>2019-05-30T07:52:31.000Z</time>
      </trkpt>
      <trkpt lat="47.2681" lon="-2.32638">
        <ele>11.199999809265</ele>
        <time>2019-05-30T07:52:34.000Z</time>
      </trkpt>
      <trkpt lat="47.2681" lon="-2.32664">
        <ele>11.199999809265</ele>
        <time>2019-05-30T07:52:37.000Z</time>
      </trkpt>
      <trkpt lat="47.26804" lon="-2.32678">
        <ele>11.199999809265</ele>
        <time>2019-05-30T07:52:39.000Z</time>
      </trkpt>
      <trkpt lat="47.26802" lon="-2.32686">
        <ele>11.199999809265</ele>
        <time>2019-05-30T07:52:40.000Z</time>
      </trkpt>
      <trkpt lat="47.26808" lon="-2.3271">
        <ele>11.199999809265</ele>
        <time>2019-05-30T07:52:43.000Z</time>
      </trkpt>
      <trkpt lat="47.26815" lon="-2.32725">
        <ele>11.199999809265</ele>
        <time>2019-05-30T07:52:45.000Z</time>
      </trkpt>
      <trkpt lat="47.26829" lon="-2.32756">
        <ele>11.199999809265</ele>
        <time>2019-05-30T07:52:49.000Z</time>
      </trkpt>
      <trkpt lat="47.26838" lon="-2.32782">
        <ele>11.199999809265</ele>
        <time>2019-05-30T07:52:52.000Z</time>
      </trkpt>
      <trkpt lat="47.2684" lon="-2.32791">
        <ele>10.800000190735</ele>
        <time>2019-05-30T07:52:53.000Z</time>
      </trkpt>
      <trkpt lat="47.26843" lon="-2.32802">
        <ele>10.199999809265</ele>
        <time>2019-05-30T07:52:54.000Z</time>
      </trkpt>
      <trkpt lat="47.26846" lon="-2.32813">
        <ele>9.8000001907349</ele>
        <time>2019-05-30T07:52:55.000Z</time>
      </trkpt>
      <trkpt lat="47.26848" lon="-2.32823">
        <ele>8.6000003814697</ele>
        <time>2019-05-30T07:52:56.000Z</time>
      </trkpt>
      <trkpt lat="47.26851" lon="-2.32833">
        <ele>8</ele>
        <time>2019-05-30T07:52:57.000Z</time>
      </trkpt>
      <trkpt lat="47.26855" lon="-2.32843">
        <ele>7</ele>
        <time>2019-05-30T07:52:58.000Z</time>
      </trkpt>
      <trkpt lat="47.26858" lon="-2.32852">
        <ele>6.1999998092651</ele>
        <time>2019-05-30T07:52:59.000Z</time>
      </trkpt>
      <trkpt lat="47.26861" lon="-2.32861">
        <ele>5.4000000953674</ele>
        <time>2019-05-30T07:53:00.000Z</time>
      </trkpt>
      <trkpt lat="47.26863" lon="-2.32867">
        <ele>4.5999999046326</ele>
        <time>2019-05-30T07:53:01.000Z</time>
      </trkpt>
      <trkpt lat="47.26864" lon="-2.32873">
        <ele>3.7999999523163</ele>
        <time>2019-05-30T07:53:02.000Z</time>
      </trkpt>
      <trkpt lat="47.26864" lon="-2.32879">
        <ele>2.7999999523163</ele>
        <time>2019-05-30T07:53:03.000Z</time>
      </trkpt>
      <trkpt lat="47.26862" lon="-2.32884">
        <ele>2</ele>
        <time>2019-05-30T07:53:04.000Z</time>
      </trkpt>
      <trkpt lat="47.26858" lon="-2.32887">
        <ele>1.2000000476837</ele>
        <time>2019-05-30T07:53:05.000Z</time>
      </trkpt>
      <trkpt lat="47.26853" lon="-2.32889">
        <ele>1.2000000476837</ele>
        <time>2019-05-30T07:53:06.000Z</time>
      </trkpt>
      <trkpt lat="47.26848" lon="-2.3289">
        <ele>0.80000001192093</ele>
        <time>2019-05-30T07:53:07.000Z</time>
      </trkpt>
      <trkpt lat="47.26843" lon="-2.32893">
        <ele>0.20000000298023</ele>
        <time>2019-05-30T07:53:08.000Z</time>
      </trkpt>
      <trkpt lat="47.26837" lon="-2.32896">
        <ele>-0.20000000298023</ele>
        <time>2019-05-30T07:53:09.000Z</time>
      </trkpt>
      <trkpt lat="47.26832" lon="-2.329">
        <ele>-0.60000002384186</ele>
        <time>2019-05-30T07:53:10.000Z</time>
      </trkpt>
      <trkpt lat="47.26826" lon="-2.32905">
        <ele>-1</ele>
        <time>2019-05-30T07:53:11.000Z</time>
      </trkpt>
      <trkpt lat="47.26799" lon="-2.32927">
        <ele>-1</ele>
        <time>2019-05-30T07:53:16.000Z</time>
      </trkpt>
      <trkpt lat="47.26793" lon="-2.32931">
        <ele>-1</ele>
        <time>2019-05-30T07:53:17.000Z</time>
      </trkpt>
      <trkpt lat="47.26787" lon="-2.32935">
        <ele>-1</ele>
        <time>2019-05-30T07:53:18.000Z</time>
      </trkpt>
      <trkpt lat="47.26772" lon="-2.32952">
        <ele>-1</ele>
        <time>2019-05-30T07:53:21.000Z</time>
      </trkpt>
      <trkpt lat="47.26742" lon="-2.32984">
        <ele>-1</ele>
        <time>2019-05-30T07:53:27.000Z</time>
      </trkpt>
      <trkpt lat="47.26738" lon="-2.32991">
        <ele>-1</ele>
        <time>2019-05-30T07:53:28.000Z</time>
      </trkpt>
      <trkpt lat="47.26732" lon="-2.33014">
        <ele>-1</ele>
        <time>2019-05-30T07:53:31.000Z</time>
      </trkpt>
      <trkpt lat="47.26732" lon="-2.3302">
        <ele>-1</ele>
        <time>2019-05-30T07:53:32.000Z</time>
      </trkpt>
      <trkpt lat="47.26733" lon="-2.33029">
        <ele>-1</ele>
        <time>2019-05-30T07:53:34.000Z</time>
      </trkpt>
      <trkpt lat="47.26731" lon="-2.33041">
        <ele>-1</ele>
        <time>2019-05-30T07:53:37.000Z</time>
      </trkpt>
      <trkpt lat="47.26728" lon="-2.33051">
        <ele>-1</ele>
        <time>2019-05-30T07:53:40.000Z</time>
      </trkpt>
      <trkpt lat="47.26728" lon="-2.33056">
        <ele>-1</ele>
        <time>2019-05-30T07:53:42.000Z</time>
      </trkpt>
      <trkpt lat="47.26731" lon="-2.33061">
        <ele>-1</ele>
        <time>2019-05-30T07:53:44.000Z</time>
      </trkpt>
      <trkpt lat="47.26737" lon="-2.33067">
        <ele>-1</ele>
        <time>2019-05-30T07:53:46.000Z</time>
      </trkpt>
      <trkpt lat="47.26741" lon="-2.33069">
        <ele>-1</ele>
        <time>2019-05-30T07:53:48.000Z</time>
      </trkpt>
      <trkpt lat="47.26745" lon="-2.33069">
        <ele>-1</ele>
        <time>2019-05-30T07:53:50.000Z</time>
      </trkpt>
      <trkpt lat="47.26752" lon="-2.33063">
        <ele>-1</ele>
        <time>2019-05-30T07:53:52.000Z</time>
      </trkpt>
      <trkpt lat="47.26773" lon="-2.3304">
        <ele>-1</ele>
        <time>2019-05-30T07:53:58.000Z</time>
      </trkpt>
      <trkpt lat="47.26801" lon="-2.3301">
        <ele>-1</ele>
        <time>2019-05-30T07:54:05.000Z</time>
      </trkpt>
      <trkpt lat="47.26817" lon="-2.32995">
        <ele>-1</ele>
        <time>2019-05-30T07:54:10.000Z</time>
      </trkpt>
      <trkpt lat="47.26824" lon="-2.32987">
        <ele>-1</ele>
        <time>2019-05-30T07:54:12.000Z</time>
      </trkpt>
      <trkpt lat="47.26853" lon="-2.32958">
        <ele>-1</ele>
        <time>2019-05-30T07:54:19.000Z</time>
      </trkpt>
      <trkpt lat="47.2688" lon="-2.32931">
        <ele>-1</ele>
        <time>2019-05-30T07:54:25.000Z</time>
      </trkpt>
      <trkpt lat="47.26918" lon="-2.329">
        <ele>-1</ele>
        <time>2019-05-30T07:54:32.000Z</time>
      </trkpt>
      <trkpt lat="47.26923" lon="-2.32896">
        <ele>-1</ele>
        <time>2019-05-30T07:54:33.000Z</time>
      </trkpt>
      <trkpt lat="47.26946" lon="-2.32873">
        <ele>-1</ele>
        <time>2019-05-30T07:54:38.000Z</time>
      </trkpt>
      <trkpt lat="47.26972" lon="-2.32849">
        <ele>-1</ele>
        <time>2019-05-30T07:54:44.000Z</time>
      </trkpt>
      <trkpt lat="47.26977" lon="-2.32846">
        <ele>-1</ele>
        <time>2019-05-30T07:54:45.000Z</time>
      </trkpt>
      <trkpt lat="47.27001" lon="-2.32826">
        <ele>-1</ele>
        <time>2019-05-30T07:54:50.000Z</time>
      </trkpt>
      <trkpt lat="47.27028" lon="-2.32802">
        <ele>-1</ele>
        <time>2019-05-30T07:54:56.000Z</time>
      </trkpt>
      <trkpt lat="47.27045" lon="-2.32786">
        <ele>-0.60000002384186</ele>
        <time>2019-05-30T07:55:00.000Z</time>
      </trkpt>
      <trkpt lat="47.27049" lon="-2.32783">
        <ele>-0.20000000298023</ele>
        <time>2019-05-30T07:55:01.000Z</time>
      </trkpt>
      <trkpt lat="47.27053" lon="-2.32779">
        <ele>0.20000000298023</ele>
        <time>2019-05-30T07:55:02.000Z</time>
      </trkpt>
      <trkpt lat="47.27057" lon="-2.32775">
        <ele>0.60000002384186</ele>
        <time>2019-05-30T07:55:03.000Z</time>
      </trkpt>
      <trkpt lat="47.2706" lon="-2.32771">
        <ele>1</ele>
        <time>2019-05-30T07:55:04.000Z</time>
      </trkpt>
      <trkpt lat="47.27064" lon="-2.32767">
        <ele>1</ele>
        <time>2019-05-30T07:55:05.000Z</time>
      </trkpt>
      <trkpt lat="47.27086" lon="-2.32748">
        <ele>1</ele>
        <time>2019-05-30T07:55:10.000Z</time>
      </trkpt>
      <trkpt lat="47.2711" lon="-2.32724">
        <ele>1</ele>
        <time>2019-05-30T07:55:16.000Z</time>
      </trkpt>
      <trkpt lat="47.27118" lon="-2.32716">
        <ele>1</ele>
        <time>2019-05-30T07:55:18.000Z</time>
      </trkpt>
      <trkpt lat="47.27128" lon="-2.32707">
        <ele>1</ele>
        <time>2019-05-30T07:55:21.000Z</time>
      </trkpt>
      <trkpt lat="47.27132" lon="-2.32698">
        <ele>1</ele>
        <time>2019-05-30T07:55:23.000Z</time>
      </trkpt>
      <trkpt lat="47.27134" lon="-2.32694">
        <ele>1</ele>
        <time>2019-05-30T07:55:24.000Z</time>
      </trkpt>
      <trkpt lat="47.27145" lon="-2.32682">
        <ele>1</ele>
        <time>2019-05-30T07:55:28.000Z</time>
      </trkpt>
      <trkpt lat="47.27156" lon="-2.32671">
        <ele>1</ele>
        <time>2019-05-30T07:55:32.000Z</time>
      </trkpt>
      <trkpt lat="47.27162" lon="-2.32667">
        <ele>1</ele>
        <time>2019-05-30T07:55:34.000Z</time>
      </trkpt>
      <trkpt lat="47.27179" lon="-2.32652">
        <ele>1.3999999761581</ele>
        <time>2019-05-30T07:55:39.000Z</time>
      </trkpt>
      <trkpt lat="47.27182" lon="-2.32648">
        <ele>1.7999999523163</ele>
        <time>2019-05-30T07:55:40.000Z</time>
      </trkpt>
      <trkpt lat="47.27186" lon="-2.32645">
        <ele>2.2000000476837</ele>
        <time>2019-05-30T07:55:41.000Z</time>
      </trkpt>
      <trkpt lat="47.2719" lon="-2.32641">
        <ele>2.5999999046326</ele>
        <time>2019-05-30T07:55:42.000Z</time>
      </trkpt>
      <trkpt lat="47.27193" lon="-2.32637">
        <ele>3</ele>
        <time>2019-05-30T07:55:43.000Z</time>
      </trkpt>
      <trkpt lat="47.27208" lon="-2.32622">
        <ele>3</ele>
        <time>2019-05-30T07:55:47.000Z</time>
      </trkpt>
      <trkpt lat="47.27231" lon="-2.326">
        <ele>3</ele>
        <time>2019-05-30T07:55:54.000Z</time>
      </trkpt>
      <trkpt lat="47.27246" lon="-2.32582">
        <ele>3</ele>
        <time>2019-05-30T07:55:59.000Z</time>
      </trkpt>
      <trkpt lat="47.27268" lon="-2.32559">
        <ele>3</ele>
        <time>2019-05-30T07:56:05.000Z</time>
      </trkpt>
      <trkpt lat="47.27287" lon="-2.32534">
        <ele>3</ele>
        <time>2019-05-30T07:56:11.000Z</time>
      </trkpt>
      <trkpt lat="47.2729" lon="-2.3253">
        <ele>3</ele>
        <time>2019-05-30T07:56:12.000Z</time>
      </trkpt>
      <trkpt lat="47.27303" lon="-2.32511">
        <ele>3</ele>
        <time>2019-05-30T07:56:16.000Z</time>
      </trkpt>
      <trkpt lat="47.27309" lon="-2.32501">
        <ele>3</ele>
        <time>2019-05-30T07:56:18.000Z</time>
      </trkpt>
      <trkpt lat="47.27325" lon="-2.32475">
        <ele>3</ele>
        <time>2019-05-30T07:56:23.000Z</time>
      </trkpt>
      <trkpt lat="47.27329" lon="-2.32471">
        <ele>3</ele>
        <time>2019-05-30T07:56:24.000Z</time>
      </trkpt>
      <trkpt lat="47.27334" lon="-2.32459">
        <ele>2.5999999046326</ele>
        <time>2019-05-30T07:56:26.000Z</time>
      </trkpt>
      <trkpt lat="47.27337" lon="-2.32452">
        <ele>2.2000000476837</ele>
        <time>2019-05-30T07:56:27.000Z</time>
      </trkpt>
      <trkpt lat="47.2734" lon="-2.32444">
        <ele>1.7999999523163</ele>
        <time>2019-05-30T07:56:28.000Z</time>
      </trkpt>
      <trkpt lat="47.27343" lon="-2.32437">
        <ele>1.2000000476837</ele>
        <time>2019-05-30T07:56:29.000Z</time>
      </trkpt>
      <trkpt lat="47.27345" lon="-2.32429">
        <ele>0.80000001192093</ele>
        <time>2019-05-30T07:56:30.000Z</time>
      </trkpt>
      <trkpt lat="47.27351" lon="-2.32414">
        <ele>0.80000001192093</ele>
        <time>2019-05-30T07:56:32.000Z</time>
      </trkpt>
      <trkpt lat="47.27357" lon="-2.32392">
        <ele>0.80000001192093</ele>
        <time>2019-05-30T07:56:35.000Z</time>
      </trkpt>
      <trkpt lat="47.27359" lon="-2.32377">
        <ele>0.80000001192093</ele>
        <time>2019-05-30T07:56:37.000Z</time>
      </trkpt>
      <trkpt lat="47.27363" lon="-2.32362">
        <ele>0.80000001192093</ele>
        <time>2019-05-30T07:56:40.000Z</time>
      </trkpt>
      <trkpt lat="47.27369" lon="-2.32329">
        <ele>1.2000000476837</ele>
        <time>2019-05-30T07:56:46.000Z</time>
      </trkpt>
      <trkpt lat="47.2737" lon="-2.32323">
        <ele>1.7999999523163</ele>
        <time>2019-05-30T07:56:47.000Z</time>
      </trkpt>
      <trkpt lat="47.27371" lon="-2.32316">
        <ele>2.2000000476837</ele>
        <time>2019-05-30T07:56:48.000Z</time>
      </trkpt>
      <trkpt lat="47.27373" lon="-2.3231">
        <ele>2.5999999046326</ele>
        <time>2019-05-30T07:56:49.000Z</time>
      </trkpt>
      <trkpt lat="47.27374" lon="-2.32303">
        <ele>3</ele>
        <time>2019-05-30T07:56:50.000Z</time>
      </trkpt>
      <trkpt lat="47.27376" lon="-2.32289">
        <ele>3</ele>
        <time>2019-05-30T07:56:52.000Z</time>
      </trkpt>
      <trkpt lat="47.27378" lon="-2.32281">
        <ele>3</ele>
        <time>2019-05-30T07:56:53.000Z</time>
      </trkpt>
      <trkpt lat="47.2738" lon="-2.32273">
        <ele>3</ele>
        <time>2019-05-30T07:56:54.000Z</time>
      </trkpt>
      <trkpt lat="47.27388" lon="-2.32247">
        <ele>3</ele>
        <time>2019-05-30T07:56:57.000Z</time>
      </trkpt>
      <trkpt lat="47.27392" lon="-2.32228">
        <ele>3</ele>
        <time>2019-05-30T07:56:59.000Z</time>
      </trkpt>
      <trkpt lat="47.27395" lon="-2.322">
        <ele>3</ele>
        <time>2019-05-30T07:57:02.000Z</time>
      </trkpt>
      <trkpt lat="47.27398" lon="-2.32173">
        <ele>2.5999999046326</ele>
        <time>2019-05-30T07:57:05.000Z</time>
      </trkpt>
      <trkpt lat="47.27399" lon="-2.32164">
        <ele>2.2000000476837</ele>
        <time>2019-05-30T07:57:06.000Z</time>
      </trkpt>
      <trkpt lat="47.274" lon="-2.32155">
        <ele>1.7999999523163</ele>
        <time>2019-05-30T07:57:07.000Z</time>
      </trkpt>
      <trkpt lat="47.27401" lon="-2.32147">
        <ele>1.3999999761581</ele>
        <time>2019-05-30T07:57:08.000Z</time>
      </trkpt>
      <trkpt lat="47.27402" lon="-2.32139">
        <ele>1</ele>
        <time>2019-05-30T07:57:09.000Z</time>
      </trkpt>
      <trkpt lat="47.27405" lon="-2.32105">
        <ele>1</ele>
        <time>2019-05-30T07:57:13.000Z</time>
      </trkpt>
      <trkpt lat="47.27404" lon="-2.32096">
        <ele>1</ele>
        <time>2019-05-30T07:57:14.000Z</time>
      </trkpt>
      <trkpt lat="47.27394" lon="-2.3207">
        <ele>1</ele>
        <time>2019-05-30T07:57:18.000Z</time>
      </trkpt>
      <trkpt lat="47.27372" lon="-2.3204">
        <ele>1</ele>
        <time>2019-05-30T07:57:24.000Z</time>
      </trkpt>
      <trkpt lat="47.2737" lon="-2.32035">
        <ele>1</ele>
        <time>2019-05-30T07:57:25.000Z</time>
      </trkpt>
      <trkpt lat="47.27361" lon="-2.32024">
        <ele>1</ele>
        <time>2019-05-30T07:57:28.000Z</time>
      </trkpt>
      <trkpt lat="47.27353" lon="-2.32012">
        <ele>1</ele>
        <time>2019-05-30T07:57:33.000Z</time>
      </trkpt>
      <trkpt lat="47.27352" lon="-2.32009">
        <ele>1</ele>
        <time>2019-05-30T07:57:36.000Z</time>
      </trkpt>
      <trkpt lat="47.27355" lon="-2.32005">
        <ele>1</ele>
        <time>2019-05-30T07:57:52.000Z</time>
      </trkpt>
      <trkpt lat="47.27357" lon="-2.32006">
        <ele>1</ele>
        <time>2019-05-30T07:57:53.000Z</time>
      </trkpt>
      <trkpt lat="47.27364" lon="-2.32012">
        <ele>1</ele>
        <time>2019-05-30T07:57:56.000Z</time>
      </trkpt>
      <trkpt lat="47.27367" lon="-2.32016">
        <ele>1</ele>
        <time>2019-05-30T07:57:57.000Z</time>
      </trkpt>
      <trkpt lat="47.27383" lon="-2.32031">
        <ele>1</ele>
        <time>2019-05-30T07:58:02.000Z</time>
      </trkpt>
      <trkpt lat="47.27402" lon="-2.32051">
        <ele>1.3999999761581</ele>
        <time>2019-05-30T07:58:08.000Z</time>
      </trkpt>
      <trkpt lat="47.27404" lon="-2.32055">
        <ele>1.7999999523163</ele>
        <time>2019-05-30T07:58:09.000Z</time>
      </trkpt>
      <trkpt lat="47.27407" lon="-2.32059">
        <ele>2.2000000476837</ele>
        <time>2019-05-30T07:58:10.000Z</time>
      </trkpt>
      <trkpt lat="47.2741" lon="-2.32062">
        <ele>2.5999999046326</ele>
        <time>2019-05-30T07:58:11.000Z</time>
      </trkpt>
      <trkpt lat="47.27413" lon="-2.32064">
        <ele>3</ele>
        <time>2019-05-30T07:58:12.000Z</time>
      </trkpt>
      <trkpt lat="47.27422" lon="-2.32073">
        <ele>3</ele>
        <time>2019-05-30T07:58:15.000Z</time>
      </trkpt>
      <trkpt lat="47.27432" lon="-2.32085">
        <ele>3.4000000953674</ele>
        <time>2019-05-30T07:58:18.000Z</time>
      </trkpt>
      <trkpt lat="47.27435" lon="-2.32088">
        <ele>4.1999998092651</ele>
        <time>2019-05-30T07:58:19.000Z</time>
      </trkpt>
      <trkpt lat="47.27439" lon="-2.32093">
        <ele>4.5999999046326</ele>
        <time>2019-05-30T07:58:20.000Z</time>
      </trkpt>
      <trkpt lat="47.27442" lon="-2.32097">
        <ele>5.1999998092651</ele>
        <time>2019-05-30T07:58:21.000Z</time>
      </trkpt>
      <trkpt lat="47.27445" lon="-2.32102">
        <ele>5.1999998092651</ele>
        <time>2019-05-30T07:58:22.000Z</time>
      </trkpt>
      <trkpt lat="47.27474" lon="-2.32139">
        <ele>5.1999998092651</ele>
        <time>2019-05-30T07:58:30.000Z</time>
      </trkpt>
      <trkpt lat="47.27477" lon="-2.32144">
        <ele>5.5999999046326</ele>
        <time>2019-05-30T07:58:31.000Z</time>
      </trkpt>
      <trkpt lat="47.27481" lon="-2.3215">
        <ele>6</ele>
        <time>2019-05-30T07:58:32.000Z</time>
      </trkpt>
      <trkpt lat="47.27485" lon="-2.32155">
        <ele>6.5999999046326</ele>
        <time>2019-05-30T07:58:33.000Z</time>
      </trkpt>
      <trkpt lat="47.27489" lon="-2.3216">
        <ele>7</ele>
        <time>2019-05-30T07:58:34.000Z</time>
      </trkpt>
      <trkpt lat="47.27493" lon="-2.32165">
        <ele>7.4000000953674</ele>
        <time>2019-05-30T07:58:35.000Z</time>
      </trkpt>
      <trkpt lat="47.27506" lon="-2.32184">
        <ele>7.4000000953674</ele>
        <time>2019-05-30T07:58:40.000Z</time>
      </trkpt>
      <trkpt lat="47.27522" lon="-2.32205">
        <ele>7.4000000953674</ele>
        <time>2019-05-30T07:58:48.000Z</time>
      </trkpt>
      <trkpt lat="47.27536" lon="-2.32216">
        <ele>7.4000000953674</ele>
        <time>2019-05-30T07:58:53.000Z</time>
      </trkpt>
      <trkpt lat="47.27545" lon="-2.32227">
        <ele>7.8000001907349</ele>
        <time>2019-05-30T07:58:58.000Z</time>
      </trkpt>
      <trkpt lat="47.27548" lon="-2.32229">
        <ele>8.1999998092651</ele>
        <time>2019-05-30T07:58:59.000Z</time>
      </trkpt>
      <trkpt lat="47.2755" lon="-2.3223">
        <ele>8.6000003814697</ele>
        <time>2019-05-30T07:59:00.000Z</time>
      </trkpt>
      <trkpt lat="47.27552" lon="-2.32233">
        <ele>9</ele>
        <time>2019-05-30T07:59:01.000Z</time>
      </trkpt>
      <trkpt lat="47.27554" lon="-2.32235">
        <ele>9.3999996185303</ele>
        <time>2019-05-30T07:59:02.000Z</time>
      </trkpt>
      <trkpt lat="47.27559" lon="-2.32239">
        <ele>9.3999996185303</ele>
        <time>2019-05-30T07:59:04.000Z</time>
      </trkpt>
      <trkpt lat="47.27583" lon="-2.3226">
        <ele>10</ele>
        <time>2019-05-30T07:59:13.000Z</time>
      </trkpt>
      <trkpt lat="47.27585" lon="-2.32262">
        <ele>10.39999961853</ele>
        <time>2019-05-30T07:59:14.000Z</time>
      </trkpt>
      <trkpt lat="47.27588" lon="-2.32265">
        <ele>10.800000190735</ele>
        <time>2019-05-30T07:59:15.000Z</time>
      </trkpt>
      <trkpt lat="47.2759" lon="-2.32268">
        <ele>11.199999809265</ele>
        <time>2019-05-30T07:59:16.000Z</time>
      </trkpt>
      <trkpt lat="47.27593" lon="-2.32271">
        <ele>11.60000038147</ele>
        <time>2019-05-30T07:59:17.000Z</time>
      </trkpt>
      <trkpt lat="47.27601" lon="-2.32275">
        <ele>11.60000038147</ele>
        <time>2019-05-30T07:59:20.000Z</time>
      </trkpt>
      <trkpt lat="47.27604" lon="-2.32276">
        <ele>12</ele>
        <time>2019-05-30T07:59:21.000Z</time>
      </trkpt>
      <trkpt lat="47.27606" lon="-2.32278">
        <ele>12.60000038147</ele>
        <time>2019-05-30T07:59:22.000Z</time>
      </trkpt>
      <trkpt lat="47.27608" lon="-2.32279">
        <ele>13</ele>
        <time>2019-05-30T07:59:23.000Z</time>
      </trkpt>
      <trkpt lat="47.27609" lon="-2.3228">
        <ele>13.39999961853</ele>
        <time>2019-05-30T07:59:24.000Z</time>
      </trkpt>
      <trkpt lat="47.27611" lon="-2.32282">
        <ele>13.800000190735</ele>
        <time>2019-05-30T07:59:25.000Z</time>
      </trkpt>
      <trkpt lat="47.27614" lon="-2.32287">
        <ele>13.800000190735</ele>
        <time>2019-05-30T07:59:27.000Z</time>
      </trkpt>
      <trkpt lat="47.27613" lon="-2.32296">
        <ele>13.800000190735</ele>
        <time>2019-05-30T07:59:30.000Z</time>
      </trkpt>
      <trkpt lat="47.27611" lon="-2.323">
        <ele>13.800000190735</ele>
        <time>2019-05-30T07:59:34.000Z</time>
      </trkpt>
      <trkpt lat="47.2761" lon="-2.32301">
        <ele>13.800000190735</ele>
        <time>2019-05-30T08:00:07.000Z</time>
      </trkpt>
      <trkpt lat="47.27607" lon="-2.32309">
        <ele>13.800000190735</ele>
        <time>2019-05-30T08:00:09.000Z</time>
      </trkpt>
      <trkpt lat="47.27599" lon="-2.32331">
        <ele>13.800000190735</ele>
        <time>2019-05-30T08:00:13.000Z</time>
      </trkpt>
      <trkpt lat="47.27585" lon="-2.32368">
        <ele>13.800000190735</ele>
        <time>2019-05-30T08:00:18.000Z</time>
      </trkpt>
      <trkpt lat="47.2758" lon="-2.32384">
        <ele>13.800000190735</ele>
        <time>2019-05-30T08:00:20.000Z</time>
      </trkpt>
      <trkpt lat="47.27579" lon="-2.324">
        <ele>13.800000190735</ele>
        <time>2019-05-30T08:00:22.000Z</time>
      </trkpt>
      <trkpt lat="47.27585" lon="-2.32422">
        <ele>13.800000190735</ele>
        <time>2019-05-30T08:00:25.000Z</time>
      </trkpt>
      <trkpt lat="47.27601" lon="-2.32444">
        <ele>13.800000190735</ele>
        <time>2019-05-30T08:00:29.000Z</time>
      </trkpt>
      <trkpt lat="47.27614" lon="-2.32461">
        <ele>13.800000190735</ele>
        <time>2019-05-30T08:00:32.000Z</time>
      </trkpt>
      <trkpt lat="47.2762" lon="-2.32474">
        <ele>13.800000190735</ele>
        <time>2019-05-30T08:00:34.000Z</time>
      </trkpt>
      <trkpt lat="47.27622" lon="-2.32481">
        <ele>13.800000190735</ele>
        <time>2019-05-30T08:00:35.000Z</time>
      </trkpt>
      <trkpt lat="47.27636" lon="-2.32532">
        <ele>13.800000190735</ele>
        <time>2019-05-30T08:00:41.000Z</time>
      </trkpt>
      <trkpt lat="47.27649" lon="-2.32593">
        <ele>13.39999961853</ele>
        <time>2019-05-30T08:00:47.000Z</time>
      </trkpt>
      <trkpt lat="47.27652" lon="-2.32603">
        <ele>12.800000190735</ele>
        <time>2019-05-30T08:00:48.000Z</time>
      </trkpt>
      <trkpt lat="47.27656" lon="-2.32614">
        <ele>12.39999961853</ele>
        <time>2019-05-30T08:00:49.000Z</time>
      </trkpt>
      <trkpt lat="47.27661" lon="-2.32626">
        <ele>12</ele>
        <time>2019-05-30T08:00:50.000Z</time>
      </trkpt>
      <trkpt lat="47.27665" lon="-2.32638">
        <ele>11.60000038147</ele>
        <time>2019-05-30T08:00:51.000Z</time>
      </trkpt>
      <trkpt lat="47.2767" lon="-2.3265">
        <ele>11.199999809265</ele>
        <time>2019-05-30T08:00:52.000Z</time>
      </trkpt>
      <trkpt lat="47.27675" lon="-2.32661">
        <ele>10.800000190735</ele>
        <time>2019-05-30T08:00:53.000Z</time>
      </trkpt>
      <trkpt lat="47.2768" lon="-2.32673">
        <ele>10.39999961853</ele>
        <time>2019-05-30T08:00:54.000Z</time>
      </trkpt>
      <trkpt lat="47.27685" lon="-2.32685">
        <ele>9.8000001907349</ele>
        <time>2019-05-30T08:00:55.000Z</time>
      </trkpt>
      <trkpt lat="47.2769" lon="-2.32694">
        <ele>9.3999996185303</ele>
        <time>2019-05-30T08:00:56.000Z</time>
      </trkpt>
      <trkpt lat="47.27694" lon="-2.32702">
        <ele>8.8000001907349</ele>
        <time>2019-05-30T08:00:57.000Z</time>
      </trkpt>
      <trkpt lat="47.27698" lon="-2.3271">
        <ele>8.3999996185303</ele>
        <time>2019-05-30T08:00:58.000Z</time>
      </trkpt>
      <trkpt lat="47.27701" lon="-2.32715">
        <ele>7.5999999046326</ele>
        <time>2019-05-30T08:00:59.000Z</time>
      </trkpt>
      <trkpt lat="47.27703" lon="-2.32717">
        <ele>7</ele>
        <time>2019-05-30T08:01:00.000Z</time>
      </trkpt>
      <trkpt lat="47.27706" lon="-2.32716">
        <ele>6.1999998092651</ele>
        <time>2019-05-30T08:01:01.000Z</time>
      </trkpt>
      <trkpt lat="47.27708" lon="-2.32714">
        <ele>5.5999999046326</ele>
        <time>2019-05-30T08:01:02.000Z</time>
      </trkpt>
      <trkpt lat="47.27709" lon="-2.32714">
        <ele>4.8000001907349</ele>
        <time>2019-05-30T08:01:03.000Z</time>
      </trkpt>
      <trkpt lat="47.27713" lon="-2.327">
        <ele>4.8000001907349</ele>
        <time>2019-05-30T08:01:08.000Z</time>
      </trkpt>
      <trkpt lat="47.27718" lon="-2.32691">
        <ele>4.8000001907349</ele>
        <time>2019-05-30T08:01:13.000Z</time>
      </trkpt>
      <trkpt lat="47.2772" lon="-2.32688">
        <ele>4.8000001907349</ele>
        <time>2019-05-30T08:01:15.000Z</time>
      </trkpt>
      <trkpt lat="47.27725" lon="-2.32675">
        <ele>4.8000001907349</ele>
        <time>2019-05-30T08:01:19.000Z</time>
      </trkpt>
      <trkpt lat="47.27727" lon="-2.32672">
        <ele>5.4000000953674</ele>
        <time>2019-05-30T08:01:20.000Z</time>
      </trkpt>
      <trkpt lat="47.27727" lon="-2.32669">
        <ele>5.8000001907349</ele>
        <time>2019-05-30T08:01:21.000Z</time>
      </trkpt>
      <trkpt lat="47.27728" lon="-2.32667">
        <ele>6.1999998092651</ele>
        <time>2019-05-30T08:01:22.000Z</time>
      </trkpt>
      <trkpt lat="47.27729" lon="-2.32664">
        <ele>6.5999999046326</ele>
        <time>2019-05-30T08:01:23.000Z</time>
      </trkpt>
      <trkpt lat="47.2773" lon="-2.32662">
        <ele>7.1999998092651</ele>
        <time>2019-05-30T08:01:24.000Z</time>
      </trkpt>
      <trkpt lat="47.27733" lon="-2.32654">
        <ele>7.5999999046326</ele>
        <time>2019-05-30T08:01:27.000Z</time>
      </trkpt>
      <trkpt lat="47.27734" lon="-2.32651">
        <ele>8</ele>
        <time>2019-05-30T08:01:28.000Z</time>
      </trkpt>
      <trkpt lat="47.27735" lon="-2.32647">
        <ele>8.3999996185303</ele>
        <time>2019-05-30T08:01:29.000Z</time>
      </trkpt>
      <trkpt lat="47.27736" lon="-2.32644">
        <ele>9</ele>
        <time>2019-05-30T08:01:30.000Z</time>
      </trkpt>
      <trkpt lat="47.27737" lon="-2.32641">
        <ele>9.3999996185303</ele>
        <time>2019-05-30T08:01:31.000Z</time>
      </trkpt>
      <trkpt lat="47.27742" lon="-2.3263">
        <ele>9.8000001907349</ele>
        <time>2019-05-30T08:01:35.000Z</time>
      </trkpt>
      <trkpt lat="47.27744" lon="-2.32627">
        <ele>10.60000038147</ele>
        <time>2019-05-30T08:01:36.000Z</time>
      </trkpt>
      <trkpt lat="47.27746" lon="-2.32622">
        <ele>11</ele>
        <time>2019-05-30T08:01:37.000Z</time>
      </trkpt>
      <trkpt lat="47.27748" lon="-2.32619">
        <ele>11.39999961853</ele>
        <time>2019-05-30T08:01:38.000Z</time>
      </trkpt>
      <trkpt lat="47.27759" lon="-2.32598">
        <ele>11.39999961853</ele>
        <time>2019-05-30T08:01:43.000Z</time>
      </trkpt>
      <trkpt lat="47.27777" lon="-2.32569">
        <ele>11.800000190735</ele>
        <time>2019-05-30T08:01:50.000Z</time>
      </trkpt>
      <trkpt lat="47.2778" lon="-2.32565">
        <ele>12.199999809265</ele>
        <time>2019-05-30T08:01:51.000Z</time>
      </trkpt>
      <trkpt lat="47.27784" lon="-2.32561">
        <ele>12.60000038147</ele>
        <time>2019-05-30T08:01:52.000Z</time>
      </trkpt>
      <trkpt lat="47.27786" lon="-2.32558">
        <ele>13</ele>
        <time>2019-05-30T08:01:53.000Z</time>
      </trkpt>
      <trkpt lat="47.27788" lon="-2.32554">
        <ele>13.60000038147</ele>
        <time>2019-05-30T08:01:54.000Z</time>
      </trkpt>
      <trkpt lat="47.27791" lon="-2.32551">
        <ele>13.60000038147</ele>
        <time>2019-05-30T08:01:55.000Z</time>
      </trkpt>
      <trkpt lat="47.278" lon="-2.32535">
        <ele>13.60000038147</ele>
        <time>2019-05-30T08:02:00.000Z</time>
      </trkpt>
      <trkpt lat="47.27811" lon="-2.3251">
        <ele>13.60000038147</ele>
        <time>2019-05-30T08:02:06.000Z</time>
      </trkpt>
      <trkpt lat="47.27819" lon="-2.32491">
        <ele>13.60000038147</ele>
        <time>2019-05-30T08:02:10.000Z</time>
      </trkpt>
      <trkpt lat="47.2783" lon="-2.32476">
        <ele>13.60000038147</ele>
        <time>2019-05-30T08:02:15.000Z</time>
      </trkpt>
      <trkpt lat="47.27842" lon="-2.32463">
        <ele>13.60000038147</ele>
        <time>2019-05-30T08:02:20.000Z</time>
      </trkpt>
      <trkpt lat="47.27852" lon="-2.32452">
        <ele>13.60000038147</ele>
        <time>2019-05-30T08:02:24.000Z</time>
      </trkpt>
      <trkpt lat="47.27854" lon="-2.32447">
        <ele>13.60000038147</ele>
        <time>2019-05-30T08:02:25.000Z</time>
      </trkpt>
      <trkpt lat="47.27863" lon="-2.32436">
        <ele>13.60000038147</ele>
        <time>2019-05-30T08:02:28.000Z</time>
      </trkpt>
      <trkpt lat="47.27871" lon="-2.32424">
        <ele>13.60000038147</ele>
        <time>2019-05-30T08:02:31.000Z</time>
      </trkpt>
      <trkpt lat="47.27873" lon="-2.32419">
        <ele>13.60000038147</ele>
        <time>2019-05-30T08:02:32.000Z</time>
      </trkpt>
      <trkpt lat="47.27884" lon="-2.32402">
        <ele>13.60000038147</ele>
        <time>2019-05-30T08:02:37.000Z</time>
      </trkpt>
      <trkpt lat="47.27886" lon="-2.32394">
        <ele>13.60000038147</ele>
        <time>2019-05-30T08:02:41.000Z</time>
      </trkpt>
      <trkpt lat="47.27889" lon="-2.32391">
        <ele>13.60000038147</ele>
        <time>2019-05-30T08:02:45.000Z</time>
      </trkpt>
      <trkpt lat="47.27907" lon="-2.32389">
        <ele>13.60000038147</ele>
        <time>2019-05-30T08:03:14.000Z</time>
      </trkpt>
      <trkpt lat="47.2791" lon="-2.3239">
        <ele>13.60000038147</ele>
        <time>2019-05-30T08:03:15.000Z</time>
      </trkpt>
      <trkpt lat="47.27925" lon="-2.32396">
        <ele>13.60000038147</ele>
        <time>2019-05-30T08:03:21.000Z</time>
      </trkpt>
      <trkpt lat="47.27942" lon="-2.32399">
        <ele>13.60000038147</ele>
        <time>2019-05-30T08:03:26.000Z</time>
      </trkpt>
      <trkpt lat="47.27972" lon="-2.32408">
        <ele>13.60000038147</ele>
        <time>2019-05-30T08:03:31.000Z</time>
      </trkpt>
      <trkpt lat="47.28024" lon="-2.32425">
        <ele>13.60000038147</ele>
        <time>2019-05-30T08:03:38.000Z</time>
      </trkpt>
      <trkpt lat="47.28056" lon="-2.32429">
        <ele>13.60000038147</ele>
        <time>2019-05-30T08:03:43.000Z</time>
      </trkpt>
      <trkpt lat="47.28061" lon="-2.32428">
        <ele>13.60000038147</ele>
        <time>2019-05-30T08:03:44.000Z</time>
      </trkpt>
      <trkpt lat="47.28072" lon="-2.32428">
        <ele>13.60000038147</ele>
        <time>2019-05-30T08:03:46.000Z</time>
      </trkpt>
      <trkpt lat="47.28082" lon="-2.32431">
        <ele>13.60000038147</ele>
        <time>2019-05-30T08:03:48.000Z</time>
      </trkpt>
      <trkpt lat="47.28085" lon="-2.32432">
        <ele>13.60000038147</ele>
        <time>2019-05-30T08:03:49.000Z</time>
      </trkpt>
      <trkpt lat="47.28094" lon="-2.32441">
        <ele>13.60000038147</ele>
        <time>2019-05-30T08:03:53.000Z</time>
      </trkpt>
      <trkpt lat="47.28097" lon="-2.32444">
        <ele>13.60000038147</ele>
        <time>2019-05-30T08:03:55.000Z</time>
      </trkpt>
      <trkpt lat="47.28101" lon="-2.32446">
        <ele>13.60000038147</ele>
        <time>2019-05-30T08:03:58.000Z</time>
      </trkpt>
      <trkpt lat="47.28107" lon="-2.3245">
        <ele>13</ele>
        <time>2019-05-30T08:04:01.000Z</time>
      </trkpt>
      <trkpt lat="47.2811" lon="-2.32452">
        <ele>12.60000038147</ele>
        <time>2019-05-30T08:04:02.000Z</time>
      </trkpt>
      <trkpt lat="47.28114" lon="-2.32453">
        <ele>12.199999809265</ele>
        <time>2019-05-30T08:04:03.000Z</time>
      </trkpt>
      <trkpt lat="47.28118" lon="-2.32454">
        <ele>11.39999961853</ele>
        <time>2019-05-30T08:04:04.000Z</time>
      </trkpt>
      <trkpt lat="47.28129" lon="-2.32454">
        <ele>11.39999961853</ele>
        <time>2019-05-30T08:04:06.000Z</time>
      </trkpt>
      <trkpt lat="47.28134" lon="-2.32453">
        <ele>11.39999961853</ele>
        <time>2019-05-30T08:04:07.000Z</time>
      </trkpt>
      <trkpt lat="47.28168" lon="-2.32449">
        <ele>11.39999961853</ele>
        <time>2019-05-30T08:04:13.000Z</time>
      </trkpt>
      <trkpt lat="47.28179" lon="-2.3245">
        <ele>11.39999961853</ele>
        <time>2019-05-30T08:04:15.000Z</time>
      </trkpt>
      <trkpt lat="47.282" lon="-2.32456">
        <ele>11.39999961853</ele>
        <time>2019-05-30T08:04:18.000Z</time>
      </trkpt>
      <trkpt lat="47.28213" lon="-2.32463">
        <ele>11.39999961853</ele>
        <time>2019-05-30T08:04:20.000Z</time>
      </trkpt>
      <trkpt lat="47.28238" lon="-2.3249">
        <ele>11.39999961853</ele>
        <time>2019-05-30T08:04:25.000Z</time>
      </trkpt>
      <trkpt lat="47.28248" lon="-2.32501">
        <ele>11.39999961853</ele>
        <time>2019-05-30T08:04:27.000Z</time>
      </trkpt>
      <trkpt lat="47.2826" lon="-2.32516">
        <ele>11.39999961853</ele>
        <time>2019-05-30T08:04:30.000Z</time>
      </trkpt>
      <trkpt lat="47.28278" lon="-2.32521">
        <ele>11.39999961853</ele>
        <time>2019-05-30T08:04:33.000Z</time>
      </trkpt>
      <trkpt lat="47.28284" lon="-2.32521">
        <ele>11.39999961853</ele>
        <time>2019-05-30T08:04:34.000Z</time>
      </trkpt>
      <trkpt lat="47.28321" lon="-2.32522">
        <ele>11.39999961853</ele>
        <time>2019-05-30T08:04:40.000Z</time>
      </trkpt>
      <trkpt lat="47.28348" lon="-2.32523">
        <ele>11.39999961853</ele>
        <time>2019-05-30T08:04:45.000Z</time>
      </trkpt>
      <trkpt lat="47.28354" lon="-2.32527">
        <ele>11.39999961853</ele>
        <time>2019-05-30T08:04:47.000Z</time>
      </trkpt>
      <trkpt lat="47.28355" lon="-2.32531">
        <ele>11.39999961853</ele>
        <time>2019-05-30T08:04:48.000Z</time>
      </trkpt>
      <trkpt lat="47.28357" lon="-2.32544">
        <ele>11.39999961853</ele>
        <time>2019-05-30T08:04:51.000Z</time>
      </trkpt>
      <trkpt lat="47.28358" lon="-2.32555">
        <ele>11.39999961853</ele>
        <time>2019-05-30T08:04:53.000Z</time>
      </trkpt>
      <trkpt lat="47.28359" lon="-2.32567">
        <ele>11.39999961853</ele>
        <time>2019-05-30T08:04:55.000Z</time>
      </trkpt>
      <trkpt lat="47.28364" lon="-2.32578">
        <ele>11.39999961853</ele>
        <time>2019-05-30T08:04:58.000Z</time>
      </trkpt>
      <trkpt lat="47.28379" lon="-2.32576">
        <ele>11.39999961853</ele>
        <time>2019-05-30T08:05:02.000Z</time>
      </trkpt>
      <trkpt lat="47.28388" lon="-2.32582">
        <ele>11.39999961853</ele>
        <time>2019-05-30T08:05:05.000Z</time>
      </trkpt>
      <trkpt lat="47.28393" lon="-2.32596">
        <ele>11.39999961853</ele>
        <time>2019-05-30T08:05:08.000Z</time>
      </trkpt>
      <trkpt lat="47.28399" lon="-2.32602">
        <ele>11.39999961853</ele>
        <time>2019-05-30T08:05:10.000Z</time>
      </trkpt>
      <trkpt lat="47.28403" lon="-2.32614">
        <ele>11.39999961853</ele>
        <time>2019-05-30T08:05:12.000Z</time>
      </trkpt>
      <trkpt lat="47.284" lon="-2.32637">
        <ele>11.39999961853</ele>
        <time>2019-05-30T08:05:15.000Z</time>
      </trkpt>
      <trkpt lat="47.2839" lon="-2.3269">
        <ele>11.39999961853</ele>
        <time>2019-05-30T08:05:21.000Z</time>
      </trkpt>
      <trkpt lat="47.28379" lon="-2.32752">
        <ele>11.39999961853</ele>
        <time>2019-05-30T08:05:28.000Z</time>
      </trkpt>
      <trkpt lat="47.28376" lon="-2.32769">
        <ele>11</ele>
        <time>2019-05-30T08:05:30.000Z</time>
      </trkpt>
      <trkpt lat="47.28374" lon="-2.32777">
        <ele>10.60000038147</ele>
        <time>2019-05-30T08:05:31.000Z</time>
      </trkpt>
      <trkpt lat="47.28372" lon="-2.32785">
        <ele>10.199999809265</ele>
        <time>2019-05-30T08:05:32.000Z</time>
      </trkpt>
      <trkpt lat="47.28371" lon="-2.32793">
        <ele>9.8000001907349</ele>
        <time>2019-05-30T08:05:33.000Z</time>
      </trkpt>
      <trkpt lat="47.28369" lon="-2.32803">
        <ele>9.3999996185303</ele>
        <time>2019-05-30T08:05:34.000Z</time>
      </trkpt>
      <trkpt lat="47.28368" lon="-2.3281">
        <ele>9.3999996185303</ele>
        <time>2019-05-30T08:05:35.000Z</time>
      </trkpt>
      <trkpt lat="47.28367" lon="-2.3284">
        <ele>9.3999996185303</ele>
        <time>2019-05-30T08:05:38.000Z</time>
      </trkpt>
      <trkpt lat="47.28368" lon="-2.3285">
        <ele>9.3999996185303</ele>
        <time>2019-05-30T08:05:39.000Z</time>
      </trkpt>
      <trkpt lat="47.28369" lon="-2.32877">
        <ele>9.3999996185303</ele>
        <time>2019-05-30T08:05:43.000Z</time>
      </trkpt>
      <trkpt lat="47.28366" lon="-2.32904">
        <ele>9.3999996185303</ele>
        <time>2019-05-30T08:05:48.000Z</time>
      </trkpt>
      <trkpt lat="47.28365" lon="-2.32911">
        <ele>9.3999996185303</ele>
        <time>2019-05-30T08:05:49.000Z</time>
      </trkpt>
      <trkpt lat="47.28361" lon="-2.32925">
        <ele>9.3999996185303</ele>
        <time>2019-05-30T08:05:51.000Z</time>
      </trkpt>
      <trkpt lat="47.28355" lon="-2.32937">
        <ele>9.3999996185303</ele>
        <time>2019-05-30T08:05:53.000Z</time>
      </trkpt>
      <trkpt lat="47.2834" lon="-2.32954">
        <ele>9.3999996185303</ele>
        <time>2019-05-30T08:05:56.000Z</time>
      </trkpt>
      <trkpt lat="47.28335" lon="-2.32959">
        <ele>9.3999996185303</ele>
        <time>2019-05-30T08:05:57.000Z</time>
      </trkpt>
      <trkpt lat="47.28291" lon="-2.32994">
        <ele>9.3999996185303</ele>
        <time>2019-05-30T08:06:04.000Z</time>
      </trkpt>
      <trkpt lat="47.28256" lon="-2.3302">
        <ele>9.3999996185303</ele>
        <time>2019-05-30T08:06:10.000Z</time>
      </trkpt>
      <trkpt lat="47.28236" lon="-2.33039">
        <ele>9.3999996185303</ele>
        <time>2019-05-30T08:06:14.000Z</time>
      </trkpt>
      <trkpt lat="47.28226" lon="-2.33051">
        <ele>9.3999996185303</ele>
        <time>2019-05-30T08:06:16.000Z</time>
      </trkpt>
      <trkpt lat="47.28206" lon="-2.33086">
        <ele>9.3999996185303</ele>
        <time>2019-05-30T08:06:21.000Z</time>
      </trkpt>
      <trkpt lat="47.28203" lon="-2.33095">
        <ele>9.3999996185303</ele>
        <time>2019-05-30T08:06:22.000Z</time>
      </trkpt>
      <trkpt lat="47.28198" lon="-2.3311">
        <ele>9.3999996185303</ele>
        <time>2019-05-30T08:06:24.000Z</time>
      </trkpt>
      <trkpt lat="47.28194" lon="-2.33137">
        <ele>9.3999996185303</ele>
        <time>2019-05-30T08:06:27.000Z</time>
      </trkpt>
      <trkpt lat="47.28194" lon="-2.33155">
        <ele>9.3999996185303</ele>
        <time>2019-05-30T08:06:29.000Z</time>
      </trkpt>
      <trkpt lat="47.28193" lon="-2.33193">
        <ele>9.3999996185303</ele>
        <time>2019-05-30T08:06:33.000Z</time>
      </trkpt>
      <trkpt lat="47.28187" lon="-2.33249">
        <ele>9.3999996185303</ele>
        <time>2019-05-30T08:06:39.000Z</time>
      </trkpt>
      <trkpt lat="47.28178" lon="-2.33308">
        <ele>9.3999996185303</ele>
        <time>2019-05-30T08:06:46.000Z</time>
      </trkpt>
      <trkpt lat="47.28176" lon="-2.33315">
        <ele>9.3999996185303</ele>
        <time>2019-05-30T08:06:47.000Z</time>
      </trkpt>
      <trkpt lat="47.28165" lon="-2.33343">
        <ele>9.3999996185303</ele>
        <time>2019-05-30T08:06:51.000Z</time>
      </trkpt>
      <trkpt lat="47.28147" lon="-2.33378">
        <ele>9.8000001907349</ele>
        <time>2019-05-30T08:06:56.000Z</time>
      </trkpt>
      <trkpt lat="47.28143" lon="-2.33384">
        <ele>10.199999809265</ele>
        <time>2019-05-30T08:06:57.000Z</time>
      </trkpt>
      <trkpt lat="47.2814" lon="-2.33391">
        <ele>10.800000190735</ele>
        <time>2019-05-30T08:06:58.000Z</time>
      </trkpt>
      <trkpt lat="47.28136" lon="-2.33398">
        <ele>11.199999809265</ele>
        <time>2019-05-30T08:06:59.000Z</time>
      </trkpt>
      <trkpt lat="47.28133" lon="-2.33405">
        <ele>11.60000038147</ele>
        <time>2019-05-30T08:07:00.000Z</time>
      </trkpt>
      <trkpt lat="47.28113" lon="-2.33449">
        <ele>11.60000038147</ele>
        <time>2019-05-30T08:07:06.000Z</time>
      </trkpt>
      <trkpt lat="47.2809" lon="-2.33498">
        <ele>11.60000038147</ele>
        <time>2019-05-30T08:07:13.000Z</time>
      </trkpt>
      <trkpt lat="47.28083" lon="-2.33509">
        <ele>11.60000038147</ele>
        <time>2019-05-30T08:07:15.000Z</time>
      </trkpt>
      <trkpt lat="47.28076" lon="-2.3352">
        <ele>11.60000038147</ele>
        <time>2019-05-30T08:07:17.000Z</time>
      </trkpt>
      <trkpt lat="47.28075" lon="-2.33527">
        <ele>11.60000038147</ele>
        <time>2019-05-30T08:07:18.000Z</time>
      </trkpt>
      <trkpt lat="47.28076" lon="-2.33545">
        <ele>11.60000038147</ele>
        <time>2019-05-30T08:07:21.000Z</time>
      </trkpt>
      <trkpt lat="47.28077" lon="-2.33552">
        <ele>11.60000038147</ele>
        <time>2019-05-30T08:07:22.000Z</time>
      </trkpt>
      <trkpt lat="47.28082" lon="-2.33573">
        <ele>12</ele>
        <time>2019-05-30T08:07:25.000Z</time>
      </trkpt>
      <trkpt lat="47.28082" lon="-2.3358">
        <ele>12.39999961853</ele>
        <time>2019-05-30T08:07:26.000Z</time>
      </trkpt>
      <trkpt lat="47.28083" lon="-2.33587">
        <ele>12.800000190735</ele>
        <time>2019-05-30T08:07:27.000Z</time>
      </trkpt>
      <trkpt lat="47.28085" lon="-2.33593">
        <ele>13.199999809265</ele>
        <time>2019-05-30T08:07:28.000Z</time>
      </trkpt>
      <trkpt lat="47.28087" lon="-2.336">
        <ele>13.60000038147</ele>
        <time>2019-05-30T08:07:29.000Z</time>
      </trkpt>
      <trkpt lat="47.28089" lon="-2.33615">
        <ele>13.60000038147</ele>
        <time>2019-05-30T08:07:31.000Z</time>
      </trkpt>
      <trkpt lat="47.2809" lon="-2.33622">
        <ele>13.60000038147</ele>
        <time>2019-05-30T08:07:32.000Z</time>
      </trkpt>
      <trkpt lat="47.28093" lon="-2.33639">
        <ele>13.60000038147</ele>
        <time>2019-05-30T08:07:36.000Z</time>
      </trkpt>
      <trkpt lat="47.28099" lon="-2.33662">
        <ele>13.60000038147</ele>
        <time>2019-05-30T08:07:42.000Z</time>
      </trkpt>
      <trkpt lat="47.28102" lon="-2.33667">
        <ele>13.60000038147</ele>
        <time>2019-05-30T08:07:43.000Z</time>
      </trkpt>
      <trkpt lat="47.28113" lon="-2.3368">
        <ele>13.60000038147</ele>
        <time>2019-05-30T08:07:46.000Z</time>
      </trkpt>
      <trkpt lat="47.28118" lon="-2.33684">
        <ele>13.60000038147</ele>
        <time>2019-05-30T08:07:47.000Z</time>
      </trkpt>
      <trkpt lat="47.28128" lon="-2.33698">
        <ele>13.60000038147</ele>
        <time>2019-05-30T08:07:50.000Z</time>
      </trkpt>
      <trkpt lat="47.28131" lon="-2.33703">
        <ele>13.60000038147</ele>
        <time>2019-05-30T08:07:51.000Z</time>
      </trkpt>
      <trkpt lat="47.28149" lon="-2.3373">
        <ele>13.60000038147</ele>
        <time>2019-05-30T08:07:56.000Z</time>
      </trkpt>
      <trkpt lat="47.28152" lon="-2.33735">
        <ele>13.60000038147</ele>
        <time>2019-05-30T08:07:57.000Z</time>
      </trkpt>
      <trkpt lat="47.2817" lon="-2.33753">
        <ele>13.60000038147</ele>
        <time>2019-05-30T08:08:02.000Z</time>
      </trkpt>
      <trkpt lat="47.2819" lon="-2.33777">
        <ele>14</ele>
        <time>2019-05-30T08:08:08.000Z</time>
      </trkpt>
      <trkpt lat="47.28194" lon="-2.33782">
        <ele>14.39999961853</ele>
        <time>2019-05-30T08:08:09.000Z</time>
      </trkpt>
      <trkpt lat="47.28198" lon="-2.33786">
        <ele>15.199999809265</ele>
        <time>2019-05-30T08:08:10.000Z</time>
      </trkpt>
      <trkpt lat="47.28203" lon="-2.3379">
        <ele>15.60000038147</ele>
        <time>2019-05-30T08:08:11.000Z</time>
      </trkpt>
      <trkpt lat="47.28215" lon="-2.33798">
        <ele>15.60000038147</ele>
        <time>2019-05-30T08:08:14.000Z</time>
      </trkpt>
      <trkpt lat="47.28225" lon="-2.338">
        <ele>15.60000038147</ele>
        <time>2019-05-30T08:08:16.000Z</time>
      </trkpt>
      <trkpt lat="47.28239" lon="-2.33808">
        <ele>15.60000038147</ele>
        <time>2019-05-30T08:08:19.000Z</time>
      </trkpt>
      <trkpt lat="47.2826" lon="-2.33826">
        <ele>15.60000038147</ele>
        <time>2019-05-30T08:08:24.000Z</time>
      </trkpt>
      <trkpt lat="47.28263" lon="-2.33837">
        <ele>15.60000038147</ele>
        <time>2019-05-30T08:08:26.000Z</time>
      </trkpt>
      <trkpt lat="47.28266" lon="-2.33843">
        <ele>15.60000038147</ele>
        <time>2019-05-30T08:08:27.000Z</time>
      </trkpt>
      <trkpt lat="47.28268" lon="-2.33849">
        <ele>15.60000038147</ele>
        <time>2019-05-30T08:08:28.000Z</time>
      </trkpt>
      <trkpt lat="47.28279" lon="-2.33871">
        <ele>15.60000038147</ele>
        <time>2019-05-30T08:08:32.000Z</time>
      </trkpt>
      <trkpt lat="47.28282" lon="-2.33877">
        <ele>15.60000038147</ele>
        <time>2019-05-30T08:08:33.000Z</time>
      </trkpt>
      <trkpt lat="47.28289" lon="-2.33894">
        <ele>15.60000038147</ele>
        <time>2019-05-30T08:08:36.000Z</time>
      </trkpt>
      <trkpt lat="47.28296" lon="-2.3391">
        <ele>15.60000038147</ele>
        <time>2019-05-30T08:08:39.000Z</time>
      </trkpt>
      <trkpt lat="47.283" lon="-2.33919">
        <ele>15.60000038147</ele>
        <time>2019-05-30T08:08:41.000Z</time>
      </trkpt>
      <trkpt lat="47.28308" lon="-2.33938">
        <ele>16</ele>
        <time>2019-05-30T08:08:45.000Z</time>
      </trkpt>
      <trkpt lat="47.28309" lon="-2.33943">
        <ele>16.39999961853</ele>
        <time>2019-05-30T08:08:46.000Z</time>
      </trkpt>
      <trkpt lat="47.28311" lon="-2.33948">
        <ele>16.799999237061</ele>
        <time>2019-05-30T08:08:47.000Z</time>
      </trkpt>
      <trkpt lat="47.28314" lon="-2.33953">
        <ele>17.200000762939</ele>
        <time>2019-05-30T08:08:48.000Z</time>
      </trkpt>
      <trkpt lat="47.28316" lon="-2.33958">
        <ele>17.60000038147</ele>
        <time>2019-05-30T08:08:49.000Z</time>
      </trkpt>
      <trkpt lat="47.28318" lon="-2.33965">
        <ele>17.60000038147</ele>
        <time>2019-05-30T08:08:50.000Z</time>
      </trkpt>
      <trkpt lat="47.28333" lon="-2.34005">
        <ele>17.60000038147</ele>
        <time>2019-05-30T08:08:57.000Z</time>
      </trkpt>
      <trkpt lat="47.28337" lon="-2.34008">
        <ele>17.60000038147</ele>
        <time>2019-05-30T08:08:58.000Z</time>
      </trkpt>
      <trkpt lat="47.28342" lon="-2.34009">
        <ele>17.60000038147</ele>
        <time>2019-05-30T08:09:00.000Z</time>
      </trkpt>
      <trkpt lat="47.28355" lon="-2.34006">
        <ele>17.60000038147</ele>
        <time>2019-05-30T08:09:04.000Z</time>
      </trkpt>
      <trkpt lat="47.28369" lon="-2.34001">
        <ele>18</ele>
        <time>2019-05-30T08:09:08.000Z</time>
      </trkpt>
      <trkpt lat="47.28373" lon="-2.33999">
        <ele>18.39999961853</ele>
        <time>2019-05-30T08:09:09.000Z</time>
      </trkpt>
      <trkpt lat="47.28376" lon="-2.33997">
        <ele>18.799999237061</ele>
        <time>2019-05-30T08:09:10.000Z</time>
      </trkpt>
      <trkpt lat="47.28379" lon="-2.33996">
        <ele>19.200000762939</ele>
        <time>2019-05-30T08:09:11.000Z</time>
      </trkpt>
      <trkpt lat="47.28382" lon="-2.33995">
        <ele>19.60000038147</ele>
        <time>2019-05-30T08:09:12.000Z</time>
      </trkpt>
      <trkpt lat="47.28396" lon="-2.3399">
        <ele>19.60000038147</ele>
        <time>2019-05-30T08:09:17.000Z</time>
      </trkpt>
      <trkpt lat="47.28408" lon="-2.33995">
        <ele>19.60000038147</ele>
        <time>2019-05-30T08:09:22.000Z</time>
      </trkpt>
      <trkpt lat="47.2841" lon="-2.33999">
        <ele>19.60000038147</ele>
        <time>2019-05-30T08:09:23.000Z</time>
      </trkpt>
      <trkpt lat="47.28413" lon="-2.34012">
        <ele>19.60000038147</ele>
        <time>2019-05-30T08:09:26.000Z</time>
      </trkpt>
      <trkpt lat="47.28421" lon="-2.34052">
        <ele>19.60000038147</ele>
        <time>2019-05-30T08:09:34.000Z</time>
      </trkpt>
      <trkpt lat="47.28429" lon="-2.34094">
        <ele>19.60000038147</ele>
        <time>2019-05-30T08:09:41.000Z</time>
      </trkpt>
      <trkpt lat="47.28431" lon="-2.34107">
        <ele>19.60000038147</ele>
        <time>2019-05-30T08:09:43.000Z</time>
      </trkpt>
      <trkpt lat="47.28437" lon="-2.34134">
        <ele>19.60000038147</ele>
        <time>2019-05-30T08:09:47.000Z</time>
      </trkpt>
      <trkpt lat="47.28442" lon="-2.34165">
        <ele>19.60000038147</ele>
        <time>2019-05-30T08:09:52.000Z</time>
      </trkpt>
      <trkpt lat="47.28443" lon="-2.34176">
        <ele>19.60000038147</ele>
        <time>2019-05-30T08:09:54.000Z</time>
      </trkpt>
      <trkpt lat="47.28442" lon="-2.34187">
        <ele>20.200000762939</ele>
        <time>2019-05-30T08:09:56.000Z</time>
      </trkpt>
      <trkpt lat="47.28443" lon="-2.34193">
        <ele>20.60000038147</ele>
        <time>2019-05-30T08:09:57.000Z</time>
      </trkpt>
      <trkpt lat="47.28447" lon="-2.34198">
        <ele>21</ele>
        <time>2019-05-30T08:09:58.000Z</time>
      </trkpt>
      <trkpt lat="47.28451" lon="-2.34201">
        <ele>21.39999961853</ele>
        <time>2019-05-30T08:09:59.000Z</time>
      </trkpt>
      <trkpt lat="47.28455" lon="-2.34202">
        <ele>22</ele>
        <time>2019-05-30T08:10:00.000Z</time>
      </trkpt>
      <trkpt lat="47.28464" lon="-2.34205">
        <ele>22</ele>
        <time>2019-05-30T08:10:02.000Z</time>
      </trkpt>
      <trkpt lat="47.28498" lon="-2.34217">
        <ele>22</ele>
        <time>2019-05-30T08:10:09.000Z</time>
      </trkpt>
      <trkpt lat="47.28517" lon="-2.34223">
        <ele>22</ele>
        <time>2019-05-30T08:10:13.000Z</time>
      </trkpt>
      <trkpt lat="47.28527" lon="-2.34225">
        <ele>22</ele>
        <time>2019-05-30T08:10:15.000Z</time>
      </trkpt>
      <trkpt lat="47.28542" lon="-2.34224">
        <ele>22</ele>
        <time>2019-05-30T08:10:18.000Z</time>
      </trkpt>
      <trkpt lat="47.28547" lon="-2.34213">
        <ele>22</ele>
        <time>2019-05-30T08:10:20.000Z</time>
      </trkpt>
      <trkpt lat="47.28543" lon="-2.34194">
        <ele>22</ele>
        <time>2019-05-30T08:10:23.000Z</time>
      </trkpt>
      <trkpt lat="47.28541" lon="-2.34188">
        <ele>22</ele>
        <time>2019-05-30T08:10:24.000Z</time>
      </trkpt>
      <trkpt lat="47.28533" lon="-2.3416">
        <ele>22</ele>
        <time>2019-05-30T08:10:28.000Z</time>
      </trkpt>
      <trkpt lat="47.28531" lon="-2.34153">
        <ele>22</ele>
        <time>2019-05-30T08:10:29.000Z</time>
      </trkpt>
      <trkpt lat="47.28522" lon="-2.34116">
        <ele>22</ele>
        <time>2019-05-30T08:10:34.000Z</time>
      </trkpt>
      <trkpt lat="47.28522" lon="-2.34109">
        <ele>22</ele>
        <time>2019-05-30T08:10:35.000Z</time>
      </trkpt>
      <trkpt lat="47.28524" lon="-2.34088">
        <ele>22</ele>
        <time>2019-05-30T08:10:38.000Z</time>
      </trkpt>
      <trkpt lat="47.28526" lon="-2.34072">
        <ele>22</ele>
        <time>2019-05-30T08:10:40.000Z</time>
      </trkpt>
      <trkpt lat="47.28528" lon="-2.34064">
        <ele>22</ele>
        <time>2019-05-30T08:10:41.000Z</time>
      </trkpt>
      <trkpt lat="47.28537" lon="-2.34046">
        <ele>22</ele>
        <time>2019-05-30T08:10:44.000Z</time>
      </trkpt>
      <trkpt lat="47.2854" lon="-2.3404">
        <ele>22</ele>
        <time>2019-05-30T08:10:45.000Z</time>
      </trkpt>
      <trkpt lat="47.28554" lon="-2.3402">
        <ele>22</ele>
        <time>2019-05-30T08:10:49.000Z</time>
      </trkpt>
      <trkpt lat="47.28558" lon="-2.34016">
        <ele>22</ele>
        <time>2019-05-30T08:10:50.000Z</time>
      </trkpt>
      <trkpt lat="47.28581" lon="-2.34005">
        <ele>22</ele>
        <time>2019-05-30T08:10:55.000Z</time>
      </trkpt>
      <trkpt lat="47.28585" lon="-2.34004">
        <ele>22</ele>
        <time>2019-05-30T08:10:56.000Z</time>
      </trkpt>
      <trkpt lat="47.286" lon="-2.34002">
        <ele>22</ele>
        <time>2019-05-30T08:11:00.000Z</time>
      </trkpt>
      <trkpt lat="47.28603" lon="-2.33999">
        <ele>22</ele>
        <time>2019-05-30T08:11:01.000Z</time>
      </trkpt>
      <trkpt lat="47.28606" lon="-2.33989">
        <ele>22</ele>
        <time>2019-05-30T08:11:03.000Z</time>
      </trkpt>
      <trkpt lat="47.28601" lon="-2.33965">
        <ele>22.39999961853</ele>
        <time>2019-05-30T08:11:07.000Z</time>
      </trkpt>
      <trkpt lat="47.28599" lon="-2.33958">
        <ele>22.799999237061</ele>
        <time>2019-05-30T08:11:08.000Z</time>
      </trkpt>
      <trkpt lat="47.28598" lon="-2.33951">
        <ele>23.200000762939</ele>
        <time>2019-05-30T08:11:09.000Z</time>
      </trkpt>
      <trkpt lat="47.28596" lon="-2.33944">
        <ele>23.60000038147</ele>
        <time>2019-05-30T08:11:10.000Z</time>
      </trkpt>
      <trkpt lat="47.28594" lon="-2.33936">
        <ele>24</ele>
        <time>2019-05-30T08:11:11.000Z</time>
      </trkpt>
      <trkpt lat="47.28589" lon="-2.33915">
        <ele>24</ele>
        <time>2019-05-30T08:11:14.000Z</time>
      </trkpt>
      <trkpt lat="47.28579" lon="-2.3386">
        <ele>24</ele>
        <time>2019-05-30T08:11:21.000Z</time>
      </trkpt>
      <trkpt lat="47.28569" lon="-2.33802">
        <ele>24</ele>
        <time>2019-05-30T08:11:29.000Z</time>
      </trkpt>
      <trkpt lat="47.28571" lon="-2.33778">
        <ele>24</ele>
        <time>2019-05-30T08:11:32.000Z</time>
      </trkpt>
      <trkpt lat="47.28576" lon="-2.33761">
        <ele>24</ele>
        <time>2019-05-30T08:11:34.000Z</time>
      </trkpt>
      <trkpt lat="47.28593" lon="-2.33734">
        <ele>24</ele>
        <time>2019-05-30T08:11:38.000Z</time>
      </trkpt>
      <trkpt lat="47.28616" lon="-2.33722">
        <ele>24</ele>
        <time>2019-05-30T08:11:42.000Z</time>
      </trkpt>
      <trkpt lat="47.28663" lon="-2.33703">
        <ele>24</ele>
        <time>2019-05-30T08:11:50.000Z</time>
      </trkpt>
      <trkpt lat="47.28696" lon="-2.33692">
        <ele>24</ele>
        <time>2019-05-30T08:11:56.000Z</time>
      </trkpt>
      <trkpt lat="47.28724" lon="-2.33698">
        <ele>24</ele>
        <time>2019-05-30T08:12:01.000Z</time>
      </trkpt>
      <trkpt lat="47.28729" lon="-2.33702">
        <ele>24</ele>
        <time>2019-05-30T08:12:02.000Z</time>
      </trkpt>
      <trkpt lat="47.28741" lon="-2.33718">
        <ele>24</ele>
        <time>2019-05-30T08:12:05.000Z</time>
      </trkpt>
      <trkpt lat="47.28749" lon="-2.33739">
        <ele>24</ele>
        <time>2019-05-30T08:12:08.000Z</time>
      </trkpt>
      <trkpt lat="47.28754" lon="-2.3375">
        <ele>24</ele>
        <time>2019-05-30T08:12:10.000Z</time>
      </trkpt>
      <trkpt lat="47.28756" lon="-2.33755">
        <ele>24</ele>
        <time>2019-05-30T08:12:11.000Z</time>
      </trkpt>
      <trkpt lat="47.28762" lon="-2.33755">
        <ele>24</ele>
        <time>2019-05-30T08:12:13.000Z</time>
      </trkpt>
      <trkpt lat="47.28767" lon="-2.33742">
        <ele>24</ele>
        <time>2019-05-30T08:12:16.000Z</time>
      </trkpt>
      <trkpt lat="47.28764" lon="-2.33725">
        <ele>24</ele>
        <time>2019-05-30T08:12:18.000Z</time>
      </trkpt>
      <trkpt lat="47.28763" lon="-2.33718">
        <ele>24</ele>
        <time>2019-05-30T08:12:19.000Z</time>
      </trkpt>
      <trkpt lat="47.28758" lon="-2.33647">
        <ele>24</ele>
        <time>2019-05-30T08:12:27.000Z</time>
      </trkpt>
      <trkpt lat="47.28747" lon="-2.33585">
        <ele>24</ele>
        <time>2019-05-30T08:12:34.000Z</time>
      </trkpt>
      <trkpt lat="47.2874" lon="-2.3356">
        <ele>23.60000038147</ele>
        <time>2019-05-30T08:12:37.000Z</time>
      </trkpt>
      <trkpt lat="47.28737" lon="-2.33552">
        <ele>23.200000762939</ele>
        <time>2019-05-30T08:12:38.000Z</time>
      </trkpt>
      <trkpt lat="47.28734" lon="-2.33543">
        <ele>22.799999237061</ele>
        <time>2019-05-30T08:12:39.000Z</time>
      </trkpt>
      <trkpt lat="47.28732" lon="-2.33536">
        <ele>22.39999961853</ele>
        <time>2019-05-30T08:12:40.000Z</time>
      </trkpt>
      <trkpt lat="47.28729" lon="-2.33528">
        <ele>22</ele>
        <time>2019-05-30T08:12:41.000Z</time>
      </trkpt>
      <trkpt lat="47.28719" lon="-2.33506">
        <ele>22</ele>
        <time>2019-05-30T08:12:45.000Z</time>
      </trkpt>
      <trkpt lat="47.28718" lon="-2.33497">
        <ele>22</ele>
        <time>2019-05-30T08:12:49.000Z</time>
      </trkpt>
      <trkpt lat="47.28718" lon="-2.33495">
        <ele>22</ele>
        <time>2019-05-30T08:12:52.000Z</time>
      </trkpt>
      <trkpt lat="47.28722" lon="-2.33494">
        <ele>20</ele>
        <time>2019-05-30T08:13:10.000Z</time>
      </trkpt>
      <trkpt lat="47.28723" lon="-2.33494">
        <ele>20</ele>
        <time>2019-05-30T08:13:11.000Z</time>
      </trkpt>
      <trkpt lat="47.28736" lon="-2.3349">
        <ele>20</ele>
        <time>2019-05-30T08:13:16.000Z</time>
      </trkpt>
      <trkpt lat="47.28748" lon="-2.33488">
        <ele>20</ele>
        <time>2019-05-30T08:13:19.000Z</time>
      </trkpt>
      <trkpt lat="47.28766" lon="-2.33486">
        <ele>20</ele>
        <time>2019-05-30T08:13:23.000Z</time>
      </trkpt>
      <trkpt lat="47.28806" lon="-2.33477">
        <ele>20</ele>
        <time>2019-05-30T08:13:31.000Z</time>
      </trkpt>
      <trkpt lat="47.28855" lon="-2.33467">
        <ele>20</ele>
        <time>2019-05-30T08:13:41.000Z</time>
      </trkpt>
      <trkpt lat="47.28878" lon="-2.33457">
        <ele>20</ele>
        <time>2019-05-30T08:13:47.000Z</time>
      </trkpt>
      <trkpt lat="47.28892" lon="-2.3344">
        <ele>20</ele>
        <time>2019-05-30T08:13:51.000Z</time>
      </trkpt>
      <trkpt lat="47.28895" lon="-2.33434">
        <ele>20</ele>
        <time>2019-05-30T08:13:52.000Z</time>
      </trkpt>
      <trkpt lat="47.28897" lon="-2.33428">
        <ele>20</ele>
        <time>2019-05-30T08:13:53.000Z</time>
      </trkpt>
      <trkpt lat="47.28906" lon="-2.33403">
        <ele>20</ele>
        <time>2019-05-30T08:13:57.000Z</time>
      </trkpt>
      <trkpt lat="47.28916" lon="-2.33354">
        <ele>20</ele>
        <time>2019-05-30T08:14:04.000Z</time>
      </trkpt>
      <trkpt lat="47.28924" lon="-2.33324">
        <ele>20</ele>
        <time>2019-05-30T08:14:08.000Z</time>
      </trkpt>
      <trkpt lat="47.28928" lon="-2.33312">
        <ele>20</ele>
        <time>2019-05-30T08:14:10.000Z</time>
      </trkpt>
      <trkpt lat="47.28946" lon="-2.33271">
        <ele>20</ele>
        <time>2019-05-30T08:14:16.000Z</time>
      </trkpt>
      <trkpt lat="47.28965" lon="-2.33234">
        <ele>20</ele>
        <time>2019-05-30T08:14:21.000Z</time>
      </trkpt>
      <trkpt lat="47.28969" lon="-2.33227">
        <ele>20</ele>
        <time>2019-05-30T08:14:22.000Z</time>
      </trkpt>
      <trkpt lat="47.28974" lon="-2.33221">
        <ele>20</ele>
        <time>2019-05-30T08:14:23.000Z</time>
      </trkpt>
      <trkpt lat="47.28993" lon="-2.33197">
        <ele>20</ele>
        <time>2019-05-30T08:14:27.000Z</time>
      </trkpt>
      <trkpt lat="47.2903" lon="-2.33161">
        <ele>20</ele>
        <time>2019-05-30T08:14:34.000Z</time>
      </trkpt>
      <trkpt lat="47.29066" lon="-2.33133">
        <ele>20</ele>
        <time>2019-05-30T08:14:40.000Z</time>
      </trkpt>
      <trkpt lat="47.29105" lon="-2.33092">
        <ele>20</ele>
        <time>2019-05-30T08:14:47.000Z</time>
      </trkpt>
      <trkpt lat="47.29134" lon="-2.3305">
        <ele>20</ele>
        <time>2019-05-30T08:14:53.000Z</time>
      </trkpt>
      <trkpt lat="47.29166" lon="-2.33001">
        <ele>19.60000038147</ele>
        <time>2019-05-30T08:15:00.000Z</time>
      </trkpt>
      <trkpt lat="47.2917" lon="-2.32997">
        <ele>19.200000762939</ele>
        <time>2019-05-30T08:15:01.000Z</time>
      </trkpt>
      <trkpt lat="47.29174" lon="-2.32997">
        <ele>18.799999237061</ele>
        <time>2019-05-30T08:15:02.000Z</time>
      </trkpt>
      <trkpt lat="47.29177" lon="-2.33">
        <ele>18.39999961853</ele>
        <time>2019-05-30T08:15:03.000Z</time>
      </trkpt>
      <trkpt lat="47.29179" lon="-2.33004">
        <ele>18</ele>
        <time>2019-05-30T08:15:04.000Z</time>
      </trkpt>
      <trkpt lat="47.29182" lon="-2.3301">
        <ele>18</ele>
        <time>2019-05-30T08:15:05.000Z</time>
      </trkpt>
      <trkpt lat="47.29194" lon="-2.33031">
        <ele>18</ele>
        <time>2019-05-30T08:15:09.000Z</time>
      </trkpt>
      <trkpt lat="47.29211" lon="-2.33065">
        <ele>18</ele>
        <time>2019-05-30T08:15:14.000Z</time>
      </trkpt>
      <trkpt lat="47.29232" lon="-2.33106">
        <ele>18</ele>
        <time>2019-05-30T08:15:20.000Z</time>
      </trkpt>
      <trkpt lat="47.2925" lon="-2.33143">
        <ele>18.39999961853</ele>
        <time>2019-05-30T08:15:26.000Z</time>
      </trkpt>
      <trkpt lat="47.29253" lon="-2.33149">
        <ele>18.799999237061</ele>
        <time>2019-05-30T08:15:27.000Z</time>
      </trkpt>
      <trkpt lat="47.29256" lon="-2.33155">
        <ele>19.200000762939</ele>
        <time>2019-05-30T08:15:28.000Z</time>
      </trkpt>
      <trkpt lat="47.29259" lon="-2.33161">
        <ele>19.60000038147</ele>
        <time>2019-05-30T08:15:29.000Z</time>
      </trkpt>
      <trkpt lat="47.29262" lon="-2.33167">
        <ele>20</ele>
        <time>2019-05-30T08:15:30.000Z</time>
      </trkpt>
      <trkpt lat="47.29274" lon="-2.3319">
        <ele>20</ele>
        <time>2019-05-30T08:15:34.000Z</time>
      </trkpt>
      <trkpt lat="47.29278" lon="-2.33193">
        <ele>20</ele>
        <time>2019-05-30T08:15:35.000Z</time>
      </trkpt>
      <trkpt lat="47.29289" lon="-2.33187">
        <ele>20</ele>
        <time>2019-05-30T08:15:38.000Z</time>
      </trkpt>
      <trkpt lat="47.29297" lon="-2.33177">
        <ele>20</ele>
        <time>2019-05-30T08:15:40.000Z</time>
      </trkpt>
      <trkpt lat="47.29308" lon="-2.33162">
        <ele>20</ele>
        <time>2019-05-30T08:15:43.000Z</time>
      </trkpt>
      <trkpt lat="47.29311" lon="-2.33157">
        <ele>20</ele>
        <time>2019-05-30T08:15:44.000Z</time>
      </trkpt>
      <trkpt lat="47.29331" lon="-2.33136">
        <ele>20</ele>
        <time>2019-05-30T08:15:49.000Z</time>
      </trkpt>
      <trkpt lat="47.2934" lon="-2.33131">
        <ele>20</ele>
        <time>2019-05-30T08:15:51.000Z</time>
      </trkpt>
      <trkpt lat="47.29353" lon="-2.33123">
        <ele>20</ele>
        <time>2019-05-30T08:15:54.000Z</time>
      </trkpt>
      <trkpt lat="47.29357" lon="-2.33121">
        <ele>20</ele>
        <time>2019-05-30T08:15:55.000Z</time>
      </trkpt>
      <trkpt lat="47.29371" lon="-2.33127">
        <ele>20</ele>
        <time>2019-05-30T08:15:59.000Z</time>
      </trkpt>
      <trkpt lat="47.29374" lon="-2.3313">
        <ele>20.799999237061</ele>
        <time>2019-05-30T08:16:00.000Z</time>
      </trkpt>
      <trkpt lat="47.29378" lon="-2.33134">
        <ele>21.200000762939</ele>
        <time>2019-05-30T08:16:01.000Z</time>
      </trkpt>
      <trkpt lat="47.29381" lon="-2.33138">
        <ele>21.60000038147</ele>
        <time>2019-05-30T08:16:02.000Z</time>
      </trkpt>
      <trkpt lat="47.29385" lon="-2.33143">
        <ele>22</ele>
        <time>2019-05-30T08:16:03.000Z</time>
      </trkpt>
      <trkpt lat="47.29389" lon="-2.33149">
        <ele>22</ele>
        <time>2019-05-30T08:16:04.000Z</time>
      </trkpt>
      <trkpt lat="47.2941" lon="-2.33194">
        <ele>22</ele>
        <time>2019-05-30T08:16:11.000Z</time>
      </trkpt>
      <trkpt lat="47.29423" lon="-2.33251">
        <ele>22</ele>
        <time>2019-05-30T08:16:18.000Z</time>
      </trkpt>
      <trkpt lat="47.29429" lon="-2.33283">
        <ele>22</ele>
        <time>2019-05-30T08:16:22.000Z</time>
      </trkpt>
      <trkpt lat="47.29431" lon="-2.333">
        <ele>22</ele>
        <time>2019-05-30T08:16:24.000Z</time>
      </trkpt>
      <trkpt lat="47.29432" lon="-2.33342">
        <ele>22</ele>
        <time>2019-05-30T08:16:29.000Z</time>
      </trkpt>
      <trkpt lat="47.29431" lon="-2.3335">
        <ele>22</ele>
        <time>2019-05-30T08:16:30.000Z</time>
      </trkpt>
      <trkpt lat="47.29432" lon="-2.33376">
        <ele>22</ele>
        <time>2019-05-30T08:16:33.000Z</time>
      </trkpt>
      <trkpt lat="47.29436" lon="-2.33393">
        <ele>22</ele>
        <time>2019-05-30T08:16:35.000Z</time>
      </trkpt>
      <trkpt lat="47.29445" lon="-2.33418">
        <ele>22</ele>
        <time>2019-05-30T08:16:38.000Z</time>
      </trkpt>
      <trkpt lat="47.29449" lon="-2.33426">
        <ele>22</ele>
        <time>2019-05-30T08:16:39.000Z</time>
      </trkpt>
      <trkpt lat="47.29474" lon="-2.3348">
        <ele>22</ele>
        <time>2019-05-30T08:16:46.000Z</time>
      </trkpt>
      <trkpt lat="47.29504" lon="-2.33544">
        <ele>22</ele>
        <time>2019-05-30T08:16:54.000Z</time>
      </trkpt>
      <trkpt lat="47.29526" lon="-2.33606">
        <ele>22</ele>
        <time>2019-05-30T08:17:01.000Z</time>
      </trkpt>
      <trkpt lat="47.2955" lon="-2.33686">
        <ele>22</ele>
        <time>2019-05-30T08:17:09.000Z</time>
      </trkpt>
      <trkpt lat="47.29554" lon="-2.33695">
        <ele>22</ele>
        <time>2019-05-30T08:17:10.000Z</time>
      </trkpt>
      <trkpt lat="47.29559" lon="-2.33704">
        <ele>21.60000038147</ele>
        <time>2019-05-30T08:17:11.000Z</time>
      </trkpt>
      <trkpt lat="47.29564" lon="-2.33711">
        <ele>21.200000762939</ele>
        <time>2019-05-30T08:17:12.000Z</time>
      </trkpt>
      <trkpt lat="47.2957" lon="-2.33718">
        <ele>20.60000038147</ele>
        <time>2019-05-30T08:17:13.000Z</time>
      </trkpt>
      <trkpt lat="47.29575" lon="-2.33725">
        <ele>19.799999237061</ele>
        <time>2019-05-30T08:17:14.000Z</time>
      </trkpt>
      <trkpt lat="47.29591" lon="-2.33746">
        <ele>19.799999237061</ele>
        <time>2019-05-30T08:17:17.000Z</time>
      </trkpt>
      <trkpt lat="47.29599" lon="-2.3376">
        <ele>19.799999237061</ele>
        <time>2019-05-30T08:17:19.000Z</time>
      </trkpt>
      <trkpt lat="47.29624" lon="-2.3381">
        <ele>19.799999237061</ele>
        <time>2019-05-30T08:17:26.000Z</time>
      </trkpt>
      <trkpt lat="47.29641" lon="-2.33844">
        <ele>19.799999237061</ele>
        <time>2019-05-30T08:17:31.000Z</time>
      </trkpt>
      <trkpt lat="47.29645" lon="-2.33849">
        <ele>19.799999237061</ele>
        <time>2019-05-30T08:17:32.000Z</time>
      </trkpt>
      <trkpt lat="47.29654" lon="-2.3385">
        <ele>19.799999237061</ele>
        <time>2019-05-30T08:17:34.000Z</time>
      </trkpt>
      <trkpt lat="47.29667" lon="-2.33837">
        <ele>19.799999237061</ele>
        <time>2019-05-30T08:17:37.000Z</time>
      </trkpt>
      <trkpt lat="47.29671" lon="-2.33832">
        <ele>19.799999237061</ele>
        <time>2019-05-30T08:17:38.000Z</time>
      </trkpt>
      <trkpt lat="47.2968" lon="-2.33822">
        <ele>20.200000762939</ele>
        <time>2019-05-30T08:17:40.000Z</time>
      </trkpt>
      <trkpt lat="47.29685" lon="-2.33817">
        <ele>20.60000038147</ele>
        <time>2019-05-30T08:17:41.000Z</time>
      </trkpt>
      <trkpt lat="47.29689" lon="-2.33813">
        <ele>21</ele>
        <time>2019-05-30T08:17:42.000Z</time>
      </trkpt>
      <trkpt lat="47.29693" lon="-2.33809">
        <ele>21.60000038147</ele>
        <time>2019-05-30T08:17:43.000Z</time>
      </trkpt>
      <trkpt lat="47.29697" lon="-2.33806">
        <ele>22</ele>
        <time>2019-05-30T08:17:44.000Z</time>
      </trkpt>
      <trkpt lat="47.29709" lon="-2.33797">
        <ele>22</ele>
        <time>2019-05-30T08:17:47.000Z</time>
      </trkpt>
      <trkpt lat="47.2972" lon="-2.33773">
        <ele>22</ele>
        <time>2019-05-30T08:17:51.000Z</time>
      </trkpt>
      <trkpt lat="47.29742" lon="-2.33729">
        <ele>22</ele>
        <time>2019-05-30T08:17:58.000Z</time>
      </trkpt>
      <trkpt lat="47.29745" lon="-2.33723">
        <ele>22.39999961853</ele>
        <time>2019-05-30T08:17:59.000Z</time>
      </trkpt>
      <trkpt lat="47.29749" lon="-2.33716">
        <ele>22.799999237061</ele>
        <time>2019-05-30T08:18:00.000Z</time>
      </trkpt>
      <trkpt lat="47.29752" lon="-2.33709">
        <ele>23.200000762939</ele>
        <time>2019-05-30T08:18:01.000Z</time>
      </trkpt>
      <trkpt lat="47.29756" lon="-2.33702">
        <ele>23.60000038147</ele>
        <time>2019-05-30T08:18:02.000Z</time>
      </trkpt>
      <trkpt lat="47.29761" lon="-2.33695">
        <ele>24</ele>
        <time>2019-05-30T08:18:03.000Z</time>
      </trkpt>
      <trkpt lat="47.29765" lon="-2.33687">
        <ele>24</ele>
        <time>2019-05-30T08:18:04.000Z</time>
      </trkpt>
      <trkpt lat="47.29802" lon="-2.33624">
        <ele>24</ele>
        <time>2019-05-30T08:18:12.000Z</time>
      </trkpt>
      <trkpt lat="47.29837" lon="-2.33564">
        <ele>24</ele>
        <time>2019-05-30T08:18:19.000Z</time>
      </trkpt>
      <trkpt lat="47.29866" lon="-2.33511">
        <ele>23.60000038147</ele>
        <time>2019-05-30T08:18:25.000Z</time>
      </trkpt>
      <trkpt lat="47.29872" lon="-2.33503">
        <ele>23.200000762939</ele>
        <time>2019-05-30T08:18:26.000Z</time>
      </trkpt>
      <trkpt lat="47.29877" lon="-2.33495">
        <ele>22.799999237061</ele>
        <time>2019-05-30T08:18:27.000Z</time>
      </trkpt>
      <trkpt lat="47.29883" lon="-2.33486">
        <ele>22</ele>
        <time>2019-05-30T08:18:28.000Z</time>
      </trkpt>
      <trkpt lat="47.29916" lon="-2.33444">
        <ele>22</ele>
        <time>2019-05-30T08:18:34.000Z</time>
      </trkpt>
      <trkpt lat="47.29926" lon="-2.33445">
        <ele>21.60000038147</ele>
        <time>2019-05-30T08:18:36.000Z</time>
      </trkpt>
      <trkpt lat="47.29931" lon="-2.3345">
        <ele>21</ele>
        <time>2019-05-30T08:18:37.000Z</time>
      </trkpt>
      <trkpt lat="47.29936" lon="-2.33457">
        <ele>20.60000038147</ele>
        <time>2019-05-30T08:18:38.000Z</time>
      </trkpt>
      <trkpt lat="47.2994" lon="-2.33463">
        <ele>20.200000762939</ele>
        <time>2019-05-30T08:18:39.000Z</time>
      </trkpt>
      <trkpt lat="47.29945" lon="-2.33469">
        <ele>19.799999237061</ele>
        <time>2019-05-30T08:18:40.000Z</time>
      </trkpt>
      <trkpt lat="47.29969" lon="-2.33497">
        <ele>19.799999237061</ele>
        <time>2019-05-30T08:18:45.000Z</time>
      </trkpt>
      <trkpt lat="47.29974" lon="-2.33501">
        <ele>19.799999237061</ele>
        <time>2019-05-30T08:18:46.000Z</time>
      </trkpt>
      <trkpt lat="47.30006" lon="-2.33535">
        <ele>19.799999237061</ele>
        <time>2019-05-30T08:18:53.000Z</time>
      </trkpt>
      <trkpt lat="47.30007" lon="-2.33551">
        <ele>19.799999237061</ele>
        <time>2019-05-30T08:18:56.000Z</time>
      </trkpt>
      <trkpt lat="47.30006" lon="-2.33575">
        <ele>19.799999237061</ele>
        <time>2019-05-30T08:18:59.000Z</time>
      </trkpt>
      <trkpt lat="47.30005" lon="-2.33584">
        <ele>19.799999237061</ele>
        <time>2019-05-30T08:19:00.000Z</time>
      </trkpt>
      <trkpt lat="47.30005" lon="-2.33634">
        <ele>19.799999237061</ele>
        <time>2019-05-30T08:19:07.000Z</time>
      </trkpt>
      <trkpt lat="47.30005" lon="-2.33651">
        <ele>19.799999237061</ele>
        <time>2019-05-30T08:19:12.000Z</time>
      </trkpt>
      <trkpt lat="47.30004" lon="-2.33662">
        <ele>19.799999237061</ele>
        <time>2019-05-30T08:19:17.000Z</time>
      </trkpt>
      <trkpt lat="47.30004" lon="-2.33665">
        <ele>19.799999237061</ele>
        <time>2019-05-30T08:20:43.000Z</time>
      </trkpt>
      <trkpt lat="47.30003" lon="-2.33672">
        <ele>19.799999237061</ele>
        <time>2019-05-30T08:20:46.000Z</time>
      </trkpt>
      <trkpt lat="47.30002" lon="-2.3369">
        <ele>19.799999237061</ele>
        <time>2019-05-30T08:20:51.000Z</time>
      </trkpt>
      <trkpt lat="47.29999" lon="-2.33717">
        <ele>19.799999237061</ele>
        <time>2019-05-30T08:20:56.000Z</time>
      </trkpt>
      <trkpt lat="47.29995" lon="-2.33748">
        <ele>19.799999237061</ele>
        <time>2019-05-30T08:21:02.000Z</time>
      </trkpt>
      <trkpt lat="47.29995" lon="-2.33753">
        <ele>20.200000762939</ele>
        <time>2019-05-30T08:21:03.000Z</time>
      </trkpt>
      <trkpt lat="47.29995" lon="-2.3376">
        <ele>20.60000038147</ele>
        <time>2019-05-30T08:21:04.000Z</time>
      </trkpt>
      <trkpt lat="47.29995" lon="-2.33764">
        <ele>21</ele>
        <time>2019-05-30T08:21:05.000Z</time>
      </trkpt>
      <trkpt lat="47.29996" lon="-2.33769">
        <ele>21.39999961853</ele>
        <time>2019-05-30T08:21:06.000Z</time>
      </trkpt>
      <trkpt lat="47.29996" lon="-2.33774">
        <ele>21.799999237061</ele>
        <time>2019-05-30T08:21:07.000Z</time>
      </trkpt>
      <trkpt lat="47.30002" lon="-2.33807">
        <ele>21.799999237061</ele>
        <time>2019-05-30T08:21:13.000Z</time>
      </trkpt>
      <trkpt lat="47.30004" lon="-2.33813">
        <ele>21.799999237061</ele>
        <time>2019-05-30T08:21:14.000Z</time>
      </trkpt>
      <trkpt lat="47.30018" lon="-2.33839">
        <ele>21.799999237061</ele>
        <time>2019-05-30T08:21:18.000Z</time>
      </trkpt>
      <trkpt lat="47.30027" lon="-2.33859">
        <ele>21.799999237061</ele>
        <time>2019-05-30T08:21:21.000Z</time>
      </trkpt>
      <trkpt lat="47.30033" lon="-2.33871">
        <ele>21.799999237061</ele>
        <time>2019-05-30T08:21:23.000Z</time>
      </trkpt>
      <trkpt lat="47.30048" lon="-2.33904">
        <ele>21.799999237061</ele>
        <time>2019-05-30T08:21:28.000Z</time>
      </trkpt>
      <trkpt lat="47.30062" lon="-2.33937">
        <ele>22.39999961853</ele>
        <time>2019-05-30T08:21:33.000Z</time>
      </trkpt>
      <trkpt lat="47.30065" lon="-2.33944">
        <ele>22.799999237061</ele>
        <time>2019-05-30T08:21:34.000Z</time>
      </trkpt>
      <trkpt lat="47.30068" lon="-2.3395">
        <ele>23.200000762939</ele>
        <time>2019-05-30T08:21:35.000Z</time>
      </trkpt>
      <trkpt lat="47.30071" lon="-2.33957">
        <ele>23.60000038147</ele>
        <time>2019-05-30T08:21:36.000Z</time>
      </trkpt>
      <trkpt lat="47.30073" lon="-2.33964">
        <ele>24.200000762939</ele>
        <time>2019-05-30T08:21:37.000Z</time>
      </trkpt>
      <trkpt lat="47.30088" lon="-2.34001">
        <ele>24.200000762939</ele>
        <time>2019-05-30T08:21:43.000Z</time>
      </trkpt>
      <trkpt lat="47.30091" lon="-2.34022">
        <ele>24.200000762939</ele>
        <time>2019-05-30T08:21:47.000Z</time>
      </trkpt>
      <trkpt lat="47.30099" lon="-2.34036">
        <ele>24.200000762939</ele>
        <time>2019-05-30T08:21:51.000Z</time>
      </trkpt>
      <trkpt lat="47.30105" lon="-2.34042">
        <ele>24.60000038147</ele>
        <time>2019-05-30T08:21:53.000Z</time>
      </trkpt>
      <trkpt lat="47.30107" lon="-2.34045">
        <ele>25</ele>
        <time>2019-05-30T08:21:54.000Z</time>
      </trkpt>
      <trkpt lat="47.3011" lon="-2.34047">
        <ele>25.39999961853</ele>
        <time>2019-05-30T08:21:55.000Z</time>
      </trkpt>
      <trkpt lat="47.30112" lon="-2.34049">
        <ele>25.799999237061</ele>
        <time>2019-05-30T08:21:56.000Z</time>
      </trkpt>
      <trkpt lat="47.30115" lon="-2.34051">
        <ele>26.200000762939</ele>
        <time>2019-05-30T08:21:57.000Z</time>
      </trkpt>
      <trkpt lat="47.30124" lon="-2.34058">
        <ele>26.200000762939</ele>
        <time>2019-05-30T08:22:03.000Z</time>
      </trkpt>
      <trkpt lat="47.30129" lon="-2.34067">
        <ele>26.200000762939</ele>
        <time>2019-05-30T08:22:08.000Z</time>
      </trkpt>
      <trkpt lat="47.30128" lon="-2.34068">
        <ele>26.200000762939</ele>
        <time>2019-05-30T08:22:09.000Z</time>
      </trkpt>
      <trkpt lat="47.30122" lon="-2.34061">
        <ele>26.200000762939</ele>
        <time>2019-05-30T08:22:14.000Z</time>
      </trkpt>
      <trkpt lat="47.30104" lon="-2.34044">
        <ele>26.200000762939</ele>
        <time>2019-05-30T08:22:21.000Z</time>
      </trkpt>
      <trkpt lat="47.30096" lon="-2.3403">
        <ele>26.200000762939</ele>
        <time>2019-05-30T08:22:26.000Z</time>
      </trkpt>
      <trkpt lat="47.30103" lon="-2.34017">
        <ele>26.200000762939</ele>
        <time>2019-05-30T08:22:29.000Z</time>
      </trkpt>
      <trkpt lat="47.30123" lon="-2.33992">
        <ele>26.200000762939</ele>
        <time>2019-05-30T08:22:35.000Z</time>
      </trkpt>
      <trkpt lat="47.30139" lon="-2.33975">
        <ele>26.200000762939</ele>
        <time>2019-05-30T08:22:40.000Z</time>
      </trkpt>
      <trkpt lat="47.30168" lon="-2.33953">
        <ele>26.60000038147</ele>
        <time>2019-05-30T08:22:48.000Z</time>
      </trkpt>
      <trkpt lat="47.30171" lon="-2.3395">
        <ele>27</ele>
        <time>2019-05-30T08:22:49.000Z</time>
      </trkpt>
      <trkpt lat="47.30174" lon="-2.33947">
        <ele>27.39999961853</ele>
        <time>2019-05-30T08:22:50.000Z</time>
      </trkpt>
      <trkpt lat="47.30178" lon="-2.33944">
        <ele>27.799999237061</ele>
        <time>2019-05-30T08:22:51.000Z</time>
      </trkpt>
      <trkpt lat="47.30181" lon="-2.3394">
        <ele>28.200000762939</ele>
        <time>2019-05-30T08:22:52.000Z</time>
      </trkpt>
      <trkpt lat="47.30185" lon="-2.33936">
        <ele>28.200000762939</ele>
        <time>2019-05-30T08:22:53.000Z</time>
      </trkpt>
      <trkpt lat="47.30203" lon="-2.33915">
        <ele>28.200000762939</ele>
        <time>2019-05-30T08:22:59.000Z</time>
      </trkpt>
      <trkpt lat="47.30225" lon="-2.33894">
        <ele>28.200000762939</ele>
        <time>2019-05-30T08:23:05.000Z</time>
      </trkpt>
      <trkpt lat="47.30244" lon="-2.3388">
        <ele>28.200000762939</ele>
        <time>2019-05-30T08:23:10.000Z</time>
      </trkpt>
      <trkpt lat="47.30248" lon="-2.33878">
        <ele>28.60000038147</ele>
        <time>2019-05-30T08:23:11.000Z</time>
      </trkpt>
      <trkpt lat="47.30252" lon="-2.33875">
        <ele>29</ele>
        <time>2019-05-30T08:23:12.000Z</time>
      </trkpt>
      <trkpt lat="47.30256" lon="-2.33872">
        <ele>29.39999961853</ele>
        <time>2019-05-30T08:23:13.000Z</time>
      </trkpt>
      <trkpt lat="47.3026" lon="-2.33869">
        <ele>29.799999237061</ele>
        <time>2019-05-30T08:23:14.000Z</time>
      </trkpt>
      <trkpt lat="47.30264" lon="-2.33866">
        <ele>30.200000762939</ele>
        <time>2019-05-30T08:23:15.000Z</time>
      </trkpt>
      <trkpt lat="47.30269" lon="-2.33863">
        <ele>30.200000762939</ele>
        <time>2019-05-30T08:23:16.000Z</time>
      </trkpt>
      <trkpt lat="47.30286" lon="-2.33846">
        <ele>30.200000762939</ele>
        <time>2019-05-30T08:23:21.000Z</time>
      </trkpt>
      <trkpt lat="47.3029" lon="-2.33842">
        <ele>30.200000762939</ele>
        <time>2019-05-30T08:23:22.000Z</time>
      </trkpt>
      <trkpt lat="47.30311" lon="-2.33829">
        <ele>30.200000762939</ele>
        <time>2019-05-30T08:23:28.000Z</time>
      </trkpt>
      <trkpt lat="47.3032" lon="-2.33821">
        <ele>30.200000762939</ele>
        <time>2019-05-30T08:23:34.000Z</time>
      </trkpt>
      <trkpt lat="47.3033" lon="-2.33812">
        <ele>30.200000762939</ele>
        <time>2019-05-30T08:23:39.000Z</time>
      </trkpt>
      <trkpt lat="47.30347" lon="-2.33791">
        <ele>30.200000762939</ele>
        <time>2019-05-30T08:23:46.000Z</time>
      </trkpt>
      <trkpt lat="47.30361" lon="-2.33774">
        <ele>30.200000762939</ele>
        <time>2019-05-30T08:23:52.000Z</time>
      </trkpt>
      <trkpt lat="47.30374" lon="-2.33758">
        <ele>30.200000762939</ele>
        <time>2019-05-30T08:23:57.000Z</time>
      </trkpt>
      <trkpt lat="47.30387" lon="-2.33735">
        <ele>30.200000762939</ele>
        <time>2019-05-30T08:24:03.000Z</time>
      </trkpt>
      <trkpt lat="47.30405" lon="-2.33706">
        <ele>30.200000762939</ele>
        <time>2019-05-30T08:24:11.000Z</time>
      </trkpt>
      <trkpt lat="47.30415" lon="-2.33695">
        <ele>30.200000762939</ele>
        <time>2019-05-30T08:24:14.000Z</time>
      </trkpt>
      <trkpt lat="47.30419" lon="-2.33693">
        <ele>30.200000762939</ele>
        <time>2019-05-30T08:24:15.000Z</time>
      </trkpt>
      <trkpt lat="47.30436" lon="-2.33686">
        <ele>30.200000762939</ele>
        <time>2019-05-30T08:24:18.000Z</time>
      </trkpt>
      <trkpt lat="47.30441" lon="-2.33683">
        <ele>30.200000762939</ele>
        <time>2019-05-30T08:24:19.000Z</time>
      </trkpt>
      <trkpt lat="47.30457" lon="-2.33675">
        <ele>30.200000762939</ele>
        <time>2019-05-30T08:24:22.000Z</time>
      </trkpt>
      <trkpt lat="47.30468" lon="-2.33668">
        <ele>30.200000762939</ele>
        <time>2019-05-30T08:24:24.000Z</time>
      </trkpt>
      <trkpt lat="47.3049" lon="-2.33657">
        <ele>30.200000762939</ele>
        <time>2019-05-30T08:24:28.000Z</time>
      </trkpt>
      <trkpt lat="47.30496" lon="-2.33655">
        <ele>30.200000762939</ele>
        <time>2019-05-30T08:24:29.000Z</time>
      </trkpt>
      <trkpt lat="47.30518" lon="-2.33649">
        <ele>30.200000762939</ele>
        <time>2019-05-30T08:24:33.000Z</time>
      </trkpt>
      <trkpt lat="47.30527" lon="-2.33647">
        <ele>30.200000762939</ele>
        <time>2019-05-30T08:24:35.000Z</time>
      </trkpt>
      <trkpt lat="47.30541" lon="-2.33647">
        <ele>30.200000762939</ele>
        <time>2019-05-30T08:24:38.000Z</time>
      </trkpt>
      <trkpt lat="47.30548" lon="-2.33655">
        <ele>30.200000762939</ele>
        <time>2019-05-30T08:24:40.000Z</time>
      </trkpt>
      <trkpt lat="47.30553" lon="-2.33668">
        <ele>30.200000762939</ele>
        <time>2019-05-30T08:24:42.000Z</time>
      </trkpt>
      <trkpt lat="47.30554" lon="-2.33674">
        <ele>30.200000762939</ele>
        <time>2019-05-30T08:24:43.000Z</time>
      </trkpt>
      <trkpt lat="47.30555" lon="-2.3368">
        <ele>30.200000762939</ele>
        <time>2019-05-30T08:24:44.000Z</time>
      </trkpt>
      <trkpt lat="47.30565" lon="-2.33723">
        <ele>30.200000762939</ele>
        <time>2019-05-30T08:24:50.000Z</time>
      </trkpt>
      <trkpt lat="47.30573" lon="-2.33772">
        <ele>30.200000762939</ele>
        <time>2019-05-30T08:24:57.000Z</time>
      </trkpt>
      <trkpt lat="47.30574" lon="-2.33778">
        <ele>30.799999237061</ele>
        <time>2019-05-30T08:24:58.000Z</time>
      </trkpt>
      <trkpt lat="47.30575" lon="-2.33784">
        <ele>31.200000762939</ele>
        <time>2019-05-30T08:24:59.000Z</time>
      </trkpt>
      <trkpt lat="47.30577" lon="-2.3379">
        <ele>31.60000038147</ele>
        <time>2019-05-30T08:25:00.000Z</time>
      </trkpt>
      <trkpt lat="47.30579" lon="-2.33797">
        <ele>32</ele>
        <time>2019-05-30T08:25:01.000Z</time>
      </trkpt>
      <trkpt lat="47.30581" lon="-2.33803">
        <ele>32.400001525879</ele>
        <time>2019-05-30T08:25:02.000Z</time>
      </trkpt>
      <trkpt lat="47.30583" lon="-2.3381">
        <ele>32.400001525879</ele>
        <time>2019-05-30T08:25:03.000Z</time>
      </trkpt>
      <trkpt lat="47.30587" lon="-2.33822">
        <ele>32.400001525879</ele>
        <time>2019-05-30T08:25:05.000Z</time>
      </trkpt>
      <trkpt lat="47.30592" lon="-2.3384">
        <ele>32.400001525879</ele>
        <time>2019-05-30T08:25:08.000Z</time>
      </trkpt>
      <trkpt lat="47.30595" lon="-2.33849">
        <ele>32.400001525879</ele>
        <time>2019-05-30T08:25:10.000Z</time>
      </trkpt>
      <trkpt lat="47.30596" lon="-2.33854">
        <ele>32.400001525879</ele>
        <time>2019-05-30T08:25:11.000Z</time>
      </trkpt>
      <trkpt lat="47.30598" lon="-2.33884">
        <ele>32.400001525879</ele>
        <time>2019-05-30T08:25:17.000Z</time>
      </trkpt>
      <trkpt lat="47.30599" lon="-2.33911">
        <ele>32.400001525879</ele>
        <time>2019-05-30T08:25:21.000Z</time>
      </trkpt>
      <trkpt lat="47.30603" lon="-2.33937">
        <ele>32.400001525879</ele>
        <time>2019-05-30T08:25:25.000Z</time>
      </trkpt>
      <trkpt lat="47.30605" lon="-2.33944">
        <ele>32.400001525879</ele>
        <time>2019-05-30T08:25:26.000Z</time>
      </trkpt>
      <trkpt lat="47.30616" lon="-2.33958">
        <ele>32.400001525879</ele>
        <time>2019-05-30T08:25:29.000Z</time>
      </trkpt>
      <trkpt lat="47.30621" lon="-2.33962">
        <ele>32.400001525879</ele>
        <time>2019-05-30T08:25:30.000Z</time>
      </trkpt>
      <trkpt lat="47.30647" lon="-2.33985">
        <ele>32.400001525879</ele>
        <time>2019-05-30T08:25:36.000Z</time>
      </trkpt>
      <trkpt lat="47.30667" lon="-2.3399">
        <ele>32.400001525879</ele>
        <time>2019-05-30T08:25:40.000Z</time>
      </trkpt>
      <trkpt lat="47.30687" lon="-2.33987">
        <ele>32.400001525879</ele>
        <time>2019-05-30T08:25:44.000Z</time>
      </trkpt>
      <trkpt lat="47.30715" lon="-2.33985">
        <ele>32.400001525879</ele>
        <time>2019-05-30T08:25:49.000Z</time>
      </trkpt>
      <trkpt lat="47.30726" lon="-2.33981">
        <ele>32.400001525879</ele>
        <time>2019-05-30T08:25:51.000Z</time>
      </trkpt>
      <trkpt lat="47.30749" lon="-2.33974">
        <ele>32.400001525879</ele>
        <time>2019-05-30T08:25:55.000Z</time>
      </trkpt>
      <trkpt lat="47.30788" lon="-2.33967">
        <ele>32.400001525879</ele>
        <time>2019-05-30T08:26:02.000Z</time>
      </trkpt>
      <trkpt lat="47.30794" lon="-2.33965">
        <ele>32.400001525879</ele>
        <time>2019-05-30T08:26:03.000Z</time>
      </trkpt>
      <trkpt lat="47.30834" lon="-2.33953">
        <ele>32.400001525879</ele>
        <time>2019-05-30T08:26:10.000Z</time>
      </trkpt>
      <trkpt lat="47.30876" lon="-2.33947">
        <ele>32.400001525879</ele>
        <time>2019-05-30T08:26:17.000Z</time>
      </trkpt>
      <trkpt lat="47.3092" lon="-2.33945">
        <ele>32.400001525879</ele>
        <time>2019-05-30T08:26:25.000Z</time>
      </trkpt>
      <trkpt lat="47.30954" lon="-2.33951">
        <ele>32.799999237061</ele>
        <time>2019-05-30T08:26:31.000Z</time>
      </trkpt>
      <trkpt lat="47.3096" lon="-2.33952">
        <ele>33.200000762939</ele>
        <time>2019-05-30T08:26:32.000Z</time>
      </trkpt>
      <trkpt lat="47.30966" lon="-2.33953">
        <ele>33.599998474121</ele>
        <time>2019-05-30T08:26:33.000Z</time>
      </trkpt>
      <trkpt lat="47.30972" lon="-2.33953">
        <ele>34</ele>
        <time>2019-05-30T08:26:34.000Z</time>
      </trkpt>
      <trkpt lat="47.30978" lon="-2.33954">
        <ele>34.400001525879</ele>
        <time>2019-05-30T08:26:35.000Z</time>
      </trkpt>
      <trkpt lat="47.3099" lon="-2.33953">
        <ele>34.400001525879</ele>
        <time>2019-05-30T08:26:37.000Z</time>
      </trkpt>
      <trkpt lat="47.31024" lon="-2.3395">
        <ele>34.400001525879</ele>
        <time>2019-05-30T08:26:43.000Z</time>
      </trkpt>
      <trkpt lat="47.31048" lon="-2.33945">
        <ele>34</ele>
        <time>2019-05-30T08:26:47.000Z</time>
      </trkpt>
      <trkpt lat="47.31053" lon="-2.33943">
        <ele>33.599998474121</ele>
        <time>2019-05-30T08:26:48.000Z</time>
      </trkpt>
      <trkpt lat="47.31057" lon="-2.33938">
        <ele>33.200000762939</ele>
        <time>2019-05-30T08:26:49.000Z</time>
      </trkpt>
      <trkpt lat="47.3106" lon="-2.33932">
        <ele>32.799999237061</ele>
        <time>2019-05-30T08:26:50.000Z</time>
      </trkpt>
      <trkpt lat="47.3106" lon="-2.33924">
        <ele>32.200000762939</ele>
        <time>2019-05-30T08:26:51.000Z</time>
      </trkpt>
      <trkpt lat="47.31061" lon="-2.33917">
        <ele>32.200000762939</ele>
        <time>2019-05-30T08:26:52.000Z</time>
      </trkpt>
      <trkpt lat="47.31061" lon="-2.3391">
        <ele>32.200000762939</ele>
        <time>2019-05-30T08:26:53.000Z</time>
      </trkpt>
      <trkpt lat="47.31063" lon="-2.3386">
        <ele>32.200000762939</ele>
        <time>2019-05-30T08:26:59.000Z</time>
      </trkpt>
      <trkpt lat="47.31068" lon="-2.33807">
        <ele>32.200000762939</ele>
        <time>2019-05-30T08:27:05.000Z</time>
      </trkpt>
      <trkpt lat="47.3107" lon="-2.33799">
        <ele>32.200000762939</ele>
        <time>2019-05-30T08:27:06.000Z</time>
      </trkpt>
      <trkpt lat="47.31086" lon="-2.33761">
        <ele>32.200000762939</ele>
        <time>2019-05-30T08:27:11.000Z</time>
      </trkpt>
      <trkpt lat="47.31095" lon="-2.33736">
        <ele>32.200000762939</ele>
        <time>2019-05-30T08:27:14.000Z</time>
      </trkpt>
      <trkpt lat="47.31098" lon="-2.3372">
        <ele>32.200000762939</ele>
        <time>2019-05-30T08:27:16.000Z</time>
      </trkpt>
      <trkpt lat="47.31103" lon="-2.33674">
        <ele>31.799999237061</ele>
        <time>2019-05-30T08:27:22.000Z</time>
      </trkpt>
      <trkpt lat="47.31104" lon="-2.33666">
        <ele>31.39999961853</ele>
        <time>2019-05-30T08:27:23.000Z</time>
      </trkpt>
      <trkpt lat="47.31106" lon="-2.33658">
        <ele>31</ele>
        <time>2019-05-30T08:27:24.000Z</time>
      </trkpt>
      <trkpt lat="47.31107" lon="-2.3365">
        <ele>30.60000038147</ele>
        <time>2019-05-30T08:27:25.000Z</time>
      </trkpt>
      <trkpt lat="47.31108" lon="-2.33642">
        <ele>30.200000762939</ele>
        <time>2019-05-30T08:27:26.000Z</time>
      </trkpt>
      <trkpt lat="47.31112" lon="-2.33601">
        <ele>30.200000762939</ele>
        <time>2019-05-30T08:27:31.000Z</time>
      </trkpt>
      <trkpt lat="47.31113" lon="-2.33569">
        <ele>30.200000762939</ele>
        <time>2019-05-30T08:27:35.000Z</time>
      </trkpt>
      <trkpt lat="47.31111" lon="-2.33554">
        <ele>30.200000762939</ele>
        <time>2019-05-30T08:27:37.000Z</time>
      </trkpt>
      <trkpt lat="47.31105" lon="-2.33513">
        <ele>30.200000762939</ele>
        <time>2019-05-30T08:27:42.000Z</time>
      </trkpt>
      <trkpt lat="47.31096" lon="-2.33469">
        <ele>30.200000762939</ele>
        <time>2019-05-30T08:27:47.000Z</time>
      </trkpt>
      <trkpt lat="47.31092" lon="-2.33403">
        <ele>30.200000762939</ele>
        <time>2019-05-30T08:27:54.000Z</time>
      </trkpt>
      <trkpt lat="47.31093" lon="-2.33327">
        <ele>30.200000762939</ele>
        <time>2019-05-30T08:28:02.000Z</time>
      </trkpt>
      <trkpt lat="47.31097" lon="-2.3327">
        <ele>29.799999237061</ele>
        <time>2019-05-30T08:28:08.000Z</time>
      </trkpt>
      <trkpt lat="47.31098" lon="-2.3326">
        <ele>29.39999961853</ele>
        <time>2019-05-30T08:28:09.000Z</time>
      </trkpt>
      <trkpt lat="47.31099" lon="-2.33251">
        <ele>29</ele>
        <time>2019-05-30T08:28:10.000Z</time>
      </trkpt>
      <trkpt lat="47.31099" lon="-2.33242">
        <ele>28.60000038147</ele>
        <time>2019-05-30T08:28:11.000Z</time>
      </trkpt>
      <trkpt lat="47.31101" lon="-2.33233">
        <ele>28.200000762939</ele>
        <time>2019-05-30T08:28:12.000Z</time>
      </trkpt>
      <trkpt lat="47.31108" lon="-2.33217">
        <ele>28.200000762939</ele>
        <time>2019-05-30T08:28:14.000Z</time>
      </trkpt>
      <trkpt lat="47.31129" lon="-2.33197">
        <ele>28.200000762939</ele>
        <time>2019-05-30T08:28:18.000Z</time>
      </trkpt>
      <trkpt lat="47.31135" lon="-2.33193">
        <ele>28.200000762939</ele>
        <time>2019-05-30T08:28:19.000Z</time>
      </trkpt>
      <trkpt lat="47.31158" lon="-2.33178">
        <ele>28.200000762939</ele>
        <time>2019-05-30T08:28:23.000Z</time>
      </trkpt>
      <trkpt lat="47.31163" lon="-2.33174">
        <ele>28.200000762939</ele>
        <time>2019-05-30T08:28:24.000Z</time>
      </trkpt>
      <trkpt lat="47.31178" lon="-2.33161">
        <ele>28.200000762939</ele>
        <time>2019-05-30T08:28:27.000Z</time>
      </trkpt>
      <trkpt lat="47.31184" lon="-2.33157">
        <ele>28.200000762939</ele>
        <time>2019-05-30T08:28:28.000Z</time>
      </trkpt>
      <trkpt lat="47.31191" lon="-2.33154">
        <ele>27.799999237061</ele>
        <time>2019-05-30T08:28:29.000Z</time>
      </trkpt>
      <trkpt lat="47.31197" lon="-2.33151">
        <ele>27.39999961853</ele>
        <time>2019-05-30T08:28:30.000Z</time>
      </trkpt>
      <trkpt lat="47.31204" lon="-2.33149">
        <ele>27</ele>
        <time>2019-05-30T08:28:31.000Z</time>
      </trkpt>
      <trkpt lat="47.31212" lon="-2.33148">
        <ele>26.60000038147</ele>
        <time>2019-05-30T08:28:32.000Z</time>
      </trkpt>
      <trkpt lat="47.31219" lon="-2.33148">
        <ele>26.200000762939</ele>
        <time>2019-05-30T08:28:33.000Z</time>
      </trkpt>
      <trkpt lat="47.3124" lon="-2.3315">
        <ele>26.200000762939</ele>
        <time>2019-05-30T08:28:36.000Z</time>
      </trkpt>
      <trkpt lat="47.31252" lon="-2.33153">
        <ele>26.200000762939</ele>
        <time>2019-05-30T08:28:38.000Z</time>
      </trkpt>
      <trkpt lat="47.31287" lon="-2.33168">
        <ele>26.200000762939</ele>
        <time>2019-05-30T08:28:44.000Z</time>
      </trkpt>
      <trkpt lat="47.31314" lon="-2.33191">
        <ele>26.200000762939</ele>
        <time>2019-05-30T08:28:49.000Z</time>
      </trkpt>
      <trkpt lat="47.31365" lon="-2.33232">
        <ele>26.200000762939</ele>
        <time>2019-05-30T08:28:58.000Z</time>
      </trkpt>
      <trkpt lat="47.31416" lon="-2.33268">
        <ele>26.200000762939</ele>
        <time>2019-05-30T08:29:07.000Z</time>
      </trkpt>
      <trkpt lat="47.31445" lon="-2.33299">
        <ele>26.200000762939</ele>
        <time>2019-05-30T08:29:13.000Z</time>
      </trkpt>
      <trkpt lat="47.31463" lon="-2.33332">
        <ele>26.60000038147</ele>
        <time>2019-05-30T08:29:18.000Z</time>
      </trkpt>
      <trkpt lat="47.31466" lon="-2.33339">
        <ele>27</ele>
        <time>2019-05-30T08:29:19.000Z</time>
      </trkpt>
      <trkpt lat="47.3147" lon="-2.33346">
        <ele>27.39999961853</ele>
        <time>2019-05-30T08:29:20.000Z</time>
      </trkpt>
      <trkpt lat="47.31473" lon="-2.33353">
        <ele>27.799999237061</ele>
        <time>2019-05-30T08:29:21.000Z</time>
      </trkpt>
      <trkpt lat="47.31477" lon="-2.3336">
        <ele>28.39999961853</ele>
        <time>2019-05-30T08:29:22.000Z</time>
      </trkpt>
      <trkpt lat="47.31481" lon="-2.33365">
        <ele>28.39999961853</ele>
        <time>2019-05-30T08:29:23.000Z</time>
      </trkpt>
      <trkpt lat="47.31485" lon="-2.33368">
        <ele>28.39999961853</ele>
        <time>2019-05-30T08:29:24.000Z</time>
      </trkpt>
      <trkpt lat="47.315" lon="-2.33362">
        <ele>28.39999961853</ele>
        <time>2019-05-30T08:29:27.000Z</time>
      </trkpt>
      <trkpt lat="47.31506" lon="-2.33358">
        <ele>28.39999961853</ele>
        <time>2019-05-30T08:29:28.000Z</time>
      </trkpt>
      <trkpt lat="47.31533" lon="-2.33344">
        <ele>28.39999961853</ele>
        <time>2019-05-30T08:29:33.000Z</time>
      </trkpt>
      <trkpt lat="47.31556" lon="-2.33334">
        <ele>28.39999961853</ele>
        <time>2019-05-30T08:29:37.000Z</time>
      </trkpt>
      <trkpt lat="47.31567" lon="-2.33329">
        <ele>28.39999961853</ele>
        <time>2019-05-30T08:29:39.000Z</time>
      </trkpt>
      <trkpt lat="47.31583" lon="-2.33321">
        <ele>28.39999961853</ele>
        <time>2019-05-30T08:29:42.000Z</time>
      </trkpt>
      <trkpt lat="47.31601" lon="-2.33312">
        <ele>28.39999961853</ele>
        <time>2019-05-30T08:29:45.000Z</time>
      </trkpt>
      <trkpt lat="47.31642" lon="-2.3329">
        <ele>28.39999961853</ele>
        <time>2019-05-30T08:29:52.000Z</time>
      </trkpt>
      <trkpt lat="47.31687" lon="-2.33267">
        <ele>28.39999961853</ele>
        <time>2019-05-30T08:29:59.000Z</time>
      </trkpt>
      <trkpt lat="47.31704" lon="-2.33258">
        <ele>28.39999961853</ele>
        <time>2019-05-30T08:30:02.000Z</time>
      </trkpt>
      <trkpt lat="47.31717" lon="-2.33251">
        <ele>28.39999961853</ele>
        <time>2019-05-30T08:30:04.000Z</time>
      </trkpt>
      <trkpt lat="47.31722" lon="-2.3325">
        <ele>27.799999237061</ele>
        <time>2019-05-30T08:30:05.000Z</time>
      </trkpt>
      <trkpt lat="47.31728" lon="-2.33247">
        <ele>27.39999961853</ele>
        <time>2019-05-30T08:30:06.000Z</time>
      </trkpt>
      <trkpt lat="47.31734" lon="-2.33246">
        <ele>27</ele>
        <time>2019-05-30T08:30:07.000Z</time>
      </trkpt>
      <trkpt lat="47.31738" lon="-2.33246">
        <ele>26.60000038147</ele>
        <time>2019-05-30T08:30:08.000Z</time>
      </trkpt>
      <trkpt lat="47.31741" lon="-2.33249">
        <ele>26</ele>
        <time>2019-05-30T08:30:09.000Z</time>
      </trkpt>
      <trkpt lat="47.31744" lon="-2.33258">
        <ele>26</ele>
        <time>2019-05-30T08:30:11.000Z</time>
      </trkpt>
      <trkpt lat="47.3175" lon="-2.33285">
        <ele>25.60000038147</ele>
        <time>2019-05-30T08:30:15.000Z</time>
      </trkpt>
      <trkpt lat="47.31752" lon="-2.33292">
        <ele>25.200000762939</ele>
        <time>2019-05-30T08:30:16.000Z</time>
      </trkpt>
      <trkpt lat="47.31754" lon="-2.33299">
        <ele>24.799999237061</ele>
        <time>2019-05-30T08:30:17.000Z</time>
      </trkpt>
      <trkpt lat="47.31756" lon="-2.33305">
        <ele>24.39999961853</ele>
        <time>2019-05-30T08:30:18.000Z</time>
      </trkpt>
      <trkpt lat="47.3176" lon="-2.33312">
        <ele>24</ele>
        <time>2019-05-30T08:30:19.000Z</time>
      </trkpt>
      <trkpt lat="47.31764" lon="-2.33318">
        <ele>24</ele>
        <time>2019-05-30T08:30:20.000Z</time>
      </trkpt>
      <trkpt lat="47.31779" lon="-2.33324">
        <ele>24</ele>
        <time>2019-05-30T08:30:23.000Z</time>
      </trkpt>
      <trkpt lat="47.31789" lon="-2.33318">
        <ele>23.60000038147</ele>
        <time>2019-05-30T08:30:25.000Z</time>
      </trkpt>
      <trkpt lat="47.31793" lon="-2.33314">
        <ele>23.200000762939</ele>
        <time>2019-05-30T08:30:26.000Z</time>
      </trkpt>
      <trkpt lat="47.31797" lon="-2.3331">
        <ele>22.60000038147</ele>
        <time>2019-05-30T08:30:27.000Z</time>
      </trkpt>
      <trkpt lat="47.31802" lon="-2.33306">
        <ele>22.200000762939</ele>
        <time>2019-05-30T08:30:28.000Z</time>
      </trkpt>
      <trkpt lat="47.31807" lon="-2.33302">
        <ele>21.799999237061</ele>
        <time>2019-05-30T08:30:29.000Z</time>
      </trkpt>
      <trkpt lat="47.31813" lon="-2.33298">
        <ele>21.39999961853</ele>
        <time>2019-05-30T08:30:30.000Z</time>
      </trkpt>
      <trkpt lat="47.31818" lon="-2.33293">
        <ele>20.799999237061</ele>
        <time>2019-05-30T08:30:31.000Z</time>
      </trkpt>
      <trkpt lat="47.31822" lon="-2.33289">
        <ele>20.39999961853</ele>
        <time>2019-05-30T08:30:32.000Z</time>
      </trkpt>
      <trkpt lat="47.31828" lon="-2.33284">
        <ele>20</ele>
        <time>2019-05-30T08:30:33.000Z</time>
      </trkpt>
      <trkpt lat="47.31831" lon="-2.33279">
        <ele>19.60000038147</ele>
        <time>2019-05-30T08:30:34.000Z</time>
      </trkpt>
      <trkpt lat="47.31832" lon="-2.33275">
        <ele>19.60000038147</ele>
        <time>2019-05-30T08:30:35.000Z</time>
      </trkpt>
      <trkpt lat="47.31838" lon="-2.33261">
        <ele>19.200000762939</ele>
        <time>2019-05-30T08:30:38.000Z</time>
      </trkpt>
      <trkpt lat="47.31841" lon="-2.33254">
        <ele>18.60000038147</ele>
        <time>2019-05-30T08:30:39.000Z</time>
      </trkpt>
      <trkpt lat="47.31843" lon="-2.33247">
        <ele>18.200000762939</ele>
        <time>2019-05-30T08:30:40.000Z</time>
      </trkpt>
      <trkpt lat="47.31844" lon="-2.33239">
        <ele>17.799999237061</ele>
        <time>2019-05-30T08:30:41.000Z</time>
      </trkpt>
      <trkpt lat="47.31846" lon="-2.33231">
        <ele>17.39999961853</ele>
        <time>2019-05-30T08:30:42.000Z</time>
      </trkpt>
      <trkpt lat="47.31848" lon="-2.33206">
        <ele>17.39999961853</ele>
        <time>2019-05-30T08:30:45.000Z</time>
      </trkpt>
      <trkpt lat="47.31853" lon="-2.3316">
        <ele>17</ele>
        <time>2019-05-30T08:30:50.000Z</time>
      </trkpt>
      <trkpt lat="47.31854" lon="-2.3315">
        <ele>16.200000762939</ele>
        <time>2019-05-30T08:30:51.000Z</time>
      </trkpt>
      <trkpt lat="47.31855" lon="-2.3314">
        <ele>15.800000190735</ele>
        <time>2019-05-30T08:30:52.000Z</time>
      </trkpt>
      <trkpt lat="47.31857" lon="-2.33129">
        <ele>15.39999961853</ele>
        <time>2019-05-30T08:30:53.000Z</time>
      </trkpt>
      <trkpt lat="47.31861" lon="-2.33106">
        <ele>15</ele>
        <time>2019-05-30T08:30:55.000Z</time>
      </trkpt>
      <trkpt lat="47.31862" lon="-2.33094">
        <ele>14.39999961853</ele>
        <time>2019-05-30T08:30:56.000Z</time>
      </trkpt>
      <trkpt lat="47.31863" lon="-2.33081">
        <ele>14</ele>
        <time>2019-05-30T08:30:57.000Z</time>
      </trkpt>
      <trkpt lat="47.31865" lon="-2.33069">
        <ele>13.60000038147</ele>
        <time>2019-05-30T08:30:58.000Z</time>
      </trkpt>
      <trkpt lat="47.31866" lon="-2.33058">
        <ele>13.199999809265</ele>
        <time>2019-05-30T08:30:59.000Z</time>
      </trkpt>
      <trkpt lat="47.31868" lon="-2.33011">
        <ele>13.199999809265</ele>
        <time>2019-05-30T08:31:03.000Z</time>
      </trkpt>
      <trkpt lat="47.3187" lon="-2.3299">
        <ele>13.199999809265</ele>
        <time>2019-05-30T08:31:05.000Z</time>
      </trkpt>
      <trkpt lat="47.31874" lon="-2.32971">
        <ele>13.199999809265</ele>
        <time>2019-05-30T08:31:07.000Z</time>
      </trkpt>
      <trkpt lat="47.31878" lon="-2.32944">
        <ele>13.199999809265</ele>
        <time>2019-05-30T08:31:10.000Z</time>
      </trkpt>
      <trkpt lat="47.31879" lon="-2.32927">
        <ele>13.199999809265</ele>
        <time>2019-05-30T08:31:12.000Z</time>
      </trkpt>
      <trkpt lat="47.3188" lon="-2.3289">
        <ele>13.199999809265</ele>
        <time>2019-05-30T08:31:16.000Z</time>
      </trkpt>
      <trkpt lat="47.31882" lon="-2.32871">
        <ele>13.199999809265</ele>
        <time>2019-05-30T08:31:18.000Z</time>
      </trkpt>
      <trkpt lat="47.31883" lon="-2.32836">
        <ele>13.199999809265</ele>
        <time>2019-05-30T08:31:22.000Z</time>
      </trkpt>
      <trkpt lat="47.31882" lon="-2.3282">
        <ele>13.199999809265</ele>
        <time>2019-05-30T08:31:24.000Z</time>
      </trkpt>
      <trkpt lat="47.31881" lon="-2.32803">
        <ele>13.199999809265</ele>
        <time>2019-05-30T08:31:26.000Z</time>
      </trkpt>
      <trkpt lat="47.31879" lon="-2.32773">
        <ele>13.199999809265</ele>
        <time>2019-05-30T08:31:30.000Z</time>
      </trkpt>
      <trkpt lat="47.31877" lon="-2.32764">
        <ele>13.199999809265</ele>
        <time>2019-05-30T08:31:31.000Z</time>
      </trkpt>
      <trkpt lat="47.31862" lon="-2.32725">
        <ele>13.199999809265</ele>
        <time>2019-05-30T08:31:36.000Z</time>
      </trkpt>
      <trkpt lat="47.31841" lon="-2.32676">
        <ele>13.60000038147</ele>
        <time>2019-05-30T08:31:43.000Z</time>
      </trkpt>
      <trkpt lat="47.31839" lon="-2.32669">
        <ele>14</ele>
        <time>2019-05-30T08:31:44.000Z</time>
      </trkpt>
      <trkpt lat="47.31837" lon="-2.32663">
        <ele>14.60000038147</ele>
        <time>2019-05-30T08:31:45.000Z</time>
      </trkpt>
      <trkpt lat="47.31835" lon="-2.32657">
        <ele>15</ele>
        <time>2019-05-30T08:31:46.000Z</time>
      </trkpt>
      <trkpt lat="47.31834" lon="-2.32651">
        <ele>15.39999961853</ele>
        <time>2019-05-30T08:31:47.000Z</time>
      </trkpt>
      <trkpt lat="47.31831" lon="-2.3264">
        <ele>15.39999961853</ele>
        <time>2019-05-30T08:31:49.000Z</time>
      </trkpt>
      <trkpt lat="47.31823" lon="-2.32606">
        <ele>15.39999961853</ele>
        <time>2019-05-30T08:31:55.000Z</time>
      </trkpt>
      <trkpt lat="47.31813" lon="-2.32568">
        <ele>15.39999961853</ele>
        <time>2019-05-30T08:32:01.000Z</time>
      </trkpt>
      <trkpt lat="47.31811" lon="-2.32561">
        <ele>15.800000190735</ele>
        <time>2019-05-30T08:32:02.000Z</time>
      </trkpt>
      <trkpt lat="47.31809" lon="-2.32555">
        <ele>16.200000762939</ele>
        <time>2019-05-30T08:32:03.000Z</time>
      </trkpt>
      <trkpt lat="47.31807" lon="-2.3255">
        <ele>16.60000038147</ele>
        <time>2019-05-30T08:32:04.000Z</time>
      </trkpt>
      <trkpt lat="47.31805" lon="-2.32544">
        <ele>17.60000038147</ele>
        <time>2019-05-30T08:32:05.000Z</time>
      </trkpt>
      <trkpt lat="47.31803" lon="-2.32534">
        <ele>17.60000038147</ele>
        <time>2019-05-30T08:32:07.000Z</time>
      </trkpt>
      <trkpt lat="47.31795" lon="-2.32507">
        <ele>18</ele>
        <time>2019-05-30T08:32:12.000Z</time>
      </trkpt>
      <trkpt lat="47.31794" lon="-2.32503">
        <ele>18.39999961853</ele>
        <time>2019-05-30T08:32:13.000Z</time>
      </trkpt>
      <trkpt lat="47.31792" lon="-2.32499">
        <ele>18.799999237061</ele>
        <time>2019-05-30T08:32:14.000Z</time>
      </trkpt>
      <trkpt lat="47.31791" lon="-2.32494">
        <ele>19.200000762939</ele>
        <time>2019-05-30T08:32:15.000Z</time>
      </trkpt>
      <trkpt lat="47.31789" lon="-2.32491">
        <ele>19.60000038147</ele>
        <time>2019-05-30T08:32:16.000Z</time>
      </trkpt>
      <trkpt lat="47.31787" lon="-2.32483">
        <ele>19.60000038147</ele>
        <time>2019-05-30T08:32:18.000Z</time>
      </trkpt>
      <trkpt lat="47.31785" lon="-2.3247">
        <ele>20</ele>
        <time>2019-05-30T08:32:20.000Z</time>
      </trkpt>
      <trkpt lat="47.31784" lon="-2.32463">
        <ele>20.39999961853</ele>
        <time>2019-05-30T08:32:21.000Z</time>
      </trkpt>
      <trkpt lat="47.31784" lon="-2.32456">
        <ele>21</ele>
        <time>2019-05-30T08:32:22.000Z</time>
      </trkpt>
      <trkpt lat="47.31783" lon="-2.3245">
        <ele>21.39999961853</ele>
        <time>2019-05-30T08:32:23.000Z</time>
      </trkpt>
      <trkpt lat="47.31783" lon="-2.32443">
        <ele>21.799999237061</ele>
        <time>2019-05-30T08:32:24.000Z</time>
      </trkpt>
      <trkpt lat="47.3178" lon="-2.3241">
        <ele>21.799999237061</ele>
        <time>2019-05-30T08:32:29.000Z</time>
      </trkpt>
      <trkpt lat="47.31778" lon="-2.32403">
        <ele>21.799999237061</ele>
        <time>2019-05-30T08:32:30.000Z</time>
      </trkpt>
      <trkpt lat="47.31775" lon="-2.3238">
        <ele>22.200000762939</ele>
        <time>2019-05-30T08:32:34.000Z</time>
      </trkpt>
      <trkpt lat="47.31774" lon="-2.32373">
        <ele>22.60000038147</ele>
        <time>2019-05-30T08:32:35.000Z</time>
      </trkpt>
      <trkpt lat="47.31773" lon="-2.32368">
        <ele>23</ele>
        <time>2019-05-30T08:32:36.000Z</time>
      </trkpt>
      <trkpt lat="47.31772" lon="-2.32361">
        <ele>23.60000038147</ele>
        <time>2019-05-30T08:32:37.000Z</time>
      </trkpt>
      <trkpt lat="47.31771" lon="-2.32355">
        <ele>24</ele>
        <time>2019-05-30T08:32:38.000Z</time>
      </trkpt>
      <trkpt lat="47.3177" lon="-2.32345">
        <ele>24</ele>
        <time>2019-05-30T08:32:40.000Z</time>
      </trkpt>
      <trkpt lat="47.31765" lon="-2.32314">
        <ele>24</ele>
        <time>2019-05-30T08:32:46.000Z</time>
      </trkpt>
      <trkpt lat="47.3176" lon="-2.32283">
        <ele>24</ele>
        <time>2019-05-30T08:32:52.000Z</time>
      </trkpt>
      <trkpt lat="47.31755" lon="-2.32254">
        <ele>24</ele>
        <time>2019-05-30T08:32:58.000Z</time>
      </trkpt>
      <trkpt lat="47.31755" lon="-2.3225">
        <ele>24.39999961853</ele>
        <time>2019-05-30T08:32:59.000Z</time>
      </trkpt>
      <trkpt lat="47.31756" lon="-2.32249">
        <ele>24.799999237061</ele>
        <time>2019-05-30T08:33:00.000Z</time>
      </trkpt>
      <trkpt lat="47.31757" lon="-2.32247">
        <ele>25.200000762939</ele>
        <time>2019-05-30T08:33:01.000Z</time>
      </trkpt>
      <trkpt lat="47.31759" lon="-2.32245">
        <ele>25.60000038147</ele>
        <time>2019-05-30T08:33:02.000Z</time>
      </trkpt>
      <trkpt lat="47.31761" lon="-2.32244">
        <ele>26</ele>
        <time>2019-05-30T08:33:03.000Z</time>
      </trkpt>
      <trkpt lat="47.31767" lon="-2.32241">
        <ele>26</ele>
        <time>2019-05-30T08:33:06.000Z</time>
      </trkpt>
      <trkpt lat="47.3177" lon="-2.3224">
        <ele>26</ele>
        <time>2019-05-30T08:33:07.000Z</time>
      </trkpt>
      <trkpt lat="47.31788" lon="-2.32234">
        <ele>26</ele>
        <time>2019-05-30T08:33:13.000Z</time>
      </trkpt>
      <trkpt lat="47.31812" lon="-2.32228">
        <ele>26</ele>
        <time>2019-05-30T08:33:18.000Z</time>
      </trkpt>
      <trkpt lat="47.31832" lon="-2.32224">
        <ele>25.60000038147</ele>
        <time>2019-05-30T08:33:22.000Z</time>
      </trkpt>
      <trkpt lat="47.31838" lon="-2.32222">
        <ele>25.200000762939</ele>
        <time>2019-05-30T08:33:23.000Z</time>
      </trkpt>
      <trkpt lat="47.31845" lon="-2.3222">
        <ele>24.799999237061</ele>
        <time>2019-05-30T08:33:24.000Z</time>
      </trkpt>
      <trkpt lat="47.31852" lon="-2.32218">
        <ele>24.200000762939</ele>
        <time>2019-05-30T08:33:25.000Z</time>
      </trkpt>
      <trkpt lat="47.3186" lon="-2.32216">
        <ele>23.799999237061</ele>
        <time>2019-05-30T08:33:26.000Z</time>
      </trkpt>
      <trkpt lat="47.31876" lon="-2.32211">
        <ele>23.39999961853</ele>
        <time>2019-05-30T08:33:28.000Z</time>
      </trkpt>
      <trkpt lat="47.31884" lon="-2.32209">
        <ele>23</ele>
        <time>2019-05-30T08:33:29.000Z</time>
      </trkpt>
      <trkpt lat="47.31891" lon="-2.32207">
        <ele>22.60000038147</ele>
        <time>2019-05-30T08:33:30.000Z</time>
      </trkpt>
      <trkpt lat="47.31898" lon="-2.32207">
        <ele>22.200000762939</ele>
        <time>2019-05-30T08:33:31.000Z</time>
      </trkpt>
      <trkpt lat="47.31905" lon="-2.32206">
        <ele>21.799999237061</ele>
        <time>2019-05-30T08:33:32.000Z</time>
      </trkpt>
      <trkpt lat="47.31913" lon="-2.32207">
        <ele>21.799999237061</ele>
        <time>2019-05-30T08:33:33.000Z</time>
      </trkpt>
      <trkpt lat="47.31921" lon="-2.32209">
        <ele>21.200000762939</ele>
        <time>2019-05-30T08:33:34.000Z</time>
      </trkpt>
      <trkpt lat="47.31929" lon="-2.32211">
        <ele>20.799999237061</ele>
        <time>2019-05-30T08:33:35.000Z</time>
      </trkpt>
      <trkpt lat="47.31936" lon="-2.32213">
        <ele>20.39999961853</ele>
        <time>2019-05-30T08:33:36.000Z</time>
      </trkpt>
      <trkpt lat="47.31942" lon="-2.32214">
        <ele>19.799999237061</ele>
        <time>2019-05-30T08:33:37.000Z</time>
      </trkpt>
      <trkpt lat="47.31947" lon="-2.32216">
        <ele>19.39999961853</ele>
        <time>2019-05-30T08:33:38.000Z</time>
      </trkpt>
      <trkpt lat="47.31952" lon="-2.32217">
        <ele>18.799999237061</ele>
        <time>2019-05-30T08:33:39.000Z</time>
      </trkpt>
      <trkpt lat="47.31954" lon="-2.32221">
        <ele>18.39999961853</ele>
        <time>2019-05-30T08:33:40.000Z</time>
      </trkpt>
      <trkpt lat="47.31955" lon="-2.32226">
        <ele>17.60000038147</ele>
        <time>2019-05-30T08:33:41.000Z</time>
      </trkpt>
      <trkpt lat="47.31954" lon="-2.32231">
        <ele>17</ele>
        <time>2019-05-30T08:33:42.000Z</time>
      </trkpt>
      <trkpt lat="47.31953" lon="-2.32237">
        <ele>16.200000762939</ele>
        <time>2019-05-30T08:33:43.000Z</time>
      </trkpt>
      <trkpt lat="47.31951" lon="-2.32242">
        <ele>14.800000190735</ele>
        <time>2019-05-30T08:33:44.000Z</time>
      </trkpt>
      <trkpt lat="47.31948" lon="-2.32263">
        <ele>14.800000190735</ele>
        <time>2019-05-30T08:33:48.000Z</time>
      </trkpt>
      <trkpt lat="47.31951" lon="-2.32266">
        <ele>14.800000190735</ele>
        <time>2019-05-30T08:33:49.000Z</time>
      </trkpt>
      <trkpt lat="47.31954" lon="-2.32266">
        <ele>14.39999961853</ele>
        <time>2019-05-30T08:33:50.000Z</time>
      </trkpt>
      <trkpt lat="47.31958" lon="-2.3226">
        <ele>13.800000190735</ele>
        <time>2019-05-30T08:33:51.000Z</time>
      </trkpt>
      <trkpt lat="47.31961" lon="-2.32253">
        <ele>13.39999961853</ele>
        <time>2019-05-30T08:33:52.000Z</time>
      </trkpt>
      <trkpt lat="47.31965" lon="-2.32246">
        <ele>13</ele>
        <time>2019-05-30T08:33:53.000Z</time>
      </trkpt>
      <trkpt lat="47.31969" lon="-2.3224">
        <ele>12.39999961853</ele>
        <time>2019-05-30T08:33:54.000Z</time>
      </trkpt>
      <trkpt lat="47.31974" lon="-2.32233">
        <ele>12</ele>
        <time>2019-05-30T08:33:55.000Z</time>
      </trkpt>
      <trkpt lat="47.3198" lon="-2.32226">
        <ele>11.60000038147</ele>
        <time>2019-05-30T08:33:56.000Z</time>
      </trkpt>
      <trkpt lat="47.31986" lon="-2.32219">
        <ele>11.199999809265</ele>
        <time>2019-05-30T08:33:57.000Z</time>
      </trkpt>
      <trkpt lat="47.31992" lon="-2.32212">
        <ele>10.800000190735</ele>
        <time>2019-05-30T08:33:58.000Z</time>
      </trkpt>
      <trkpt lat="47.31999" lon="-2.32206">
        <ele>10.39999961853</ele>
        <time>2019-05-30T08:33:59.000Z</time>
      </trkpt>
      <trkpt lat="47.32005" lon="-2.32199">
        <ele>10</ele>
        <time>2019-05-30T08:34:00.000Z</time>
      </trkpt>
      <trkpt lat="47.32027" lon="-2.32187">
        <ele>8.8000001907349</ele>
        <time>2019-05-30T08:34:03.000Z</time>
      </trkpt>
      <trkpt lat="47.32035" lon="-2.32186">
        <ele>8.3999996185303</ele>
        <time>2019-05-30T08:34:04.000Z</time>
      </trkpt>
      <trkpt lat="47.32091" lon="-2.32182">
        <ele>8.3999996185303</ele>
        <time>2019-05-30T08:34:11.000Z</time>
      </trkpt>
      <trkpt lat="47.32125" lon="-2.32174">
        <ele>8.3999996185303</ele>
        <time>2019-05-30T08:34:15.000Z</time>
      </trkpt>
      <trkpt lat="47.32133" lon="-2.32171">
        <ele>8.3999996185303</ele>
        <time>2019-05-30T08:34:16.000Z</time>
      </trkpt>
      <trkpt lat="47.3214" lon="-2.32166">
        <ele>8.3999996185303</ele>
        <time>2019-05-30T08:34:17.000Z</time>
      </trkpt>
      <trkpt lat="47.32154" lon="-2.32153">
        <ele>8</ele>
        <time>2019-05-30T08:34:19.000Z</time>
      </trkpt>
      <trkpt lat="47.32161" lon="-2.32148">
        <ele>7.5999999046326</ele>
        <time>2019-05-30T08:34:20.000Z</time>
      </trkpt>
      <trkpt lat="47.32167" lon="-2.32142">
        <ele>7.1999998092651</ele>
        <time>2019-05-30T08:34:21.000Z</time>
      </trkpt>
      <trkpt lat="47.32173" lon="-2.32136">
        <ele>6.8000001907349</ele>
        <time>2019-05-30T08:34:22.000Z</time>
      </trkpt>
      <trkpt lat="47.32178" lon="-2.32131">
        <ele>6.1999998092651</ele>
        <time>2019-05-30T08:34:23.000Z</time>
      </trkpt>
      <trkpt lat="47.32189" lon="-2.32122">
        <ele>6.1999998092651</ele>
        <time>2019-05-30T08:34:25.000Z</time>
      </trkpt>
      <trkpt lat="47.32193" lon="-2.32118">
        <ele>6.1999998092651</ele>
        <time>2019-05-30T08:34:26.000Z</time>
      </trkpt>
      <trkpt lat="47.32201" lon="-2.32114">
        <ele>6.1999998092651</ele>
        <time>2019-05-30T08:34:29.000Z</time>
      </trkpt>
      <trkpt lat="47.32221" lon="-2.32109">
        <ele>6.1999998092651</ele>
        <time>2019-05-30T08:34:34.000Z</time>
      </trkpt>
      <trkpt lat="47.32247" lon="-2.32105">
        <ele>6.1999998092651</ele>
        <time>2019-05-30T08:34:39.000Z</time>
      </trkpt>
      <trkpt lat="47.32284" lon="-2.321">
        <ele>6.1999998092651</ele>
        <time>2019-05-30T08:34:45.000Z</time>
      </trkpt>
      <trkpt lat="47.32304" lon="-2.32099">
        <ele>6.1999998092651</ele>
        <time>2019-05-30T08:34:48.000Z</time>
      </trkpt>
      <trkpt lat="47.32323" lon="-2.32102">
        <ele>6.1999998092651</ele>
        <time>2019-05-30T08:34:51.000Z</time>
      </trkpt>
      <trkpt lat="47.32346" lon="-2.32104">
        <ele>6.1999998092651</ele>
        <time>2019-05-30T08:34:56.000Z</time>
      </trkpt>
      <trkpt lat="47.32366" lon="-2.32107">
        <ele>6.1999998092651</ele>
        <time>2019-05-30T08:35:01.000Z</time>
      </trkpt>
      <trkpt lat="47.32393" lon="-2.32106">
        <ele>6.1999998092651</ele>
        <time>2019-05-30T08:35:06.000Z</time>
      </trkpt>
      <trkpt lat="47.32427" lon="-2.32103">
        <ele>6.1999998092651</ele>
        <time>2019-05-30T08:35:12.000Z</time>
      </trkpt>
      <trkpt lat="47.32473" lon="-2.321">
        <ele>6.1999998092651</ele>
        <time>2019-05-30T08:35:19.000Z</time>
      </trkpt>
      <trkpt lat="47.32496" lon="-2.32094">
        <ele>6.1999998092651</ele>
        <time>2019-05-30T08:35:23.000Z</time>
      </trkpt>
      <trkpt lat="47.32499" lon="-2.32087">
        <ele>6.1999998092651</ele>
        <time>2019-05-30T08:35:24.000Z</time>
      </trkpt>
      <trkpt lat="47.325" lon="-2.32064">
        <ele>6.1999998092651</ele>
        <time>2019-05-30T08:35:27.000Z</time>
      </trkpt>
      <trkpt lat="47.325" lon="-2.32056">
        <ele>6.1999998092651</ele>
        <time>2019-05-30T08:35:28.000Z</time>
      </trkpt>
      <trkpt lat="47.32501" lon="-2.32021">
        <ele>6.1999998092651</ele>
        <time>2019-05-30T08:35:32.000Z</time>
      </trkpt>
      <trkpt lat="47.32502" lon="-2.31994">
        <ele>6.1999998092651</ele>
        <time>2019-05-30T08:35:35.000Z</time>
      </trkpt>
      <trkpt lat="47.32505" lon="-2.31969">
        <ele>6.1999998092651</ele>
        <time>2019-05-30T08:35:38.000Z</time>
      </trkpt>
      <trkpt lat="47.32512" lon="-2.31908">
        <ele>6.1999998092651</ele>
        <time>2019-05-30T08:35:45.000Z</time>
      </trkpt>
      <trkpt lat="47.32517" lon="-2.31847">
        <ele>6.1999998092651</ele>
        <time>2019-05-30T08:35:52.000Z</time>
      </trkpt>
      <trkpt lat="47.32517" lon="-2.31839">
        <ele>6.1999998092651</ele>
        <time>2019-05-30T08:35:53.000Z</time>
      </trkpt>
      <trkpt lat="47.32513" lon="-2.31782">
        <ele>6.5999999046326</ele>
        <time>2019-05-30T08:36:00.000Z</time>
      </trkpt>
      <trkpt lat="47.32513" lon="-2.31774">
        <ele>7</ele>
        <time>2019-05-30T08:36:01.000Z</time>
      </trkpt>
      <trkpt lat="47.32513" lon="-2.31766">
        <ele>7.4000000953674</ele>
        <time>2019-05-30T08:36:02.000Z</time>
      </trkpt>
      <trkpt lat="47.32512" lon="-2.31758">
        <ele>7.8000001907349</ele>
        <time>2019-05-30T08:36:03.000Z</time>
      </trkpt>
      <trkpt lat="47.32511" lon="-2.31749">
        <ele>8.1999998092651</ele>
        <time>2019-05-30T08:36:04.000Z</time>
      </trkpt>
      <trkpt lat="47.32508" lon="-2.31716">
        <ele>8.1999998092651</ele>
        <time>2019-05-30T08:36:08.000Z</time>
      </trkpt>
      <trkpt lat="47.32506" lon="-2.31661">
        <ele>8.1999998092651</ele>
        <time>2019-05-30T08:36:14.000Z</time>
      </trkpt>
      <trkpt lat="47.32514" lon="-2.3164">
        <ele>8.1999998092651</ele>
        <time>2019-05-30T08:36:17.000Z</time>
      </trkpt>
      <trkpt lat="47.32525" lon="-2.31628">
        <ele>8.1999998092651</ele>
        <time>2019-05-30T08:36:19.000Z</time>
      </trkpt>
      <trkpt lat="47.32529" lon="-2.31621">
        <ele>8.1999998092651</ele>
        <time>2019-05-30T08:36:20.000Z</time>
      </trkpt>
      <trkpt lat="47.32546" lon="-2.31601">
        <ele>8.1999998092651</ele>
        <time>2019-05-30T08:36:23.000Z</time>
      </trkpt>
      <trkpt lat="47.32556" lon="-2.3159">
        <ele>8.1999998092651</ele>
        <time>2019-05-30T08:36:25.000Z</time>
      </trkpt>
      <trkpt lat="47.32559" lon="-2.31572">
        <ele>8.1999998092651</ele>
        <time>2019-05-30T08:36:27.000Z</time>
      </trkpt>
      <trkpt lat="47.32559" lon="-2.31549">
        <ele>8.1999998092651</ele>
        <time>2019-05-30T08:36:30.000Z</time>
      </trkpt>
      <trkpt lat="47.32559" lon="-2.3154">
        <ele>8.1999998092651</ele>
        <time>2019-05-30T08:36:31.000Z</time>
      </trkpt>
      <trkpt lat="47.32558" lon="-2.31508">
        <ele>8.1999998092651</ele>
        <time>2019-05-30T08:36:35.000Z</time>
      </trkpt>
      <trkpt lat="47.32559" lon="-2.31491">
        <ele>8.1999998092651</ele>
        <time>2019-05-30T08:36:37.000Z</time>
      </trkpt>
      <trkpt lat="47.32558" lon="-2.31465">
        <ele>8.1999998092651</ele>
        <time>2019-05-30T08:36:40.000Z</time>
      </trkpt>
      <trkpt lat="47.32556" lon="-2.31449">
        <ele>8.1999998092651</ele>
        <time>2019-05-30T08:36:42.000Z</time>
      </trkpt>
      <trkpt lat="47.32551" lon="-2.31415">
        <ele>8.1999998092651</ele>
        <time>2019-05-30T08:36:48.000Z</time>
      </trkpt>
      <trkpt lat="47.32551" lon="-2.31413">
        <ele>8.1999998092651</ele>
        <time>2019-05-30T08:36:52.000Z</time>
      </trkpt>
      <trkpt lat="47.32551" lon="-2.31411">
        <ele>8.1999998092651</ele>
        <time>2019-05-30T08:36:55.000Z</time>
      </trkpt>
      <trkpt lat="47.32554" lon="-2.31404">
        <ele>8.1999998092651</ele>
        <time>2019-05-30T08:36:57.000Z</time>
      </trkpt>
      <trkpt lat="47.32556" lon="-2.31384">
        <ele>8.1999998092651</ele>
        <time>2019-05-30T08:37:00.000Z</time>
      </trkpt>
      <trkpt lat="47.32556" lon="-2.31376">
        <ele>8.1999998092651</ele>
        <time>2019-05-30T08:37:01.000Z</time>
      </trkpt>
      <trkpt lat="47.32559" lon="-2.31337">
        <ele>8.1999998092651</ele>
        <time>2019-05-30T08:37:06.000Z</time>
      </trkpt>
      <trkpt lat="47.32562" lon="-2.31331">
        <ele>8.1999998092651</ele>
        <time>2019-05-30T08:37:07.000Z</time>
      </trkpt>
      <trkpt lat="47.32569" lon="-2.31306">
        <ele>8.1999998092651</ele>
        <time>2019-05-30T08:37:10.000Z</time>
      </trkpt>
      <trkpt lat="47.32569" lon="-2.31277">
        <ele>8.1999998092651</ele>
        <time>2019-05-30T08:37:13.000Z</time>
      </trkpt>
      <trkpt lat="47.32569" lon="-2.31267">
        <ele>8.1999998092651</ele>
        <time>2019-05-30T08:37:14.000Z</time>
      </trkpt>
      <trkpt lat="47.32571" lon="-2.3123">
        <ele>8.1999998092651</ele>
        <time>2019-05-30T08:37:18.000Z</time>
      </trkpt>
      <trkpt lat="47.32569" lon="-2.31211">
        <ele>8.1999998092651</ele>
        <time>2019-05-30T08:37:20.000Z</time>
      </trkpt>
      <trkpt lat="47.3256" lon="-2.31188">
        <ele>8.1999998092651</ele>
        <time>2019-05-30T08:37:23.000Z</time>
      </trkpt>
      <trkpt lat="47.3256" lon="-2.31172">
        <ele>8.1999998092651</ele>
        <time>2019-05-30T08:37:25.000Z</time>
      </trkpt>
      <trkpt lat="47.32562" lon="-2.31163">
        <ele>8.1999998092651</ele>
        <time>2019-05-30T08:37:26.000Z</time>
      </trkpt>
      <trkpt lat="47.32569" lon="-2.31114">
        <ele>8.1999998092651</ele>
        <time>2019-05-30T08:37:32.000Z</time>
      </trkpt>
      <trkpt lat="47.32572" lon="-2.31069">
        <ele>8.1999998092651</ele>
        <time>2019-05-30T08:37:38.000Z</time>
      </trkpt>
      <trkpt lat="47.32571" lon="-2.31062">
        <ele>8.1999998092651</ele>
        <time>2019-05-30T08:37:39.000Z</time>
      </trkpt>
      <trkpt lat="47.32567" lon="-2.31042">
        <ele>8.1999998092651</ele>
        <time>2019-05-30T08:37:42.000Z</time>
      </trkpt>
      <trkpt lat="47.32564" lon="-2.3102">
        <ele>8.1999998092651</ele>
        <time>2019-05-30T08:37:45.000Z</time>
      </trkpt>
      <trkpt lat="47.32563" lon="-2.31005">
        <ele>8.1999998092651</ele>
        <time>2019-05-30T08:37:47.000Z</time>
      </trkpt>
      <trkpt lat="47.32564" lon="-2.30954">
        <ele>8.1999998092651</ele>
        <time>2019-05-30T08:37:53.000Z</time>
      </trkpt>
      <trkpt lat="47.32563" lon="-2.30911">
        <ele>8.1999998092651</ele>
        <time>2019-05-30T08:37:58.000Z</time>
      </trkpt>
      <trkpt lat="47.32563" lon="-2.30889">
        <ele>8.1999998092651</ele>
        <time>2019-05-30T08:38:00.000Z</time>
      </trkpt>
      <trkpt lat="47.32563" lon="-2.30869">
        <ele>8.1999998092651</ele>
        <time>2019-05-30T08:38:02.000Z</time>
      </trkpt>
      <trkpt lat="47.32558" lon="-2.30801">
        <ele>8.1999998092651</ele>
        <time>2019-05-30T08:38:08.000Z</time>
      </trkpt>
      <trkpt lat="47.3255" lon="-2.30737">
        <ele>8.1999998092651</ele>
        <time>2019-05-30T08:38:14.000Z</time>
      </trkpt>
      <trkpt lat="47.32544" lon="-2.30696">
        <ele>8.1999998092651</ele>
        <time>2019-05-30T08:38:18.000Z</time>
      </trkpt>
      <trkpt lat="47.32544" lon="-2.30687">
        <ele>8.1999998092651</ele>
        <time>2019-05-30T08:38:19.000Z</time>
      </trkpt>
      <trkpt lat="47.32541" lon="-2.3065">
        <ele>8.1999998092651</ele>
        <time>2019-05-30T08:38:23.000Z</time>
      </trkpt>
      <trkpt lat="47.32536" lon="-2.30634">
        <ele>8.1999998092651</ele>
        <time>2019-05-30T08:38:25.000Z</time>
      </trkpt>
      <trkpt lat="47.32529" lon="-2.30603">
        <ele>8.1999998092651</ele>
        <time>2019-05-30T08:38:29.000Z</time>
      </trkpt>
      <trkpt lat="47.32528" lon="-2.30594">
        <ele>8.1999998092651</ele>
        <time>2019-05-30T08:38:30.000Z</time>
      </trkpt>
      <trkpt lat="47.32521" lon="-2.30543">
        <ele>8.8000001907349</ele>
        <time>2019-05-30T08:38:36.000Z</time>
      </trkpt>
      <trkpt lat="47.3252" lon="-2.30534">
        <ele>9.1999998092651</ele>
        <time>2019-05-30T08:38:37.000Z</time>
      </trkpt>
      <trkpt lat="47.32518" lon="-2.30526">
        <ele>9.6000003814697</ele>
        <time>2019-05-30T08:38:38.000Z</time>
      </trkpt>
      <trkpt lat="47.32517" lon="-2.30518">
        <ele>10.39999961853</ele>
        <time>2019-05-30T08:38:39.000Z</time>
      </trkpt>
      <trkpt lat="47.32514" lon="-2.30502">
        <ele>10.39999961853</ele>
        <time>2019-05-30T08:38:41.000Z</time>
      </trkpt>
      <trkpt lat="47.32512" lon="-2.30494">
        <ele>10.39999961853</ele>
        <time>2019-05-30T08:38:42.000Z</time>
      </trkpt>
      <trkpt lat="47.32502" lon="-2.30442">
        <ele>10.39999961853</ele>
        <time>2019-05-30T08:38:49.000Z</time>
      </trkpt>
      <trkpt lat="47.32501" lon="-2.30418">
        <ele>10.39999961853</ele>
        <time>2019-05-30T08:38:53.000Z</time>
      </trkpt>
      <trkpt lat="47.32516" lon="-2.30412">
        <ele>10.39999961853</ele>
        <time>2019-05-30T08:38:56.000Z</time>
      </trkpt>
      <trkpt lat="47.32521" lon="-2.30409">
        <ele>10.39999961853</ele>
        <time>2019-05-30T08:38:57.000Z</time>
      </trkpt>
      <trkpt lat="47.32542" lon="-2.30398">
        <ele>10.39999961853</ele>
        <time>2019-05-30T08:39:01.000Z</time>
      </trkpt>
      <trkpt lat="47.32543" lon="-2.30391">
        <ele>10.39999961853</ele>
        <time>2019-05-30T08:39:02.000Z</time>
      </trkpt>
      <trkpt lat="47.32539" lon="-2.3037">
        <ele>10.39999961853</ele>
        <time>2019-05-30T08:39:05.000Z</time>
      </trkpt>
      <trkpt lat="47.32532" lon="-2.30333">
        <ele>10.39999961853</ele>
        <time>2019-05-30T08:39:10.000Z</time>
      </trkpt>
      <trkpt lat="47.32525" lon="-2.30296">
        <ele>10.39999961853</ele>
        <time>2019-05-30T08:39:15.000Z</time>
      </trkpt>
      <trkpt lat="47.32523" lon="-2.30288">
        <ele>10.800000190735</ele>
        <time>2019-05-30T08:39:16.000Z</time>
      </trkpt>
      <trkpt lat="47.32522" lon="-2.3028">
        <ele>11.199999809265</ele>
        <time>2019-05-30T08:39:17.000Z</time>
      </trkpt>
      <trkpt lat="47.3252" lon="-2.30272">
        <ele>11.60000038147</ele>
        <time>2019-05-30T08:39:18.000Z</time>
      </trkpt>
      <trkpt lat="47.32519" lon="-2.30264">
        <ele>12</ele>
        <time>2019-05-30T08:39:19.000Z</time>
      </trkpt>
      <trkpt lat="47.32518" lon="-2.30257">
        <ele>12.39999961853</ele>
        <time>2019-05-30T08:39:20.000Z</time>
      </trkpt>
      <trkpt lat="47.32516" lon="-2.30249">
        <ele>12.39999961853</ele>
        <time>2019-05-30T08:39:21.000Z</time>
      </trkpt>
      <trkpt lat="47.32512" lon="-2.30208">
        <ele>12.39999961853</ele>
        <time>2019-05-30T08:39:26.000Z</time>
      </trkpt>
      <trkpt lat="47.32511" lon="-2.302">
        <ele>12.39999961853</ele>
        <time>2019-05-30T08:39:27.000Z</time>
      </trkpt>
      <trkpt lat="47.32502" lon="-2.30142">
        <ele>12.39999961853</ele>
        <time>2019-05-30T08:39:34.000Z</time>
      </trkpt>
      <trkpt lat="47.32499" lon="-2.30119">
        <ele>12.800000190735</ele>
        <time>2019-05-30T08:39:37.000Z</time>
      </trkpt>
      <trkpt lat="47.32498" lon="-2.30111">
        <ele>13.199999809265</ele>
        <time>2019-05-30T08:39:38.000Z</time>
      </trkpt>
      <trkpt lat="47.32496" lon="-2.30103">
        <ele>13.60000038147</ele>
        <time>2019-05-30T08:39:39.000Z</time>
      </trkpt>
      <trkpt lat="47.32496" lon="-2.30095">
        <ele>14</ele>
        <time>2019-05-30T08:39:40.000Z</time>
      </trkpt>
      <trkpt lat="47.32495" lon="-2.30087">
        <ele>14.39999961853</ele>
        <time>2019-05-30T08:39:41.000Z</time>
      </trkpt>
      <trkpt lat="47.3249" lon="-2.30047">
        <ele>14.39999961853</ele>
        <time>2019-05-30T08:39:46.000Z</time>
      </trkpt>
      <trkpt lat="47.32487" lon="-2.3004">
        <ele>14.39999961853</ele>
        <time>2019-05-30T08:39:47.000Z</time>
      </trkpt>
      <trkpt lat="47.32478" lon="-2.30012">
        <ele>14.39999961853</ele>
        <time>2019-05-30T08:39:51.000Z</time>
      </trkpt>
      <trkpt lat="47.32472" lon="-2.29997">
        <ele>14.39999961853</ele>
        <time>2019-05-30T08:39:53.000Z</time>
      </trkpt>
      <trkpt lat="47.32468" lon="-2.29991">
        <ele>14.39999961853</ele>
        <time>2019-05-30T08:39:54.000Z</time>
      </trkpt>
      <trkpt lat="47.32447" lon="-2.29959">
        <ele>14.39999961853</ele>
        <time>2019-05-30T08:40:00.000Z</time>
      </trkpt>
      <trkpt lat="47.32444" lon="-2.29942">
        <ele>14.39999961853</ele>
        <time>2019-05-30T08:40:04.000Z</time>
      </trkpt>
      <trkpt lat="47.32448" lon="-2.29923">
        <ele>14.39999961853</ele>
        <time>2019-05-30T08:40:08.000Z</time>
      </trkpt>
      <trkpt lat="47.32446" lon="-2.29907">
        <ele>14.39999961853</ele>
        <time>2019-05-30T08:40:11.000Z</time>
      </trkpt>
      <trkpt lat="47.32445" lon="-2.29893">
        <ele>14.39999961853</ele>
        <time>2019-05-30T08:40:14.000Z</time>
      </trkpt>
      <trkpt lat="47.32448" lon="-2.29863">
        <ele>14.39999961853</ele>
        <time>2019-05-30T08:40:20.000Z</time>
      </trkpt>
      <trkpt lat="47.32462" lon="-2.29852">
        <ele>14.39999961853</ele>
        <time>2019-05-30T08:40:24.000Z</time>
      </trkpt>
      <trkpt lat="47.32486" lon="-2.29831">
        <ele>14.39999961853</ele>
        <time>2019-05-30T08:40:30.000Z</time>
      </trkpt>
      <trkpt lat="47.32507" lon="-2.29811">
        <ele>14.39999961853</ele>
        <time>2019-05-30T08:40:35.000Z</time>
      </trkpt>
      <trkpt lat="47.32539" lon="-2.29779">
        <ele>14.39999961853</ele>
        <time>2019-05-30T08:40:41.000Z</time>
      </trkpt>
      <trkpt lat="47.32573" lon="-2.29736">
        <ele>14.39999961853</ele>
        <time>2019-05-30T08:40:48.000Z</time>
      </trkpt>
      <trkpt lat="47.32599" lon="-2.2969">
        <ele>14.39999961853</ele>
        <time>2019-05-30T08:40:54.000Z</time>
      </trkpt>
      <trkpt lat="47.32623" lon="-2.29648">
        <ele>14.39999961853</ele>
        <time>2019-05-30T08:40:59.000Z</time>
      </trkpt>
      <trkpt lat="47.32643" lon="-2.29609">
        <ele>14</ele>
        <time>2019-05-30T08:41:03.000Z</time>
      </trkpt>
      <trkpt lat="47.32647" lon="-2.29599">
        <ele>13.60000038147</ele>
        <time>2019-05-30T08:41:04.000Z</time>
      </trkpt>
      <trkpt lat="47.32652" lon="-2.29589">
        <ele>13.199999809265</ele>
        <time>2019-05-30T08:41:05.000Z</time>
      </trkpt>
      <trkpt lat="47.32656" lon="-2.29578">
        <ele>12.800000190735</ele>
        <time>2019-05-30T08:41:06.000Z</time>
      </trkpt>
      <trkpt lat="47.3266" lon="-2.29566">
        <ele>12.199999809265</ele>
        <time>2019-05-30T08:41:07.000Z</time>
      </trkpt>
      <trkpt lat="47.32663" lon="-2.29555">
        <ele>12.199999809265</ele>
        <time>2019-05-30T08:41:08.000Z</time>
      </trkpt>
      <trkpt lat="47.32669" lon="-2.29531">
        <ele>12.199999809265</ele>
        <time>2019-05-30T08:41:10.000Z</time>
      </trkpt>
      <trkpt lat="47.32671" lon="-2.29519">
        <ele>11.800000190735</ele>
        <time>2019-05-30T08:41:11.000Z</time>
      </trkpt>
      <trkpt lat="47.32673" lon="-2.29508">
        <ele>11.39999961853</ele>
        <time>2019-05-30T08:41:12.000Z</time>
      </trkpt>
      <trkpt lat="47.32676" lon="-2.29497">
        <ele>10.800000190735</ele>
        <time>2019-05-30T08:41:13.000Z</time>
      </trkpt>
      <trkpt lat="47.32678" lon="-2.29487">
        <ele>10.39999961853</ele>
        <time>2019-05-30T08:41:14.000Z</time>
      </trkpt>
      <trkpt lat="47.3268" lon="-2.29478">
        <ele>9.8000001907349</ele>
        <time>2019-05-30T08:41:15.000Z</time>
      </trkpt>
      <trkpt lat="47.32682" lon="-2.29469">
        <ele>9.8000001907349</ele>
        <time>2019-05-30T08:41:16.000Z</time>
      </trkpt>
      <trkpt lat="47.32686" lon="-2.29457">
        <ele>9.3999996185303</ele>
        <time>2019-05-30T08:41:18.000Z</time>
      </trkpt>
      <trkpt lat="47.32689" lon="-2.29451">
        <ele>9</ele>
        <time>2019-05-30T08:41:19.000Z</time>
      </trkpt>
      <trkpt lat="47.32691" lon="-2.29446">
        <ele>8.6000003814697</ele>
        <time>2019-05-30T08:41:20.000Z</time>
      </trkpt>
      <trkpt lat="47.32693" lon="-2.2944">
        <ele>8.1999998092651</ele>
        <time>2019-05-30T08:41:21.000Z</time>
      </trkpt>
      <trkpt lat="47.32695" lon="-2.29434">
        <ele>7.5999999046326</ele>
        <time>2019-05-30T08:41:22.000Z</time>
      </trkpt>
      <trkpt lat="47.32698" lon="-2.29428">
        <ele>7.5999999046326</ele>
        <time>2019-05-30T08:41:23.000Z</time>
      </trkpt>
      <trkpt lat="47.32705" lon="-2.2942">
        <ele>7.5999999046326</ele>
        <time>2019-05-30T08:41:25.000Z</time>
      </trkpt>
      <trkpt lat="47.32715" lon="-2.29414">
        <ele>7.5999999046326</ele>
        <time>2019-05-30T08:41:27.000Z</time>
      </trkpt>
      <trkpt lat="47.32724" lon="-2.29408">
        <ele>7.5999999046326</ele>
        <time>2019-05-30T08:41:29.000Z</time>
      </trkpt>
      <trkpt lat="47.32728" lon="-2.29404">
        <ele>7.5999999046326</ele>
        <time>2019-05-30T08:41:30.000Z</time>
      </trkpt>
      <trkpt lat="47.32746" lon="-2.2939">
        <ele>7.5999999046326</ele>
        <time>2019-05-30T08:41:34.000Z</time>
      </trkpt>
      <trkpt lat="47.3275" lon="-2.29387">
        <ele>7.5999999046326</ele>
        <time>2019-05-30T08:41:35.000Z</time>
      </trkpt>
      <trkpt lat="47.32761" lon="-2.29376">
        <ele>7.5999999046326</ele>
        <time>2019-05-30T08:41:38.000Z</time>
      </trkpt>
      <trkpt lat="47.32769" lon="-2.29366">
        <ele>7.5999999046326</ele>
        <time>2019-05-30T08:41:40.000Z</time>
      </trkpt>
      <trkpt lat="47.32773" lon="-2.2936">
        <ele>7.5999999046326</ele>
        <time>2019-05-30T08:41:41.000Z</time>
      </trkpt>
      <trkpt lat="47.32789" lon="-2.29338">
        <ele>7.5999999046326</ele>
        <time>2019-05-30T08:41:45.000Z</time>
      </trkpt>
      <trkpt lat="47.32791" lon="-2.29331">
        <ele>7.5999999046326</ele>
        <time>2019-05-30T08:41:46.000Z</time>
      </trkpt>
      <trkpt lat="47.32797" lon="-2.29314">
        <ele>7.5999999046326</ele>
        <time>2019-05-30T08:41:48.000Z</time>
      </trkpt>
      <trkpt lat="47.32806" lon="-2.29289">
        <ele>7.5999999046326</ele>
        <time>2019-05-30T08:41:51.000Z</time>
      </trkpt>
      <trkpt lat="47.32809" lon="-2.2927">
        <ele>7.5999999046326</ele>
        <time>2019-05-30T08:41:53.000Z</time>
      </trkpt>
      <trkpt lat="47.32811" lon="-2.29241">
        <ele>7.5999999046326</ele>
        <time>2019-05-30T08:41:56.000Z</time>
      </trkpt>
      <trkpt lat="47.32808" lon="-2.29231">
        <ele>7.5999999046326</ele>
        <time>2019-05-30T08:41:57.000Z</time>
      </trkpt>
      <trkpt lat="47.32802" lon="-2.29214">
        <ele>7.1999998092651</ele>
        <time>2019-05-30T08:41:59.000Z</time>
      </trkpt>
      <trkpt lat="47.32798" lon="-2.29206">
        <ele>6.8000001907349</ele>
        <time>2019-05-30T08:42:00.000Z</time>
      </trkpt>
      <trkpt lat="47.32795" lon="-2.29198">
        <ele>6.4000000953674</ele>
        <time>2019-05-30T08:42:01.000Z</time>
      </trkpt>
      <trkpt lat="47.32792" lon="-2.29189">
        <ele>6</ele>
        <time>2019-05-30T08:42:02.000Z</time>
      </trkpt>
      <trkpt lat="47.32789" lon="-2.29181">
        <ele>5.5999999046326</ele>
        <time>2019-05-30T08:42:03.000Z</time>
      </trkpt>
      <trkpt lat="47.32775" lon="-2.29147">
        <ele>5.5999999046326</ele>
        <time>2019-05-30T08:42:07.000Z</time>
      </trkpt>
      <trkpt lat="47.32771" lon="-2.29139">
        <ele>5.5999999046326</ele>
        <time>2019-05-30T08:42:08.000Z</time>
      </trkpt>
      <trkpt lat="47.32752" lon="-2.2911">
        <ele>5.5999999046326</ele>
        <time>2019-05-30T08:42:12.000Z</time>
      </trkpt>
      <trkpt lat="47.32753" lon="-2.29091">
        <ele>5.5999999046326</ele>
        <time>2019-05-30T08:42:14.000Z</time>
      </trkpt>
      <trkpt lat="47.32756" lon="-2.2907">
        <ele>5.5999999046326</ele>
        <time>2019-05-30T08:42:16.000Z</time>
      </trkpt>
      <trkpt lat="47.32757" lon="-2.2905">
        <ele>5.1999998092651</ele>
        <time>2019-05-30T08:42:18.000Z</time>
      </trkpt>
      <trkpt lat="47.32758" lon="-2.2904">
        <ele>4.8000001907349</ele>
        <time>2019-05-30T08:42:19.000Z</time>
      </trkpt>
      <trkpt lat="47.32759" lon="-2.29031">
        <ele>4.1999998092651</ele>
        <time>2019-05-30T08:42:20.000Z</time>
      </trkpt>
      <trkpt lat="47.3276" lon="-2.29021">
        <ele>3.7999999523163</ele>
        <time>2019-05-30T08:42:21.000Z</time>
      </trkpt>
      <trkpt lat="47.3276" lon="-2.29012">
        <ele>3.4000000953674</ele>
        <time>2019-05-30T08:42:22.000Z</time>
      </trkpt>
      <trkpt lat="47.32761" lon="-2.28993">
        <ele>3.4000000953674</ele>
        <time>2019-05-30T08:42:24.000Z</time>
      </trkpt>
      <trkpt lat="47.32768" lon="-2.28915">
        <ele>3.4000000953674</ele>
        <time>2019-05-30T08:42:32.000Z</time>
      </trkpt>
      <trkpt lat="47.32779" lon="-2.28863">
        <ele>3.4000000953674</ele>
        <time>2019-05-30T08:42:38.000Z</time>
      </trkpt>
      <trkpt lat="47.32797" lon="-2.28804">
        <ele>3.4000000953674</ele>
        <time>2019-05-30T08:42:45.000Z</time>
      </trkpt>
      <trkpt lat="47.32798" lon="-2.28766">
        <ele>3.4000000953674</ele>
        <time>2019-05-30T08:42:49.000Z</time>
      </trkpt>
      <trkpt lat="47.32792" lon="-2.28713">
        <ele>3.4000000953674</ele>
        <time>2019-05-30T08:42:55.000Z</time>
      </trkpt>
      <trkpt lat="47.3278" lon="-2.28663">
        <ele>3.4000000953674</ele>
        <time>2019-05-30T08:43:01.000Z</time>
      </trkpt>
      <trkpt lat="47.32755" lon="-2.28617">
        <ele>3.4000000953674</ele>
        <time>2019-05-30T08:43:07.000Z</time>
      </trkpt>
      <trkpt lat="47.32732" lon="-2.28569">
        <ele>3.4000000953674</ele>
        <time>2019-05-30T08:43:13.000Z</time>
      </trkpt>
      <trkpt lat="47.3273" lon="-2.2856">
        <ele>3.4000000953674</ele>
        <time>2019-05-30T08:43:14.000Z</time>
      </trkpt>
      <trkpt lat="47.32725" lon="-2.2853">
        <ele>3.4000000953674</ele>
        <time>2019-05-30T08:43:17.000Z</time>
      </trkpt>
      <trkpt lat="47.32724" lon="-2.2852">
        <ele>3.4000000953674</ele>
        <time>2019-05-30T08:43:18.000Z</time>
      </trkpt>
      <trkpt lat="47.3272" lon="-2.28466">
        <ele>3.4000000953674</ele>
        <time>2019-05-30T08:43:23.000Z</time>
      </trkpt>
      <trkpt lat="47.32715" lon="-2.2841">
        <ele>3.4000000953674</ele>
        <time>2019-05-30T08:43:28.000Z</time>
      </trkpt>
      <trkpt lat="47.32708" lon="-2.28334">
        <ele>3</ele>
        <time>2019-05-30T08:43:35.000Z</time>
      </trkpt>
      <trkpt lat="47.32707" lon="-2.28324">
        <ele>2.2000000476837</ele>
        <time>2019-05-30T08:43:36.000Z</time>
      </trkpt>
      <trkpt lat="47.32706" lon="-2.28316">
        <ele>1.7999999523163</ele>
        <time>2019-05-30T08:43:37.000Z</time>
      </trkpt>
      <trkpt lat="47.32703" lon="-2.28312">
        <ele>1.3999999761581</ele>
        <time>2019-05-30T08:43:38.000Z</time>
      </trkpt>
      <trkpt lat="47.32699" lon="-2.2831">
        <ele>1.3999999761581</ele>
        <time>2019-05-30T08:43:39.000Z</time>
      </trkpt>
      <trkpt lat="47.32683" lon="-2.28319">
        <ele>1.3999999761581</ele>
        <time>2019-05-30T08:43:42.000Z</time>
      </trkpt>
      <trkpt lat="47.32655" lon="-2.28342">
        <ele>1.3999999761581</ele>
        <time>2019-05-30T08:43:47.000Z</time>
      </trkpt>
      <trkpt lat="47.32649" lon="-2.28345">
        <ele>1.3999999761581</ele>
        <time>2019-05-30T08:43:48.000Z</time>
      </trkpt>
      <trkpt lat="47.32636" lon="-2.28344">
        <ele>1.3999999761581</ele>
        <time>2019-05-30T08:43:50.000Z</time>
      </trkpt>
      <trkpt lat="47.32621" lon="-2.28326">
        <ele>1.3999999761581</ele>
        <time>2019-05-30T08:43:53.000Z</time>
      </trkpt>
      <trkpt lat="47.32611" lon="-2.28292">
        <ele>1.3999999761581</ele>
        <time>2019-05-30T08:43:57.000Z</time>
      </trkpt>
      <trkpt lat="47.32608" lon="-2.28283">
        <ele>1.3999999761581</ele>
        <time>2019-05-30T08:43:58.000Z</time>
      </trkpt>
      <trkpt lat="47.32598" lon="-2.28231">
        <ele>1.3999999761581</ele>
        <time>2019-05-30T08:44:03.000Z</time>
      </trkpt>
      <trkpt lat="47.3259" lon="-2.28186">
        <ele>1.3999999761581</ele>
        <time>2019-05-30T08:44:07.000Z</time>
      </trkpt>
      <trkpt lat="47.32586" lon="-2.28164">
        <ele>1.3999999761581</ele>
        <time>2019-05-30T08:44:09.000Z</time>
      </trkpt>
      <trkpt lat="47.32568" lon="-2.28081">
        <ele>1.3999999761581</ele>
        <time>2019-05-30T08:44:17.000Z</time>
      </trkpt>
      <trkpt lat="47.32566" lon="-2.28071">
        <ele>1</ele>
        <time>2019-05-30T08:44:18.000Z</time>
      </trkpt>
      <trkpt lat="47.32564" lon="-2.28061">
        <ele>0.60000002384186</ele>
        <time>2019-05-30T08:44:19.000Z</time>
      </trkpt>
      <trkpt lat="47.32562" lon="-2.2805">
        <ele>0.20000000298023</ele>
        <time>2019-05-30T08:44:20.000Z</time>
      </trkpt>
      <trkpt lat="47.3256" lon="-2.2804">
        <ele>-0.40000000596046</ele>
        <time>2019-05-30T08:44:21.000Z</time>
      </trkpt>
      <trkpt lat="47.32558" lon="-2.28031">
        <ele>-0.80000001192093</ele>
        <time>2019-05-30T08:44:22.000Z</time>
      </trkpt>
      <trkpt lat="47.32552" lon="-2.28002">
        <ele>-0.80000001192093</ele>
        <time>2019-05-30T08:44:25.000Z</time>
      </trkpt>
      <trkpt lat="47.32533" lon="-2.27918">
        <ele>-0.80000001192093</ele>
        <time>2019-05-30T08:44:34.000Z</time>
      </trkpt>
      <trkpt lat="47.32527" lon="-2.27892">
        <ele>-0.80000001192093</ele>
        <time>2019-05-30T08:44:38.000Z</time>
      </trkpt>
      <trkpt lat="47.32517" lon="-2.27853">
        <ele>-0.80000001192093</ele>
        <time>2019-05-30T08:44:43.000Z</time>
      </trkpt>
      <trkpt lat="47.32513" lon="-2.27845">
        <ele>-0.80000001192093</ele>
        <time>2019-05-30T08:44:44.000Z</time>
      </trkpt>
      <trkpt lat="47.32503" lon="-2.27834">
        <ele>-0.80000001192093</ele>
        <time>2019-05-30T08:44:46.000Z</time>
      </trkpt>
      <trkpt lat="47.32483" lon="-2.27831">
        <ele>-0.80000001192093</ele>
        <time>2019-05-30T08:44:49.000Z</time>
      </trkpt>
      <trkpt lat="47.32477" lon="-2.27831">
        <ele>-0.80000001192093</ele>
        <time>2019-05-30T08:44:50.000Z</time>
      </trkpt>
      <trkpt lat="47.32457" lon="-2.27834">
        <ele>-0.80000001192093</ele>
        <time>2019-05-30T08:44:54.000Z</time>
      </trkpt>
      <trkpt lat="47.3245" lon="-2.27834">
        <ele>-0.80000001192093</ele>
        <time>2019-05-30T08:44:58.000Z</time>
      </trkpt>
      <trkpt lat="47.32441" lon="-2.27829">
        <ele>-0.80000001192093</ele>
        <time>2019-05-30T08:45:02.000Z</time>
      </trkpt>
      <trkpt lat="47.32441" lon="-2.27829">
        <ele>-0.80000001192093</ele>
        <time>2019-05-30T08:45:04.000Z</time>
      </trkpt>
      <trkpt lat="47.32441" lon="-2.27817">
        <ele>-0.80000001192093</ele>
        <time>2019-05-30T08:45:58.000Z</time>
      </trkpt>
      <trkpt lat="47.32441" lon="-2.27814">
        <ele>-0.80000001192093</ele>
        <time>2019-05-30T08:45:59.000Z</time>
      </trkpt>
      <trkpt lat="47.32443" lon="-2.27811">
        <ele>-0.80000001192093</ele>
        <time>2019-05-30T08:46:01.000Z</time>
      </trkpt>
      <trkpt lat="47.32445" lon="-2.27811">
        <ele>-0.80000001192093</ele>
        <time>2019-05-30T08:46:03.000Z</time>
      </trkpt>
      <trkpt lat="47.32444" lon="-2.2781">
        <ele>-0.80000001192093</ele>
        <time>2019-05-30T08:46:04.000Z</time>
      </trkpt>
      <trkpt lat="47.32443" lon="-2.27799">
        <ele>-0.80000001192093</ele>
        <time>2019-05-30T08:57:44.000Z</time>
      </trkpt>
      <trkpt lat="47.32444" lon="-2.27793">
        <ele>-0.80000001192093</ele>
        <time>2019-05-30T08:57:46.000Z</time>
      </trkpt>
      <trkpt lat="47.32442" lon="-2.27781">
        <ele>-0.80000001192093</ele>
        <time>2019-05-30T08:57:50.000Z</time>
      </trkpt>
      <trkpt lat="47.32442" lon="-2.27777">
        <ele>-0.80000001192093</ele>
        <time>2019-05-30T08:57:51.000Z</time>
      </trkpt>
      <trkpt lat="47.32436" lon="-2.27754">
        <ele>-0.80000001192093</ele>
        <time>2019-05-30T08:57:56.000Z</time>
      </trkpt>
      <trkpt lat="47.32436" lon="-2.27729">
        <ele>-0.80000001192093</ele>
        <time>2019-05-30T08:58:01.000Z</time>
      </trkpt>
      <trkpt lat="47.32436" lon="-2.27704">
        <ele>-0.80000001192093</ele>
        <time>2019-05-30T08:58:06.000Z</time>
      </trkpt>
      <trkpt lat="47.32436" lon="-2.27686">
        <ele>-0.80000001192093</ele>
        <time>2019-05-30T08:58:09.000Z</time>
      </trkpt>
      <trkpt lat="47.32436" lon="-2.27672">
        <ele>-0.80000001192093</ele>
        <time>2019-05-30T08:58:11.000Z</time>
      </trkpt>
      <trkpt lat="47.32435" lon="-2.27658">
        <ele>-0.80000001192093</ele>
        <time>2019-05-30T08:58:13.000Z</time>
      </trkpt>
      <trkpt lat="47.32428" lon="-2.27639">
        <ele>-0.80000001192093</ele>
        <time>2019-05-30T08:58:16.000Z</time>
      </trkpt>
      <trkpt lat="47.32426" lon="-2.27633">
        <ele>-0.80000001192093</ele>
        <time>2019-05-30T08:58:17.000Z</time>
      </trkpt>
      <trkpt lat="47.32416" lon="-2.27604">
        <ele>-0.80000001192093</ele>
        <time>2019-05-30T08:58:22.000Z</time>
      </trkpt>
      <trkpt lat="47.32408" lon="-2.27571">
        <ele>-0.80000001192093</ele>
        <time>2019-05-30T08:58:28.000Z</time>
      </trkpt>
      <trkpt lat="47.32408" lon="-2.27565">
        <ele>-0.80000001192093</ele>
        <time>2019-05-30T08:58:29.000Z</time>
      </trkpt>
      <trkpt lat="47.32412" lon="-2.27555">
        <ele>-0.80000001192093</ele>
        <time>2019-05-30T08:58:31.000Z</time>
      </trkpt>
      <trkpt lat="47.32426" lon="-2.27549">
        <ele>-0.80000001192093</ele>
        <time>2019-05-30T08:58:35.000Z</time>
      </trkpt>
      <trkpt lat="47.3243" lon="-2.27549">
        <ele>-0.80000001192093</ele>
        <time>2019-05-30T08:58:36.000Z</time>
      </trkpt>
      <trkpt lat="47.32434" lon="-2.27551">
        <ele>-0.80000001192093</ele>
        <time>2019-05-30T08:58:37.000Z</time>
      </trkpt>
      <trkpt lat="47.32443" lon="-2.27556">
        <ele>-0.80000001192093</ele>
        <time>2019-05-30T08:58:39.000Z</time>
      </trkpt>
      <trkpt lat="47.32459" lon="-2.27566">
        <ele>-0.80000001192093</ele>
        <time>2019-05-30T08:58:43.000Z</time>
      </trkpt>
      <trkpt lat="47.32464" lon="-2.27568">
        <ele>-0.80000001192093</ele>
        <time>2019-05-30T08:58:44.000Z</time>
      </trkpt>
      <trkpt lat="47.32477" lon="-2.27575">
        <ele>-0.80000001192093</ele>
        <time>2019-05-30T08:58:47.000Z</time>
      </trkpt>
      <trkpt lat="47.32485" lon="-2.27573">
        <ele>-0.80000001192093</ele>
        <time>2019-05-30T08:58:49.000Z</time>
      </trkpt>
      <trkpt lat="47.32493" lon="-2.27572">
        <ele>-0.80000001192093</ele>
        <time>2019-05-30T08:58:51.000Z</time>
      </trkpt>
      <trkpt lat="47.32502" lon="-2.27566">
        <ele>-0.80000001192093</ele>
        <time>2019-05-30T08:58:53.000Z</time>
      </trkpt>
      <trkpt lat="47.32514" lon="-2.27556">
        <ele>-0.80000001192093</ele>
        <time>2019-05-30T08:58:56.000Z</time>
      </trkpt>
      <trkpt lat="47.32521" lon="-2.27549">
        <ele>-0.80000001192093</ele>
        <time>2019-05-30T08:58:58.000Z</time>
      </trkpt>
      <trkpt lat="47.32542" lon="-2.27531">
        <ele>-0.80000001192093</ele>
        <time>2019-05-30T08:59:03.000Z</time>
      </trkpt>
      <trkpt lat="47.3257" lon="-2.27502">
        <ele>-0.80000001192093</ele>
        <time>2019-05-30T08:59:10.000Z</time>
      </trkpt>
      <trkpt lat="47.32573" lon="-2.27497">
        <ele>-0.80000001192093</ele>
        <time>2019-05-30T08:59:14.000Z</time>
      </trkpt>
      <trkpt lat="47.32577" lon="-2.27483">
        <ele>-0.80000001192093</ele>
        <time>2019-05-30T08:59:19.000Z</time>
      </trkpt>
      <trkpt lat="47.32581" lon="-2.27463">
        <ele>-0.80000001192093</ele>
        <time>2019-05-30T08:59:24.000Z</time>
      </trkpt>
      <trkpt lat="47.32584" lon="-2.27419">
        <ele>-0.80000001192093</ele>
        <time>2019-05-30T08:59:31.000Z</time>
      </trkpt>
      <trkpt lat="47.32586" lon="-2.27371">
        <ele>-0.80000001192093</ele>
        <time>2019-05-30T08:59:37.000Z</time>
      </trkpt>
      <trkpt lat="47.32587" lon="-2.27355">
        <ele>-0.80000001192093</ele>
        <time>2019-05-30T08:59:39.000Z</time>
      </trkpt>
      <trkpt lat="47.3259" lon="-2.27323">
        <ele>-0.80000001192093</ele>
        <time>2019-05-30T08:59:43.000Z</time>
      </trkpt>
      <trkpt lat="47.32592" lon="-2.27307">
        <ele>-0.80000001192093</ele>
        <time>2019-05-30T08:59:45.000Z</time>
      </trkpt>
      <trkpt lat="47.32595" lon="-2.27284">
        <ele>-0.80000001192093</ele>
        <time>2019-05-30T08:59:48.000Z</time>
      </trkpt>
      <trkpt lat="47.32597" lon="-2.27269">
        <ele>-0.80000001192093</ele>
        <time>2019-05-30T08:59:50.000Z</time>
      </trkpt>
      <trkpt lat="47.32599" lon="-2.27247">
        <ele>-0.80000001192093</ele>
        <time>2019-05-30T08:59:53.000Z</time>
      </trkpt>
      <trkpt lat="47.326" lon="-2.27231">
        <ele>-0.80000001192093</ele>
        <time>2019-05-30T08:59:56.000Z</time>
      </trkpt>
      <trkpt lat="47.32604" lon="-2.27206">
        <ele>-0.80000001192093</ele>
        <time>2019-05-30T09:00:00.000Z</time>
      </trkpt>
      <trkpt lat="47.32604" lon="-2.27199">
        <ele>-0.80000001192093</ele>
        <time>2019-05-30T09:00:01.000Z</time>
      </trkpt>
      <trkpt lat="47.32599" lon="-2.27171">
        <ele>-0.80000001192093</ele>
        <time>2019-05-30T09:00:05.000Z</time>
      </trkpt>
      <trkpt lat="47.32599" lon="-2.27141">
        <ele>-0.80000001192093</ele>
        <time>2019-05-30T09:00:09.000Z</time>
      </trkpt>
      <trkpt lat="47.32601" lon="-2.27127">
        <ele>-0.80000001192093</ele>
        <time>2019-05-30T09:00:11.000Z</time>
      </trkpt>
      <trkpt lat="47.32606" lon="-2.27113">
        <ele>-0.80000001192093</ele>
        <time>2019-05-30T09:00:13.000Z</time>
      </trkpt>
      <trkpt lat="47.32621" lon="-2.2707">
        <ele>-0.80000001192093</ele>
        <time>2019-05-30T09:00:19.000Z</time>
      </trkpt>
      <trkpt lat="47.32619" lon="-2.27048">
        <ele>-0.80000001192093</ele>
        <time>2019-05-30T09:00:22.000Z</time>
      </trkpt>
      <trkpt lat="47.32612" lon="-2.27038">
        <ele>-0.80000001192093</ele>
        <time>2019-05-30T09:00:24.000Z</time>
      </trkpt>
      <trkpt lat="47.32605" lon="-2.27028">
        <ele>-0.80000001192093</ele>
        <time>2019-05-30T09:00:26.000Z</time>
      </trkpt>
      <trkpt lat="47.32584" lon="-2.26997">
        <ele>-0.80000001192093</ele>
        <time>2019-05-30T09:00:32.000Z</time>
      </trkpt>
      <trkpt lat="47.32574" lon="-2.26979">
        <ele>-0.80000001192093</ele>
        <time>2019-05-30T09:00:35.000Z</time>
      </trkpt>
      <trkpt lat="47.32567" lon="-2.26966">
        <ele>-0.80000001192093</ele>
        <time>2019-05-30T09:00:37.000Z</time>
      </trkpt>
      <trkpt lat="47.32561" lon="-2.26954">
        <ele>-0.80000001192093</ele>
        <time>2019-05-30T09:00:39.000Z</time>
      </trkpt>
      <trkpt lat="47.32548" lon="-2.26928">
        <ele>-0.80000001192093</ele>
        <time>2019-05-30T09:00:43.000Z</time>
      </trkpt>
      <trkpt lat="47.3253" lon="-2.26891">
        <ele>-0.80000001192093</ele>
        <time>2019-05-30T09:00:49.000Z</time>
      </trkpt>
      <trkpt lat="47.32528" lon="-2.26884">
        <ele>-0.80000001192093</ele>
        <time>2019-05-30T09:00:50.000Z</time>
      </trkpt>
      <trkpt lat="47.3252" lon="-2.26852">
        <ele>-0.80000001192093</ele>
        <time>2019-05-30T09:00:55.000Z</time>
      </trkpt>
      <trkpt lat="47.32519" lon="-2.26822">
        <ele>-0.80000001192093</ele>
        <time>2019-05-30T09:00:59.000Z</time>
      </trkpt>
      <trkpt lat="47.32519" lon="-2.26815">
        <ele>-0.80000001192093</ele>
        <time>2019-05-30T09:01:00.000Z</time>
      </trkpt>
      <trkpt lat="47.32522" lon="-2.26771">
        <ele>-0.80000001192093</ele>
        <time>2019-05-30T09:01:06.000Z</time>
      </trkpt>
      <trkpt lat="47.32523" lon="-2.26764">
        <ele>-0.80000001192093</ele>
        <time>2019-05-30T09:01:07.000Z</time>
      </trkpt>
      <trkpt lat="47.32525" lon="-2.26757">
        <ele>-0.80000001192093</ele>
        <time>2019-05-30T09:01:08.000Z</time>
      </trkpt>
      <trkpt lat="47.32532" lon="-2.26726">
        <ele>-0.80000001192093</ele>
        <time>2019-05-30T09:01:12.000Z</time>
      </trkpt>
      <trkpt lat="47.32534" lon="-2.26719">
        <ele>-0.80000001192093</ele>
        <time>2019-05-30T09:01:13.000Z</time>
      </trkpt>
      <trkpt lat="47.32542" lon="-2.26683">
        <ele>-0.80000001192093</ele>
        <time>2019-05-30T09:01:18.000Z</time>
      </trkpt>
      <trkpt lat="47.32547" lon="-2.26663">
        <ele>-0.80000001192093</ele>
        <time>2019-05-30T09:01:21.000Z</time>
      </trkpt>
      <trkpt lat="47.32554" lon="-2.26642">
        <ele>-0.80000001192093</ele>
        <time>2019-05-30T09:01:24.000Z</time>
      </trkpt>
      <trkpt lat="47.32571" lon="-2.26595">
        <ele>-0.80000001192093</ele>
        <time>2019-05-30T09:01:31.000Z</time>
      </trkpt>
      <trkpt lat="47.32574" lon="-2.26588">
        <ele>-0.80000001192093</ele>
        <time>2019-05-30T09:01:32.000Z</time>
      </trkpt>
      <trkpt lat="47.32583" lon="-2.26562">
        <ele>-0.80000001192093</ele>
        <time>2019-05-30T09:01:36.000Z</time>
      </trkpt>
      <trkpt lat="47.32588" lon="-2.2655">
        <ele>-0.80000001192093</ele>
        <time>2019-05-30T09:01:38.000Z</time>
      </trkpt>
      <trkpt lat="47.32594" lon="-2.26537">
        <ele>-0.80000001192093</ele>
        <time>2019-05-30T09:01:40.000Z</time>
      </trkpt>
      <trkpt lat="47.32598" lon="-2.26531">
        <ele>-0.80000001192093</ele>
        <time>2019-05-30T09:01:41.000Z</time>
      </trkpt>
      <trkpt lat="47.32601" lon="-2.26525">
        <ele>-0.80000001192093</ele>
        <time>2019-05-30T09:01:42.000Z</time>
      </trkpt>
      <trkpt lat="47.32614" lon="-2.26492">
        <ele>-0.80000001192093</ele>
        <time>2019-05-30T09:01:47.000Z</time>
      </trkpt>
      <trkpt lat="47.32624" lon="-2.26465">
        <ele>-0.80000001192093</ele>
        <time>2019-05-30T09:01:51.000Z</time>
      </trkpt>
      <trkpt lat="47.3263" lon="-2.26454">
        <ele>-0.80000001192093</ele>
        <time>2019-05-30T09:01:53.000Z</time>
      </trkpt>
      <trkpt lat="47.32635" lon="-2.2644">
        <ele>-0.80000001192093</ele>
        <time>2019-05-30T09:01:57.000Z</time>
      </trkpt>
      <trkpt lat="47.32634" lon="-2.26437">
        <ele>-0.80000001192093</ele>
        <time>2019-05-30T09:01:59.000Z</time>
      </trkpt>
      <trkpt lat="47.3262" lon="-2.26436">
        <ele>-0.80000001192093</ele>
        <time>2019-05-30T09:02:49.000Z</time>
      </trkpt>
      <trkpt lat="47.32618" lon="-2.26436">
        <ele>-0.80000001192093</ele>
        <time>2019-05-30T09:02:50.000Z</time>
      </trkpt>
      <trkpt lat="47.32608" lon="-2.2644">
        <ele>-0.80000001192093</ele>
        <time>2019-05-30T09:02:54.000Z</time>
      </trkpt>
      <trkpt lat="47.32605" lon="-2.26442">
        <ele>-0.80000001192093</ele>
        <time>2019-05-30T09:02:55.000Z</time>
      </trkpt>
      <trkpt lat="47.3259" lon="-2.26447">
        <ele>-0.80000001192093</ele>
        <time>2019-05-30T09:02:59.000Z</time>
      </trkpt>
      <trkpt lat="47.32586" lon="-2.26448">
        <ele>-0.80000001192093</ele>
        <time>2019-05-30T09:03:00.000Z</time>
      </trkpt>
      <trkpt lat="47.32581" lon="-2.26448">
        <ele>-0.80000001192093</ele>
        <time>2019-05-30T09:03:01.000Z</time>
      </trkpt>
      <trkpt lat="47.32567" lon="-2.26453">
        <ele>-0.80000001192093</ele>
        <time>2019-05-30T09:03:04.000Z</time>
      </trkpt>
      <trkpt lat="47.32527" lon="-2.26471">
        <ele>-0.80000001192093</ele>
        <time>2019-05-30T09:03:13.000Z</time>
      </trkpt>
      <trkpt lat="47.32522" lon="-2.26472">
        <ele>-0.80000001192093</ele>
        <time>2019-05-30T09:03:14.000Z</time>
      </trkpt>
      <trkpt lat="47.32508" lon="-2.2648">
        <ele>-0.80000001192093</ele>
        <time>2019-05-30T09:03:17.000Z</time>
      </trkpt>
      <trkpt lat="47.32498" lon="-2.26484">
        <ele>-0.80000001192093</ele>
        <time>2019-05-30T09:03:19.000Z</time>
      </trkpt>
      <trkpt lat="47.32477" lon="-2.26494">
        <ele>-0.80000001192093</ele>
        <time>2019-05-30T09:03:23.000Z</time>
      </trkpt>
      <trkpt lat="47.32447" lon="-2.26508">
        <ele>-0.80000001192093</ele>
        <time>2019-05-30T09:03:29.000Z</time>
      </trkpt>
      <trkpt lat="47.32409" lon="-2.26526">
        <ele>-0.80000001192093</ele>
        <time>2019-05-30T09:03:36.000Z</time>
      </trkpt>
      <trkpt lat="47.32397" lon="-2.26529">
        <ele>-0.80000001192093</ele>
        <time>2019-05-30T09:03:38.000Z</time>
      </trkpt>
      <trkpt lat="47.32378" lon="-2.26531">
        <ele>-0.80000001192093</ele>
        <time>2019-05-30T09:03:41.000Z</time>
      </trkpt>
      <trkpt lat="47.32359" lon="-2.26535">
        <ele>-0.80000001192093</ele>
        <time>2019-05-30T09:03:44.000Z</time>
      </trkpt>
      <trkpt lat="47.32347" lon="-2.2654">
        <ele>-0.80000001192093</ele>
        <time>2019-05-30T09:03:46.000Z</time>
      </trkpt>
      <trkpt lat="47.32326" lon="-2.26556">
        <ele>-0.80000001192093</ele>
        <time>2019-05-30T09:03:50.000Z</time>
      </trkpt>
      <trkpt lat="47.32322" lon="-2.26562">
        <ele>-0.80000001192093</ele>
        <time>2019-05-30T09:03:51.000Z</time>
      </trkpt>
      <trkpt lat="47.32294" lon="-2.26598">
        <ele>-0.80000001192093</ele>
        <time>2019-05-30T09:03:57.000Z</time>
      </trkpt>
      <trkpt lat="47.32288" lon="-2.26604">
        <ele>-0.80000001192093</ele>
        <time>2019-05-30T09:03:58.000Z</time>
      </trkpt>
      <trkpt lat="47.32264" lon="-2.26611">
        <ele>-0.80000001192093</ele>
        <time>2019-05-30T09:04:02.000Z</time>
      </trkpt>
      <trkpt lat="47.32258" lon="-2.26611">
        <ele>-0.40000000596046</ele>
        <time>2019-05-30T09:04:03.000Z</time>
      </trkpt>
      <trkpt lat="47.32251" lon="-2.26611">
        <ele>0.20000000298023</ele>
        <time>2019-05-30T09:04:04.000Z</time>
      </trkpt>
      <trkpt lat="47.32245" lon="-2.26611">
        <ele>0.60000002384186</ele>
        <time>2019-05-30T09:04:05.000Z</time>
      </trkpt>
      <trkpt lat="47.32239" lon="-2.2661">
        <ele>1</ele>
        <time>2019-05-30T09:04:06.000Z</time>
      </trkpt>
      <trkpt lat="47.32234" lon="-2.2661">
        <ele>1.3999999761581</ele>
        <time>2019-05-30T09:04:07.000Z</time>
      </trkpt>
      <trkpt lat="47.32228" lon="-2.26611">
        <ele>1.3999999761581</ele>
        <time>2019-05-30T09:04:08.000Z</time>
      </trkpt>
      <trkpt lat="47.32204" lon="-2.26613">
        <ele>1.3999999761581</ele>
        <time>2019-05-30T09:04:12.000Z</time>
      </trkpt>
      <trkpt lat="47.32198" lon="-2.26613">
        <ele>1.3999999761581</ele>
        <time>2019-05-30T09:04:13.000Z</time>
      </trkpt>
      <trkpt lat="47.32154" lon="-2.26608">
        <ele>1.3999999761581</ele>
        <time>2019-05-30T09:04:20.000Z</time>
      </trkpt>
      <trkpt lat="47.32136" lon="-2.26603">
        <ele>1.3999999761581</ele>
        <time>2019-05-30T09:04:23.000Z</time>
      </trkpt>
      <trkpt lat="47.3213" lon="-2.266">
        <ele>1.7999999523163</ele>
        <time>2019-05-30T09:04:24.000Z</time>
      </trkpt>
      <trkpt lat="47.32124" lon="-2.26598">
        <ele>2.2000000476837</ele>
        <time>2019-05-30T09:04:25.000Z</time>
      </trkpt>
      <trkpt lat="47.32118" lon="-2.26595">
        <ele>2.5999999046326</ele>
        <time>2019-05-30T09:04:26.000Z</time>
      </trkpt>
      <trkpt lat="47.32112" lon="-2.26593">
        <ele>3</ele>
        <time>2019-05-30T09:04:27.000Z</time>
      </trkpt>
      <trkpt lat="47.32106" lon="-2.2659">
        <ele>3.4000000953674</ele>
        <time>2019-05-30T09:04:28.000Z</time>
      </trkpt>
      <trkpt lat="47.321" lon="-2.26589">
        <ele>3.4000000953674</ele>
        <time>2019-05-30T09:04:29.000Z</time>
      </trkpt>
      <trkpt lat="47.32087" lon="-2.26588">
        <ele>3.4000000953674</ele>
        <time>2019-05-30T09:04:31.000Z</time>
      </trkpt>
      <trkpt lat="47.32073" lon="-2.2659">
        <ele>3.4000000953674</ele>
        <time>2019-05-30T09:04:33.000Z</time>
      </trkpt>
      <trkpt lat="47.32053" lon="-2.26597">
        <ele>3.4000000953674</ele>
        <time>2019-05-30T09:04:36.000Z</time>
      </trkpt>
      <trkpt lat="47.32018" lon="-2.26617">
        <ele>3.4000000953674</ele>
        <time>2019-05-30T09:04:42.000Z</time>
      </trkpt>
      <trkpt lat="47.32012" lon="-2.26621">
        <ele>3.4000000953674</ele>
        <time>2019-05-30T09:04:43.000Z</time>
      </trkpt>
      <trkpt lat="47.31975" lon="-2.26646">
        <ele>3.4000000953674</ele>
        <time>2019-05-30T09:04:50.000Z</time>
      </trkpt>
      <trkpt lat="47.31944" lon="-2.2667">
        <ele>3.4000000953674</ele>
        <time>2019-05-30T09:04:56.000Z</time>
      </trkpt>
      <trkpt lat="47.31934" lon="-2.26678">
        <ele>3.7999999523163</ele>
        <time>2019-05-30T09:04:58.000Z</time>
      </trkpt>
      <trkpt lat="47.31929" lon="-2.26682">
        <ele>4.1999998092651</ele>
        <time>2019-05-30T09:04:59.000Z</time>
      </trkpt>
      <trkpt lat="47.31924" lon="-2.26687">
        <ele>5.1999998092651</ele>
        <time>2019-05-30T09:05:00.000Z</time>
      </trkpt>
      <trkpt lat="47.31919" lon="-2.26691">
        <ele>5.5999999046326</ele>
        <time>2019-05-30T09:05:01.000Z</time>
      </trkpt>
      <trkpt lat="47.31909" lon="-2.26699">
        <ele>5.5999999046326</ele>
        <time>2019-05-30T09:05:03.000Z</time>
      </trkpt>
      <trkpt lat="47.31877" lon="-2.26725">
        <ele>5.5999999046326</ele>
        <time>2019-05-30T09:05:09.000Z</time>
      </trkpt>
      <trkpt lat="47.31849" lon="-2.26742">
        <ele>5.5999999046326</ele>
        <time>2019-05-30T09:05:14.000Z</time>
      </trkpt>
      <trkpt lat="47.31843" lon="-2.26743">
        <ele>5.5999999046326</ele>
        <time>2019-05-30T09:05:15.000Z</time>
      </trkpt>
      <trkpt lat="47.31824" lon="-2.26733">
        <ele>5.5999999046326</ele>
        <time>2019-05-30T09:05:18.000Z</time>
      </trkpt>
      <trkpt lat="47.31813" lon="-2.26711">
        <ele>5.5999999046326</ele>
        <time>2019-05-30T09:05:21.000Z</time>
      </trkpt>
      <trkpt lat="47.318" lon="-2.26697">
        <ele>5.5999999046326</ele>
        <time>2019-05-30T09:05:24.000Z</time>
      </trkpt>
      <trkpt lat="47.31781" lon="-2.26702">
        <ele>5.5999999046326</ele>
        <time>2019-05-30T09:05:27.000Z</time>
      </trkpt>
      <trkpt lat="47.31767" lon="-2.26707">
        <ele>5.5999999046326</ele>
        <time>2019-05-30T09:05:29.000Z</time>
      </trkpt>
      <trkpt lat="47.3174" lon="-2.26715">
        <ele>5.5999999046326</ele>
        <time>2019-05-30T09:05:33.000Z</time>
      </trkpt>
      <trkpt lat="47.31734" lon="-2.26718">
        <ele>5</ele>
        <time>2019-05-30T09:05:34.000Z</time>
      </trkpt>
      <trkpt lat="47.31727" lon="-2.2672">
        <ele>4.5999999046326</ele>
        <time>2019-05-30T09:05:35.000Z</time>
      </trkpt>
      <trkpt lat="47.3172" lon="-2.26722">
        <ele>4.1999998092651</ele>
        <time>2019-05-30T09:05:36.000Z</time>
      </trkpt>
      <trkpt lat="47.31713" lon="-2.26723">
        <ele>3.7999999523163</ele>
        <time>2019-05-30T09:05:37.000Z</time>
      </trkpt>
      <trkpt lat="47.31706" lon="-2.26724">
        <ele>3.2000000476837</ele>
        <time>2019-05-30T09:05:38.000Z</time>
      </trkpt>
      <trkpt lat="47.31699" lon="-2.26725">
        <ele>3.2000000476837</ele>
        <time>2019-05-30T09:05:39.000Z</time>
      </trkpt>
      <trkpt lat="47.31654" lon="-2.26733">
        <ele>3.2000000476837</ele>
        <time>2019-05-30T09:05:46.000Z</time>
      </trkpt>
      <trkpt lat="47.31643" lon="-2.26738">
        <ele>3.2000000476837</ele>
        <time>2019-05-30T09:05:48.000Z</time>
      </trkpt>
      <trkpt lat="47.31632" lon="-2.26748">
        <ele>3.2000000476837</ele>
        <time>2019-05-30T09:05:50.000Z</time>
      </trkpt>
      <trkpt lat="47.31608" lon="-2.26758">
        <ele>3.2000000476837</ele>
        <time>2019-05-30T09:05:54.000Z</time>
      </trkpt>
      <trkpt lat="47.31602" lon="-2.26758">
        <ele>2.7999999523163</ele>
        <time>2019-05-30T09:05:55.000Z</time>
      </trkpt>
      <trkpt lat="47.31595" lon="-2.26757">
        <ele>2.4000000953674</ele>
        <time>2019-05-30T09:05:56.000Z</time>
      </trkpt>
      <trkpt lat="47.31588" lon="-2.26756">
        <ele>2</ele>
        <time>2019-05-30T09:05:57.000Z</time>
      </trkpt>
      <trkpt lat="47.31582" lon="-2.26755">
        <ele>1.6000000238419</ele>
        <time>2019-05-30T09:05:58.000Z</time>
      </trkpt>
      <trkpt lat="47.31576" lon="-2.26757">
        <ele>1.2000000476837</ele>
        <time>2019-05-30T09:05:59.000Z</time>
      </trkpt>
      <trkpt lat="47.31562" lon="-2.26775">
        <ele>1.2000000476837</ele>
        <time>2019-05-30T09:06:02.000Z</time>
      </trkpt>
      <trkpt lat="47.31558" lon="-2.26782">
        <ele>1.2000000476837</ele>
        <time>2019-05-30T09:06:03.000Z</time>
      </trkpt>
      <trkpt lat="47.31545" lon="-2.26814">
        <ele>1.2000000476837</ele>
        <time>2019-05-30T09:06:07.000Z</time>
      </trkpt>
      <trkpt lat="47.31528" lon="-2.2686">
        <ele>1.2000000476837</ele>
        <time>2019-05-30T09:06:13.000Z</time>
      </trkpt>
      <trkpt lat="47.31517" lon="-2.26895">
        <ele>1.2000000476837</ele>
        <time>2019-05-30T09:06:18.000Z</time>
      </trkpt>
      <trkpt lat="47.31505" lon="-2.26943">
        <ele>1.2000000476837</ele>
        <time>2019-05-30T09:06:25.000Z</time>
      </trkpt>
      <trkpt lat="47.31491" lon="-2.26978">
        <ele>1.2000000476837</ele>
        <time>2019-05-30T09:06:30.000Z</time>
      </trkpt>
      <trkpt lat="47.31473" lon="-2.26992">
        <ele>1.2000000476837</ele>
        <time>2019-05-30T09:06:34.000Z</time>
      </trkpt>
      <trkpt lat="47.3144" lon="-2.27019">
        <ele>1.2000000476837</ele>
        <time>2019-05-30T09:06:40.000Z</time>
      </trkpt>
      <trkpt lat="47.31418" lon="-2.27035">
        <ele>1.6000000238419</ele>
        <time>2019-05-30T09:06:44.000Z</time>
      </trkpt>
      <trkpt lat="47.31413" lon="-2.27039">
        <ele>2</ele>
        <time>2019-05-30T09:06:45.000Z</time>
      </trkpt>
      <trkpt lat="47.31408" lon="-2.27044">
        <ele>2.4000000953674</ele>
        <time>2019-05-30T09:06:46.000Z</time>
      </trkpt>
      <trkpt lat="47.31402" lon="-2.27047">
        <ele>2.7999999523163</ele>
        <time>2019-05-30T09:06:47.000Z</time>
      </trkpt>
      <trkpt lat="47.31397" lon="-2.27051">
        <ele>3.2000000476837</ele>
        <time>2019-05-30T09:06:48.000Z</time>
      </trkpt>
      <trkpt lat="47.31363" lon="-2.27069">
        <ele>3.2000000476837</ele>
        <time>2019-05-30T09:06:54.000Z</time>
      </trkpt>
      <trkpt lat="47.31327" lon="-2.2708">
        <ele>3.2000000476837</ele>
        <time>2019-05-30T09:07:00.000Z</time>
      </trkpt>
      <trkpt lat="47.31286" lon="-2.27097">
        <ele>3.5999999046326</ele>
        <time>2019-05-30T09:07:07.000Z</time>
      </trkpt>
      <trkpt lat="47.31281" lon="-2.27101">
        <ele>4</ele>
        <time>2019-05-30T09:07:08.000Z</time>
      </trkpt>
      <trkpt lat="47.31276" lon="-2.27104">
        <ele>4.4000000953674</ele>
        <time>2019-05-30T09:07:09.000Z</time>
      </trkpt>
      <trkpt lat="47.3127" lon="-2.27109">
        <ele>5</ele>
        <time>2019-05-30T09:07:10.000Z</time>
      </trkpt>
      <trkpt lat="47.31265" lon="-2.27113">
        <ele>5.4000000953674</ele>
        <time>2019-05-30T09:07:11.000Z</time>
      </trkpt>
      <trkpt lat="47.31248" lon="-2.27124">
        <ele>5.4000000953674</ele>
        <time>2019-05-30T09:07:14.000Z</time>
      </trkpt>
      <trkpt lat="47.31212" lon="-2.27155">
        <ele>5.4000000953674</ele>
        <time>2019-05-30T09:07:21.000Z</time>
      </trkpt>
      <trkpt lat="47.31182" lon="-2.27185">
        <ele>5.4000000953674</ele>
        <time>2019-05-30T09:07:27.000Z</time>
      </trkpt>
      <trkpt lat="47.31142" lon="-2.27225">
        <ele>5.4000000953674</ele>
        <time>2019-05-30T09:07:35.000Z</time>
      </trkpt>
      <trkpt lat="47.31119" lon="-2.27238">
        <ele>5.4000000953674</ele>
        <time>2019-05-30T09:07:39.000Z</time>
      </trkpt>
      <trkpt lat="47.31112" lon="-2.2724">
        <ele>5.4000000953674</ele>
        <time>2019-05-30T09:07:40.000Z</time>
      </trkpt>
      <trkpt lat="47.31063" lon="-2.27257">
        <ele>5.4000000953674</ele>
        <time>2019-05-30T09:07:48.000Z</time>
      </trkpt>
      <trkpt lat="47.31057" lon="-2.27259">
        <ele>5.4000000953674</ele>
        <time>2019-05-30T09:07:49.000Z</time>
      </trkpt>
      <trkpt lat="47.31046" lon="-2.2726">
        <ele>5.4000000953674</ele>
        <time>2019-05-30T09:07:51.000Z</time>
      </trkpt>
      <trkpt lat="47.31036" lon="-2.27257">
        <ele>5.4000000953674</ele>
        <time>2019-05-30T09:07:53.000Z</time>
      </trkpt>
      <trkpt lat="47.31011" lon="-2.27248">
        <ele>5.4000000953674</ele>
        <time>2019-05-30T09:07:58.000Z</time>
      </trkpt>
      <trkpt lat="47.31007" lon="-2.27224">
        <ele>5.4000000953674</ele>
        <time>2019-05-30T09:08:01.000Z</time>
      </trkpt>
      <trkpt lat="47.31006" lon="-2.27215">
        <ele>5.4000000953674</ele>
        <time>2019-05-30T09:08:02.000Z</time>
      </trkpt>
      <trkpt lat="47.31003" lon="-2.27162">
        <ele>5.4000000953674</ele>
        <time>2019-05-30T09:08:08.000Z</time>
      </trkpt>
      <trkpt lat="47.30999" lon="-2.27093">
        <ele>5.4000000953674</ele>
        <time>2019-05-30T09:08:16.000Z</time>
      </trkpt>
      <trkpt lat="47.30995" lon="-2.27029">
        <ele>5</ele>
        <time>2019-05-30T09:08:22.000Z</time>
      </trkpt>
      <trkpt lat="47.30994" lon="-2.27017">
        <ele>4.5999999046326</ele>
        <time>2019-05-30T09:08:23.000Z</time>
      </trkpt>
      <trkpt lat="47.30992" lon="-2.27005">
        <ele>4.1999998092651</ele>
        <time>2019-05-30T09:08:24.000Z</time>
      </trkpt>
      <trkpt lat="47.30989" lon="-2.26994">
        <ele>3.7999999523163</ele>
        <time>2019-05-30T09:08:25.000Z</time>
      </trkpt>
      <trkpt lat="47.30984" lon="-2.26983">
        <ele>3.4000000953674</ele>
        <time>2019-05-30T09:08:26.000Z</time>
      </trkpt>
      <trkpt lat="47.30979" lon="-2.26975">
        <ele>3.4000000953674</ele>
        <time>2019-05-30T09:08:27.000Z</time>
      </trkpt>
      <trkpt lat="47.30957" lon="-2.26959">
        <ele>3</ele>
        <time>2019-05-30T09:08:30.000Z</time>
      </trkpt>
      <trkpt lat="47.3095" lon="-2.26955">
        <ele>2.4000000953674</ele>
        <time>2019-05-30T09:08:31.000Z</time>
      </trkpt>
      <trkpt lat="47.30944" lon="-2.26952">
        <ele>2</ele>
        <time>2019-05-30T09:08:32.000Z</time>
      </trkpt>
      <trkpt lat="47.30938" lon="-2.26947">
        <ele>1.6000000238419</ele>
        <time>2019-05-30T09:08:33.000Z</time>
      </trkpt>
      <trkpt lat="47.30931" lon="-2.26943">
        <ele>1.2000000476837</ele>
        <time>2019-05-30T09:08:34.000Z</time>
      </trkpt>
      <trkpt lat="47.30925" lon="-2.2694">
        <ele>1.2000000476837</ele>
        <time>2019-05-30T09:08:35.000Z</time>
      </trkpt>
      <trkpt lat="47.30903" lon="-2.26924">
        <ele>1.2000000476837</ele>
        <time>2019-05-30T09:08:39.000Z</time>
      </trkpt>
      <trkpt lat="47.30895" lon="-2.26912">
        <ele>1.2000000476837</ele>
        <time>2019-05-30T09:08:41.000Z</time>
      </trkpt>
      <trkpt lat="47.30896" lon="-2.26888">
        <ele>1.2000000476837</ele>
        <time>2019-05-30T09:08:44.000Z</time>
      </trkpt>
      <trkpt lat="47.30901" lon="-2.26871">
        <ele>1.2000000476837</ele>
        <time>2019-05-30T09:08:46.000Z</time>
      </trkpt>
      <trkpt lat="47.30907" lon="-2.26851">
        <ele>1.2000000476837</ele>
        <time>2019-05-30T09:08:48.000Z</time>
      </trkpt>
      <trkpt lat="47.30918" lon="-2.26798">
        <ele>1.2000000476837</ele>
        <time>2019-05-30T09:08:53.000Z</time>
      </trkpt>
      <trkpt lat="47.30933" lon="-2.26721">
        <ele>1.2000000476837</ele>
        <time>2019-05-30T09:09:00.000Z</time>
      </trkpt>
      <trkpt lat="47.30934" lon="-2.26709">
        <ele>1.2000000476837</ele>
        <time>2019-05-30T09:09:01.000Z</time>
      </trkpt>
      <trkpt lat="47.30937" lon="-2.26688">
        <ele>1.2000000476837</ele>
        <time>2019-05-30T09:09:03.000Z</time>
      </trkpt>
      <trkpt lat="47.30943" lon="-2.26657">
        <ele>1.2000000476837</ele>
        <time>2019-05-30T09:09:06.000Z</time>
      </trkpt>
      <trkpt lat="47.30951" lon="-2.26616">
        <ele>1.2000000476837</ele>
        <time>2019-05-30T09:09:11.000Z</time>
      </trkpt>
      <trkpt lat="47.30956" lon="-2.26605">
        <ele>1.2000000476837</ele>
        <time>2019-05-30T09:09:13.000Z</time>
      </trkpt>
      <trkpt lat="47.3096" lon="-2.26602">
        <ele>1.2000000476837</ele>
        <time>2019-05-30T09:09:14.000Z</time>
      </trkpt>
      <trkpt lat="47.30971" lon="-2.26598">
        <ele>1.2000000476837</ele>
        <time>2019-05-30T09:09:17.000Z</time>
      </trkpt>
      <trkpt lat="47.30973" lon="-2.26594">
        <ele>0.80000001192093</ele>
        <time>2019-05-30T09:09:18.000Z</time>
      </trkpt>
      <trkpt lat="47.30974" lon="-2.26587">
        <ele>0.40000000596046</ele>
        <time>2019-05-30T09:09:19.000Z</time>
      </trkpt>
      <trkpt lat="47.30974" lon="-2.26581">
        <ele>2</ele>
        <time>2019-05-30T09:09:20.000Z</time>
      </trkpt>
      <trkpt lat="47.30975" lon="-2.26574">
        <ele>-0.40000000596046</ele>
        <time>2019-05-30T09:09:21.000Z</time>
      </trkpt>
      <trkpt lat="47.30976" lon="-2.26567">
        <ele>-0.80000001192093</ele>
        <time>2019-05-30T09:09:22.000Z</time>
      </trkpt>
      <trkpt lat="47.30982" lon="-2.26527">
        <ele>-0.80000001192093</ele>
        <time>2019-05-30T09:09:28.000Z</time>
      </trkpt>
      <trkpt lat="47.30987" lon="-2.26502">
        <ele>-0.80000001192093</ele>
        <time>2019-05-30T09:09:32.000Z</time>
      </trkpt>
      <trkpt lat="47.30989" lon="-2.2649">
        <ele>-0.80000001192093</ele>
        <time>2019-05-30T09:09:34.000Z</time>
      </trkpt>
      <trkpt lat="47.30991" lon="-2.26484">
        <ele>-0.80000001192093</ele>
        <time>2019-05-30T09:09:35.000Z</time>
      </trkpt>
      <trkpt lat="47.30994" lon="-2.26472">
        <ele>-0.80000001192093</ele>
        <time>2019-05-30T09:09:37.000Z</time>
      </trkpt>
      <trkpt lat="47.30996" lon="-2.26461">
        <ele>-0.80000001192093</ele>
        <time>2019-05-30T09:09:39.000Z</time>
      </trkpt>
      <trkpt lat="47.30998" lon="-2.26443">
        <ele>-0.80000001192093</ele>
        <time>2019-05-30T09:09:44.000Z</time>
      </trkpt>
      <trkpt lat="47.31" lon="-2.26423">
        <ele>-0.80000001192093</ele>
        <time>2019-05-30T09:09:48.000Z</time>
      </trkpt>
      <trkpt lat="47.31003" lon="-2.26389">
        <ele>-0.80000001192093</ele>
        <time>2019-05-30T09:09:54.000Z</time>
      </trkpt>
      <trkpt lat="47.31011" lon="-2.26361">
        <ele>-0.80000001192093</ele>
        <time>2019-05-30T09:09:59.000Z</time>
      </trkpt>
      <trkpt lat="47.31014" lon="-2.2634">
        <ele>-0.80000001192093</ele>
        <time>2019-05-30T09:10:04.000Z</time>
      </trkpt>
      <trkpt lat="47.3102" lon="-2.26322">
        <ele>-0.80000001192093</ele>
        <time>2019-05-30T09:10:09.000Z</time>
      </trkpt>
      <trkpt lat="47.3103" lon="-2.26289">
        <ele>-0.80000001192093</ele>
        <time>2019-05-30T09:10:16.000Z</time>
      </trkpt>
      <trkpt lat="47.31034" lon="-2.26267">
        <ele>-0.80000001192093</ele>
        <time>2019-05-30T09:10:21.000Z</time>
      </trkpt>
      <trkpt lat="47.31046" lon="-2.26246">
        <ele>-0.80000001192093</ele>
        <time>2019-05-30T09:10:26.000Z</time>
      </trkpt>
      <trkpt lat="47.31059" lon="-2.26238">
        <ele>-0.80000001192093</ele>
        <time>2019-05-30T09:10:30.000Z</time>
      </trkpt>
      <trkpt lat="47.31078" lon="-2.26223">
        <ele>-0.80000001192093</ele>
        <time>2019-05-30T09:10:36.000Z</time>
      </trkpt>
      <trkpt lat="47.31093" lon="-2.26208">
        <ele>-0.80000001192093</ele>
        <time>2019-05-30T09:10:41.000Z</time>
      </trkpt>
      <trkpt lat="47.31102" lon="-2.26202">
        <ele>-0.80000001192093</ele>
        <time>2019-05-30T09:10:45.000Z</time>
      </trkpt>
      <trkpt lat="47.31111" lon="-2.26197">
        <ele>-0.80000001192093</ele>
        <time>2019-05-30T09:10:51.000Z</time>
      </trkpt>
      <trkpt lat="47.31124" lon="-2.26188">
        <ele>-0.80000001192093</ele>
        <time>2019-05-30T09:10:56.000Z</time>
      </trkpt>
      <trkpt lat="47.31134" lon="-2.26172">
        <ele>-0.80000001192093</ele>
        <time>2019-05-30T09:11:01.000Z</time>
      </trkpt>
      <trkpt lat="47.31142" lon="-2.26163">
        <ele>-0.80000001192093</ele>
        <time>2019-05-30T09:11:06.000Z</time>
      </trkpt>
      <trkpt lat="47.31142" lon="-2.26155">
        <ele>-0.80000001192093</ele>
        <time>2019-05-30T09:11:10.000Z</time>
      </trkpt>
      <trkpt lat="47.31142" lon="-2.26153">
        <ele>-0.80000001192093</ele>
        <time>2019-05-30T09:11:11.000Z</time>
      </trkpt>
      <trkpt lat="47.31142" lon="-2.26151">
        <ele>-0.80000001192093</ele>
        <time>2019-05-30T09:11:12.000Z</time>
      </trkpt>
      <trkpt lat="47.31146" lon="-2.26148">
        <ele>-0.80000001192093</ele>
        <time>2019-05-30T09:11:15.000Z</time>
      </trkpt>
      <trkpt lat="47.31153" lon="-2.26141">
        <ele>-0.80000001192093</ele>
        <time>2019-05-30T09:11:19.000Z</time>
      </trkpt>
      <trkpt lat="47.31155" lon="-2.26139">
        <ele>-0.80000001192093</ele>
        <time>2019-05-30T09:11:20.000Z</time>
      </trkpt>
      <trkpt lat="47.31156" lon="-2.26136">
        <ele>-0.80000001192093</ele>
        <time>2019-05-30T09:11:21.000Z</time>
      </trkpt>
      <trkpt lat="47.31158" lon="-2.26123">
        <ele>-0.80000001192093</ele>
        <time>2019-05-30T09:11:25.000Z</time>
      </trkpt>
      <trkpt lat="47.31158" lon="-2.26112">
        <ele>-0.80000001192093</ele>
        <time>2019-05-30T09:11:27.000Z</time>
      </trkpt>
      <trkpt lat="47.31162" lon="-2.26099">
        <ele>-0.80000001192093</ele>
        <time>2019-05-30T09:11:29.000Z</time>
      </trkpt>
      <trkpt lat="47.31165" lon="-2.26078">
        <ele>-0.80000001192093</ele>
        <time>2019-05-30T09:11:33.000Z</time>
      </trkpt>
      <trkpt lat="47.31165" lon="-2.26073">
        <ele>-0.80000001192093</ele>
        <time>2019-05-30T09:11:34.000Z</time>
      </trkpt>
      <trkpt lat="47.31167" lon="-2.2606">
        <ele>-0.80000001192093</ele>
        <time>2019-05-30T09:11:39.000Z</time>
      </trkpt>
      <trkpt lat="47.31167" lon="-2.2606">
        <ele>-0.80000001192093</ele>
        <time>2019-05-30T09:11:40.000Z</time>
      </trkpt>
      <trkpt lat="47.31172" lon="-2.26056">
        <ele>-0.80000001192093</ele>
        <time>2019-05-30T09:12:07.000Z</time>
      </trkpt>
      <trkpt lat="47.31176" lon="-2.26058">
        <ele>-0.80000001192093</ele>
        <time>2019-05-30T09:12:09.000Z</time>
      </trkpt>
      <trkpt lat="47.31187" lon="-2.26062">
        <ele>-0.80000001192093</ele>
        <time>2019-05-30T09:12:15.000Z</time>
      </trkpt>
      <trkpt lat="47.31188" lon="-2.26061">
        <ele>-0.80000001192093</ele>
        <time>2019-05-30T09:12:16.000Z</time>
      </trkpt>
      <trkpt lat="47.31193" lon="-2.26055">
        <ele>-0.80000001192093</ele>
        <time>2019-05-30T09:12:19.000Z</time>
      </trkpt>
      <trkpt lat="47.31204" lon="-2.26046">
        <ele>-0.80000001192093</ele>
        <time>2019-05-30T09:12:26.000Z</time>
      </trkpt>
      <trkpt lat="47.31214" lon="-2.2604">
        <ele>-0.80000001192093</ele>
        <time>2019-05-30T09:12:32.000Z</time>
      </trkpt>
      <trkpt lat="47.31224" lon="-2.26033">
        <ele>-0.80000001192093</ele>
        <time>2019-05-30T09:12:37.000Z</time>
      </trkpt>
      <trkpt lat="47.31229" lon="-2.26029">
        <ele>-0.40000000596046</ele>
        <time>2019-05-30T09:12:39.000Z</time>
      </trkpt>
      <trkpt lat="47.31231" lon="-2.26027">
        <ele>5.3</ele>
        <time>2019-05-30T09:12:40.000Z</time>
      </trkpt>
      <trkpt lat="47.31235" lon="-2.26025">
        <ele>0.60000002384186</ele>
        <time>2019-05-30T09:12:41.000Z</time>
      </trkpt>
      <trkpt lat="47.31238" lon="-2.26024">
        <ele>1</ele>
        <time>2019-05-30T09:12:42.000Z</time>
      </trkpt>
      <trkpt lat="47.31242" lon="-2.26021">
        <ele>1.3999999761581</ele>
        <time>2019-05-30T09:12:43.000Z</time>
      </trkpt>
      <trkpt lat="47.31256" lon="-2.26012">
        <ele>1.3999999761581</ele>
        <time>2019-05-30T09:12:48.000Z</time>
      </trkpt>
      <trkpt lat="47.31272" lon="-2.25998">
        <ele>1.3999999761581</ele>
        <time>2019-05-30T09:12:54.000Z</time>
      </trkpt>
      <trkpt lat="47.31283" lon="-2.25979">
        <ele>1.3999999761581</ele>
        <time>2019-05-30T09:13:00.000Z</time>
      </trkpt>
      <trkpt lat="47.31284" lon="-2.25969">
        <ele>1.7999999523163</ele>
        <time>2019-05-30T09:13:03.000Z</time>
      </trkpt>
      <trkpt lat="47.31283" lon="-2.25964">
        <ele>2.2000000476837</ele>
        <time>2019-05-30T09:13:04.000Z</time>
      </trkpt>
      <trkpt lat="47.31282" lon="-2.25959">
        <ele>2.5999999046326</ele>
        <time>2019-05-30T09:13:05.000Z</time>
      </trkpt>
      <trkpt lat="47.31281" lon="-2.25954">
        <ele>3</ele>
        <time>2019-05-30T09:13:06.000Z</time>
      </trkpt>
      <trkpt lat="47.3128" lon="-2.25948">
        <ele>3.4000000953674</ele>
        <time>2019-05-30T09:13:07.000Z</time>
      </trkpt>
      <trkpt lat="47.31278" lon="-2.25927">
        <ele>3.4000000953674</ele>
        <time>2019-05-30T09:13:11.000Z</time>
      </trkpt>
      <trkpt lat="47.31273" lon="-2.25903">
        <ele>4</ele>
        <time>2019-05-30T09:13:15.000Z</time>
      </trkpt>
      <trkpt lat="47.31272" lon="-2.25896">
        <ele>4.4000000953674</ele>
        <time>2019-05-30T09:13:16.000Z</time>
      </trkpt>
      <trkpt lat="47.31271" lon="-2.2589">
        <ele>4.8000001907349</ele>
        <time>2019-05-30T09:13:17.000Z</time>
      </trkpt>
      <trkpt lat="47.31269" lon="-2.25884">
        <ele>5.1999998092651</ele>
        <time>2019-05-30T09:13:18.000Z</time>
      </trkpt>
      <trkpt lat="47.31268" lon="-2.25879">
        <ele>5.5999999046326</ele>
        <time>2019-05-30T09:13:19.000Z</time>
      </trkpt>
      <trkpt lat="47.31261" lon="-2.25854">
        <ele>5.5999999046326</ele>
        <time>2019-05-30T09:13:23.000Z</time>
      </trkpt>
      <trkpt lat="47.31259" lon="-2.25849">
        <ele>5.5999999046326</ele>
        <time>2019-05-30T09:13:24.000Z</time>
      </trkpt>
      <trkpt lat="47.31254" lon="-2.25826">
        <ele>5.5999999046326</ele>
        <time>2019-05-30T09:13:28.000Z</time>
      </trkpt>
      <trkpt lat="47.31243" lon="-2.25813">
        <ele>5.5999999046326</ele>
        <time>2019-05-30T09:13:32.000Z</time>
      </trkpt>
      <trkpt lat="47.31231" lon="-2.25816">
        <ele>5.5999999046326</ele>
        <time>2019-05-30T09:13:35.000Z</time>
      </trkpt>
      <trkpt lat="47.31223" lon="-2.25818">
        <ele>5.5999999046326</ele>
        <time>2019-05-30T09:13:37.000Z</time>
      </trkpt>
      <trkpt lat="47.31199" lon="-2.25825">
        <ele>5.5999999046326</ele>
        <time>2019-05-30T09:13:43.000Z</time>
      </trkpt>
      <trkpt lat="47.31171" lon="-2.25831">
        <ele>5.5999999046326</ele>
        <time>2019-05-30T09:13:50.000Z</time>
      </trkpt>
      <trkpt lat="47.31168" lon="-2.2583">
        <ele>5.5999999046326</ele>
        <time>2019-05-30T09:13:51.000Z</time>
      </trkpt>
      <trkpt lat="47.31159" lon="-2.25825">
        <ele>5.5999999046326</ele>
        <time>2019-05-30T09:13:54.000Z</time>
      </trkpt>
      <trkpt lat="47.31142" lon="-2.25819">
        <ele>5.5999999046326</ele>
        <time>2019-05-30T09:13:59.000Z</time>
      </trkpt>
      <trkpt lat="47.3112" lon="-2.25815">
        <ele>5.5999999046326</ele>
        <time>2019-05-30T09:14:05.000Z</time>
      </trkpt>
      <trkpt lat="47.31115" lon="-2.25815">
        <ele>5.5999999046326</ele>
        <time>2019-05-30T09:14:06.000Z</time>
      </trkpt>
      <trkpt lat="47.31096" lon="-2.25819">
        <ele>5.5999999046326</ele>
        <time>2019-05-30T09:14:10.000Z</time>
      </trkpt>
      <trkpt lat="47.31066" lon="-2.25829">
        <ele>6</ele>
        <time>2019-05-30T09:14:16.000Z</time>
      </trkpt>
      <trkpt lat="47.31061" lon="-2.2583">
        <ele>6.4000000953674</ele>
        <time>2019-05-30T09:14:17.000Z</time>
      </trkpt>
      <trkpt lat="47.31056" lon="-2.25832">
        <ele>6.8000001907349</ele>
        <time>2019-05-30T09:14:18.000Z</time>
      </trkpt>
      <trkpt lat="47.31051" lon="-2.25833">
        <ele>7.1999998092651</ele>
        <time>2019-05-30T09:14:19.000Z</time>
      </trkpt>
      <trkpt lat="47.31046" lon="-2.25834">
        <ele>7.5999999046326</ele>
        <time>2019-05-30T09:14:20.000Z</time>
      </trkpt>
      <trkpt lat="47.3103" lon="-2.25839">
        <ele>7.5999999046326</ele>
        <time>2019-05-30T09:14:23.000Z</time>
      </trkpt>
      <trkpt lat="47.30997" lon="-2.25848">
        <ele>7.5999999046326</ele>
        <time>2019-05-30T09:14:29.000Z</time>
      </trkpt>
      <trkpt lat="47.30974" lon="-2.25853">
        <ele>7.5999999046326</ele>
        <time>2019-05-30T09:14:34.000Z</time>
      </trkpt>
      <trkpt lat="47.30966" lon="-2.25856">
        <ele>7.5999999046326</ele>
        <time>2019-05-30T09:14:36.000Z</time>
      </trkpt>
      <trkpt lat="47.30957" lon="-2.2586">
        <ele>7.5999999046326</ele>
        <time>2019-05-30T09:14:38.000Z</time>
      </trkpt>
      <trkpt lat="47.30953" lon="-2.25862">
        <ele>7.5999999046326</ele>
        <time>2019-05-30T09:14:39.000Z</time>
      </trkpt>
      <trkpt lat="47.30943" lon="-2.25866">
        <ele>8</ele>
        <time>2019-05-30T09:14:41.000Z</time>
      </trkpt>
      <trkpt lat="47.30939" lon="-2.25868">
        <ele>8.3999996185303</ele>
        <time>2019-05-30T09:14:42.000Z</time>
      </trkpt>
      <trkpt lat="47.30934" lon="-2.2587">
        <ele>9</ele>
        <time>2019-05-30T09:14:43.000Z</time>
      </trkpt>
      <trkpt lat="47.3093" lon="-2.25872">
        <ele>9.3999996185303</ele>
        <time>2019-05-30T09:14:44.000Z</time>
      </trkpt>
      <trkpt lat="47.30925" lon="-2.25874">
        <ele>9.8000001907349</ele>
        <time>2019-05-30T09:14:45.000Z</time>
      </trkpt>
      <trkpt lat="47.30912" lon="-2.25867">
        <ele>9.8000001907349</ele>
        <time>2019-05-30T09:14:48.000Z</time>
      </trkpt>
      <trkpt lat="47.30903" lon="-2.25846">
        <ele>9.8000001907349</ele>
        <time>2019-05-30T09:14:52.000Z</time>
      </trkpt>
      <trkpt lat="47.30898" lon="-2.25832">
        <ele>9.8000001907349</ele>
        <time>2019-05-30T09:14:54.000Z</time>
      </trkpt>
      <trkpt lat="47.30896" lon="-2.25826">
        <ele>9.8000001907349</ele>
        <time>2019-05-30T09:14:55.000Z</time>
      </trkpt>
      <trkpt lat="47.30892" lon="-2.25812">
        <ele>9.8000001907349</ele>
        <time>2019-05-30T09:14:57.000Z</time>
      </trkpt>
      <trkpt lat="47.30889" lon="-2.25798">
        <ele>9.8000001907349</ele>
        <time>2019-05-30T09:14:59.000Z</time>
      </trkpt>
      <trkpt lat="47.30882" lon="-2.25776">
        <ele>9.8000001907349</ele>
        <time>2019-05-30T09:15:02.000Z</time>
      </trkpt>
      <trkpt lat="47.30881" lon="-2.25768">
        <ele>9.8000001907349</ele>
        <time>2019-05-30T09:15:03.000Z</time>
      </trkpt>
      <trkpt lat="47.30876" lon="-2.25733">
        <ele>9.8000001907349</ele>
        <time>2019-05-30T09:15:07.000Z</time>
      </trkpt>
      <trkpt lat="47.30875" lon="-2.25678">
        <ele>9.8000001907349</ele>
        <time>2019-05-30T09:15:13.000Z</time>
      </trkpt>
      <trkpt lat="47.3087" lon="-2.25609">
        <ele>9.8000001907349</ele>
        <time>2019-05-30T09:15:20.000Z</time>
      </trkpt>
      <trkpt lat="47.30863" lon="-2.25529">
        <ele>9.8000001907349</ele>
        <time>2019-05-30T09:15:28.000Z</time>
      </trkpt>
      <trkpt lat="47.30855" lon="-2.2546">
        <ele>9.8000001907349</ele>
        <time>2019-05-30T09:15:35.000Z</time>
      </trkpt>
      <trkpt lat="47.30853" lon="-2.25442">
        <ele>9.3999996185303</ele>
        <time>2019-05-30T09:15:37.000Z</time>
      </trkpt>
      <trkpt lat="47.30852" lon="-2.25433">
        <ele>9</ele>
        <time>2019-05-30T09:15:38.000Z</time>
      </trkpt>
      <trkpt lat="47.30852" lon="-2.25425">
        <ele>8.6000003814697</ele>
        <time>2019-05-30T09:15:39.000Z</time>
      </trkpt>
      <trkpt lat="47.30852" lon="-2.25416">
        <ele>8.1999998092651</ele>
        <time>2019-05-30T09:15:40.000Z</time>
      </trkpt>
      <trkpt lat="47.30852" lon="-2.25407">
        <ele>7.8000001907349</ele>
        <time>2019-05-30T09:15:41.000Z</time>
      </trkpt>
      <trkpt lat="47.30852" lon="-2.2537">
        <ele>7.8000001907349</ele>
        <time>2019-05-30T09:15:45.000Z</time>
      </trkpt>
      <trkpt lat="47.30851" lon="-2.25361">
        <ele>7.8000001907349</ele>
        <time>2019-05-30T09:15:46.000Z</time>
      </trkpt>
      <trkpt lat="47.30844" lon="-2.25326">
        <ele>7.8000001907349</ele>
        <time>2019-05-30T09:15:50.000Z</time>
      </trkpt>
      <trkpt lat="47.30843" lon="-2.25317">
        <ele>7.8000001907349</ele>
        <time>2019-05-30T09:15:51.000Z</time>
      </trkpt>
      <trkpt lat="47.30845" lon="-2.25274">
        <ele>7.8000001907349</ele>
        <time>2019-05-30T09:15:56.000Z</time>
      </trkpt>
      <trkpt lat="47.30858" lon="-2.25258">
        <ele>7.8000001907349</ele>
        <time>2019-05-30T09:15:59.000Z</time>
      </trkpt>
      <trkpt lat="47.30864" lon="-2.25255">
        <ele>7.1999998092651</ele>
        <time>2019-05-30T09:16:00.000Z</time>
      </trkpt>
      <trkpt lat="47.30869" lon="-2.25252">
        <ele>6.8000001907349</ele>
        <time>2019-05-30T09:16:01.000Z</time>
      </trkpt>
      <trkpt lat="47.30875" lon="-2.25248">
        <ele>6.4000000953674</ele>
        <time>2019-05-30T09:16:02.000Z</time>
      </trkpt>
      <trkpt lat="47.3088" lon="-2.25244">
        <ele>6</ele>
        <time>2019-05-30T09:16:03.000Z</time>
      </trkpt>
      <trkpt lat="47.30884" lon="-2.2524">
        <ele>5.5999999046326</ele>
        <time>2019-05-30T09:16:04.000Z</time>
      </trkpt>
      <trkpt lat="47.30901" lon="-2.25224">
        <ele>5.5999999046326</ele>
        <time>2019-05-30T09:16:08.000Z</time>
      </trkpt>
      <trkpt lat="47.30906" lon="-2.2522">
        <ele>5.5999999046326</ele>
        <time>2019-05-30T09:16:09.000Z</time>
      </trkpt>
      <trkpt lat="47.30914" lon="-2.25213">
        <ele>5.5999999046326</ele>
        <time>2019-05-30T09:16:11.000Z</time>
      </trkpt>
      <trkpt lat="47.30916" lon="-2.25207">
        <ele>5.5999999046326</ele>
        <time>2019-05-30T09:16:13.000Z</time>
      </trkpt>
      <trkpt lat="47.30922" lon="-2.25207">
        <ele>5.5999999046326</ele>
        <time>2019-05-30T09:16:18.000Z</time>
      </trkpt>
      <trkpt lat="47.30919" lon="-2.25214">
        <ele>5.5999999046326</ele>
        <time>2019-05-30T09:16:22.000Z</time>
      </trkpt>
      <trkpt lat="47.30915" lon="-2.25206">
        <ele>5.5999999046326</ele>
        <time>2019-05-30T09:16:25.000Z</time>
      </trkpt>
      <trkpt lat="47.30905" lon="-2.25185">
        <ele>5.5999999046326</ele>
        <time>2019-05-30T09:16:29.000Z</time>
      </trkpt>
      <trkpt lat="47.30901" lon="-2.25171">
        <ele>5.5999999046326</ele>
        <time>2019-05-30T09:16:31.000Z</time>
      </trkpt>
      <trkpt lat="47.30896" lon="-2.25147">
        <ele>5.1999998092651</ele>
        <time>2019-05-30T09:16:34.000Z</time>
      </trkpt>
      <trkpt lat="47.30895" lon="-2.25138">
        <ele>4.8000001907349</ele>
        <time>2019-05-30T09:16:35.000Z</time>
      </trkpt>
      <trkpt lat="47.30894" lon="-2.2513">
        <ele>4.1999998092651</ele>
        <time>2019-05-30T09:16:36.000Z</time>
      </trkpt>
      <trkpt lat="47.30893" lon="-2.25122">
        <ele>3.7999999523163</ele>
        <time>2019-05-30T09:16:37.000Z</time>
      </trkpt>
      <trkpt lat="47.30893" lon="-2.25113">
        <ele>3.4000000953674</ele>
        <time>2019-05-30T09:16:38.000Z</time>
      </trkpt>
      <trkpt lat="47.30889" lon="-2.25089">
        <ele>3.4000000953674</ele>
        <time>2019-05-30T09:16:41.000Z</time>
      </trkpt>
      <trkpt lat="47.30885" lon="-2.25046">
        <ele>3.4000000953674</ele>
        <time>2019-05-30T09:16:46.000Z</time>
      </trkpt>
      <trkpt lat="47.30884" lon="-2.25038">
        <ele>3.4000000953674</ele>
        <time>2019-05-30T09:16:47.000Z</time>
      </trkpt>
      <trkpt lat="47.3088" lon="-2.25016">
        <ele>3.4000000953674</ele>
        <time>2019-05-30T09:16:50.000Z</time>
      </trkpt>
      <trkpt lat="47.30879" lon="-2.25008">
        <ele>3.4000000953674</ele>
        <time>2019-05-30T09:16:51.000Z</time>
      </trkpt>
      <trkpt lat="47.30875" lon="-2.24993">
        <ele>3</ele>
        <time>2019-05-30T09:16:53.000Z</time>
      </trkpt>
      <trkpt lat="47.30873" lon="-2.24986">
        <ele>2.5999999046326</ele>
        <time>2019-05-30T09:16:54.000Z</time>
      </trkpt>
      <trkpt lat="47.30871" lon="-2.24978">
        <ele>2.2000000476837</ele>
        <time>2019-05-30T09:16:55.000Z</time>
      </trkpt>
      <trkpt lat="47.30869" lon="-2.24971">
        <ele>1.7999999523163</ele>
        <time>2019-05-30T09:16:56.000Z</time>
      </trkpt>
      <trkpt lat="47.30866" lon="-2.24965">
        <ele>1.3999999761581</ele>
        <time>2019-05-30T09:16:57.000Z</time>
      </trkpt>
      <trkpt lat="47.30854" lon="-2.2495">
        <ele>1.3999999761581</ele>
        <time>2019-05-30T09:17:00.000Z</time>
      </trkpt>
      <trkpt lat="47.30846" lon="-2.24943">
        <ele>1.3999999761581</ele>
        <time>2019-05-30T09:17:02.000Z</time>
      </trkpt>
      <trkpt lat="47.30841" lon="-2.2494">
        <ele>1.3999999761581</ele>
        <time>2019-05-30T09:17:03.000Z</time>
      </trkpt>
      <trkpt lat="47.30832" lon="-2.24935">
        <ele>1.3999999761581</ele>
        <time>2019-05-30T09:17:05.000Z</time>
      </trkpt>
      <trkpt lat="47.30827" lon="-2.24933">
        <ele>1.3999999761581</ele>
        <time>2019-05-30T09:17:06.000Z</time>
      </trkpt>
      <trkpt lat="47.30818" lon="-2.24929">
        <ele>1.3999999761581</ele>
        <time>2019-05-30T09:17:08.000Z</time>
      </trkpt>
      <trkpt lat="47.30807" lon="-2.24925">
        <ele>1.3999999761581</ele>
        <time>2019-05-30T09:17:10.000Z</time>
      </trkpt>
      <trkpt lat="47.30802" lon="-2.24923">
        <ele>1.3999999761581</ele>
        <time>2019-05-30T09:17:11.000Z</time>
      </trkpt>
      <trkpt lat="47.30757" lon="-2.24899">
        <ele>1.3999999761581</ele>
        <time>2019-05-30T09:17:19.000Z</time>
      </trkpt>
      <trkpt lat="47.30731" lon="-2.24878">
        <ele>1.3999999761581</ele>
        <time>2019-05-30T09:17:24.000Z</time>
      </trkpt>
      <trkpt lat="47.30727" lon="-2.24873">
        <ele>1.3999999761581</ele>
        <time>2019-05-30T09:17:25.000Z</time>
      </trkpt>
      <trkpt lat="47.30723" lon="-2.24867">
        <ele>1.3999999761581</ele>
        <time>2019-05-30T09:17:26.000Z</time>
      </trkpt>
      <trkpt lat="47.30708" lon="-2.24842">
        <ele>1.3999999761581</ele>
        <time>2019-05-30T09:17:30.000Z</time>
      </trkpt>
      <trkpt lat="47.30694" lon="-2.24815">
        <ele>1.3999999761581</ele>
        <time>2019-05-30T09:17:34.000Z</time>
      </trkpt>
      <trkpt lat="47.30689" lon="-2.24809">
        <ele>1.3999999761581</ele>
        <time>2019-05-30T09:17:35.000Z</time>
      </trkpt>
      <trkpt lat="47.30659" lon="-2.24767">
        <ele>1.3999999761581</ele>
        <time>2019-05-30T09:17:42.000Z</time>
      </trkpt>
      <trkpt lat="47.30652" lon="-2.24753">
        <ele>1.3999999761581</ele>
        <time>2019-05-30T09:17:44.000Z</time>
      </trkpt>
      <trkpt lat="47.30643" lon="-2.24728">
        <ele>1.3999999761581</ele>
        <time>2019-05-30T09:17:47.000Z</time>
      </trkpt>
      <trkpt lat="47.30623" lon="-2.24658">
        <ele>1.3999999761581</ele>
        <time>2019-05-30T09:17:55.000Z</time>
      </trkpt>
      <trkpt lat="47.30614" lon="-2.24626">
        <ele>1.3999999761581</ele>
        <time>2019-05-30T09:17:59.000Z</time>
      </trkpt>
      <trkpt lat="47.30614" lon="-2.24618">
        <ele>1.3999999761581</ele>
        <time>2019-05-30T09:18:00.000Z</time>
      </trkpt>
      <trkpt lat="47.30616" lon="-2.24577">
        <ele>1.3999999761581</ele>
        <time>2019-05-30T09:18:05.000Z</time>
      </trkpt>
      <trkpt lat="47.30623" lon="-2.24523">
        <ele>1.3999999761581</ele>
        <time>2019-05-30T09:18:12.000Z</time>
      </trkpt>
      <trkpt lat="47.30625" lon="-2.24509">
        <ele>1.7999999523163</ele>
        <time>2019-05-30T09:18:14.000Z</time>
      </trkpt>
      <trkpt lat="47.30625" lon="-2.24501">
        <ele>2.2000000476837</ele>
        <time>2019-05-30T09:18:15.000Z</time>
      </trkpt>
      <trkpt lat="47.30627" lon="-2.24494">
        <ele>2.7999999523163</ele>
        <time>2019-05-30T09:18:16.000Z</time>
      </trkpt>
      <trkpt lat="47.30628" lon="-2.24487">
        <ele>3.2000000476837</ele>
        <time>2019-05-30T09:18:17.000Z</time>
      </trkpt>
      <trkpt lat="47.30628" lon="-2.2448">
        <ele>3.5999999046326</ele>
        <time>2019-05-30T09:18:18.000Z</time>
      </trkpt>
      <trkpt lat="47.30629" lon="-2.24473">
        <ele>3.5999999046326</ele>
        <time>2019-05-30T09:18:19.000Z</time>
      </trkpt>
      <trkpt lat="47.3063" lon="-2.24466">
        <ele>4</ele>
        <time>2019-05-30T09:18:20.000Z</time>
      </trkpt>
      <trkpt lat="47.30631" lon="-2.24459">
        <ele>4.4000000953674</ele>
        <time>2019-05-30T09:18:21.000Z</time>
      </trkpt>
      <trkpt lat="47.30633" lon="-2.24452">
        <ele>4.8000001907349</ele>
        <time>2019-05-30T09:18:22.000Z</time>
      </trkpt>
      <trkpt lat="47.30634" lon="-2.24446">
        <ele>5.4000000953674</ele>
        <time>2019-05-30T09:18:23.000Z</time>
      </trkpt>
      <trkpt lat="47.30635" lon="-2.24441">
        <ele>5.8000001907349</ele>
        <time>2019-05-30T09:18:24.000Z</time>
      </trkpt>
      <trkpt lat="47.30636" lon="-2.24435">
        <ele>5.8000001907349</ele>
        <time>2019-05-30T09:18:25.000Z</time>
      </trkpt>
      <trkpt lat="47.30634" lon="-2.24425">
        <ele>6.1999998092651</ele>
        <time>2019-05-30T09:18:28.000Z</time>
      </trkpt>
      <trkpt lat="47.30633" lon="-2.24422">
        <ele>6.5999999046326</ele>
        <time>2019-05-30T09:18:29.000Z</time>
      </trkpt>
      <trkpt lat="47.30631" lon="-2.24421">
        <ele>7</ele>
        <time>2019-05-30T09:18:30.000Z</time>
      </trkpt>
      <trkpt lat="47.30629" lon="-2.2442">
        <ele>7.4000000953674</ele>
        <time>2019-05-30T09:18:31.000Z</time>
      </trkpt>
      <trkpt lat="47.30626" lon="-2.24419">
        <ele>7.8000001907349</ele>
        <time>2019-05-30T09:18:32.000Z</time>
      </trkpt>
      <trkpt lat="47.30623" lon="-2.24419">
        <ele>7.8000001907349</ele>
        <time>2019-05-30T09:18:33.000Z</time>
      </trkpt>
      <trkpt lat="47.30607" lon="-2.24414">
        <ele>8.1999998092651</ele>
        <time>2019-05-30T09:18:37.000Z</time>
      </trkpt>
      <trkpt lat="47.30603" lon="-2.24411">
        <ele>8.6000003814697</ele>
        <time>2019-05-30T09:18:38.000Z</time>
      </trkpt>
      <trkpt lat="47.30599" lon="-2.24408">
        <ele>9.1999998092651</ele>
        <time>2019-05-30T09:18:39.000Z</time>
      </trkpt>
      <trkpt lat="47.30595" lon="-2.24404">
        <ele>9.6000003814697</ele>
        <time>2019-05-30T09:18:40.000Z</time>
      </trkpt>
      <trkpt lat="47.30591" lon="-2.244">
        <ele>10</ele>
        <time>2019-05-30T09:18:41.000Z</time>
      </trkpt>
      <trkpt lat="47.30583" lon="-2.2439">
        <ele>10</ele>
        <time>2019-05-30T09:18:43.000Z</time>
      </trkpt>
      <trkpt lat="47.30574" lon="-2.24382">
        <ele>10</ele>
        <time>2019-05-30T09:18:45.000Z</time>
      </trkpt>
      <trkpt lat="47.30544" lon="-2.2435">
        <ele>10.39999961853</ele>
        <time>2019-05-30T09:18:53.000Z</time>
      </trkpt>
      <trkpt lat="47.3054" lon="-2.24345">
        <ele>10.800000190735</ele>
        <time>2019-05-30T09:18:54.000Z</time>
      </trkpt>
      <trkpt lat="47.30535" lon="-2.24341">
        <ele>11.199999809265</ele>
        <time>2019-05-30T09:18:55.000Z</time>
      </trkpt>
      <trkpt lat="47.30531" lon="-2.24337">
        <ele>11.60000038147</ele>
        <time>2019-05-30T09:18:56.000Z</time>
      </trkpt>
      <trkpt lat="47.30527" lon="-2.24332">
        <ele>12.199999809265</ele>
        <time>2019-05-30T09:18:57.000Z</time>
      </trkpt>
      <trkpt lat="47.30515" lon="-2.24319">
        <ele>12.199999809265</ele>
        <time>2019-05-30T09:19:00.000Z</time>
      </trkpt>
      <trkpt lat="47.30482" lon="-2.24292">
        <ele>12.199999809265</ele>
        <time>2019-05-30T09:19:07.000Z</time>
      </trkpt>
      <trkpt lat="47.30467" lon="-2.24285">
        <ele>12.199999809265</ele>
        <time>2019-05-30T09:19:10.000Z</time>
      </trkpt>
      <trkpt lat="47.3045" lon="-2.2428">
        <ele>12.199999809265</ele>
        <time>2019-05-30T09:19:13.000Z</time>
      </trkpt>
      <trkpt lat="47.3042" lon="-2.24273">
        <ele>12.199999809265</ele>
        <time>2019-05-30T09:19:19.000Z</time>
      </trkpt>
      <trkpt lat="47.30407" lon="-2.24263">
        <ele>12.199999809265</ele>
        <time>2019-05-30T09:19:22.000Z</time>
      </trkpt>
      <trkpt lat="47.30395" lon="-2.2425">
        <ele>12.199999809265</ele>
        <time>2019-05-30T09:19:25.000Z</time>
      </trkpt>
      <trkpt lat="47.30364" lon="-2.24216">
        <ele>12.199999809265</ele>
        <time>2019-05-30T09:19:32.000Z</time>
      </trkpt>
      <trkpt lat="47.30352" lon="-2.242">
        <ele>12.199999809265</ele>
        <time>2019-05-30T09:19:35.000Z</time>
      </trkpt>
      <trkpt lat="47.3035" lon="-2.24185">
        <ele>12.199999809265</ele>
        <time>2019-05-30T09:19:37.000Z</time>
      </trkpt>
      <trkpt lat="47.30359" lon="-2.24165">
        <ele>12.199999809265</ele>
        <time>2019-05-30T09:19:40.000Z</time>
      </trkpt>
      <trkpt lat="47.30362" lon="-2.24161">
        <ele>12.199999809265</ele>
        <time>2019-05-30T09:19:41.000Z</time>
      </trkpt>
      <trkpt lat="47.30364" lon="-2.24156">
        <ele>12.199999809265</ele>
        <time>2019-05-30T09:19:42.000Z</time>
      </trkpt>
      <trkpt lat="47.30376" lon="-2.24135">
        <ele>12.199999809265</ele>
        <time>2019-05-30T09:19:46.000Z</time>
      </trkpt>
      <trkpt lat="47.30394" lon="-2.24113">
        <ele>12.199999809265</ele>
        <time>2019-05-30T09:19:52.000Z</time>
      </trkpt>
      <trkpt lat="47.30405" lon="-2.24094">
        <ele>12.199999809265</ele>
        <time>2019-05-30T09:19:56.000Z</time>
      </trkpt>
      <trkpt lat="47.30431" lon="-2.2406">
        <ele>12.199999809265</ele>
        <time>2019-05-30T09:20:02.000Z</time>
      </trkpt>
      <trkpt lat="47.30456" lon="-2.24034">
        <ele>11.800000190735</ele>
        <time>2019-05-30T09:20:07.000Z</time>
      </trkpt>
      <trkpt lat="47.30463" lon="-2.24032">
        <ele>11.39999961853</ele>
        <time>2019-05-30T09:20:08.000Z</time>
      </trkpt>
      <trkpt lat="47.30468" lon="-2.24028">
        <ele>11</ele>
        <time>2019-05-30T09:20:09.000Z</time>
      </trkpt>
      <trkpt lat="47.30474" lon="-2.24023">
        <ele>10.60000038147</ele>
        <time>2019-05-30T09:20:10.000Z</time>
      </trkpt>
      <trkpt lat="47.30481" lon="-2.24017">
        <ele>10.199999809265</ele>
        <time>2019-05-30T09:20:11.000Z</time>
      </trkpt>
      <trkpt lat="47.30487" lon="-2.2401">
        <ele>10.199999809265</ele>
        <time>2019-05-30T09:20:12.000Z</time>
      </trkpt>
      <trkpt lat="47.30494" lon="-2.24002">
        <ele>9.6000003814697</ele>
        <time>2019-05-30T09:20:13.000Z</time>
      </trkpt>
      <trkpt lat="47.305" lon="-2.23993">
        <ele>9.1999998092651</ele>
        <time>2019-05-30T09:20:14.000Z</time>
      </trkpt>
      <trkpt lat="47.30506" lon="-2.23984">
        <ele>8.3999996185303</ele>
        <time>2019-05-30T09:20:15.000Z</time>
      </trkpt>
      <trkpt lat="47.30514" lon="-2.23975">
        <ele>8</ele>
        <time>2019-05-30T09:20:16.000Z</time>
      </trkpt>
      <trkpt lat="47.30534" lon="-2.23952">
        <ele>7.4000000953674</ele>
        <time>2019-05-30T09:20:19.000Z</time>
      </trkpt>
      <trkpt lat="47.3054" lon="-2.23946">
        <ele>6.8000001907349</ele>
        <time>2019-05-30T09:20:20.000Z</time>
      </trkpt>
      <trkpt lat="47.30544" lon="-2.23939">
        <ele>5.8000001907349</ele>
        <time>2019-05-30T09:20:21.000Z</time>
      </trkpt>
      <trkpt lat="47.30546" lon="-2.23932">
        <ele>5</ele>
        <time>2019-05-30T09:20:22.000Z</time>
      </trkpt>
      <trkpt lat="47.30547" lon="-2.23927">
        <ele>4.1999998092651</ele>
        <time>2019-05-30T09:20:23.000Z</time>
      </trkpt>
      <trkpt lat="47.30547" lon="-2.23923">
        <ele>3.4000000953674</ele>
        <time>2019-05-30T09:20:24.000Z</time>
      </trkpt>
      <trkpt lat="47.30545" lon="-2.23919">
        <ele>2.5999999046326</ele>
        <time>2019-05-30T09:20:25.000Z</time>
      </trkpt>
      <trkpt lat="47.30542" lon="-2.23915">
        <ele>1.7999999523163</ele>
        <time>2019-05-30T09:20:26.000Z</time>
      </trkpt>
      <trkpt lat="47.30538" lon="-2.2391">
        <ele>1</ele>
        <time>2019-05-30T09:20:27.000Z</time>
      </trkpt>
      <trkpt lat="47.30534" lon="-2.23905">
        <ele>0.40000000596046</ele>
        <time>2019-05-30T09:20:28.000Z</time>
      </trkpt>
      <trkpt lat="47.30519" lon="-2.23885">
        <ele>0.40000000596046</ele>
        <time>2019-05-30T09:20:32.000Z</time>
      </trkpt>
      <trkpt lat="47.30494" lon="-2.23851">
        <ele>0.40000000596046</ele>
        <time>2019-05-30T09:20:38.000Z</time>
      </trkpt>
      <trkpt lat="47.30484" lon="-2.23843">
        <ele>0.40000000596046</ele>
        <time>2019-05-30T09:20:40.000Z</time>
      </trkpt>
      <trkpt lat="47.30473" lon="-2.23843">
        <ele>0.40000000596046</ele>
        <time>2019-05-30T09:20:42.000Z</time>
      </trkpt>
      <trkpt lat="47.30462" lon="-2.23845">
        <ele>0.40000000596046</ele>
        <time>2019-05-30T09:20:44.000Z</time>
      </trkpt>
      <trkpt lat="47.30441" lon="-2.23849">
        <ele>0.40000000596046</ele>
        <time>2019-05-30T09:20:48.000Z</time>
      </trkpt>
      <trkpt lat="47.30405" lon="-2.23853">
        <ele>0.40000000596046</ele>
        <time>2019-05-30T09:20:55.000Z</time>
      </trkpt>
      <trkpt lat="47.3036" lon="-2.2386">
        <ele>0.40000000596046</ele>
        <time>2019-05-30T09:21:03.000Z</time>
      </trkpt>
      <trkpt lat="47.30327" lon="-2.23873">
        <ele>0.40000000596046</ele>
        <time>2019-05-30T09:21:09.000Z</time>
      </trkpt>
      <trkpt lat="47.30293" lon="-2.23885">
        <ele>0.40000000596046</ele>
        <time>2019-05-30T09:21:16.000Z</time>
      </trkpt>
      <trkpt lat="47.30275" lon="-2.23894">
        <ele>0.40000000596046</ele>
        <time>2019-05-30T09:21:21.000Z</time>
      </trkpt>
      <trkpt lat="47.30265" lon="-2.23914">
        <ele>0.40000000596046</ele>
        <time>2019-05-30T09:21:26.000Z</time>
      </trkpt>
      <trkpt lat="47.30266" lon="-2.23938">
        <ele>0.40000000596046</ele>
        <time>2019-05-30T09:21:31.000Z</time>
      </trkpt>
      <trkpt lat="47.30269" lon="-2.23956">
        <ele>0.40000000596046</ele>
        <time>2019-05-30T09:21:34.000Z</time>
      </trkpt>
      <trkpt lat="47.30273" lon="-2.23969">
        <ele>0.40000000596046</ele>
        <time>2019-05-30T09:21:36.000Z</time>
      </trkpt>
      <trkpt lat="47.30278" lon="-2.23989">
        <ele>0.80000001192093</ele>
        <time>2019-05-30T09:21:39.000Z</time>
      </trkpt>
      <trkpt lat="47.30279" lon="-2.23996">
        <ele>1.2000000476837</ele>
        <time>2019-05-30T09:21:40.000Z</time>
      </trkpt>
      <trkpt lat="47.3028" lon="-2.24002">
        <ele>1.6000000238419</ele>
        <time>2019-05-30T09:21:41.000Z</time>
      </trkpt>
      <trkpt lat="47.30281" lon="-2.24009">
        <ele>2</ele>
        <time>2019-05-30T09:21:42.000Z</time>
      </trkpt>
      <trkpt lat="47.30283" lon="-2.24014">
        <ele>2.5999999046326</ele>
        <time>2019-05-30T09:21:43.000Z</time>
      </trkpt>
      <trkpt lat="47.30284" lon="-2.24026">
        <ele>2.5999999046326</ele>
        <time>2019-05-30T09:21:45.000Z</time>
      </trkpt>
      <trkpt lat="47.30286" lon="-2.24042">
        <ele>3</ele>
        <time>2019-05-30T09:21:48.000Z</time>
      </trkpt>
      <trkpt lat="47.30286" lon="-2.24046">
        <ele>3.4000000953674</ele>
        <time>2019-05-30T09:21:49.000Z</time>
      </trkpt>
      <trkpt lat="47.30285" lon="-2.2405">
        <ele>3.7999999523163</ele>
        <time>2019-05-30T09:21:50.000Z</time>
      </trkpt>
      <trkpt lat="47.30283" lon="-2.24054">
        <ele>4.1999998092651</ele>
        <time>2019-05-30T09:21:51.000Z</time>
      </trkpt>
      <trkpt lat="47.30282" lon="-2.24056">
        <ele>4.5999999046326</ele>
        <time>2019-05-30T09:21:52.000Z</time>
      </trkpt>
      <trkpt lat="47.30279" lon="-2.24057">
        <ele>4.5999999046326</ele>
        <time>2019-05-30T09:21:53.000Z</time>
      </trkpt>
      <trkpt lat="47.30267" lon="-2.2406">
        <ele>4.5999999046326</ele>
        <time>2019-05-30T09:21:56.000Z</time>
      </trkpt>
      <trkpt lat="47.30245" lon="-2.2406">
        <ele>4.5999999046326</ele>
        <time>2019-05-30T09:22:02.000Z</time>
      </trkpt>
      <trkpt lat="47.30237" lon="-2.2406">
        <ele>5</ele>
        <time>2019-05-30T09:22:04.000Z</time>
      </trkpt>
      <trkpt lat="47.30233" lon="-2.24059">
        <ele>5.4000000953674</ele>
        <time>2019-05-30T09:22:05.000Z</time>
      </trkpt>
      <trkpt lat="47.30228" lon="-2.24058">
        <ele>6</ele>
        <time>2019-05-30T09:22:06.000Z</time>
      </trkpt>
      <trkpt lat="47.30223" lon="-2.24059">
        <ele>6.4000000953674</ele>
        <time>2019-05-30T09:22:07.000Z</time>
      </trkpt>
      <trkpt lat="47.30218" lon="-2.24058">
        <ele>6.8000001907349</ele>
        <time>2019-05-30T09:22:08.000Z</time>
      </trkpt>
      <trkpt lat="47.30203" lon="-2.24059">
        <ele>6.8000001907349</ele>
        <time>2019-05-30T09:22:12.000Z</time>
      </trkpt>
      <trkpt lat="47.3019" lon="-2.24063">
        <ele>6.8000001907349</ele>
        <time>2019-05-30T09:22:16.000Z</time>
      </trkpt>
      <trkpt lat="47.30168" lon="-2.2407">
        <ele>6.8000001907349</ele>
        <time>2019-05-30T09:22:22.000Z</time>
      </trkpt>
      <trkpt lat="47.30156" lon="-2.24077">
        <ele>6.8000001907349</ele>
        <time>2019-05-30T09:22:26.000Z</time>
      </trkpt>
      <trkpt lat="47.30151" lon="-2.24078">
        <ele>6.8000001907349</ele>
        <time>2019-05-30T09:22:28.000Z</time>
      </trkpt>
      <trkpt lat="47.30141" lon="-2.24081">
        <ele>7.1999998092651</ele>
        <time>2019-05-30T09:22:31.000Z</time>
      </trkpt>
      <trkpt lat="47.30138" lon="-2.24084">
        <ele>7.5999999046326</ele>
        <time>2019-05-30T09:22:32.000Z</time>
      </trkpt>
      <trkpt lat="47.30134" lon="-2.24086">
        <ele>8</ele>
        <time>2019-05-30T09:22:33.000Z</time>
      </trkpt>
      <trkpt lat="47.30131" lon="-2.24088">
        <ele>8.3999996185303</ele>
        <time>2019-05-30T09:22:34.000Z</time>
      </trkpt>
      <trkpt lat="47.30128" lon="-2.2409">
        <ele>8.8000001907349</ele>
        <time>2019-05-30T09:22:35.000Z</time>
      </trkpt>
      <trkpt lat="47.30118" lon="-2.24097">
        <ele>8.8000001907349</ele>
        <time>2019-05-30T09:22:38.000Z</time>
      </trkpt>
      <trkpt lat="47.30098" lon="-2.24107">
        <ele>8.8000001907349</ele>
        <time>2019-05-30T09:22:43.000Z</time>
      </trkpt>
      <trkpt lat="47.30079" lon="-2.24121">
        <ele>8.8000001907349</ele>
        <time>2019-05-30T09:22:48.000Z</time>
      </trkpt>
      <trkpt lat="47.30057" lon="-2.24129">
        <ele>8.8000001907349</ele>
        <time>2019-05-30T09:22:53.000Z</time>
      </trkpt>
      <trkpt lat="47.30031" lon="-2.24148">
        <ele>8.8000001907349</ele>
        <time>2019-05-30T09:22:59.000Z</time>
      </trkpt>
      <trkpt lat="47.30014" lon="-2.24153">
        <ele>8.8000001907349</ele>
        <time>2019-05-30T09:23:04.000Z</time>
      </trkpt>
      <trkpt lat="47.30007" lon="-2.24156">
        <ele>8.8000001907349</ele>
        <time>2019-05-30T09:23:06.000Z</time>
      </trkpt>
      <trkpt lat="47.29993" lon="-2.24165">
        <ele>8.8000001907349</ele>
        <time>2019-05-30T09:23:09.000Z</time>
      </trkpt>
      <trkpt lat="47.29988" lon="-2.24184">
        <ele>8.8000001907349</ele>
        <time>2019-05-30T09:23:14.000Z</time>
      </trkpt>
      <trkpt lat="47.29984" lon="-2.24193">
        <ele>9.1999998092651</ele>
        <time>2019-05-30T09:23:16.000Z</time>
      </trkpt>
      <trkpt lat="47.29982" lon="-2.24197">
        <ele>9.6000003814697</ele>
        <time>2019-05-30T09:23:17.000Z</time>
      </trkpt>
      <trkpt lat="47.29981" lon="-2.24203">
        <ele>10</ele>
        <time>2019-05-30T09:23:18.000Z</time>
      </trkpt>
      <trkpt lat="47.29979" lon="-2.24207">
        <ele>10.39999961853</ele>
        <time>2019-05-30T09:23:19.000Z</time>
      </trkpt>
      <trkpt lat="47.29977" lon="-2.24212">
        <ele>10.800000190735</ele>
        <time>2019-05-30T09:23:20.000Z</time>
      </trkpt>
      <trkpt lat="47.29964" lon="-2.24234">
        <ele>10.800000190735</ele>
        <time>2019-05-30T09:23:25.000Z</time>
      </trkpt>
      <trkpt lat="47.29949" lon="-2.24264">
        <ele>10.800000190735</ele>
        <time>2019-05-30T09:23:32.000Z</time>
      </trkpt>
      <trkpt lat="47.29943" lon="-2.24279">
        <ele>10.800000190735</ele>
        <time>2019-05-30T09:23:37.000Z</time>
      </trkpt>
      <trkpt lat="47.2993" lon="-2.24291">
        <ele>10.800000190735</ele>
        <time>2019-05-30T09:23:43.000Z</time>
      </trkpt>
      <trkpt lat="47.29927" lon="-2.2429">
        <ele>10.800000190735</ele>
        <time>2019-05-30T09:23:44.000Z</time>
      </trkpt>
      <trkpt lat="47.29919" lon="-2.24284">
        <ele>10.800000190735</ele>
        <time>2019-05-30T09:23:47.000Z</time>
      </trkpt>
      <trkpt lat="47.29908" lon="-2.24277">
        <ele>10.800000190735</ele>
        <time>2019-05-30T09:23:52.000Z</time>
      </trkpt>
      <trkpt lat="47.29906" lon="-2.24275">
        <ele>10.800000190735</ele>
        <time>2019-05-30T09:23:53.000Z</time>
      </trkpt>
      <trkpt lat="47.2989" lon="-2.24263">
        <ele>10.800000190735</ele>
        <time>2019-05-30T09:23:59.000Z</time>
      </trkpt>
      <trkpt lat="47.29878" lon="-2.24254">
        <ele>11.39999961853</ele>
        <time>2019-05-30T09:24:03.000Z</time>
      </trkpt>
      <trkpt lat="47.29875" lon="-2.24253">
        <ele>11.800000190735</ele>
        <time>2019-05-30T09:24:04.000Z</time>
      </trkpt>
      <trkpt lat="47.29872" lon="-2.24252">
        <ele>12.199999809265</ele>
        <time>2019-05-30T09:24:05.000Z</time>
      </trkpt>
      <trkpt lat="47.29868" lon="-2.2425">
        <ele>12.60000038147</ele>
        <time>2019-05-30T09:24:06.000Z</time>
      </trkpt>
      <trkpt lat="47.29864" lon="-2.24248">
        <ele>13</ele>
        <time>2019-05-30T09:24:07.000Z</time>
      </trkpt>
      <trkpt lat="47.29842" lon="-2.24238">
        <ele>13</ele>
        <time>2019-05-30T09:24:13.000Z</time>
      </trkpt>
      <trkpt lat="47.29813" lon="-2.24222">
        <ele>13</ele>
        <time>2019-05-30T09:24:20.000Z</time>
      </trkpt>
      <trkpt lat="47.29803" lon="-2.24217">
        <ele>13</ele>
        <time>2019-05-30T09:24:22.000Z</time>
      </trkpt>
      <trkpt lat="47.29791" lon="-2.24222">
        <ele>13</ele>
        <time>2019-05-30T09:24:24.000Z</time>
      </trkpt>
      <trkpt lat="47.2978" lon="-2.24227">
        <ele>13</ele>
        <time>2019-05-30T09:24:26.000Z</time>
      </trkpt>
      <trkpt lat="47.2975" lon="-2.24245">
        <ele>12.60000038147</ele>
        <time>2019-05-30T09:24:31.000Z</time>
      </trkpt>
      <trkpt lat="47.29744" lon="-2.24248">
        <ele>12</ele>
        <time>2019-05-30T09:24:32.000Z</time>
      </trkpt>
      <trkpt lat="47.29737" lon="-2.24251">
        <ele>11.60000038147</ele>
        <time>2019-05-30T09:24:33.000Z</time>
      </trkpt>
      <trkpt lat="47.2973" lon="-2.24254">
        <ele>11</ele>
        <time>2019-05-30T09:24:34.000Z</time>
      </trkpt>
      <trkpt lat="47.29723" lon="-2.24258">
        <ele>10.60000038147</ele>
        <time>2019-05-30T09:24:35.000Z</time>
      </trkpt>
      <trkpt lat="47.29716" lon="-2.24262">
        <ele>10.60000038147</ele>
        <time>2019-05-30T09:24:36.000Z</time>
      </trkpt>
      <trkpt lat="47.29674" lon="-2.24285">
        <ele>10</ele>
        <time>2019-05-30T09:24:42.000Z</time>
      </trkpt>
      <trkpt lat="47.29668" lon="-2.24288">
        <ele>9.6000003814697</ele>
        <time>2019-05-30T09:24:43.000Z</time>
      </trkpt>
      <trkpt lat="47.29661" lon="-2.24292">
        <ele>9</ele>
        <time>2019-05-30T09:24:44.000Z</time>
      </trkpt>
      <trkpt lat="47.29655" lon="-2.24296">
        <ele>8.3999996185303</ele>
        <time>2019-05-30T09:24:45.000Z</time>
      </trkpt>
      <trkpt lat="47.29648" lon="-2.24301">
        <ele>7.8000001907349</ele>
        <time>2019-05-30T09:24:46.000Z</time>
      </trkpt>
      <trkpt lat="47.29635" lon="-2.24308">
        <ele>7.4000000953674</ele>
        <time>2019-05-30T09:24:48.000Z</time>
      </trkpt>
      <trkpt lat="47.29629" lon="-2.2431">
        <ele>7</ele>
        <time>2019-05-30T09:24:49.000Z</time>
      </trkpt>
      <trkpt lat="47.29622" lon="-2.24313">
        <ele>6.5999999046326</ele>
        <time>2019-05-30T09:24:50.000Z</time>
      </trkpt>
      <trkpt lat="47.29616" lon="-2.24314">
        <ele>6.1999998092651</ele>
        <time>2019-05-30T09:24:51.000Z</time>
      </trkpt>
      <trkpt lat="47.2961" lon="-2.24316">
        <ele>5.8000001907349</ele>
        <time>2019-05-30T09:24:52.000Z</time>
      </trkpt>
      <trkpt lat="47.29604" lon="-2.24317">
        <ele>5.8000001907349</ele>
        <time>2019-05-30T09:24:53.000Z</time>
      </trkpt>
      <trkpt lat="47.2958" lon="-2.2432">
        <ele>5.8000001907349</ele>
        <time>2019-05-30T09:24:57.000Z</time>
      </trkpt>
      <trkpt lat="47.29568" lon="-2.24313">
        <ele>5.4000000953674</ele>
        <time>2019-05-30T09:24:59.000Z</time>
      </trkpt>
      <trkpt lat="47.29562" lon="-2.24307">
        <ele>4.8000001907349</ele>
        <time>2019-05-30T09:25:00.000Z</time>
      </trkpt>
      <trkpt lat="47.29556" lon="-2.24301">
        <ele>4.4000000953674</ele>
        <time>2019-05-30T09:25:01.000Z</time>
      </trkpt>
      <trkpt lat="47.2955" lon="-2.24295">
        <ele>4</ele>
        <time>2019-05-30T09:25:02.000Z</time>
      </trkpt>
      <trkpt lat="47.29543" lon="-2.24289">
        <ele>3.4000000953674</ele>
        <time>2019-05-30T09:25:03.000Z</time>
      </trkpt>
      <trkpt lat="47.29537" lon="-2.24287">
        <ele>3.4000000953674</ele>
        <time>2019-05-30T09:25:04.000Z</time>
      </trkpt>
      <trkpt lat="47.29524" lon="-2.24291">
        <ele>3.4000000953674</ele>
        <time>2019-05-30T09:25:06.000Z</time>
      </trkpt>
      <trkpt lat="47.29514" lon="-2.24295">
        <ele>3.4000000953674</ele>
        <time>2019-05-30T09:25:08.000Z</time>
      </trkpt>
      <trkpt lat="47.29504" lon="-2.24299">
        <ele>3.4000000953674</ele>
        <time>2019-05-30T09:25:10.000Z</time>
      </trkpt>
      <trkpt lat="47.29496" lon="-2.24304">
        <ele>3.4000000953674</ele>
        <time>2019-05-30T09:25:12.000Z</time>
      </trkpt>
      <trkpt lat="47.29477" lon="-2.24311">
        <ele>3.4000000953674</ele>
        <time>2019-05-30T09:25:16.000Z</time>
      </trkpt>
      <trkpt lat="47.2945" lon="-2.2432">
        <ele>4</ele>
        <time>2019-05-30T09:25:21.000Z</time>
      </trkpt>
      <trkpt lat="47.29444" lon="-2.24321">
        <ele>4.4000000953674</ele>
        <time>2019-05-30T09:25:22.000Z</time>
      </trkpt>
      <trkpt lat="47.29439" lon="-2.24323">
        <ele>4.8000001907349</ele>
        <time>2019-05-30T09:25:23.000Z</time>
      </trkpt>
      <trkpt lat="47.29434" lon="-2.24326">
        <ele>5.1999998092651</ele>
        <time>2019-05-30T09:25:24.000Z</time>
      </trkpt>
      <trkpt lat="47.29429" lon="-2.24329">
        <ele>5.5999999046326</ele>
        <time>2019-05-30T09:25:25.000Z</time>
      </trkpt>
      <trkpt lat="47.29414" lon="-2.24342">
        <ele>5.5999999046326</ele>
        <time>2019-05-30T09:25:28.000Z</time>
      </trkpt>
      <trkpt lat="47.29399" lon="-2.24356">
        <ele>6</ele>
        <time>2019-05-30T09:25:31.000Z</time>
      </trkpt>
      <trkpt lat="47.29393" lon="-2.24361">
        <ele>6.5999999046326</ele>
        <time>2019-05-30T09:25:32.000Z</time>
      </trkpt>
      <trkpt lat="47.29388" lon="-2.24367">
        <ele>7</ele>
        <time>2019-05-30T09:25:33.000Z</time>
      </trkpt>
      <trkpt lat="47.29384" lon="-2.24372">
        <ele>7.4000000953674</ele>
        <time>2019-05-30T09:25:34.000Z</time>
      </trkpt>
      <trkpt lat="47.29378" lon="-2.24378">
        <ele>7.8000001907349</ele>
        <time>2019-05-30T09:25:35.000Z</time>
      </trkpt>
      <trkpt lat="47.29373" lon="-2.24383">
        <ele>7.8000001907349</ele>
        <time>2019-05-30T09:25:36.000Z</time>
      </trkpt>
      <trkpt lat="47.29328" lon="-2.24431">
        <ele>7.8000001907349</ele>
        <time>2019-05-30T09:25:45.000Z</time>
      </trkpt>
      <trkpt lat="47.29323" lon="-2.24436">
        <ele>7.8000001907349</ele>
        <time>2019-05-30T09:25:46.000Z</time>
      </trkpt>
      <trkpt lat="47.29304" lon="-2.24451">
        <ele>7.8000001907349</ele>
        <time>2019-05-30T09:25:50.000Z</time>
      </trkpt>
      <trkpt lat="47.293" lon="-2.24454">
        <ele>7.8000001907349</ele>
        <time>2019-05-30T09:25:51.000Z</time>
      </trkpt>
      <trkpt lat="47.29293" lon="-2.24474">
        <ele>7.8000001907349</ele>
        <time>2019-05-30T09:25:55.000Z</time>
      </trkpt>
      <trkpt lat="47.29296" lon="-2.24516">
        <ele>7.8000001907349</ele>
        <time>2019-05-30T09:26:00.000Z</time>
      </trkpt>
      <trkpt lat="47.29298" lon="-2.24582">
        <ele>7.8000001907349</ele>
        <time>2019-05-30T09:26:07.000Z</time>
      </trkpt>
      <trkpt lat="47.29299" lon="-2.24609">
        <ele>7.8000001907349</ele>
        <time>2019-05-30T09:26:10.000Z</time>
      </trkpt>
      <trkpt lat="47.29297" lon="-2.24626">
        <ele>7.8000001907349</ele>
        <time>2019-05-30T09:26:12.000Z</time>
      </trkpt>
      <trkpt lat="47.29296" lon="-2.2465">
        <ele>7.8000001907349</ele>
        <time>2019-05-30T09:26:15.000Z</time>
      </trkpt>
      <trkpt lat="47.29296" lon="-2.24663">
        <ele>7.8000001907349</ele>
        <time>2019-05-30T09:26:17.000Z</time>
      </trkpt>
      <trkpt lat="47.29299" lon="-2.24681">
        <ele>7.8000001907349</ele>
        <time>2019-05-30T09:26:20.000Z</time>
      </trkpt>
      <trkpt lat="47.29301" lon="-2.24687">
        <ele>7.8000001907349</ele>
        <time>2019-05-30T09:26:21.000Z</time>
      </trkpt>
      <trkpt lat="47.2931" lon="-2.24716">
        <ele>7.8000001907349</ele>
        <time>2019-05-30T09:26:26.000Z</time>
      </trkpt>
      <trkpt lat="47.29312" lon="-2.24722">
        <ele>7.8000001907349</ele>
        <time>2019-05-30T09:26:27.000Z</time>
      </trkpt>
      <trkpt lat="47.29313" lon="-2.24728">
        <ele>8.1999998092651</ele>
        <time>2019-05-30T09:26:28.000Z</time>
      </trkpt>
      <trkpt lat="47.29314" lon="-2.24734">
        <ele>8.8000001907349</ele>
        <time>2019-05-30T09:26:29.000Z</time>
      </trkpt>
      <trkpt lat="47.29315" lon="-2.24742">
        <ele>9.1999998092651</ele>
        <time>2019-05-30T09:26:30.000Z</time>
      </trkpt>
      <trkpt lat="47.29316" lon="-2.24749">
        <ele>9.6000003814697</ele>
        <time>2019-05-30T09:26:31.000Z</time>
      </trkpt>
      <trkpt lat="47.29318" lon="-2.24755">
        <ele>10</ele>
        <time>2019-05-30T09:26:32.000Z</time>
      </trkpt>
      <trkpt lat="47.29324" lon="-2.24766">
        <ele>10</ele>
        <time>2019-05-30T09:26:34.000Z</time>
      </trkpt>
      <trkpt lat="47.29327" lon="-2.24778">
        <ele>10</ele>
        <time>2019-05-30T09:26:36.000Z</time>
      </trkpt>
      <trkpt lat="47.2933" lon="-2.2479">
        <ele>10</ele>
        <time>2019-05-30T09:26:38.000Z</time>
      </trkpt>
      <trkpt lat="47.29335" lon="-2.2481">
        <ele>10</ele>
        <time>2019-05-30T09:26:41.000Z</time>
      </trkpt>
      <trkpt lat="47.29338" lon="-2.24832">
        <ele>10</ele>
        <time>2019-05-30T09:26:44.000Z</time>
      </trkpt>
      <trkpt lat="47.29341" lon="-2.24883">
        <ele>10</ele>
        <time>2019-05-30T09:26:50.000Z</time>
      </trkpt>
      <trkpt lat="47.2934" lon="-2.24889">
        <ele>10</ele>
        <time>2019-05-30T09:26:51.000Z</time>
      </trkpt>
      <trkpt lat="47.29332" lon="-2.24906">
        <ele>10</ele>
        <time>2019-05-30T09:26:54.000Z</time>
      </trkpt>
      <trkpt lat="47.29313" lon="-2.24912">
        <ele>10</ele>
        <time>2019-05-30T09:26:58.000Z</time>
      </trkpt>
      <trkpt lat="47.29294" lon="-2.24917">
        <ele>10.39999961853</ele>
        <time>2019-05-30T09:27:02.000Z</time>
      </trkpt>
      <trkpt lat="47.29289" lon="-2.24917">
        <ele>11.199999809265</ele>
        <time>2019-05-30T09:27:03.000Z</time>
      </trkpt>
      <trkpt lat="47.29285" lon="-2.24918">
        <ele>11.800000190735</ele>
        <time>2019-05-30T09:27:04.000Z</time>
      </trkpt>
      <trkpt lat="47.29281" lon="-2.24918">
        <ele>12.199999809265</ele>
        <time>2019-05-30T09:27:05.000Z</time>
      </trkpt>
      <trkpt lat="47.29272" lon="-2.24918">
        <ele>12.199999809265</ele>
        <time>2019-05-30T09:27:07.000Z</time>
      </trkpt>
      <trkpt lat="47.29262" lon="-2.24923">
        <ele>12.199999809265</ele>
        <time>2019-05-30T09:27:10.000Z</time>
      </trkpt>
      <trkpt lat="47.29258" lon="-2.24939">
        <ele>12.199999809265</ele>
        <time>2019-05-30T09:27:13.000Z</time>
      </trkpt>
      <trkpt lat="47.2926" lon="-2.24961">
        <ele>12.199999809265</ele>
        <time>2019-05-30T09:27:17.000Z</time>
      </trkpt>
      <trkpt lat="47.29264" lon="-2.24974">
        <ele>12.199999809265</ele>
        <time>2019-05-30T09:27:19.000Z</time>
      </trkpt>
      <trkpt lat="47.29266" lon="-2.2498">
        <ele>12.199999809265</ele>
        <time>2019-05-30T09:27:20.000Z</time>
      </trkpt>
      <trkpt lat="47.2927" lon="-2.24993">
        <ele>12.199999809265</ele>
        <time>2019-05-30T09:27:22.000Z</time>
      </trkpt>
      <trkpt lat="47.29276" lon="-2.25012">
        <ele>12.199999809265</ele>
        <time>2019-05-30T09:27:25.000Z</time>
      </trkpt>
      <trkpt lat="47.29278" lon="-2.25027">
        <ele>12.199999809265</ele>
        <time>2019-05-30T09:27:27.000Z</time>
      </trkpt>
      <trkpt lat="47.29289" lon="-2.25075">
        <ele>12.199999809265</ele>
        <time>2019-05-30T09:27:34.000Z</time>
      </trkpt>
      <trkpt lat="47.29298" lon="-2.25118">
        <ele>12.199999809265</ele>
        <time>2019-05-30T09:27:40.000Z</time>
      </trkpt>
      <trkpt lat="47.29301" lon="-2.25133">
        <ele>11.800000190735</ele>
        <time>2019-05-30T09:27:42.000Z</time>
      </trkpt>
      <trkpt lat="47.29303" lon="-2.25141">
        <ele>11.199999809265</ele>
        <time>2019-05-30T09:27:43.000Z</time>
      </trkpt>
      <trkpt lat="47.29304" lon="-2.25148">
        <ele>10.800000190735</ele>
        <time>2019-05-30T09:27:44.000Z</time>
      </trkpt>
      <trkpt lat="47.29306" lon="-2.25156">
        <ele>10.39999961853</ele>
        <time>2019-05-30T09:27:45.000Z</time>
      </trkpt>
      <trkpt lat="47.29307" lon="-2.25164">
        <ele>10</ele>
        <time>2019-05-30T09:27:46.000Z</time>
      </trkpt>
      <trkpt lat="47.29309" lon="-2.25175">
        <ele>9.6000003814697</ele>
        <time>2019-05-30T09:27:48.000Z</time>
      </trkpt>
      <trkpt lat="47.29309" lon="-2.2518">
        <ele>9</ele>
        <time>2019-05-30T09:27:49.000Z</time>
      </trkpt>
      <trkpt lat="47.2931" lon="-2.25183">
        <ele>8.6000003814697</ele>
        <time>2019-05-30T09:27:50.000Z</time>
      </trkpt>
      <trkpt lat="47.2931" lon="-2.25186">
        <ele>8.1999998092651</ele>
        <time>2019-05-30T09:27:51.000Z</time>
      </trkpt>
      <trkpt lat="47.2931" lon="-2.25188">
        <ele>7.8000001907349</ele>
        <time>2019-05-30T09:27:52.000Z</time>
      </trkpt>
      <trkpt lat="47.2931" lon="-2.25191">
        <ele>7.8000001907349</ele>
        <time>2019-05-30T09:27:54.000Z</time>
      </trkpt>
      <trkpt lat="47.2931" lon="-2.25192">
        <ele>7.8000001907349</ele>
        <time>2019-05-30T09:27:55.000Z</time>
      </trkpt>
      <trkpt lat="47.29316" lon="-2.25194">
        <ele>7.8000001907349</ele>
        <time>2019-05-30T09:27:59.000Z</time>
      </trkpt>
      <trkpt lat="47.29317" lon="-2.25194">
        <ele>7.8000001907349</ele>
        <time>2019-05-30T09:28:00.000Z</time>
      </trkpt>
      <trkpt lat="47.29323" lon="-2.25193">
        <ele>7.8000001907349</ele>
        <time>2019-05-30T09:28:05.000Z</time>
      </trkpt>
      <trkpt lat="47.29334" lon="-2.25193">
        <ele>7.8000001907349</ele>
        <time>2019-05-30T09:28:10.000Z</time>
      </trkpt>
      <trkpt lat="47.29352" lon="-2.25197">
        <ele>7.8000001907349</ele>
        <time>2019-05-30T09:28:15.000Z</time>
      </trkpt>
      <trkpt lat="47.29382" lon="-2.25204">
        <ele>7.8000001907349</ele>
        <time>2019-05-30T09:28:21.000Z</time>
      </trkpt>
      <trkpt lat="47.29413" lon="-2.2521">
        <ele>7.8000001907349</ele>
        <time>2019-05-30T09:28:27.000Z</time>
      </trkpt>
      <trkpt lat="47.29446" lon="-2.25202">
        <ele>7.8000001907349</ele>
        <time>2019-05-30T09:28:33.000Z</time>
      </trkpt>
      <trkpt lat="47.29456" lon="-2.252">
        <ele>8.1999998092651</ele>
        <time>2019-05-30T09:28:35.000Z</time>
      </trkpt>
      <trkpt lat="47.29461" lon="-2.25199">
        <ele>8.6000003814697</ele>
        <time>2019-05-30T09:28:36.000Z</time>
      </trkpt>
      <trkpt lat="47.29467" lon="-2.25198">
        <ele>9</ele>
        <time>2019-05-30T09:28:37.000Z</time>
      </trkpt>
      <trkpt lat="47.29472" lon="-2.25196">
        <ele>9.6000003814697</ele>
        <time>2019-05-30T09:28:38.000Z</time>
      </trkpt>
      <trkpt lat="47.29478" lon="-2.25195">
        <ele>10</ele>
        <time>2019-05-30T09:28:39.000Z</time>
      </trkpt>
      <trkpt lat="47.29503" lon="-2.25188">
        <ele>10</ele>
        <time>2019-05-30T09:28:44.000Z</time>
      </trkpt>
      <trkpt lat="47.29508" lon="-2.25186">
        <ele>10</ele>
        <time>2019-05-30T09:28:45.000Z</time>
      </trkpt>
      <trkpt lat="47.29525" lon="-2.2518">
        <ele>10</ele>
        <time>2019-05-30T09:28:49.000Z</time>
      </trkpt>
      <trkpt lat="47.2954" lon="-2.2518">
        <ele>10</ele>
        <time>2019-05-30T09:28:53.000Z</time>
      </trkpt>
      <trkpt lat="47.29543" lon="-2.25183">
        <ele>10</ele>
        <time>2019-05-30T09:28:54.000Z</time>
      </trkpt>
      <trkpt lat="47.29548" lon="-2.25194">
        <ele>10.39999961853</ele>
        <time>2019-05-30T09:28:57.000Z</time>
      </trkpt>
      <trkpt lat="47.29548" lon="-2.252">
        <ele>10.800000190735</ele>
        <time>2019-05-30T09:28:58.000Z</time>
      </trkpt>
      <trkpt lat="47.29548" lon="-2.25206">
        <ele>11.199999809265</ele>
        <time>2019-05-30T09:28:59.000Z</time>
      </trkpt>
      <trkpt lat="47.29546" lon="-2.25211">
        <ele>11.60000038147</ele>
        <time>2019-05-30T09:29:00.000Z</time>
      </trkpt>
      <trkpt lat="47.29544" lon="-2.25217">
        <ele>12</ele>
        <time>2019-05-30T09:29:01.000Z</time>
      </trkpt>
      <trkpt lat="47.29543" lon="-2.25223">
        <ele>12</ele>
        <time>2019-05-30T09:29:02.000Z</time>
      </trkpt>
      <trkpt lat="47.2954" lon="-2.25254">
        <ele>12</ele>
        <time>2019-05-30T09:29:07.000Z</time>
      </trkpt>
      <trkpt lat="47.2954" lon="-2.25268">
        <ele>12</ele>
        <time>2019-05-30T09:29:09.000Z</time>
      </trkpt>
      <trkpt lat="47.29547" lon="-2.25305">
        <ele>12</ele>
        <time>2019-05-30T09:29:14.000Z</time>
      </trkpt>
      <trkpt lat="47.29552" lon="-2.25318">
        <ele>12</ele>
        <time>2019-05-30T09:29:16.000Z</time>
      </trkpt>
      <trkpt lat="47.29561" lon="-2.25337">
        <ele>12</ele>
        <time>2019-05-30T09:29:19.000Z</time>
      </trkpt>
      <trkpt lat="47.29567" lon="-2.2535">
        <ele>12.39999961853</ele>
        <time>2019-05-30T09:29:21.000Z</time>
      </trkpt>
      <trkpt lat="47.2957" lon="-2.25356">
        <ele>12.800000190735</ele>
        <time>2019-05-30T09:29:22.000Z</time>
      </trkpt>
      <trkpt lat="47.29573" lon="-2.25362">
        <ele>13.39999961853</ele>
        <time>2019-05-30T09:29:23.000Z</time>
      </trkpt>
      <trkpt lat="47.29575" lon="-2.25369">
        <ele>13.800000190735</ele>
        <time>2019-05-30T09:29:24.000Z</time>
      </trkpt>
      <trkpt lat="47.29577" lon="-2.25377">
        <ele>14.199999809265</ele>
        <time>2019-05-30T09:29:25.000Z</time>
      </trkpt>
      <trkpt lat="47.29579" lon="-2.25385">
        <ele>14.199999809265</ele>
        <time>2019-05-30T09:29:26.000Z</time>
      </trkpt>
      <trkpt lat="47.29583" lon="-2.25401">
        <ele>14.199999809265</ele>
        <time>2019-05-30T09:29:28.000Z</time>
      </trkpt>
      <trkpt lat="47.29586" lon="-2.25434">
        <ele>14.199999809265</ele>
        <time>2019-05-30T09:29:32.000Z</time>
      </trkpt>
      <trkpt lat="47.29586" lon="-2.25449">
        <ele>14.60000038147</ele>
        <time>2019-05-30T09:29:34.000Z</time>
      </trkpt>
      <trkpt lat="47.29587" lon="-2.25457">
        <ele>15</ele>
        <time>2019-05-30T09:29:35.000Z</time>
      </trkpt>
      <trkpt lat="47.29587" lon="-2.25465">
        <ele>15.39999961853</ele>
        <time>2019-05-30T09:29:36.000Z</time>
      </trkpt>
      <trkpt lat="47.29588" lon="-2.25473">
        <ele>15.800000190735</ele>
        <time>2019-05-30T09:29:37.000Z</time>
      </trkpt>
      <trkpt lat="47.29588" lon="-2.25481">
        <ele>16.200000762939</ele>
        <time>2019-05-30T09:29:38.000Z</time>
      </trkpt>
      <trkpt lat="47.29586" lon="-2.25497">
        <ele>16.200000762939</ele>
        <time>2019-05-30T09:29:40.000Z</time>
      </trkpt>
      <trkpt lat="47.29583" lon="-2.25513">
        <ele>16.200000762939</ele>
        <time>2019-05-30T09:29:42.000Z</time>
      </trkpt>
      <trkpt lat="47.29573" lon="-2.25534">
        <ele>16.200000762939</ele>
        <time>2019-05-30T09:29:45.000Z</time>
      </trkpt>
      <trkpt lat="47.29563" lon="-2.25545">
        <ele>16.200000762939</ele>
        <time>2019-05-30T09:29:47.000Z</time>
      </trkpt>
      <trkpt lat="47.29558" lon="-2.25549">
        <ele>16.200000762939</ele>
        <time>2019-05-30T09:29:48.000Z</time>
      </trkpt>
      <trkpt lat="47.29553" lon="-2.25553">
        <ele>16.200000762939</ele>
        <time>2019-05-30T09:29:49.000Z</time>
      </trkpt>
      <trkpt lat="47.29548" lon="-2.25556">
        <ele>16.60000038147</ele>
        <time>2019-05-30T09:29:50.000Z</time>
      </trkpt>
      <trkpt lat="47.29543" lon="-2.2556">
        <ele>17</ele>
        <time>2019-05-30T09:29:51.000Z</time>
      </trkpt>
      <trkpt lat="47.29537" lon="-2.25563">
        <ele>17.39999961853</ele>
        <time>2019-05-30T09:29:52.000Z</time>
      </trkpt>
      <trkpt lat="47.29532" lon="-2.25566">
        <ele>17.799999237061</ele>
        <time>2019-05-30T09:29:53.000Z</time>
      </trkpt>
      <trkpt lat="47.29527" lon="-2.25569">
        <ele>18.39999961853</ele>
        <time>2019-05-30T09:29:54.000Z</time>
      </trkpt>
      <trkpt lat="47.29518" lon="-2.25576">
        <ele>18.39999961853</ele>
        <time>2019-05-30T09:29:56.000Z</time>
      </trkpt>
      <trkpt lat="47.2949" lon="-2.25595">
        <ele>18.39999961853</ele>
        <time>2019-05-30T09:30:02.000Z</time>
      </trkpt>
      <trkpt lat="47.29455" lon="-2.25611">
        <ele>18.799999237061</ele>
        <time>2019-05-30T09:30:09.000Z</time>
      </trkpt>
      <trkpt lat="47.2945" lon="-2.25613">
        <ele>19.200000762939</ele>
        <time>2019-05-30T09:30:10.000Z</time>
      </trkpt>
      <trkpt lat="47.29445" lon="-2.25615">
        <ele>19.60000038147</ele>
        <time>2019-05-30T09:30:11.000Z</time>
      </trkpt>
      <trkpt lat="47.29441" lon="-2.25618">
        <ele>20</ele>
        <time>2019-05-30T09:30:12.000Z</time>
      </trkpt>
      <trkpt lat="47.29436" lon="-2.2562">
        <ele>20.60000038147</ele>
        <time>2019-05-30T09:30:13.000Z</time>
      </trkpt>
      <trkpt lat="47.29426" lon="-2.25624">
        <ele>20.60000038147</ele>
        <time>2019-05-30T09:30:15.000Z</time>
      </trkpt>
      <trkpt lat="47.29397" lon="-2.25641">
        <ele>20.60000038147</ele>
        <time>2019-05-30T09:30:21.000Z</time>
      </trkpt>
      <trkpt lat="47.29388" lon="-2.25662">
        <ele>20.60000038147</ele>
        <time>2019-05-30T09:30:24.000Z</time>
      </trkpt>
      <trkpt lat="47.29386" lon="-2.2568">
        <ele>20.60000038147</ele>
        <time>2019-05-30T09:30:26.000Z</time>
      </trkpt>
      <trkpt lat="47.29384" lon="-2.25698">
        <ele>20.60000038147</ele>
        <time>2019-05-30T09:30:28.000Z</time>
      </trkpt>
      <trkpt lat="47.29374" lon="-2.25737">
        <ele>20.60000038147</ele>
        <time>2019-05-30T09:30:33.000Z</time>
      </trkpt>
      <trkpt lat="47.29363" lon="-2.25754">
        <ele>20.60000038147</ele>
        <time>2019-05-30T09:30:36.000Z</time>
      </trkpt>
      <trkpt lat="47.29358" lon="-2.25759">
        <ele>20.60000038147</ele>
        <time>2019-05-30T09:30:37.000Z</time>
      </trkpt>
      <trkpt lat="47.29332" lon="-2.2578">
        <ele>20.60000038147</ele>
        <time>2019-05-30T09:30:43.000Z</time>
      </trkpt>
      <trkpt lat="47.29329" lon="-2.25788">
        <ele>20.60000038147</ele>
        <time>2019-05-30T09:30:46.000Z</time>
      </trkpt>
      <trkpt lat="47.29329" lon="-2.25789">
        <ele>20.200000762939</ele>
        <time>2019-05-30T09:30:47.000Z</time>
      </trkpt>
      <trkpt lat="47.29329" lon="-2.2579">
        <ele>19.799999237061</ele>
        <time>2019-05-30T09:30:48.000Z</time>
      </trkpt>
      <trkpt lat="47.2933" lon="-2.2579">
        <ele>19.39999961853</ele>
        <time>2019-05-30T09:30:49.000Z</time>
      </trkpt>
      <trkpt lat="47.2933" lon="-2.25792">
        <ele>19</ele>
        <time>2019-05-30T09:30:50.000Z</time>
      </trkpt>
      <trkpt lat="47.29331" lon="-2.25794">
        <ele>18.60000038147</ele>
        <time>2019-05-30T09:30:51.000Z</time>
      </trkpt>
      <trkpt lat="47.29335" lon="-2.25796">
        <ele>18.60000038147</ele>
        <time>2019-05-30T09:30:54.000Z</time>
      </trkpt>
      <trkpt lat="47.29343" lon="-2.25794">
        <ele>18</ele>
        <time>2019-05-30T09:30:57.000Z</time>
      </trkpt>
      <trkpt lat="47.29345" lon="-2.25793">
        <ele>17.60000038147</ele>
        <time>2019-05-30T09:30:58.000Z</time>
      </trkpt>
      <trkpt lat="47.29346" lon="-2.25791">
        <ele>17.200000762939</ele>
        <time>2019-05-30T09:30:59.000Z</time>
      </trkpt>
      <trkpt lat="47.29347" lon="-2.25787">
        <ele>16.799999237061</ele>
        <time>2019-05-30T09:31:00.000Z</time>
      </trkpt>
      <trkpt lat="47.29348" lon="-2.25785">
        <ele>16.39999961853</ele>
        <time>2019-05-30T09:31:01.000Z</time>
      </trkpt>
      <trkpt lat="47.29356" lon="-2.25773">
        <ele>16.39999961853</ele>
        <time>2019-05-30T09:31:05.000Z</time>
      </trkpt>
      <trkpt lat="47.29359" lon="-2.25769">
        <ele>16.39999961853</ele>
        <time>2019-05-30T09:31:07.000Z</time>
      </trkpt>
      <trkpt lat="47.29363" lon="-2.25767">
        <ele>16.39999961853</ele>
        <time>2019-05-30T09:31:09.000Z</time>
      </trkpt>
      <trkpt lat="47.29365" lon="-2.25767">
        <ele>16.39999961853</ele>
        <time>2019-05-30T09:31:10.000Z</time>
      </trkpt>
      <trkpt lat="47.29371" lon="-2.25763">
        <ele>16.39999961853</ele>
        <time>2019-05-30T09:31:13.000Z</time>
      </trkpt>
      <trkpt lat="47.29374" lon="-2.25758">
        <ele>16.39999961853</ele>
        <time>2019-05-30T09:31:15.000Z</time>
      </trkpt>
      <trkpt lat="47.2938" lon="-2.25757">
        <ele>16.39999961853</ele>
        <time>2019-05-30T09:31:18.000Z</time>
      </trkpt>
      <trkpt lat="47.29384" lon="-2.25758">
        <ele>16.39999961853</ele>
        <time>2019-05-30T09:31:19.000Z</time>
      </trkpt>
      <trkpt lat="47.29399" lon="-2.25761">
        <ele>16.39999961853</ele>
        <time>2019-05-30T09:31:24.000Z</time>
      </trkpt>
      <trkpt lat="47.29407" lon="-2.2577">
        <ele>16</ele>
        <time>2019-05-30T09:31:27.000Z</time>
      </trkpt>
      <trkpt lat="47.2941" lon="-2.25772">
        <ele>15.39999961853</ele>
        <time>2019-05-30T09:31:28.000Z</time>
      </trkpt>
      <trkpt lat="47.29413" lon="-2.25774">
        <ele>15</ele>
        <time>2019-05-30T09:31:29.000Z</time>
      </trkpt>
      <trkpt lat="47.29415" lon="-2.25776">
        <ele>14.39999961853</ele>
        <time>2019-05-30T09:31:30.000Z</time>
      </trkpt>
      <trkpt lat="47.29417" lon="-2.25778">
        <ele>14</ele>
        <time>2019-05-30T09:31:31.000Z</time>
      </trkpt>
      <trkpt lat="47.29417" lon="-2.25784">
        <ele>14</ele>
        <time>2019-05-30T09:31:33.000Z</time>
      </trkpt>
      <trkpt lat="47.2942" lon="-2.25793">
        <ele>14</ele>
        <time>2019-05-30T09:31:36.000Z</time>
      </trkpt>
      <trkpt lat="47.29421" lon="-2.25794">
        <ele>14</ele>
        <time>2019-05-30T09:31:37.000Z</time>
      </trkpt>
      <trkpt lat="47.29427" lon="-2.25803">
        <ele>14</ele>
        <time>2019-05-30T09:33:07.000Z</time>
      </trkpt>
      <trkpt lat="47.29429" lon="-2.25807">
        <ele>13.60000038147</ele>
        <time>2019-05-30T09:33:08.000Z</time>
      </trkpt>
      <trkpt lat="47.2943" lon="-2.25812">
        <ele>13.199999809265</ele>
        <time>2019-05-30T09:33:09.000Z</time>
      </trkpt>
      <trkpt lat="47.2943" lon="-2.25819">
        <ele>12.800000190735</ele>
        <time>2019-05-30T09:33:10.000Z</time>
      </trkpt>
      <trkpt lat="47.29431" lon="-2.25825">
        <ele>12.39999961853</ele>
        <time>2019-05-30T09:33:11.000Z</time>
      </trkpt>
      <trkpt lat="47.2943" lon="-2.25831">
        <ele>12</ele>
        <time>2019-05-30T09:33:12.000Z</time>
      </trkpt>
      <trkpt lat="47.29429" lon="-2.25847">
        <ele>12</ele>
        <time>2019-05-30T09:33:15.000Z</time>
      </trkpt>
      <trkpt lat="47.29427" lon="-2.25856">
        <ele>12</ele>
        <time>2019-05-30T09:33:17.000Z</time>
      </trkpt>
      <trkpt lat="47.29429" lon="-2.25871">
        <ele>12</ele>
        <time>2019-05-30T09:33:20.000Z</time>
      </trkpt>
      <trkpt lat="47.29432" lon="-2.25877">
        <ele>12</ele>
        <time>2019-05-30T09:33:21.000Z</time>
      </trkpt>
      <trkpt lat="47.29443" lon="-2.25917">
        <ele>12</ele>
        <time>2019-05-30T09:33:27.000Z</time>
      </trkpt>
      <trkpt lat="47.29438" lon="-2.25938">
        <ele>12</ele>
        <time>2019-05-30T09:33:32.000Z</time>
      </trkpt>
      <trkpt lat="47.29424" lon="-2.25954">
        <ele>12</ele>
        <time>2019-05-30T09:33:37.000Z</time>
      </trkpt>
      <trkpt lat="47.29407" lon="-2.25955">
        <ele>12.39999961853</ele>
        <time>2019-05-30T09:33:41.000Z</time>
      </trkpt>
      <trkpt lat="47.29404" lon="-2.25955">
        <ele>12.800000190735</ele>
        <time>2019-05-30T09:33:42.000Z</time>
      </trkpt>
      <trkpt lat="47.29401" lon="-2.25958">
        <ele>13.199999809265</ele>
        <time>2019-05-30T09:33:43.000Z</time>
      </trkpt>
      <trkpt lat="47.294" lon="-2.25963">
        <ele>13.60000038147</ele>
        <time>2019-05-30T09:33:44.000Z</time>
      </trkpt>
      <trkpt lat="47.29399" lon="-2.25968">
        <ele>14</ele>
        <time>2019-05-30T09:33:45.000Z</time>
      </trkpt>
      <trkpt lat="47.29397" lon="-2.25988">
        <ele>14</ele>
        <time>2019-05-30T09:33:48.000Z</time>
      </trkpt>
      <trkpt lat="47.29395" lon="-2.25997">
        <ele>14</ele>
        <time>2019-05-30T09:33:49.000Z</time>
      </trkpt>
      <trkpt lat="47.29392" lon="-2.26022">
        <ele>14</ele>
        <time>2019-05-30T09:33:52.000Z</time>
      </trkpt>
      <trkpt lat="47.29399" lon="-2.26042">
        <ele>14</ele>
        <time>2019-05-30T09:33:55.000Z</time>
      </trkpt>
      <trkpt lat="47.29403" lon="-2.26048">
        <ele>14</ele>
        <time>2019-05-30T09:33:56.000Z</time>
      </trkpt>
      <trkpt lat="47.29406" lon="-2.26053">
        <ele>14</ele>
        <time>2019-05-30T09:33:57.000Z</time>
      </trkpt>
      <trkpt lat="47.29409" lon="-2.26066">
        <ele>14</ele>
        <time>2019-05-30T09:33:59.000Z</time>
      </trkpt>
      <trkpt lat="47.29412" lon="-2.26076">
        <ele>14</ele>
        <time>2019-05-30T09:34:01.000Z</time>
      </trkpt>
      <trkpt lat="47.29416" lon="-2.2609">
        <ele>14</ele>
        <time>2019-05-30T09:34:03.000Z</time>
      </trkpt>
      <trkpt lat="47.29416" lon="-2.26111">
        <ele>14</ele>
        <time>2019-05-30T09:34:06.000Z</time>
      </trkpt>
      <trkpt lat="47.29414" lon="-2.2614">
        <ele>14</ele>
        <time>2019-05-30T09:34:11.000Z</time>
      </trkpt>
      <trkpt lat="47.29409" lon="-2.26152">
        <ele>14</ele>
        <time>2019-05-30T09:34:14.000Z</time>
      </trkpt>
      <trkpt lat="47.29402" lon="-2.26157">
        <ele>14</ele>
        <time>2019-05-30T09:34:16.000Z</time>
      </trkpt>
      <trkpt lat="47.29396" lon="-2.26159">
        <ele>14</ele>
        <time>2019-05-30T09:34:18.000Z</time>
      </trkpt>
      <trkpt lat="47.29389" lon="-2.26158">
        <ele>14.39999961853</ele>
        <time>2019-05-30T09:34:21.000Z</time>
      </trkpt>
      <trkpt lat="47.29385" lon="-2.26158">
        <ele>14.800000190735</ele>
        <time>2019-05-30T09:34:22.000Z</time>
      </trkpt>
      <trkpt lat="47.29383" lon="-2.26158">
        <ele>15.199999809265</ele>
        <time>2019-05-30T09:34:23.000Z</time>
      </trkpt>
      <trkpt lat="47.2938" lon="-2.2616">
        <ele>15.60000038147</ele>
        <time>2019-05-30T09:34:24.000Z</time>
      </trkpt>
      <trkpt lat="47.29378" lon="-2.26161">
        <ele>16</ele>
        <time>2019-05-30T09:34:25.000Z</time>
      </trkpt>
      <trkpt lat="47.29374" lon="-2.26163">
        <ele>16</ele>
        <time>2019-05-30T09:34:27.000Z</time>
      </trkpt>
      <trkpt lat="47.29361" lon="-2.26169">
        <ele>16</ele>
        <time>2019-05-30T09:34:32.000Z</time>
      </trkpt>
      <trkpt lat="47.29345" lon="-2.26171">
        <ele>16.39999961853</ele>
        <time>2019-05-30T09:34:37.000Z</time>
      </trkpt>
      <trkpt lat="47.29342" lon="-2.26172">
        <ele>16.799999237061</ele>
        <time>2019-05-30T09:34:38.000Z</time>
      </trkpt>
      <trkpt lat="47.29339" lon="-2.26173">
        <ele>17.200000762939</ele>
        <time>2019-05-30T09:34:39.000Z</time>
      </trkpt>
      <trkpt lat="47.29337" lon="-2.26173">
        <ele>17.60000038147</ele>
        <time>2019-05-30T09:34:40.000Z</time>
      </trkpt>
      <trkpt lat="47.29335" lon="-2.26174">
        <ele>18</ele>
        <time>2019-05-30T09:34:41.000Z</time>
      </trkpt>
      <trkpt lat="47.2933" lon="-2.26175">
        <ele>18</ele>
        <time>2019-05-30T09:34:43.000Z</time>
      </trkpt>
      <trkpt lat="47.29323" lon="-2.26179">
        <ele>18</ele>
        <time>2019-05-30T09:34:47.000Z</time>
      </trkpt>
      <trkpt lat="47.29322" lon="-2.26181">
        <ele>18</ele>
        <time>2019-05-30T09:34:48.000Z</time>
      </trkpt>
      <trkpt lat="47.29318" lon="-2.26185">
        <ele>19</ele>
        <time>2019-05-30T09:34:51.000Z</time>
      </trkpt>
      <trkpt lat="47.29317" lon="-2.26184">
        <ele>19.39999961853</ele>
        <time>2019-05-30T09:34:52.000Z</time>
      </trkpt>
      <trkpt lat="47.29315" lon="-2.26184">
        <ele>19.799999237061</ele>
        <time>2019-05-30T09:34:53.000Z</time>
      </trkpt>
      <trkpt lat="47.29312" lon="-2.26184">
        <ele>20.200000762939</ele>
        <time>2019-05-30T09:34:54.000Z</time>
      </trkpt>
      <trkpt lat="47.293" lon="-2.26183">
        <ele>20.200000762939</ele>
        <time>2019-05-30T09:34:57.000Z</time>
      </trkpt>
      <trkpt lat="47.29277" lon="-2.26181">
        <ele>20.200000762939</ele>
        <time>2019-05-30T09:35:01.000Z</time>
      </trkpt>
      <trkpt lat="47.29271" lon="-2.26181">
        <ele>20.200000762939</ele>
        <time>2019-05-30T09:35:02.000Z</time>
      </trkpt>
      <trkpt lat="47.29266" lon="-2.26178">
        <ele>20.200000762939</ele>
        <time>2019-05-30T09:35:03.000Z</time>
      </trkpt>
      <trkpt lat="47.29261" lon="-2.26168">
        <ele>20.200000762939</ele>
        <time>2019-05-30T09:35:05.000Z</time>
      </trkpt>
      <trkpt lat="47.29259" lon="-2.26154">
        <ele>20.200000762939</ele>
        <time>2019-05-30T09:35:07.000Z</time>
      </trkpt>
      <trkpt lat="47.29253" lon="-2.26136">
        <ele>20.200000762939</ele>
        <time>2019-05-30T09:35:10.000Z</time>
      </trkpt>
      <trkpt lat="47.29242" lon="-2.26109">
        <ele>20.200000762939</ele>
        <time>2019-05-30T09:35:15.000Z</time>
      </trkpt>
      <trkpt lat="47.29234" lon="-2.26087">
        <ele>20.200000762939</ele>
        <time>2019-05-30T09:35:19.000Z</time>
      </trkpt>
      <trkpt lat="47.29231" lon="-2.26084">
        <ele>20.200000762939</ele>
        <time>2019-05-30T09:35:20.000Z</time>
      </trkpt>
      <trkpt lat="47.29215" lon="-2.26064">
        <ele>20.200000762939</ele>
        <time>2019-05-30T09:35:24.000Z</time>
      </trkpt>
      <trkpt lat="47.29212" lon="-2.26058">
        <ele>20.200000762939</ele>
        <time>2019-05-30T09:35:25.000Z</time>
      </trkpt>
      <trkpt lat="47.29199" lon="-2.26043">
        <ele>20.200000762939</ele>
        <time>2019-05-30T09:35:28.000Z</time>
      </trkpt>
      <trkpt lat="47.2919" lon="-2.26032">
        <ele>20.200000762939</ele>
        <time>2019-05-30T09:35:30.000Z</time>
      </trkpt>
      <trkpt lat="47.29171" lon="-2.25996">
        <ele>20.200000762939</ele>
        <time>2019-05-30T09:35:36.000Z</time>
      </trkpt>
      <trkpt lat="47.29165" lon="-2.25985">
        <ele>20.200000762939</ele>
        <time>2019-05-30T09:35:38.000Z</time>
      </trkpt>
      <trkpt lat="47.29156" lon="-2.25979">
        <ele>20.200000762939</ele>
        <time>2019-05-30T09:35:40.000Z</time>
      </trkpt>
      <trkpt lat="47.29145" lon="-2.25978">
        <ele>20.200000762939</ele>
        <time>2019-05-30T09:35:42.000Z</time>
      </trkpt>
      <trkpt lat="47.2914" lon="-2.25977">
        <ele>20.200000762939</ele>
        <time>2019-05-30T09:35:43.000Z</time>
      </trkpt>
      <trkpt lat="47.29135" lon="-2.25975">
        <ele>20.200000762939</ele>
        <time>2019-05-30T09:35:44.000Z</time>
      </trkpt>
      <trkpt lat="47.29126" lon="-2.25973">
        <ele>20.200000762939</ele>
        <time>2019-05-30T09:35:46.000Z</time>
      </trkpt>
      <trkpt lat="47.29112" lon="-2.25975">
        <ele>20.200000762939</ele>
        <time>2019-05-30T09:35:49.000Z</time>
      </trkpt>
      <trkpt lat="47.29098" lon="-2.25986">
        <ele>20.200000762939</ele>
        <time>2019-05-30T09:35:53.000Z</time>
      </trkpt>
      <trkpt lat="47.29089" lon="-2.26004">
        <ele>20.200000762939</ele>
        <time>2019-05-30T09:35:57.000Z</time>
      </trkpt>
      <trkpt lat="47.29089" lon="-2.26009">
        <ele>20.200000762939</ele>
        <time>2019-05-30T09:35:58.000Z</time>
      </trkpt>
      <trkpt lat="47.29094" lon="-2.26023">
        <ele>20.200000762939</ele>
        <time>2019-05-30T09:36:01.000Z</time>
      </trkpt>
      <trkpt lat="47.291" lon="-2.26043">
        <ele>20.200000762939</ele>
        <time>2019-05-30T09:36:05.000Z</time>
      </trkpt>
      <trkpt lat="47.29108" lon="-2.26081">
        <ele>20.200000762939</ele>
        <time>2019-05-30T09:36:11.000Z</time>
      </trkpt>
      <trkpt lat="47.29108" lon="-2.26099">
        <ele>20.200000762939</ele>
        <time>2019-05-30T09:36:14.000Z</time>
      </trkpt>
      <trkpt lat="47.29105" lon="-2.26112">
        <ele>20.200000762939</ele>
        <time>2019-05-30T09:36:16.000Z</time>
      </trkpt>
      <trkpt lat="47.29105" lon="-2.26119">
        <ele>20.200000762939</ele>
        <time>2019-05-30T09:36:17.000Z</time>
      </trkpt>
      <trkpt lat="47.291" lon="-2.2614">
        <ele>20.200000762939</ele>
        <time>2019-05-30T09:36:20.000Z</time>
      </trkpt>
      <trkpt lat="47.29099" lon="-2.26148">
        <ele>20.200000762939</ele>
        <time>2019-05-30T09:36:21.000Z</time>
      </trkpt>
      <trkpt lat="47.29093" lon="-2.26188">
        <ele>20.200000762939</ele>
        <time>2019-05-30T09:36:26.000Z</time>
      </trkpt>
      <trkpt lat="47.29085" lon="-2.26238">
        <ele>20.200000762939</ele>
        <time>2019-05-30T09:36:32.000Z</time>
      </trkpt>
      <trkpt lat="47.29073" lon="-2.26296">
        <ele>20.200000762939</ele>
        <time>2019-05-30T09:36:39.000Z</time>
      </trkpt>
      <trkpt lat="47.29069" lon="-2.26311">
        <ele>20.200000762939</ele>
        <time>2019-05-30T09:36:41.000Z</time>
      </trkpt>
      <trkpt lat="47.29063" lon="-2.26325">
        <ele>20.200000762939</ele>
        <time>2019-05-30T09:36:43.000Z</time>
      </trkpt>
      <trkpt lat="47.29059" lon="-2.26331">
        <ele>20.200000762939</ele>
        <time>2019-05-30T09:36:44.000Z</time>
      </trkpt>
      <trkpt lat="47.29055" lon="-2.26337">
        <ele>20.60000038147</ele>
        <time>2019-05-30T09:36:45.000Z</time>
      </trkpt>
      <trkpt lat="47.2905" lon="-2.26341">
        <ele>21</ele>
        <time>2019-05-30T09:36:46.000Z</time>
      </trkpt>
      <trkpt lat="47.29045" lon="-2.26346">
        <ele>21.39999961853</ele>
        <time>2019-05-30T09:36:47.000Z</time>
      </trkpt>
      <trkpt lat="47.2904" lon="-2.26351">
        <ele>21.799999237061</ele>
        <time>2019-05-30T09:36:48.000Z</time>
      </trkpt>
      <trkpt lat="47.29035" lon="-2.26355">
        <ele>22.200000762939</ele>
        <time>2019-05-30T09:36:49.000Z</time>
      </trkpt>
      <trkpt lat="47.29017" lon="-2.26374">
        <ele>22.200000762939</ele>
        <time>2019-05-30T09:36:53.000Z</time>
      </trkpt>
      <trkpt lat="47.29015" lon="-2.26381">
        <ele>22.200000762939</ele>
        <time>2019-05-30T09:36:54.000Z</time>
      </trkpt>
      <trkpt lat="47.29013" lon="-2.26413">
        <ele>22.200000762939</ele>
        <time>2019-05-30T09:36:58.000Z</time>
      </trkpt>
      <trkpt lat="47.29014" lon="-2.26421">
        <ele>22.200000762939</ele>
        <time>2019-05-30T09:36:59.000Z</time>
      </trkpt>
      <trkpt lat="47.29018" lon="-2.26461">
        <ele>22.200000762939</ele>
        <time>2019-05-30T09:37:03.000Z</time>
      </trkpt>
      <trkpt lat="47.29023" lon="-2.26505">
        <ele>21.799999237061</ele>
        <time>2019-05-30T09:37:07.000Z</time>
      </trkpt>
      <trkpt lat="47.29025" lon="-2.26515">
        <ele>21.39999961853</ele>
        <time>2019-05-30T09:37:08.000Z</time>
      </trkpt>
      <trkpt lat="47.29027" lon="-2.26525">
        <ele>20.799999237061</ele>
        <time>2019-05-30T09:37:09.000Z</time>
      </trkpt>
      <trkpt lat="47.29029" lon="-2.26535">
        <ele>20.39999961853</ele>
        <time>2019-05-30T09:37:10.000Z</time>
      </trkpt>
      <trkpt lat="47.29031" lon="-2.26544">
        <ele>20</ele>
        <time>2019-05-30T09:37:11.000Z</time>
      </trkpt>
      <trkpt lat="47.29039" lon="-2.26574">
        <ele>20</ele>
        <time>2019-05-30T09:37:15.000Z</time>
      </trkpt>
      <trkpt lat="47.29045" lon="-2.26608">
        <ele>20</ele>
        <time>2019-05-30T09:37:20.000Z</time>
      </trkpt>
      <trkpt lat="47.29048" lon="-2.26665">
        <ele>20</ele>
        <time>2019-05-30T09:37:27.000Z</time>
      </trkpt>
      <trkpt lat="47.29048" lon="-2.26674">
        <ele>19.60000038147</ele>
        <time>2019-05-30T09:37:28.000Z</time>
      </trkpt>
      <trkpt lat="47.29049" lon="-2.26683">
        <ele>19.200000762939</ele>
        <time>2019-05-30T09:37:29.000Z</time>
      </trkpt>
      <trkpt lat="47.2905" lon="-2.26692">
        <ele>18.799999237061</ele>
        <time>2019-05-30T09:37:30.000Z</time>
      </trkpt>
      <trkpt lat="47.29052" lon="-2.26702">
        <ele>18.39999961853</ele>
        <time>2019-05-30T09:37:31.000Z</time>
      </trkpt>
      <trkpt lat="47.29053" lon="-2.26712">
        <ele>18</ele>
        <time>2019-05-30T09:37:32.000Z</time>
      </trkpt>
      <trkpt lat="47.29057" lon="-2.26735">
        <ele>17.60000038147</ele>
        <time>2019-05-30T09:37:34.000Z</time>
      </trkpt>
      <trkpt lat="47.29059" lon="-2.26747">
        <ele>17</ele>
        <time>2019-05-30T09:37:35.000Z</time>
      </trkpt>
      <trkpt lat="47.2906" lon="-2.2676">
        <ele>16.60000038147</ele>
        <time>2019-05-30T09:37:36.000Z</time>
      </trkpt>
      <trkpt lat="47.29062" lon="-2.26772">
        <ele>16.200000762939</ele>
        <time>2019-05-30T09:37:37.000Z</time>
      </trkpt>
      <trkpt lat="47.29063" lon="-2.26784">
        <ele>15.800000190735</ele>
        <time>2019-05-30T09:37:38.000Z</time>
      </trkpt>
      <trkpt lat="47.29064" lon="-2.26822">
        <ele>15.39999961853</ele>
        <time>2019-05-30T09:37:41.000Z</time>
      </trkpt>
      <trkpt lat="47.29063" lon="-2.26834">
        <ele>14.800000190735</ele>
        <time>2019-05-30T09:37:42.000Z</time>
      </trkpt>
      <trkpt lat="47.29062" lon="-2.26845">
        <ele>14.39999961853</ele>
        <time>2019-05-30T09:37:43.000Z</time>
      </trkpt>
      <trkpt lat="47.29062" lon="-2.26857">
        <ele>13.60000038147</ele>
        <time>2019-05-30T09:37:44.000Z</time>
      </trkpt>
      <trkpt lat="47.29061" lon="-2.26902">
        <ele>13.60000038147</ele>
        <time>2019-05-30T09:37:48.000Z</time>
      </trkpt>
      <trkpt lat="47.29061" lon="-2.26932">
        <ele>13.199999809265</ele>
        <time>2019-05-30T09:37:51.000Z</time>
      </trkpt>
      <trkpt lat="47.2906" lon="-2.26941">
        <ele>12.60000038147</ele>
        <time>2019-05-30T09:37:52.000Z</time>
      </trkpt>
      <trkpt lat="47.2906" lon="-2.2695">
        <ele>12.199999809265</ele>
        <time>2019-05-30T09:37:53.000Z</time>
      </trkpt>
      <trkpt lat="47.2906" lon="-2.2696">
        <ele>11.800000190735</ele>
        <time>2019-05-30T09:37:54.000Z</time>
      </trkpt>
      <trkpt lat="47.2906" lon="-2.26969">
        <ele>11.39999961853</ele>
        <time>2019-05-30T09:37:55.000Z</time>
      </trkpt>
      <trkpt lat="47.29058" lon="-2.27005">
        <ele>11.39999961853</ele>
        <time>2019-05-30T09:37:59.000Z</time>
      </trkpt>
      <trkpt lat="47.29058" lon="-2.27014">
        <ele>11.39999961853</ele>
        <time>2019-05-30T09:38:00.000Z</time>
      </trkpt>
      <trkpt lat="47.29059" lon="-2.27037">
        <ele>11.39999961853</ele>
        <time>2019-05-30T09:38:03.000Z</time>
      </trkpt>
      <trkpt lat="47.29062" lon="-2.27042">
        <ele>11.39999961853</ele>
        <time>2019-05-30T09:38:04.000Z</time>
      </trkpt>
      <trkpt lat="47.29064" lon="-2.27045">
        <ele>11.39999961853</ele>
        <time>2019-05-30T09:38:05.000Z</time>
      </trkpt>
      <trkpt lat="47.29062" lon="-2.27057">
        <ele>11.39999961853</ele>
        <time>2019-05-30T09:38:08.000Z</time>
      </trkpt>
      <trkpt lat="47.29061" lon="-2.27069">
        <ele>11.39999961853</ele>
        <time>2019-05-30T09:38:10.000Z</time>
      </trkpt>
      <trkpt lat="47.29058" lon="-2.27074">
        <ele>11.39999961853</ele>
        <time>2019-05-30T09:38:11.000Z</time>
      </trkpt>
      <trkpt lat="47.29055" lon="-2.27078">
        <ele>11.39999961853</ele>
        <time>2019-05-30T09:38:12.000Z</time>
      </trkpt>
      <trkpt lat="47.2904" lon="-2.27093">
        <ele>11.39999961853</ele>
        <time>2019-05-30T09:38:17.000Z</time>
      </trkpt>
      <trkpt lat="47.29032" lon="-2.27098">
        <ele>11.39999961853</ele>
        <time>2019-05-30T09:38:19.000Z</time>
      </trkpt>
      <trkpt lat="47.29028" lon="-2.27109">
        <ele>11.39999961853</ele>
        <time>2019-05-30T09:38:21.000Z</time>
      </trkpt>
      <trkpt lat="47.29032" lon="-2.27123">
        <ele>11.39999961853</ele>
        <time>2019-05-30T09:38:24.000Z</time>
      </trkpt>
      <trkpt lat="47.29043" lon="-2.27137">
        <ele>11.39999961853</ele>
        <time>2019-05-30T09:38:28.000Z</time>
      </trkpt>
      <trkpt lat="47.29046" lon="-2.27141">
        <ele>11.39999961853</ele>
        <time>2019-05-30T09:38:29.000Z</time>
      </trkpt>
      <trkpt lat="47.29056" lon="-2.27156">
        <ele>11.39999961853</ele>
        <time>2019-05-30T09:38:32.000Z</time>
      </trkpt>
      <trkpt lat="47.2906" lon="-2.27169">
        <ele>11.800000190735</ele>
        <time>2019-05-30T09:38:34.000Z</time>
      </trkpt>
      <trkpt lat="47.29062" lon="-2.27175">
        <ele>12.199999809265</ele>
        <time>2019-05-30T09:38:35.000Z</time>
      </trkpt>
      <trkpt lat="47.29066" lon="-2.2718">
        <ele>12.60000038147</ele>
        <time>2019-05-30T09:38:36.000Z</time>
      </trkpt>
      <trkpt lat="47.29071" lon="-2.27183">
        <ele>13</ele>
        <time>2019-05-30T09:38:37.000Z</time>
      </trkpt>
      <trkpt lat="47.29076" lon="-2.27187">
        <ele>13.60000038147</ele>
        <time>2019-05-30T09:38:38.000Z</time>
      </trkpt>
      <trkpt lat="47.29083" lon="-2.2719">
        <ele>13.60000038147</ele>
        <time>2019-05-30T09:38:39.000Z</time>
      </trkpt>
      <trkpt lat="47.29095" lon="-2.2719">
        <ele>13</ele>
        <time>2019-05-30T09:38:41.000Z</time>
      </trkpt>
      <trkpt lat="47.29101" lon="-2.27192">
        <ele>12.60000038147</ele>
        <time>2019-05-30T09:38:42.000Z</time>
      </trkpt>
      <trkpt lat="47.29104" lon="-2.27192">
        <ele>12.199999809265</ele>
        <time>2019-05-30T09:38:43.000Z</time>
      </trkpt>
      <trkpt lat="47.29107" lon="-2.27193">
        <ele>11.800000190735</ele>
        <time>2019-05-30T09:38:44.000Z</time>
      </trkpt>
      <trkpt lat="47.2911" lon="-2.27194">
        <ele>11.199999809265</ele>
        <time>2019-05-30T09:38:45.000Z</time>
      </trkpt>
      <trkpt lat="47.29112" lon="-2.27195">
        <ele>11.199999809265</ele>
        <time>2019-05-30T09:38:46.000Z</time>
      </trkpt>
      <trkpt lat="47.29113" lon="-2.27197">
        <ele>11.199999809265</ele>
        <time>2019-05-30T09:38:47.000Z</time>
      </trkpt>
      <trkpt lat="47.29112" lon="-2.272">
        <ele>11.199999809265</ele>
        <time>2019-05-30T09:38:49.000Z</time>
      </trkpt>
      <trkpt lat="47.29113" lon="-2.27205">
        <ele>11.199999809265</ele>
        <time>2019-05-30T09:38:51.000Z</time>
      </trkpt>
      <trkpt lat="47.29113" lon="-2.27213">
        <ele>11.199999809265</ele>
        <time>2019-05-30T09:38:54.000Z</time>
      </trkpt>
      <trkpt lat="47.2911" lon="-2.27228">
        <ele>11.199999809265</ele>
        <time>2019-05-30T09:38:58.000Z</time>
      </trkpt>
      <trkpt lat="47.29108" lon="-2.27254">
        <ele>11.199999809265</ele>
        <time>2019-05-30T09:39:02.000Z</time>
      </trkpt>
      <trkpt lat="47.29104" lon="-2.2727">
        <ele>11.199999809265</ele>
        <time>2019-05-30T09:39:05.000Z</time>
      </trkpt>
      <trkpt lat="47.29104" lon="-2.27276">
        <ele>11.199999809265</ele>
        <time>2019-05-30T09:39:06.000Z</time>
      </trkpt>
      <trkpt lat="47.29097" lon="-2.27307">
        <ele>11.199999809265</ele>
        <time>2019-05-30T09:39:11.000Z</time>
      </trkpt>
      <trkpt lat="47.29092" lon="-2.27335">
        <ele>11.199999809265</ele>
        <time>2019-05-30T09:39:16.000Z</time>
      </trkpt>
      <trkpt lat="47.29094" lon="-2.27338">
        <ele>11.199999809265</ele>
        <time>2019-05-30T09:39:17.000Z</time>
      </trkpt>
      <trkpt lat="47.29097" lon="-2.27344">
        <ele>11.199999809265</ele>
        <time>2019-05-30T09:39:19.000Z</time>
      </trkpt>
      <trkpt lat="47.29104" lon="-2.27364">
        <ele>11.199999809265</ele>
        <time>2019-05-30T09:39:24.000Z</time>
      </trkpt>
      <trkpt lat="47.2911" lon="-2.27395">
        <ele>11.199999809265</ele>
        <time>2019-05-30T09:39:28.000Z</time>
      </trkpt>
      <trkpt lat="47.2911" lon="-2.27404">
        <ele>11.199999809265</ele>
        <time>2019-05-30T09:39:29.000Z</time>
      </trkpt>
      <trkpt lat="47.29109" lon="-2.27434">
        <ele>11.199999809265</ele>
        <time>2019-05-30T09:39:32.000Z</time>
      </trkpt>
      <trkpt lat="47.29107" lon="-2.27474">
        <ele>11.199999809265</ele>
        <time>2019-05-30T09:39:37.000Z</time>
      </trkpt>
      <trkpt lat="47.29105" lon="-2.27515">
        <ele>11.199999809265</ele>
        <time>2019-05-30T09:39:44.000Z</time>
      </trkpt>
      <trkpt lat="47.29104" lon="-2.27517">
        <ele>11.199999809265</ele>
        <time>2019-05-30T09:39:46.000Z</time>
      </trkpt>
      <trkpt lat="47.29099" lon="-2.27525">
        <ele>11.199999809265</ele>
        <time>2019-05-30T09:41:39.000Z</time>
      </trkpt>
      <trkpt lat="47.29086" lon="-2.27529">
        <ele>11.199999809265</ele>
        <time>2019-05-30T09:41:43.000Z</time>
      </trkpt>
      <trkpt lat="47.29064" lon="-2.27529">
        <ele>11.199999809265</ele>
        <time>2019-05-30T09:41:47.000Z</time>
      </trkpt>
      <trkpt lat="47.29044" lon="-2.27527">
        <ele>11.60000038147</ele>
        <time>2019-05-30T09:41:50.000Z</time>
      </trkpt>
      <trkpt lat="47.29037" lon="-2.27527">
        <ele>12.39999961853</ele>
        <time>2019-05-30T09:41:51.000Z</time>
      </trkpt>
      <trkpt lat="47.29031" lon="-2.27526">
        <ele>12.800000190735</ele>
        <time>2019-05-30T09:41:52.000Z</time>
      </trkpt>
      <trkpt lat="47.29024" lon="-2.27525">
        <ele>13.199999809265</ele>
        <time>2019-05-30T09:41:53.000Z</time>
      </trkpt>
      <trkpt lat="47.29018" lon="-2.27524">
        <ele>13.199999809265</ele>
        <time>2019-05-30T09:41:54.000Z</time>
      </trkpt>
      <trkpt lat="47.28986" lon="-2.27524">
        <ele>13.199999809265</ele>
        <time>2019-05-30T09:41:59.000Z</time>
      </trkpt>
      <trkpt lat="47.28946" lon="-2.27525">
        <ele>13.199999809265</ele>
        <time>2019-05-30T09:42:05.000Z</time>
      </trkpt>
      <trkpt lat="47.28939" lon="-2.27525">
        <ele>13.199999809265</ele>
        <time>2019-05-30T09:42:06.000Z</time>
      </trkpt>
      <trkpt lat="47.28899" lon="-2.27528">
        <ele>13.199999809265</ele>
        <time>2019-05-30T09:42:12.000Z</time>
      </trkpt>
      <trkpt lat="47.28854" lon="-2.27537">
        <ele>13.199999809265</ele>
        <time>2019-05-30T09:42:19.000Z</time>
      </trkpt>
      <trkpt lat="47.28819" lon="-2.27544">
        <ele>13.199999809265</ele>
        <time>2019-05-30T09:42:25.000Z</time>
      </trkpt>
      <trkpt lat="47.28813" lon="-2.27548">
        <ele>13.199999809265</ele>
        <time>2019-05-30T09:42:26.000Z</time>
      </trkpt>
      <trkpt lat="47.28798" lon="-2.27562">
        <ele>13.199999809265</ele>
        <time>2019-05-30T09:42:29.000Z</time>
      </trkpt>
      <trkpt lat="47.28771" lon="-2.27593">
        <ele>13.199999809265</ele>
        <time>2019-05-30T09:42:35.000Z</time>
      </trkpt>
      <trkpt lat="47.28764" lon="-2.27602">
        <ele>13.199999809265</ele>
        <time>2019-05-30T09:42:37.000Z</time>
      </trkpt>
      <trkpt lat="47.28751" lon="-2.2762">
        <ele>13.199999809265</ele>
        <time>2019-05-30T09:42:40.000Z</time>
      </trkpt>
      <trkpt lat="47.28721" lon="-2.27665">
        <ele>13.199999809265</ele>
        <time>2019-05-30T09:42:47.000Z</time>
      </trkpt>
      <trkpt lat="47.28692" lon="-2.27711">
        <ele>13.199999809265</ele>
        <time>2019-05-30T09:42:54.000Z</time>
      </trkpt>
      <trkpt lat="47.28673" lon="-2.27744">
        <ele>13.199999809265</ele>
        <time>2019-05-30T09:42:59.000Z</time>
      </trkpt>
      <trkpt lat="47.28661" lon="-2.27772">
        <ele>13.199999809265</ele>
        <time>2019-05-30T09:43:03.000Z</time>
      </trkpt>
      <trkpt lat="47.28656" lon="-2.27789">
        <ele>13.199999809265</ele>
        <time>2019-05-30T09:43:05.000Z</time>
      </trkpt>
      <trkpt lat="47.28655" lon="-2.27796">
        <ele>13.199999809265</ele>
        <time>2019-05-30T09:43:06.000Z</time>
      </trkpt>
      <trkpt lat="47.2865" lon="-2.27818">
        <ele>13.199999809265</ele>
        <time>2019-05-30T09:43:09.000Z</time>
      </trkpt>
      <trkpt lat="47.28648" lon="-2.27826">
        <ele>13.199999809265</ele>
        <time>2019-05-30T09:43:10.000Z</time>
      </trkpt>
      <trkpt lat="47.28639" lon="-2.27877">
        <ele>13.199999809265</ele>
        <time>2019-05-30T09:43:16.000Z</time>
      </trkpt>
      <trkpt lat="47.28632" lon="-2.27926">
        <ele>13.199999809265</ele>
        <time>2019-05-30T09:43:22.000Z</time>
      </trkpt>
      <trkpt lat="47.2863" lon="-2.27933">
        <ele>13.199999809265</ele>
        <time>2019-05-30T09:43:23.000Z</time>
      </trkpt>
      <trkpt lat="47.28626" lon="-2.27945">
        <ele>13.199999809265</ele>
        <time>2019-05-30T09:43:25.000Z</time>
      </trkpt>
      <trkpt lat="47.28622" lon="-2.27951">
        <ele>13.199999809265</ele>
        <time>2019-05-30T09:43:26.000Z</time>
      </trkpt>
      <trkpt lat="47.28612" lon="-2.27972">
        <ele>13.199999809265</ele>
        <time>2019-05-30T09:43:29.000Z</time>
      </trkpt>
      <trkpt lat="47.28611" lon="-2.2798">
        <ele>13.60000038147</ele>
        <time>2019-05-30T09:43:30.000Z</time>
      </trkpt>
      <trkpt lat="47.2861" lon="-2.27987">
        <ele>14.199999809265</ele>
        <time>2019-05-30T09:43:31.000Z</time>
      </trkpt>
      <trkpt lat="47.28608" lon="-2.27994">
        <ele>14.60000038147</ele>
        <time>2019-05-30T09:43:32.000Z</time>
      </trkpt>
      <trkpt lat="47.28607" lon="-2.28002">
        <ele>15</ele>
        <time>2019-05-30T09:43:33.000Z</time>
      </trkpt>
      <trkpt lat="47.28605" lon="-2.28008">
        <ele>15.39999961853</ele>
        <time>2019-05-30T09:43:34.000Z</time>
      </trkpt>
      <trkpt lat="47.28601" lon="-2.28014">
        <ele>15.39999961853</ele>
        <time>2019-05-30T09:43:35.000Z</time>
      </trkpt>
      <trkpt lat="47.28596" lon="-2.28018">
        <ele>15.39999961853</ele>
        <time>2019-05-30T09:43:36.000Z</time>
      </trkpt>
      <trkpt lat="47.28586" lon="-2.28029">
        <ele>15.39999961853</ele>
        <time>2019-05-30T09:43:39.000Z</time>
      </trkpt>
      <trkpt lat="47.28579" lon="-2.28039">
        <ele>15.39999961853</ele>
        <time>2019-05-30T09:43:41.000Z</time>
      </trkpt>
      <trkpt lat="47.28568" lon="-2.28048">
        <ele>15.39999961853</ele>
        <time>2019-05-30T09:43:45.000Z</time>
      </trkpt>
      <trkpt lat="47.28563" lon="-2.28053">
        <ele>15.39999961853</ele>
        <time>2019-05-30T09:43:48.000Z</time>
      </trkpt>
      <trkpt lat="47.28548" lon="-2.28051">
        <ele>15.39999961853</ele>
        <time>2019-05-30T09:43:52.000Z</time>
      </trkpt>
      <trkpt lat="47.28544" lon="-2.28052">
        <ele>15.39999961853</ele>
        <time>2019-05-30T09:43:53.000Z</time>
      </trkpt>
      <trkpt lat="47.2854" lon="-2.2805">
        <ele>15.800000190735</ele>
        <time>2019-05-30T09:43:55.000Z</time>
      </trkpt>
      <trkpt lat="47.28538" lon="-2.28049">
        <ele>16.200000762939</ele>
        <time>2019-05-30T09:43:56.000Z</time>
      </trkpt>
      <trkpt lat="47.28536" lon="-2.28047">
        <ele>16.60000038147</ele>
        <time>2019-05-30T09:43:57.000Z</time>
      </trkpt>
      <trkpt lat="47.28533" lon="-2.28047">
        <ele>17.200000762939</ele>
        <time>2019-05-30T09:43:58.000Z</time>
      </trkpt>
      <trkpt lat="47.2853" lon="-2.28048">
        <ele>17.60000038147</ele>
        <time>2019-05-30T09:43:59.000Z</time>
      </trkpt>
      <trkpt lat="47.28525" lon="-2.2805">
        <ele>18</ele>
        <time>2019-05-30T09:44:01.000Z</time>
      </trkpt>
      <trkpt lat="47.28523" lon="-2.2805">
        <ele>18.39999961853</ele>
        <time>2019-05-30T09:44:02.000Z</time>
      </trkpt>
      <trkpt lat="47.28522" lon="-2.28049">
        <ele>18.799999237061</ele>
        <time>2019-05-30T09:44:03.000Z</time>
      </trkpt>
      <trkpt lat="47.28519" lon="-2.28048">
        <ele>19.39999961853</ele>
        <time>2019-05-30T09:44:04.000Z</time>
      </trkpt>
      <trkpt lat="47.28517" lon="-2.28047">
        <ele>19.799999237061</ele>
        <time>2019-05-30T09:44:05.000Z</time>
      </trkpt>
      <trkpt lat="47.28509" lon="-2.2804">
        <ele>20.200000762939</ele>
        <time>2019-05-30T09:44:09.000Z</time>
      </trkpt>
      <trkpt lat="47.28507" lon="-2.28039">
        <ele>20.60000038147</ele>
        <time>2019-05-30T09:44:10.000Z</time>
      </trkpt>
      <trkpt lat="47.28504" lon="-2.28037">
        <ele>21</ele>
        <time>2019-05-30T09:44:11.000Z</time>
      </trkpt>
      <trkpt lat="47.28502" lon="-2.28037">
        <ele>21.39999961853</ele>
        <time>2019-05-30T09:44:12.000Z</time>
      </trkpt>
      <trkpt lat="47.28499" lon="-2.28038">
        <ele>21.799999237061</ele>
        <time>2019-05-30T09:44:13.000Z</time>
      </trkpt>
      <trkpt lat="47.28497" lon="-2.2804">
        <ele>21.799999237061</ele>
        <time>2019-05-30T09:44:14.000Z</time>
      </trkpt>
      <trkpt lat="47.2849" lon="-2.28045">
        <ele>21.799999237061</ele>
        <time>2019-05-30T09:44:17.000Z</time>
      </trkpt>
      <trkpt lat="47.28488" lon="-2.28049">
        <ele>21.799999237061</ele>
        <time>2019-05-30T09:44:18.000Z</time>
      </trkpt>
      <trkpt lat="47.28489" lon="-2.28059">
        <ele>21.799999237061</ele>
        <time>2019-05-30T09:44:20.000Z</time>
      </trkpt>
      <trkpt lat="47.28492" lon="-2.28066">
        <ele>21.799999237061</ele>
        <time>2019-05-30T09:44:22.000Z</time>
      </trkpt>
      <trkpt lat="47.28495" lon="-2.28072">
        <ele>21.799999237061</ele>
        <time>2019-05-30T09:44:24.000Z</time>
      </trkpt>
      <trkpt lat="47.28494" lon="-2.2808">
        <ele>21.799999237061</ele>
        <time>2019-05-30T09:44:26.000Z</time>
      </trkpt>
      <trkpt lat="47.28482" lon="-2.28092">
        <ele>21.799999237061</ele>
        <time>2019-05-30T09:44:30.000Z</time>
      </trkpt>
      <trkpt lat="47.28475" lon="-2.28097">
        <ele>21.39999961853</ele>
        <time>2019-05-30T09:44:32.000Z</time>
      </trkpt>
      <trkpt lat="47.28472" lon="-2.28095">
        <ele>21</ele>
        <time>2019-05-30T09:44:33.000Z</time>
      </trkpt>
      <trkpt lat="47.28469" lon="-2.28093">
        <ele>20.60000038147</ele>
        <time>2019-05-30T09:44:34.000Z</time>
      </trkpt>
      <trkpt lat="47.28467" lon="-2.28092">
        <ele>20.200000762939</ele>
        <time>2019-05-30T09:44:35.000Z</time>
      </trkpt>
      <trkpt lat="47.28464" lon="-2.28091">
        <ele>19.799999237061</ele>
        <time>2019-05-30T09:44:36.000Z</time>
      </trkpt>
      <trkpt lat="47.2846" lon="-2.2809">
        <ele>19.799999237061</ele>
        <time>2019-05-30T09:44:37.000Z</time>
      </trkpt>
      <trkpt lat="47.28458" lon="-2.28089">
        <ele>19.799999237061</ele>
        <time>2019-05-30T09:44:38.000Z</time>
      </trkpt>
      <trkpt lat="47.28445" lon="-2.28084">
        <ele>19.799999237061</ele>
        <time>2019-05-30T09:44:42.000Z</time>
      </trkpt>
      <trkpt lat="47.28442" lon="-2.28086">
        <ele>19.799999237061</ele>
        <time>2019-05-30T09:44:43.000Z</time>
      </trkpt>
      <trkpt lat="47.28436" lon="-2.28086">
        <ele>19.799999237061</ele>
        <time>2019-05-30T09:44:45.000Z</time>
      </trkpt>
      <trkpt lat="47.28428" lon="-2.28084">
        <ele>19.799999237061</ele>
        <time>2019-05-30T09:44:48.000Z</time>
      </trkpt>
      <trkpt lat="47.28421" lon="-2.28085">
        <ele>19.799999237061</ele>
        <time>2019-05-30T09:44:50.000Z</time>
      </trkpt>
      <trkpt lat="47.28408" lon="-2.28083">
        <ele>19.799999237061</ele>
        <time>2019-05-30T09:44:54.000Z</time>
      </trkpt>
      <trkpt lat="47.2839" lon="-2.28082">
        <ele>19.799999237061</ele>
        <time>2019-05-30T09:45:00.000Z</time>
      </trkpt>
      <trkpt lat="47.28381" lon="-2.28079">
        <ele>19.799999237061</ele>
        <time>2019-05-30T09:45:04.000Z</time>
      </trkpt>
      <trkpt lat="47.28377" lon="-2.28076">
        <ele>19.799999237061</ele>
        <time>2019-05-30T09:45:07.000Z</time>
      </trkpt>
      <trkpt lat="47.28371" lon="-2.28061">
        <ele>19.799999237061</ele>
        <time>2019-05-30T09:45:21.000Z</time>
      </trkpt>
      <trkpt lat="47.2837" lon="-2.28063">
        <ele>19.799999237061</ele>
        <time>2019-05-30T09:45:22.000Z</time>
      </trkpt>
      <trkpt lat="47.28368" lon="-2.28077">
        <ele>19.799999237061</ele>
        <time>2019-05-30T09:45:26.000Z</time>
      </trkpt>
      <trkpt lat="47.28368" lon="-2.28098">
        <ele>19.799999237061</ele>
        <time>2019-05-30T09:45:30.000Z</time>
      </trkpt>
      <trkpt lat="47.2837" lon="-2.28121">
        <ele>19.799999237061</ele>
        <time>2019-05-30T09:45:34.000Z</time>
      </trkpt>
      <trkpt lat="47.2837" lon="-2.28128">
        <ele>19.799999237061</ele>
        <time>2019-05-30T09:45:35.000Z</time>
      </trkpt>
      <trkpt lat="47.2837" lon="-2.28162">
        <ele>19.799999237061</ele>
        <time>2019-05-30T09:45:41.000Z</time>
      </trkpt>
      <trkpt lat="47.28371" lon="-2.28188">
        <ele>19.799999237061</ele>
        <time>2019-05-30T09:45:46.000Z</time>
      </trkpt>
      <trkpt lat="47.28371" lon="-2.28194">
        <ele>20.200000762939</ele>
        <time>2019-05-30T09:45:47.000Z</time>
      </trkpt>
      <trkpt lat="47.2837" lon="-2.28199">
        <ele>20.60000038147</ele>
        <time>2019-05-30T09:45:48.000Z</time>
      </trkpt>
      <trkpt lat="47.2837" lon="-2.28204">
        <ele>21</ele>
        <time>2019-05-30T09:45:49.000Z</time>
      </trkpt>
      <trkpt lat="47.2837" lon="-2.2821">
        <ele>21.39999961853</ele>
        <time>2019-05-30T09:45:50.000Z</time>
      </trkpt>
      <trkpt lat="47.2837" lon="-2.28216">
        <ele>22</ele>
        <time>2019-05-30T09:45:51.000Z</time>
      </trkpt>
      <trkpt lat="47.2837" lon="-2.28221">
        <ele>22</ele>
        <time>2019-05-30T09:45:52.000Z</time>
      </trkpt>
      <trkpt lat="47.28371" lon="-2.28242">
        <ele>22.39999961853</ele>
        <time>2019-05-30T09:45:56.000Z</time>
      </trkpt>
      <trkpt lat="47.28371" lon="-2.28247">
        <ele>22.799999237061</ele>
        <time>2019-05-30T09:45:57.000Z</time>
      </trkpt>
      <trkpt lat="47.28372" lon="-2.28253">
        <ele>23.60000038147</ele>
        <time>2019-05-30T09:45:58.000Z</time>
      </trkpt>
      <trkpt lat="47.28371" lon="-2.28259">
        <ele>24</ele>
        <time>2019-05-30T09:45:59.000Z</time>
      </trkpt>
      <trkpt lat="47.28371" lon="-2.28279">
        <ele>24</ele>
        <time>2019-05-30T09:46:03.000Z</time>
      </trkpt>
      <trkpt lat="47.28371" lon="-2.28305">
        <ele>24.39999961853</ele>
        <time>2019-05-30T09:46:08.000Z</time>
      </trkpt>
      <trkpt lat="47.28371" lon="-2.28311">
        <ele>24.799999237061</ele>
        <time>2019-05-30T09:46:09.000Z</time>
      </trkpt>
      <trkpt lat="47.28371" lon="-2.28316">
        <ele>25.200000762939</ele>
        <time>2019-05-30T09:46:10.000Z</time>
      </trkpt>
      <trkpt lat="47.28371" lon="-2.28322">
        <ele>25.60000038147</ele>
        <time>2019-05-30T09:46:11.000Z</time>
      </trkpt>
      <trkpt lat="47.28371" lon="-2.28328">
        <ele>26</ele>
        <time>2019-05-30T09:46:12.000Z</time>
      </trkpt>
      <trkpt lat="47.28371" lon="-2.28352">
        <ele>26</ele>
        <time>2019-05-30T09:46:16.000Z</time>
      </trkpt>
      <trkpt lat="47.28372" lon="-2.28371">
        <ele>26</ele>
        <time>2019-05-30T09:46:19.000Z</time>
      </trkpt>
      <trkpt lat="47.28372" lon="-2.28383">
        <ele>26</ele>
        <time>2019-05-30T09:46:21.000Z</time>
      </trkpt>
      <trkpt lat="47.28374" lon="-2.28397">
        <ele>26</ele>
        <time>2019-05-30T09:46:23.000Z</time>
      </trkpt>
      <trkpt lat="47.28376" lon="-2.28411">
        <ele>26</ele>
        <time>2019-05-30T09:46:25.000Z</time>
      </trkpt>
      <trkpt lat="47.28377" lon="-2.28443">
        <ele>26</ele>
        <time>2019-05-30T09:46:29.000Z</time>
      </trkpt>
      <trkpt lat="47.28377" lon="-2.28461">
        <ele>26.39999961853</ele>
        <time>2019-05-30T09:46:31.000Z</time>
      </trkpt>
      <trkpt lat="47.28378" lon="-2.28469">
        <ele>26.799999237061</ele>
        <time>2019-05-30T09:46:32.000Z</time>
      </trkpt>
      <trkpt lat="47.28378" lon="-2.28477">
        <ele>27.200000762939</ele>
        <time>2019-05-30T09:46:33.000Z</time>
      </trkpt>
      <trkpt lat="47.28378" lon="-2.28486">
        <ele>27.60000038147</ele>
        <time>2019-05-30T09:46:34.000Z</time>
      </trkpt>
      <trkpt lat="47.28379" lon="-2.28494">
        <ele>28</ele>
        <time>2019-05-30T09:46:35.000Z</time>
      </trkpt>
      <trkpt lat="47.28381" lon="-2.28552">
        <ele>28</ele>
        <time>2019-05-30T09:46:42.000Z</time>
      </trkpt>
      <trkpt lat="47.28383" lon="-2.28621">
        <ele>28</ele>
        <time>2019-05-30T09:46:50.000Z</time>
      </trkpt>
      <trkpt lat="47.28383" lon="-2.28639">
        <ele>28</ele>
        <time>2019-05-30T09:46:52.000Z</time>
      </trkpt>
      <trkpt lat="47.28384" lon="-2.28665">
        <ele>28</ele>
        <time>2019-05-30T09:46:55.000Z</time>
      </trkpt>
      <trkpt lat="47.28386" lon="-2.28721">
        <ele>28</ele>
        <time>2019-05-30T09:47:01.000Z</time>
      </trkpt>
      <trkpt lat="47.28389" lon="-2.28795">
        <ele>28</ele>
        <time>2019-05-30T09:47:09.000Z</time>
      </trkpt>
      <trkpt lat="47.28391" lon="-2.28872">
        <ele>28</ele>
        <time>2019-05-30T09:47:17.000Z</time>
      </trkpt>
      <trkpt lat="47.28391" lon="-2.2888">
        <ele>27.60000038147</ele>
        <time>2019-05-30T09:47:18.000Z</time>
      </trkpt>
      <trkpt lat="47.28392" lon="-2.28889">
        <ele>27.200000762939</ele>
        <time>2019-05-30T09:47:19.000Z</time>
      </trkpt>
      <trkpt lat="47.28392" lon="-2.28897">
        <ele>26.799999237061</ele>
        <time>2019-05-30T09:47:20.000Z</time>
      </trkpt>
      <trkpt lat="47.28392" lon="-2.28905">
        <ele>26.200000762939</ele>
        <time>2019-05-30T09:47:21.000Z</time>
      </trkpt>
      <trkpt lat="47.28392" lon="-2.28914">
        <ele>25.799999237061</ele>
        <time>2019-05-30T09:47:22.000Z</time>
      </trkpt>
      <trkpt lat="47.28393" lon="-2.28922">
        <ele>25.799999237061</ele>
        <time>2019-05-30T09:47:23.000Z</time>
      </trkpt>
      <trkpt lat="47.28395" lon="-2.28973">
        <ele>25.799999237061</ele>
        <time>2019-05-30T09:47:29.000Z</time>
      </trkpt>
      <trkpt lat="47.28395" lon="-2.28986">
        <ele>25.799999237061</ele>
        <time>2019-05-30T09:47:32.000Z</time>
      </trkpt>
      <trkpt lat="47.28395" lon="-2.28988">
        <ele>25.799999237061</ele>
        <time>2019-05-30T09:47:33.000Z</time>
      </trkpt>
      <trkpt lat="47.28401" lon="-2.2899">
        <ele>25.799999237061</ele>
        <time>2019-05-30T09:47:37.000Z</time>
      </trkpt>
      <trkpt lat="47.28406" lon="-2.28992">
        <ele>25.799999237061</ele>
        <time>2019-05-30T09:47:39.000Z</time>
      </trkpt>
      <trkpt lat="47.28408" lon="-2.28992">
        <ele>25.799999237061</ele>
        <time>2019-05-30T09:47:40.000Z</time>
      </trkpt>
      <trkpt lat="47.28412" lon="-2.28992">
        <ele>25.799999237061</ele>
        <time>2019-05-30T09:47:41.000Z</time>
      </trkpt>
      <trkpt lat="47.28428" lon="-2.28994">
        <ele>25.39999961853</ele>
        <time>2019-05-30T09:47:45.000Z</time>
      </trkpt>
      <trkpt lat="47.28433" lon="-2.28993">
        <ele>25</ele>
        <time>2019-05-30T09:47:46.000Z</time>
      </trkpt>
      <trkpt lat="47.28437" lon="-2.28994">
        <ele>24.60000038147</ele>
        <time>2019-05-30T09:47:47.000Z</time>
      </trkpt>
      <trkpt lat="47.28442" lon="-2.28994">
        <ele>24.200000762939</ele>
        <time>2019-05-30T09:47:48.000Z</time>
      </trkpt>
      <trkpt lat="47.28447" lon="-2.28994">
        <ele>23.799999237061</ele>
        <time>2019-05-30T09:47:49.000Z</time>
      </trkpt>
      <trkpt lat="47.28457" lon="-2.28996">
        <ele>23.799999237061</ele>
        <time>2019-05-30T09:47:51.000Z</time>
      </trkpt>
      <trkpt lat="47.28474" lon="-2.28999">
        <ele>23.39999961853</ele>
        <time>2019-05-30T09:47:54.000Z</time>
      </trkpt>
      <trkpt lat="47.28479" lon="-2.29">
        <ele>23</ele>
        <time>2019-05-30T09:47:55.000Z</time>
      </trkpt>
      <trkpt lat="47.28485" lon="-2.29002">
        <ele>22.60000038147</ele>
        <time>2019-05-30T09:47:56.000Z</time>
      </trkpt>
      <trkpt lat="47.2849" lon="-2.29005">
        <ele>22.200000762939</ele>
        <time>2019-05-30T09:47:57.000Z</time>
      </trkpt>
      <trkpt lat="47.28496" lon="-2.29008">
        <ele>21.799999237061</ele>
        <time>2019-05-30T09:47:58.000Z</time>
      </trkpt>
      <trkpt lat="47.28514" lon="-2.29019">
        <ele>21.799999237061</ele>
        <time>2019-05-30T09:48:01.000Z</time>
      </trkpt>
      <trkpt lat="47.28545" lon="-2.29027">
        <ele>21.799999237061</ele>
        <time>2019-05-30T09:48:06.000Z</time>
      </trkpt>
      <trkpt lat="47.28564" lon="-2.29032">
        <ele>21.39999961853</ele>
        <time>2019-05-30T09:48:09.000Z</time>
      </trkpt>
      <trkpt lat="47.2857" lon="-2.29033">
        <ele>20.799999237061</ele>
        <time>2019-05-30T09:48:10.000Z</time>
      </trkpt>
      <trkpt lat="47.28575" lon="-2.29034">
        <ele>20.39999961853</ele>
        <time>2019-05-30T09:48:11.000Z</time>
      </trkpt>
      <trkpt lat="47.2858" lon="-2.29036">
        <ele>20</ele>
        <time>2019-05-30T09:48:12.000Z</time>
      </trkpt>
      <trkpt lat="47.28585" lon="-2.29038">
        <ele>19.60000038147</ele>
        <time>2019-05-30T09:48:13.000Z</time>
      </trkpt>
      <trkpt lat="47.28591" lon="-2.29041">
        <ele>19.60000038147</ele>
        <time>2019-05-30T09:48:14.000Z</time>
      </trkpt>
      <trkpt lat="47.28602" lon="-2.29055">
        <ele>19.60000038147</ele>
        <time>2019-05-30T09:48:17.000Z</time>
      </trkpt>
      <trkpt lat="47.286" lon="-2.29071">
        <ele>19.60000038147</ele>
        <time>2019-05-30T09:48:20.000Z</time>
      </trkpt>
      <trkpt lat="47.28599" lon="-2.29082">
        <ele>19.60000038147</ele>
        <time>2019-05-30T09:48:23.000Z</time>
      </trkpt>
      <trkpt lat="47.28598" lon="-2.29086">
        <ele>19.60000038147</ele>
        <time>2019-05-30T09:48:24.000Z</time>
      </trkpt>
      <trkpt lat="47.28595" lon="-2.29105">
        <ele>19.60000038147</ele>
        <time>2019-05-30T09:48:28.000Z</time>
      </trkpt>
      <trkpt lat="47.28585" lon="-2.2913">
        <ele>19.60000038147</ele>
        <time>2019-05-30T09:48:33.000Z</time>
      </trkpt>
      <trkpt lat="47.28572" lon="-2.29153">
        <ele>19.60000038147</ele>
        <time>2019-05-30T09:48:37.000Z</time>
      </trkpt>
      <trkpt lat="47.28564" lon="-2.29163">
        <ele>19.60000038147</ele>
        <time>2019-05-30T09:48:39.000Z</time>
      </trkpt>
      <trkpt lat="47.2855" lon="-2.29175">
        <ele>19.60000038147</ele>
        <time>2019-05-30T09:48:42.000Z</time>
      </trkpt>
      <trkpt lat="47.28546" lon="-2.29179">
        <ele>19.60000038147</ele>
        <time>2019-05-30T09:48:43.000Z</time>
      </trkpt>
      <trkpt lat="47.28542" lon="-2.29183">
        <ele>19.60000038147</ele>
        <time>2019-05-30T09:48:44.000Z</time>
      </trkpt>
      <trkpt lat="47.28529" lon="-2.29195">
        <ele>19.60000038147</ele>
        <time>2019-05-30T09:48:47.000Z</time>
      </trkpt>
      <trkpt lat="47.28523" lon="-2.29206">
        <ele>19.60000038147</ele>
        <time>2019-05-30T09:48:49.000Z</time>
      </trkpt>
      <trkpt lat="47.28521" lon="-2.2923">
        <ele>19.60000038147</ele>
        <time>2019-05-30T09:48:52.000Z</time>
      </trkpt>
      <trkpt lat="47.28521" lon="-2.29238">
        <ele>19.60000038147</ele>
        <time>2019-05-30T09:48:53.000Z</time>
      </trkpt>
      <trkpt lat="47.28523" lon="-2.29279">
        <ele>19.60000038147</ele>
        <time>2019-05-30T09:48:59.000Z</time>
      </trkpt>
      <trkpt lat="47.28522" lon="-2.29282">
        <ele>19.60000038147</ele>
        <time>2019-05-30T09:49:00.000Z</time>
      </trkpt>
      <trkpt lat="47.28518" lon="-2.2929">
        <ele>19.60000038147</ele>
        <time>2019-05-30T09:49:03.000Z</time>
      </trkpt>
      <trkpt lat="47.28502" lon="-2.29307">
        <ele>19.60000038147</ele>
        <time>2019-05-30T09:49:08.000Z</time>
      </trkpt>
      <trkpt lat="47.2849" lon="-2.29314">
        <ele>19.60000038147</ele>
        <time>2019-05-30T09:49:11.000Z</time>
      </trkpt>
      <trkpt lat="47.28486" lon="-2.29316">
        <ele>19.60000038147</ele>
        <time>2019-05-30T09:49:12.000Z</time>
      </trkpt>
      <trkpt lat="47.28477" lon="-2.2932">
        <ele>20.39999961853</ele>
        <time>2019-05-30T09:49:14.000Z</time>
      </trkpt>
      <trkpt lat="47.28473" lon="-2.29322">
        <ele>20.799999237061</ele>
        <time>2019-05-30T09:49:15.000Z</time>
      </trkpt>
      <trkpt lat="47.28469" lon="-2.29324">
        <ele>21.200000762939</ele>
        <time>2019-05-30T09:49:16.000Z</time>
      </trkpt>
      <trkpt lat="47.28465" lon="-2.29326">
        <ele>21.60000038147</ele>
        <time>2019-05-30T09:49:17.000Z</time>
      </trkpt>
      <trkpt lat="47.28456" lon="-2.29329">
        <ele>21.60000038147</ele>
        <time>2019-05-30T09:49:19.000Z</time>
      </trkpt>
      <trkpt lat="47.28429" lon="-2.2934">
        <ele>21.60000038147</ele>
        <time>2019-05-30T09:49:25.000Z</time>
      </trkpt>
      <trkpt lat="47.28397" lon="-2.29358">
        <ele>21.60000038147</ele>
        <time>2019-05-30T09:49:32.000Z</time>
      </trkpt>
      <trkpt lat="47.28393" lon="-2.29361">
        <ele>22.200000762939</ele>
        <time>2019-05-30T09:49:33.000Z</time>
      </trkpt>
      <trkpt lat="47.28388" lon="-2.29364">
        <ele>22.60000038147</ele>
        <time>2019-05-30T09:49:34.000Z</time>
      </trkpt>
      <trkpt lat="47.28383" lon="-2.29367">
        <ele>23</ele>
        <time>2019-05-30T09:49:35.000Z</time>
      </trkpt>
      <trkpt lat="47.28379" lon="-2.2937">
        <ele>23.39999961853</ele>
        <time>2019-05-30T09:49:36.000Z</time>
      </trkpt>
      <trkpt lat="47.28374" lon="-2.29373">
        <ele>23.799999237061</ele>
        <time>2019-05-30T09:49:37.000Z</time>
      </trkpt>
      <trkpt lat="47.28369" lon="-2.29376">
        <ele>23.799999237061</ele>
        <time>2019-05-30T09:49:38.000Z</time>
      </trkpt>
      <trkpt lat="47.28364" lon="-2.2938">
        <ele>23.799999237061</ele>
        <time>2019-05-30T09:49:39.000Z</time>
      </trkpt>
      <trkpt lat="47.28344" lon="-2.29399">
        <ele>23.799999237061</ele>
        <time>2019-05-30T09:49:43.000Z</time>
      </trkpt>
      <trkpt lat="47.28307" lon="-2.29439">
        <ele>23.799999237061</ele>
        <time>2019-05-30T09:49:51.000Z</time>
      </trkpt>
      <trkpt lat="47.28283" lon="-2.29457">
        <ele>23.799999237061</ele>
        <time>2019-05-30T09:49:56.000Z</time>
      </trkpt>
      <trkpt lat="47.28255" lon="-2.29475">
        <ele>23.799999237061</ele>
        <time>2019-05-30T09:50:02.000Z</time>
      </trkpt>
      <trkpt lat="47.28246" lon="-2.29481">
        <ele>24.200000762939</ele>
        <time>2019-05-30T09:50:04.000Z</time>
      </trkpt>
      <trkpt lat="47.28241" lon="-2.29483">
        <ele>24.60000038147</ele>
        <time>2019-05-30T09:50:05.000Z</time>
      </trkpt>
      <trkpt lat="47.28236" lon="-2.29486">
        <ele>25</ele>
        <time>2019-05-30T09:50:06.000Z</time>
      </trkpt>
      <trkpt lat="47.28231" lon="-2.2949">
        <ele>25.39999961853</ele>
        <time>2019-05-30T09:50:07.000Z</time>
      </trkpt>
      <trkpt lat="47.28225" lon="-2.29493">
        <ele>25.799999237061</ele>
        <time>2019-05-30T09:50:08.000Z</time>
      </trkpt>
      <trkpt lat="47.2822" lon="-2.29495">
        <ele>25.799999237061</ele>
        <time>2019-05-30T09:50:09.000Z</time>
      </trkpt>
      <trkpt lat="47.28204" lon="-2.29502">
        <ele>25.799999237061</ele>
        <time>2019-05-30T09:50:12.000Z</time>
      </trkpt>
      <trkpt lat="47.28194" lon="-2.29507">
        <ele>25.799999237061</ele>
        <time>2019-05-30T09:50:14.000Z</time>
      </trkpt>
      <trkpt lat="47.28163" lon="-2.29519">
        <ele>25.799999237061</ele>
        <time>2019-05-30T09:50:20.000Z</time>
      </trkpt>
      <trkpt lat="47.28148" lon="-2.29527">
        <ele>25.799999237061</ele>
        <time>2019-05-30T09:50:23.000Z</time>
      </trkpt>
      <trkpt lat="47.28143" lon="-2.2953">
        <ele>26.200000762939</ele>
        <time>2019-05-30T09:50:24.000Z</time>
      </trkpt>
      <trkpt lat="47.28137" lon="-2.29532">
        <ele>26.60000038147</ele>
        <time>2019-05-30T09:50:25.000Z</time>
      </trkpt>
      <trkpt lat="47.28132" lon="-2.29534">
        <ele>27</ele>
        <time>2019-05-30T09:50:26.000Z</time>
      </trkpt>
      <trkpt lat="47.28127" lon="-2.29536">
        <ele>27.60000038147</ele>
        <time>2019-05-30T09:50:27.000Z</time>
      </trkpt>
      <trkpt lat="47.28122" lon="-2.29538">
        <ele>28</ele>
        <time>2019-05-30T09:50:28.000Z</time>
      </trkpt>
      <trkpt lat="47.28093" lon="-2.2955">
        <ele>28</ele>
        <time>2019-05-30T09:50:33.000Z</time>
      </trkpt>
      <trkpt lat="47.28053" lon="-2.29568">
        <ele>28</ele>
        <time>2019-05-30T09:50:40.000Z</time>
      </trkpt>
      <trkpt lat="47.28018" lon="-2.29583">
        <ele>28</ele>
        <time>2019-05-30T09:50:46.000Z</time>
      </trkpt>
      <trkpt lat="47.28012" lon="-2.29585">
        <ele>28</ele>
        <time>2019-05-30T09:50:47.000Z</time>
      </trkpt>
      <trkpt lat="47.27956" lon="-2.29599">
        <ele>28</ele>
        <time>2019-05-30T09:50:56.000Z</time>
      </trkpt>
      <trkpt lat="47.27899" lon="-2.29597">
        <ele>28</ele>
        <time>2019-05-30T09:51:05.000Z</time>
      </trkpt>
      <trkpt lat="47.27859" lon="-2.29594">
        <ele>28</ele>
        <time>2019-05-30T09:51:12.000Z</time>
      </trkpt>
      <trkpt lat="47.27847" lon="-2.29594">
        <ele>28</ele>
        <time>2019-05-30T09:51:15.000Z</time>
      </trkpt>
      <trkpt lat="47.27836" lon="-2.29594">
        <ele>28</ele>
        <time>2019-05-30T09:51:17.000Z</time>
      </trkpt>
      <trkpt lat="47.27799" lon="-2.29594">
        <ele>28</ele>
        <time>2019-05-30T09:51:23.000Z</time>
      </trkpt>
      <trkpt lat="47.27751" lon="-2.29595">
        <ele>28</ele>
        <time>2019-05-30T09:51:30.000Z</time>
      </trkpt>
      <trkpt lat="47.27744" lon="-2.29595">
        <ele>27.39999961853</ele>
        <time>2019-05-30T09:51:31.000Z</time>
      </trkpt>
      <trkpt lat="47.27737" lon="-2.29595">
        <ele>27</ele>
        <time>2019-05-30T09:51:32.000Z</time>
      </trkpt>
      <trkpt lat="47.2773" lon="-2.29595">
        <ele>26.60000038147</ele>
        <time>2019-05-30T09:51:33.000Z</time>
      </trkpt>
      <trkpt lat="47.27723" lon="-2.29595">
        <ele>26.200000762939</ele>
        <time>2019-05-30T09:51:34.000Z</time>
      </trkpt>
      <trkpt lat="47.27716" lon="-2.29595">
        <ele>25.799999237061</ele>
        <time>2019-05-30T09:51:35.000Z</time>
      </trkpt>
      <trkpt lat="47.27709" lon="-2.29595">
        <ele>25.799999237061</ele>
        <time>2019-05-30T09:51:36.000Z</time>
      </trkpt>
      <trkpt lat="47.2767" lon="-2.29595">
        <ele>25.799999237061</ele>
        <time>2019-05-30T09:51:42.000Z</time>
      </trkpt>
      <trkpt lat="47.27635" lon="-2.29596">
        <ele>25.799999237061</ele>
        <time>2019-05-30T09:51:48.000Z</time>
      </trkpt>
      <trkpt lat="47.27589" lon="-2.29596">
        <ele>25.799999237061</ele>
        <time>2019-05-30T09:51:56.000Z</time>
      </trkpt>
      <trkpt lat="47.27545" lon="-2.29596">
        <ele>25.799999237061</ele>
        <time>2019-05-30T09:52:03.000Z</time>
      </trkpt>
      <trkpt lat="47.27508" lon="-2.296">
        <ele>25.799999237061</ele>
        <time>2019-05-30T09:52:09.000Z</time>
      </trkpt>
      <trkpt lat="47.27465" lon="-2.29611">
        <ele>25.799999237061</ele>
        <time>2019-05-30T09:52:16.000Z</time>
      </trkpt>
      <trkpt lat="47.27422" lon="-2.29621">
        <ele>25.799999237061</ele>
        <time>2019-05-30T09:52:23.000Z</time>
      </trkpt>
      <trkpt lat="47.27379" lon="-2.2963">
        <ele>25.799999237061</ele>
        <time>2019-05-30T09:52:30.000Z</time>
      </trkpt>
      <trkpt lat="47.27366" lon="-2.29632">
        <ele>25.799999237061</ele>
        <time>2019-05-30T09:52:32.000Z</time>
      </trkpt>
      <trkpt lat="47.27347" lon="-2.29635">
        <ele>25.799999237061</ele>
        <time>2019-05-30T09:52:35.000Z</time>
      </trkpt>
      <trkpt lat="47.27309" lon="-2.2964">
        <ele>25.799999237061</ele>
        <time>2019-05-30T09:52:41.000Z</time>
      </trkpt>
      <trkpt lat="47.2727" lon="-2.29644">
        <ele>25.799999237061</ele>
        <time>2019-05-30T09:52:47.000Z</time>
      </trkpt>
      <trkpt lat="47.27264" lon="-2.29644">
        <ele>25.799999237061</ele>
        <time>2019-05-30T09:52:48.000Z</time>
      </trkpt>
      <trkpt lat="47.2722" lon="-2.29648">
        <ele>25.799999237061</ele>
        <time>2019-05-30T09:52:55.000Z</time>
      </trkpt>
      <trkpt lat="47.27169" lon="-2.29652">
        <ele>25.799999237061</ele>
        <time>2019-05-30T09:53:03.000Z</time>
      </trkpt>
      <trkpt lat="47.27126" lon="-2.29659">
        <ele>25.799999237061</ele>
        <time>2019-05-30T09:53:10.000Z</time>
      </trkpt>
      <trkpt lat="47.27091" lon="-2.29674">
        <ele>25.799999237061</ele>
        <time>2019-05-30T09:53:16.000Z</time>
      </trkpt>
      <trkpt lat="47.27068" lon="-2.29686">
        <ele>26.200000762939</ele>
        <time>2019-05-30T09:53:20.000Z</time>
      </trkpt>
      <trkpt lat="47.27062" lon="-2.29689">
        <ele>26.60000038147</ele>
        <time>2019-05-30T09:53:21.000Z</time>
      </trkpt>
      <trkpt lat="47.27056" lon="-2.29693">
        <ele>27.39999961853</ele>
        <time>2019-05-30T09:53:22.000Z</time>
      </trkpt>
      <trkpt lat="47.2705" lon="-2.29696">
        <ele>27.799999237061</ele>
        <time>2019-05-30T09:53:23.000Z</time>
      </trkpt>
      <trkpt lat="47.27044" lon="-2.297">
        <ele>27.799999237061</ele>
        <time>2019-05-30T09:53:24.000Z</time>
      </trkpt>
      <trkpt lat="47.27022" lon="-2.2972">
        <ele>27.799999237061</ele>
        <time>2019-05-30T09:53:28.000Z</time>
      </trkpt>
      <trkpt lat="47.26995" lon="-2.29759">
        <ele>27.799999237061</ele>
        <time>2019-05-30T09:53:34.000Z</time>
      </trkpt>
      <trkpt lat="47.26959" lon="-2.29811">
        <ele>27.799999237061</ele>
        <time>2019-05-30T09:53:42.000Z</time>
      </trkpt>
      <trkpt lat="47.26942" lon="-2.29837">
        <ele>28.39999961853</ele>
        <time>2019-05-30T09:53:46.000Z</time>
      </trkpt>
      <trkpt lat="47.26938" lon="-2.29843">
        <ele>28.799999237061</ele>
        <time>2019-05-30T09:53:47.000Z</time>
      </trkpt>
      <trkpt lat="47.26934" lon="-2.2985">
        <ele>29.39999961853</ele>
        <time>2019-05-30T09:53:48.000Z</time>
      </trkpt>
      <trkpt lat="47.26929" lon="-2.29857">
        <ele>29.799999237061</ele>
        <time>2019-05-30T09:53:49.000Z</time>
      </trkpt>
      <trkpt lat="47.26926" lon="-2.29863">
        <ele>30.39999961853</ele>
        <time>2019-05-30T09:53:50.000Z</time>
      </trkpt>
      <trkpt lat="47.26909" lon="-2.29889">
        <ele>30.39999961853</ele>
        <time>2019-05-30T09:53:54.000Z</time>
      </trkpt>
      <trkpt lat="47.2688" lon="-2.29937">
        <ele>30.39999961853</ele>
        <time>2019-05-30T09:54:01.000Z</time>
      </trkpt>
      <trkpt lat="47.26857" lon="-2.29984">
        <ele>30.39999961853</ele>
        <time>2019-05-30T09:54:07.000Z</time>
      </trkpt>
      <trkpt lat="47.26828" lon="-2.30036">
        <ele>30.39999961853</ele>
        <time>2019-05-30T09:54:14.000Z</time>
      </trkpt>
      <trkpt lat="47.26796" lon="-2.30088">
        <ele>30.39999961853</ele>
        <time>2019-05-30T09:54:21.000Z</time>
      </trkpt>
      <trkpt lat="47.26755" lon="-2.30146">
        <ele>30.39999961853</ele>
        <time>2019-05-30T09:54:29.000Z</time>
      </trkpt>
      <trkpt lat="47.2675" lon="-2.30154">
        <ele>30</ele>
        <time>2019-05-30T09:54:30.000Z</time>
      </trkpt>
      <trkpt lat="47.26744" lon="-2.30161">
        <ele>29.60000038147</ele>
        <time>2019-05-30T09:54:31.000Z</time>
      </trkpt>
      <trkpt lat="47.26739" lon="-2.30169">
        <ele>29.200000762939</ele>
        <time>2019-05-30T09:54:32.000Z</time>
      </trkpt>
      <trkpt lat="47.26734" lon="-2.30177">
        <ele>28.60000038147</ele>
        <time>2019-05-30T09:54:33.000Z</time>
      </trkpt>
      <trkpt lat="47.26729" lon="-2.30185">
        <ele>28.200000762939</ele>
        <time>2019-05-30T09:54:34.000Z</time>
      </trkpt>
      <trkpt lat="47.26724" lon="-2.30193">
        <ele>28.200000762939</ele>
        <time>2019-05-30T09:54:35.000Z</time>
      </trkpt>
      <trkpt lat="47.26694" lon="-2.30242">
        <ele>28.200000762939</ele>
        <time>2019-05-30T09:54:41.000Z</time>
      </trkpt>
      <trkpt lat="47.26669" lon="-2.30284">
        <ele>27.799999237061</ele>
        <time>2019-05-30T09:54:46.000Z</time>
      </trkpt>
      <trkpt lat="47.26664" lon="-2.30293">
        <ele>27.39999961853</ele>
        <time>2019-05-30T09:54:47.000Z</time>
      </trkpt>
      <trkpt lat="47.26659" lon="-2.30301">
        <ele>27</ele>
        <time>2019-05-30T09:54:48.000Z</time>
      </trkpt>
      <trkpt lat="47.26654" lon="-2.30309">
        <ele>26.60000038147</ele>
        <time>2019-05-30T09:54:49.000Z</time>
      </trkpt>
      <trkpt lat="47.26649" lon="-2.30318">
        <ele>26.200000762939</ele>
        <time>2019-05-30T09:54:50.000Z</time>
      </trkpt>
      <trkpt lat="47.26635" lon="-2.3034">
        <ele>26.200000762939</ele>
        <time>2019-05-30T09:54:53.000Z</time>
      </trkpt>
      <trkpt lat="47.26599" lon="-2.3039">
        <ele>26.200000762939</ele>
        <time>2019-05-30T09:55:00.000Z</time>
      </trkpt>
      <trkpt lat="47.2657" lon="-2.3042">
        <ele>26.200000762939</ele>
        <time>2019-05-30T09:55:05.000Z</time>
      </trkpt>
      <trkpt lat="47.26523" lon="-2.30465">
        <ele>26.200000762939</ele>
        <time>2019-05-30T09:55:13.000Z</time>
      </trkpt>
      <trkpt lat="47.26483" lon="-2.30501">
        <ele>26.200000762939</ele>
        <time>2019-05-30T09:55:20.000Z</time>
      </trkpt>
      <trkpt lat="47.26472" lon="-2.3051">
        <ele>26.200000762939</ele>
        <time>2019-05-30T09:55:22.000Z</time>
      </trkpt>
      <trkpt lat="47.26446" lon="-2.30525">
        <ele>26.200000762939</ele>
        <time>2019-05-30T09:55:26.000Z</time>
      </trkpt>
      <trkpt lat="47.26406" lon="-2.30546">
        <ele>26.200000762939</ele>
        <time>2019-05-30T09:55:32.000Z</time>
      </trkpt>
      <trkpt lat="47.26385" lon="-2.30556">
        <ele>25.799999237061</ele>
        <time>2019-05-30T09:55:35.000Z</time>
      </trkpt>
      <trkpt lat="47.26379" lon="-2.30559">
        <ele>25.39999961853</ele>
        <time>2019-05-30T09:55:36.000Z</time>
      </trkpt>
      <trkpt lat="47.26372" lon="-2.30562">
        <ele>25</ele>
        <time>2019-05-30T09:55:37.000Z</time>
      </trkpt>
      <trkpt lat="47.26365" lon="-2.30566">
        <ele>24.60000038147</ele>
        <time>2019-05-30T09:55:38.000Z</time>
      </trkpt>
      <trkpt lat="47.26358" lon="-2.3057">
        <ele>24</ele>
        <time>2019-05-30T09:55:39.000Z</time>
      </trkpt>
      <trkpt lat="47.26314" lon="-2.30595">
        <ele>24</ele>
        <time>2019-05-30T09:55:45.000Z</time>
      </trkpt>
      <trkpt lat="47.26275" lon="-2.30618">
        <ele>23.60000038147</ele>
        <time>2019-05-30T09:55:50.000Z</time>
      </trkpt>
      <trkpt lat="47.26267" lon="-2.30623">
        <ele>23</ele>
        <time>2019-05-30T09:55:51.000Z</time>
      </trkpt>
      <trkpt lat="47.26259" lon="-2.30628">
        <ele>22.60000038147</ele>
        <time>2019-05-30T09:55:52.000Z</time>
      </trkpt>
      <trkpt lat="47.26251" lon="-2.30633">
        <ele>22</ele>
        <time>2019-05-30T09:55:53.000Z</time>
      </trkpt>
      <trkpt lat="47.26243" lon="-2.30639">
        <ele>21.200000762939</ele>
        <time>2019-05-30T09:55:54.000Z</time>
      </trkpt>
      <trkpt lat="47.26235" lon="-2.30645">
        <ele>20.60000038147</ele>
        <time>2019-05-30T09:55:55.000Z</time>
      </trkpt>
      <trkpt lat="47.26228" lon="-2.30651">
        <ele>20</ele>
        <time>2019-05-30T09:55:56.000Z</time>
      </trkpt>
      <trkpt lat="47.2622" lon="-2.30659">
        <ele>19.39999961853</ele>
        <time>2019-05-30T09:55:57.000Z</time>
      </trkpt>
      <trkpt lat="47.26179" lon="-2.3071">
        <ele>19.39999961853</ele>
        <time>2019-05-30T09:56:03.000Z</time>
      </trkpt>
      <trkpt lat="47.26172" lon="-2.3072">
        <ele>19.39999961853</ele>
        <time>2019-05-30T09:56:04.000Z</time>
      </trkpt>
      <trkpt lat="47.26158" lon="-2.30738">
        <ele>18.799999237061</ele>
        <time>2019-05-30T09:56:06.000Z</time>
      </trkpt>
      <trkpt lat="47.2615" lon="-2.30745">
        <ele>18.200000762939</ele>
        <time>2019-05-30T09:56:07.000Z</time>
      </trkpt>
      <trkpt lat="47.26141" lon="-2.30752">
        <ele>17.39999961853</ele>
        <time>2019-05-30T09:56:08.000Z</time>
      </trkpt>
      <trkpt lat="47.26132" lon="-2.30758">
        <ele>16.39999961853</ele>
        <time>2019-05-30T09:56:09.000Z</time>
      </trkpt>
      <trkpt lat="47.26123" lon="-2.30765">
        <ele>15.60000038147</ele>
        <time>2019-05-30T09:56:10.000Z</time>
      </trkpt>
      <trkpt lat="47.26114" lon="-2.30772">
        <ele>14.800000190735</ele>
        <time>2019-05-30T09:56:11.000Z</time>
      </trkpt>
      <trkpt lat="47.26106" lon="-2.30778">
        <ele>14</ele>
        <time>2019-05-30T09:56:12.000Z</time>
      </trkpt>
      <trkpt lat="47.26097" lon="-2.30785">
        <ele>12.39999961853</ele>
        <time>2019-05-30T09:56:13.000Z</time>
      </trkpt>
      <trkpt lat="47.26088" lon="-2.30791">
        <ele>11.800000190735</ele>
        <time>2019-05-30T09:56:14.000Z</time>
      </trkpt>
      <trkpt lat="47.2608" lon="-2.30796">
        <ele>11.199999809265</ele>
        <time>2019-05-30T09:56:15.000Z</time>
      </trkpt>
      <trkpt lat="47.26073" lon="-2.30802">
        <ele>10.60000038147</ele>
        <time>2019-05-30T09:56:16.000Z</time>
      </trkpt>
      <trkpt lat="47.26066" lon="-2.30807">
        <ele>10</ele>
        <time>2019-05-30T09:56:17.000Z</time>
      </trkpt>
      <trkpt lat="47.26059" lon="-2.30811">
        <ele>9.3999996185303</ele>
        <time>2019-05-30T09:56:18.000Z</time>
      </trkpt>
      <trkpt lat="47.26035" lon="-2.30834">
        <ele>9.3999996185303</ele>
        <time>2019-05-30T09:56:22.000Z</time>
      </trkpt>
      <trkpt lat="47.26007" lon="-2.30873">
        <ele>9.3999996185303</ele>
        <time>2019-05-30T09:56:28.000Z</time>
      </trkpt>
      <trkpt lat="47.25995" lon="-2.30896">
        <ele>9.8000001907349</ele>
        <time>2019-05-30T09:56:31.000Z</time>
      </trkpt>
      <trkpt lat="47.25991" lon="-2.30903">
        <ele>10.199999809265</ele>
        <time>2019-05-30T09:56:32.000Z</time>
      </trkpt>
      <trkpt lat="47.25987" lon="-2.3091">
        <ele>10.60000038147</ele>
        <time>2019-05-30T09:56:33.000Z</time>
      </trkpt>
      <trkpt lat="47.25983" lon="-2.30917">
        <ele>11</ele>
        <time>2019-05-30T09:56:34.000Z</time>
      </trkpt>
      <trkpt lat="47.25979" lon="-2.30924">
        <ele>11.39999961853</ele>
        <time>2019-05-30T09:56:35.000Z</time>
      </trkpt>
      <trkpt lat="47.25959" lon="-2.3096">
        <ele>11.39999961853</ele>
        <time>2019-05-30T09:56:40.000Z</time>
      </trkpt>
      <trkpt lat="47.25955" lon="-2.30966">
        <ele>12</ele>
        <time>2019-05-30T09:56:41.000Z</time>
      </trkpt>
      <trkpt lat="47.2595" lon="-2.30973">
        <ele>12.39999961853</ele>
        <time>2019-05-30T09:56:42.000Z</time>
      </trkpt>
      <trkpt lat="47.25946" lon="-2.30979">
        <ele>12.800000190735</ele>
        <time>2019-05-30T09:56:43.000Z</time>
      </trkpt>
      <trkpt lat="47.25942" lon="-2.30986">
        <ele>13.199999809265</ele>
        <time>2019-05-30T09:56:44.000Z</time>
      </trkpt>
      <trkpt lat="47.25937" lon="-2.30992">
        <ele>13.60000038147</ele>
        <time>2019-05-30T09:56:45.000Z</time>
      </trkpt>
      <trkpt lat="47.25932" lon="-2.30997">
        <ele>13.60000038147</ele>
        <time>2019-05-30T09:56:46.000Z</time>
      </trkpt>
      <trkpt lat="47.259" lon="-2.31028">
        <ele>13.60000038147</ele>
        <time>2019-05-30T09:56:52.000Z</time>
      </trkpt>
      <trkpt lat="47.25877" lon="-2.31049">
        <ele>13.60000038147</ele>
        <time>2019-05-30T09:56:56.000Z</time>
      </trkpt>
      <trkpt lat="47.25867" lon="-2.31059">
        <ele>13.60000038147</ele>
        <time>2019-05-30T09:56:58.000Z</time>
      </trkpt>
      <trkpt lat="47.25845" lon="-2.31079">
        <ele>13.199999809265</ele>
        <time>2019-05-30T09:57:02.000Z</time>
      </trkpt>
      <trkpt lat="47.25839" lon="-2.31084">
        <ele>12.39999961853</ele>
        <time>2019-05-30T09:57:03.000Z</time>
      </trkpt>
      <trkpt lat="47.25833" lon="-2.31089">
        <ele>12</ele>
        <time>2019-05-30T09:57:04.000Z</time>
      </trkpt>
      <trkpt lat="47.25828" lon="-2.31095">
        <ele>11.60000038147</ele>
        <time>2019-05-30T09:57:05.000Z</time>
      </trkpt>
      <trkpt lat="47.25801" lon="-2.31124">
        <ele>11.60000038147</ele>
        <time>2019-05-30T09:57:10.000Z</time>
      </trkpt>
      <trkpt lat="47.25792" lon="-2.31151">
        <ele>11.60000038147</ele>
        <time>2019-05-30T09:57:13.000Z</time>
      </trkpt>
      <trkpt lat="47.25793" lon="-2.31181">
        <ele>11.60000038147</ele>
        <time>2019-05-30T09:57:16.000Z</time>
      </trkpt>
      <trkpt lat="47.25802" lon="-2.3121">
        <ele>11</ele>
        <time>2019-05-30T09:57:19.000Z</time>
      </trkpt>
      <trkpt lat="47.25806" lon="-2.31219">
        <ele>10.60000038147</ele>
        <time>2019-05-30T09:57:20.000Z</time>
      </trkpt>
      <trkpt lat="47.25808" lon="-2.31229">
        <ele>10.199999809265</ele>
        <time>2019-05-30T09:57:21.000Z</time>
      </trkpt>
      <trkpt lat="47.25811" lon="-2.3124">
        <ele>9.8000001907349</ele>
        <time>2019-05-30T09:57:22.000Z</time>
      </trkpt>
      <trkpt lat="47.25814" lon="-2.31251">
        <ele>9.3999996185303</ele>
        <time>2019-05-30T09:57:23.000Z</time>
      </trkpt>
      <trkpt lat="47.25818" lon="-2.31283">
        <ele>9.3999996185303</ele>
        <time>2019-05-30T09:57:26.000Z</time>
      </trkpt>
      <trkpt lat="47.25818" lon="-2.31335">
        <ele>9</ele>
        <time>2019-05-30T09:57:31.000Z</time>
      </trkpt>
      <trkpt lat="47.25817" lon="-2.31345">
        <ele>8.3999996185303</ele>
        <time>2019-05-30T09:57:32.000Z</time>
      </trkpt>
      <trkpt lat="47.25816" lon="-2.31354">
        <ele>8</ele>
        <time>2019-05-30T09:57:33.000Z</time>
      </trkpt>
      <trkpt lat="47.25814" lon="-2.31363">
        <ele>7.5999999046326</ele>
        <time>2019-05-30T09:57:34.000Z</time>
      </trkpt>
      <trkpt lat="47.25811" lon="-2.31372">
        <ele>7.1999998092651</ele>
        <time>2019-05-30T09:57:35.000Z</time>
      </trkpt>
      <trkpt lat="47.25807" lon="-2.3138">
        <ele>7.1999998092651</ele>
        <time>2019-05-30T09:57:36.000Z</time>
      </trkpt>
      <trkpt lat="47.25798" lon="-2.31395">
        <ele>6.8000001907349</ele>
        <time>2019-05-30T09:57:38.000Z</time>
      </trkpt>
      <trkpt lat="47.25793" lon="-2.31401">
        <ele>6.1999998092651</ele>
        <time>2019-05-30T09:57:39.000Z</time>
      </trkpt>
      <trkpt lat="47.25789" lon="-2.31407">
        <ele>5.8000001907349</ele>
        <time>2019-05-30T09:57:40.000Z</time>
      </trkpt>
      <trkpt lat="47.25784" lon="-2.31413">
        <ele>5.4000000953674</ele>
        <time>2019-05-30T09:57:41.000Z</time>
      </trkpt>
      <trkpt lat="47.25779" lon="-2.31419">
        <ele>5</ele>
        <time>2019-05-30T09:57:42.000Z</time>
      </trkpt>
      <trkpt lat="47.25756" lon="-2.3145">
        <ele>5</ele>
        <time>2019-05-30T09:57:47.000Z</time>
      </trkpt>
      <trkpt lat="47.25731" lon="-2.31484">
        <ele>5.4000000953674</ele>
        <time>2019-05-30T09:57:53.000Z</time>
      </trkpt>
      <trkpt lat="47.25727" lon="-2.3149">
        <ele>5.8000001907349</ele>
        <time>2019-05-30T09:57:54.000Z</time>
      </trkpt>
      <trkpt lat="47.25722" lon="-2.31495">
        <ele>6.1999998092651</ele>
        <time>2019-05-30T09:57:55.000Z</time>
      </trkpt>
      <trkpt lat="47.25718" lon="-2.31501">
        <ele>6.5999999046326</ele>
        <time>2019-05-30T09:57:56.000Z</time>
      </trkpt>
      <trkpt lat="47.25715" lon="-2.31507">
        <ele>7</ele>
        <time>2019-05-30T09:57:57.000Z</time>
      </trkpt>
      <trkpt lat="47.25708" lon="-2.3152">
        <ele>7</ele>
        <time>2019-05-30T09:57:59.000Z</time>
      </trkpt>
      <trkpt lat="47.25701" lon="-2.31534">
        <ele>7</ele>
        <time>2019-05-30T09:58:01.000Z</time>
      </trkpt>
      <trkpt lat="47.25694" lon="-2.31555">
        <ele>7.4000000953674</ele>
        <time>2019-05-30T09:58:04.000Z</time>
      </trkpt>
      <trkpt lat="47.25692" lon="-2.31562">
        <ele>7.8000001907349</ele>
        <time>2019-05-30T09:58:05.000Z</time>
      </trkpt>
      <trkpt lat="47.2569" lon="-2.31569">
        <ele>8.1999998092651</ele>
        <time>2019-05-30T09:58:06.000Z</time>
      </trkpt>
      <trkpt lat="47.25688" lon="-2.31576">
        <ele>8.6000003814697</ele>
        <time>2019-05-30T09:58:07.000Z</time>
      </trkpt>
      <trkpt lat="47.25686" lon="-2.31584">
        <ele>9</ele>
        <time>2019-05-30T09:58:08.000Z</time>
      </trkpt>
      <trkpt lat="47.2568" lon="-2.31614">
        <ele>9</ele>
        <time>2019-05-30T09:58:12.000Z</time>
      </trkpt>
      <trkpt lat="47.25678" lon="-2.3162">
        <ele>9</ele>
        <time>2019-05-30T09:58:13.000Z</time>
      </trkpt>
      <trkpt lat="47.25672" lon="-2.31653">
        <ele>9</ele>
        <time>2019-05-30T09:58:18.000Z</time>
      </trkpt>
      <trkpt lat="47.25671" lon="-2.31661">
        <ele>9</ele>
        <time>2019-05-30T09:58:19.000Z</time>
      </trkpt>
      <trkpt lat="47.25671" lon="-2.31676">
        <ele>8.6000003814697</ele>
        <time>2019-05-30T09:58:21.000Z</time>
      </trkpt>
      <trkpt lat="47.25669" lon="-2.31683">
        <ele>8.1999998092651</ele>
        <time>2019-05-30T09:58:22.000Z</time>
      </trkpt>
      <trkpt lat="47.25666" lon="-2.31689">
        <ele>7.8000001907349</ele>
        <time>2019-05-30T09:58:23.000Z</time>
      </trkpt>
      <trkpt lat="47.25661" lon="-2.31692">
        <ele>7.4000000953674</ele>
        <time>2019-05-30T09:58:24.000Z</time>
      </trkpt>
      <trkpt lat="47.25657" lon="-2.31695">
        <ele>7</ele>
        <time>2019-05-30T09:58:25.000Z</time>
      </trkpt>
      <trkpt lat="47.25654" lon="-2.317">
        <ele>7</ele>
        <time>2019-05-30T09:58:26.000Z</time>
      </trkpt>
      <trkpt lat="47.2565" lon="-2.31704">
        <ele>7</ele>
        <time>2019-05-30T09:58:27.000Z</time>
      </trkpt>
      <trkpt lat="47.25646" lon="-2.31708">
        <ele>7</ele>
        <time>2019-05-30T09:58:28.000Z</time>
      </trkpt>
      <trkpt lat="47.25638" lon="-2.31717">
        <ele>7</ele>
        <time>2019-05-30T09:58:30.000Z</time>
      </trkpt>
      <trkpt lat="47.25634" lon="-2.31721">
        <ele>7</ele>
        <time>2019-05-30T09:58:31.000Z</time>
      </trkpt>
      <trkpt lat="47.25628" lon="-2.31741">
        <ele>7</ele>
        <time>2019-05-30T09:58:34.000Z</time>
      </trkpt>
      <trkpt lat="47.25626" lon="-2.31747">
        <ele>7.4000000953674</ele>
        <time>2019-05-30T09:58:35.000Z</time>
      </trkpt>
      <trkpt lat="47.25624" lon="-2.31754">
        <ele>8</ele>
        <time>2019-05-30T09:58:36.000Z</time>
      </trkpt>
      <trkpt lat="47.25621" lon="-2.31759">
        <ele>8.3999996185303</ele>
        <time>2019-05-30T09:58:37.000Z</time>
      </trkpt>
      <trkpt lat="47.25617" lon="-2.31764">
        <ele>8.8000001907349</ele>
        <time>2019-05-30T09:58:38.000Z</time>
      </trkpt>
      <trkpt lat="47.25613" lon="-2.31767">
        <ele>9.3999996185303</ele>
        <time>2019-05-30T09:58:39.000Z</time>
      </trkpt>
      <trkpt lat="47.25598" lon="-2.3177">
        <ele>9.3999996185303</ele>
        <time>2019-05-30T09:58:42.000Z</time>
      </trkpt>
      <trkpt lat="47.25593" lon="-2.31771">
        <ele>9.3999996185303</ele>
        <time>2019-05-30T09:58:43.000Z</time>
      </trkpt>
      <trkpt lat="47.25587" lon="-2.31772">
        <ele>9.3999996185303</ele>
        <time>2019-05-30T09:58:44.000Z</time>
      </trkpt>
      <trkpt lat="47.25573" lon="-2.31781">
        <ele>9.3999996185303</ele>
        <time>2019-05-30T09:58:47.000Z</time>
      </trkpt>
      <trkpt lat="47.25555" lon="-2.31801">
        <ele>9.3999996185303</ele>
        <time>2019-05-30T09:58:52.000Z</time>
      </trkpt>
      <trkpt lat="47.2555" lon="-2.31803">
        <ele>9.3999996185303</ele>
        <time>2019-05-30T09:58:53.000Z</time>
      </trkpt>
      <trkpt lat="47.25545" lon="-2.31804">
        <ele>9.8000001907349</ele>
        <time>2019-05-30T09:58:54.000Z</time>
      </trkpt>
      <trkpt lat="47.25542" lon="-2.31807">
        <ele>10.199999809265</ele>
        <time>2019-05-30T09:58:55.000Z</time>
      </trkpt>
      <trkpt lat="47.25538" lon="-2.31808">
        <ele>10.800000190735</ele>
        <time>2019-05-30T09:58:56.000Z</time>
      </trkpt>
      <trkpt lat="47.25534" lon="-2.3181">
        <ele>11.199999809265</ele>
        <time>2019-05-30T09:58:57.000Z</time>
      </trkpt>
      <trkpt lat="47.25531" lon="-2.31811">
        <ele>11.60000038147</ele>
        <time>2019-05-30T09:58:58.000Z</time>
      </trkpt>
      <trkpt lat="47.25519" lon="-2.31818">
        <ele>11.60000038147</ele>
        <time>2019-05-30T09:59:04.000Z</time>
      </trkpt>
      <trkpt lat="47.25518" lon="-2.31818">
        <ele>11.60000038147</ele>
        <time>2019-05-30T09:59:05.000Z</time>
      </trkpt>
      <trkpt lat="47.25515" lon="-2.31819">
        <ele>11.60000038147</ele>
        <time>2019-05-30T09:59:37.000Z</time>
      </trkpt>
      <trkpt lat="47.25513" lon="-2.31819">
        <ele>11.60000038147</ele>
        <time>2019-05-30T09:59:38.000Z</time>
      </trkpt>
      <trkpt lat="47.2551" lon="-2.3182">
        <ele>11.60000038147</ele>
        <time>2019-05-30T09:59:40.000Z</time>
      </trkpt>
      <trkpt lat="47.25502" lon="-2.31823">
        <ele>11.60000038147</ele>
        <time>2019-05-30T09:59:44.000Z</time>
      </trkpt>
      <trkpt lat="47.2549" lon="-2.31828">
        <ele>11.60000038147</ele>
        <time>2019-05-30T09:59:49.000Z</time>
      </trkpt>
      <trkpt lat="47.25475" lon="-2.31838">
        <ele>11.60000038147</ele>
        <time>2019-05-30T09:59:55.000Z</time>
      </trkpt>
      <trkpt lat="47.2546" lon="-2.31846">
        <ele>11.60000038147</ele>
        <time>2019-05-30T10:00:00.000Z</time>
      </trkpt>
      <trkpt lat="47.25455" lon="-2.31833">
        <ele>11.60000038147</ele>
        <time>2019-05-30T10:00:03.000Z</time>
      </trkpt>
      <trkpt lat="47.25451" lon="-2.31823">
        <ele>11.60000038147</ele>
        <time>2019-05-30T10:00:05.000Z</time>
      </trkpt>
      <trkpt lat="47.25449" lon="-2.31807">
        <ele>11.60000038147</ele>
        <time>2019-05-30T10:00:08.000Z</time>
      </trkpt>
      <trkpt lat="47.25442" lon="-2.31776">
        <ele>11.60000038147</ele>
        <time>2019-05-30T10:00:14.000Z</time>
      </trkpt>
      <trkpt lat="47.25433" lon="-2.31747">
        <ele>11.60000038147</ele>
        <time>2019-05-30T10:00:20.000Z</time>
      </trkpt>
      <trkpt lat="47.25422" lon="-2.31715">
        <ele>12</ele>
        <time>2019-05-30T10:00:26.000Z</time>
      </trkpt>
      <trkpt lat="47.2542" lon="-2.3171">
        <ele>12.60000038147</ele>
        <time>2019-05-30T10:00:27.000Z</time>
      </trkpt>
      <trkpt lat="47.25418" lon="-2.31704">
        <ele>13</ele>
        <time>2019-05-30T10:00:28.000Z</time>
      </trkpt>
      <trkpt lat="47.25416" lon="-2.31699">
        <ele>13.39999961853</ele>
        <time>2019-05-30T10:00:29.000Z</time>
      </trkpt>
      <trkpt lat="47.25414" lon="-2.31693">
        <ele>13.800000190735</ele>
        <time>2019-05-30T10:00:30.000Z</time>
      </trkpt>
      <trkpt lat="47.25409" lon="-2.31681">
        <ele>13.800000190735</ele>
        <time>2019-05-30T10:00:32.000Z</time>
      </trkpt>
      <trkpt lat="47.25406" lon="-2.31676">
        <ele>13.800000190735</ele>
        <time>2019-05-30T10:00:33.000Z</time>
      </trkpt>
      <trkpt lat="47.25393" lon="-2.31645">
        <ele>13.800000190735</ele>
        <time>2019-05-30T10:00:39.000Z</time>
      </trkpt>
      <trkpt lat="47.25381" lon="-2.31627">
        <ele>13.800000190735</ele>
        <time>2019-05-30T10:00:45.000Z</time>
      </trkpt>
      <trkpt lat="47.25367" lon="-2.31603">
        <ele>13.800000190735</ele>
        <time>2019-05-30T10:00:51.000Z</time>
      </trkpt>
      <trkpt lat="47.25353" lon="-2.31578">
        <ele>14.199999809265</ele>
        <time>2019-05-30T10:00:56.000Z</time>
      </trkpt>
      <trkpt lat="47.2535" lon="-2.31573">
        <ele>14.60000038147</ele>
        <time>2019-05-30T10:00:57.000Z</time>
      </trkpt>
      <trkpt lat="47.25347" lon="-2.31569">
        <ele>15</ele>
        <time>2019-05-30T10:00:58.000Z</time>
      </trkpt>
      <trkpt lat="47.25345" lon="-2.31563">
        <ele>15.39999961853</ele>
        <time>2019-05-30T10:00:59.000Z</time>
      </trkpt>
      <trkpt lat="47.25342" lon="-2.31558">
        <ele>15.800000190735</ele>
        <time>2019-05-30T10:01:00.000Z</time>
      </trkpt>
      <trkpt lat="47.25336" lon="-2.3154">
        <ele>15.800000190735</ele>
        <time>2019-05-30T10:01:03.000Z</time>
      </trkpt>
      <trkpt lat="47.25328" lon="-2.31503">
        <ele>15.800000190735</ele>
        <time>2019-05-30T10:01:09.000Z</time>
      </trkpt>
      <trkpt lat="47.25327" lon="-2.31497">
        <ele>15.800000190735</ele>
        <time>2019-05-30T10:01:10.000Z</time>
      </trkpt>
      <trkpt lat="47.25321" lon="-2.31451">
        <ele>16.200000762939</ele>
        <time>2019-05-30T10:01:17.000Z</time>
      </trkpt>
      <trkpt lat="47.25319" lon="-2.31444">
        <ele>16.60000038147</ele>
        <time>2019-05-30T10:01:18.000Z</time>
      </trkpt>
      <trkpt lat="47.25316" lon="-2.31439">
        <ele>17</ele>
        <time>2019-05-30T10:01:19.000Z</time>
      </trkpt>
      <trkpt lat="47.25313" lon="-2.31434">
        <ele>17.60000038147</ele>
        <time>2019-05-30T10:01:20.000Z</time>
      </trkpt>
      <trkpt lat="47.25309" lon="-2.31431">
        <ele>18</ele>
        <time>2019-05-30T10:01:21.000Z</time>
      </trkpt>
      <trkpt lat="47.25289" lon="-2.31433">
        <ele>18</ele>
        <time>2019-05-30T10:01:25.000Z</time>
      </trkpt>
      <trkpt lat="47.2528" lon="-2.31437">
        <ele>18</ele>
        <time>2019-05-30T10:01:27.000Z</time>
      </trkpt>
      <trkpt lat="47.25256" lon="-2.31447">
        <ele>18.39999961853</ele>
        <time>2019-05-30T10:01:32.000Z</time>
      </trkpt>
      <trkpt lat="47.25252" lon="-2.31449">
        <ele>18.799999237061</ele>
        <time>2019-05-30T10:01:33.000Z</time>
      </trkpt>
      <trkpt lat="47.25248" lon="-2.31452">
        <ele>19.200000762939</ele>
        <time>2019-05-30T10:01:34.000Z</time>
      </trkpt>
      <trkpt lat="47.25243" lon="-2.31455">
        <ele>20.200000762939</ele>
        <time>2019-05-30T10:01:35.000Z</time>
      </trkpt>
      <trkpt lat="47.25227" lon="-2.31467">
        <ele>20.200000762939</ele>
        <time>2019-05-30T10:01:39.000Z</time>
      </trkpt>
      <trkpt lat="47.25208" lon="-2.31487">
        <ele>20.200000762939</ele>
        <time>2019-05-30T10:01:45.000Z</time>
      </trkpt>
      <trkpt lat="47.25199" lon="-2.31493">
        <ele>20.200000762939</ele>
        <time>2019-05-30T10:01:49.000Z</time>
      </trkpt>
      <trkpt lat="47.25196" lon="-2.3149">
        <ele>20.200000762939</ele>
        <time>2019-05-30T10:01:51.000Z</time>
      </trkpt>
      <trkpt lat="47.25195" lon="-2.31486">
        <ele>20.200000762939</ele>
        <time>2019-05-30T10:01:53.000Z</time>
      </trkpt>
      <trkpt lat="47.25194" lon="-2.31481">
        <ele>20.200000762939</ele>
        <time>2019-05-30T10:01:55.000Z</time>
      </trkpt>
      <trkpt lat="47.25197" lon="-2.31475">
        <ele>20.200000762939</ele>
        <time>2019-05-30T10:01:58.000Z</time>
      </trkpt>
      <trkpt lat="47.25203" lon="-2.3148">
        <ele>20.200000762939</ele>
        <time>2019-05-30T10:02:02.000Z</time>
      </trkpt>
      <trkpt lat="47.252" lon="-2.3149">
        <ele>20.200000762939</ele>
        <time>2019-05-30T10:02:06.000Z</time>
      </trkpt>
      <trkpt lat="47.25196" lon="-2.31492">
        <ele>20.200000762939</ele>
        <time>2019-05-30T10:02:08.000Z</time>
      </trkpt>
      <trkpt lat="47.25191" lon="-2.31498">
        <ele>20.200000762939</ele>
        <time>2019-05-30T10:02:11.000Z</time>
      </trkpt>
      <trkpt lat="47.25179" lon="-2.31516">
        <ele>20.200000762939</ele>
        <time>2019-05-30T10:02:18.000Z</time>
      </trkpt>
      <trkpt lat="47.25162" lon="-2.31538">
        <ele>20.200000762939</ele>
        <time>2019-05-30T10:02:25.000Z</time>
      </trkpt>
      <trkpt lat="47.25147" lon="-2.31556">
        <ele>20.200000762939</ele>
        <time>2019-05-30T10:02:32.000Z</time>
      </trkpt>
      <trkpt lat="47.25131" lon="-2.3157">
        <ele>20.200000762939</ele>
        <time>2019-05-30T10:02:39.000Z</time>
      </trkpt>
      <trkpt lat="47.25112" lon="-2.31583">
        <ele>20.200000762939</ele>
        <time>2019-05-30T10:02:46.000Z</time>
      </trkpt>
      <trkpt lat="47.25101" lon="-2.31589">
        <ele>20.200000762939</ele>
        <time>2019-05-30T10:02:52.000Z</time>
      </trkpt>
      <trkpt lat="47.25091" lon="-2.31579">
        <ele>20.200000762939</ele>
        <time>2019-05-30T10:02:56.000Z</time>
      </trkpt>
      <trkpt lat="47.25083" lon="-2.31554">
        <ele>20.200000762939</ele>
        <time>2019-05-30T10:03:01.000Z</time>
      </trkpt>
      <trkpt lat="47.25078" lon="-2.31538">
        <ele>20.200000762939</ele>
        <time>2019-05-30T10:03:04.000Z</time>
      </trkpt>
      <trkpt lat="47.25073" lon="-2.31521">
        <ele>20.200000762939</ele>
        <time>2019-05-30T10:03:07.000Z</time>
      </trkpt>
      <trkpt lat="47.25072" lon="-2.31516">
        <ele>20.200000762939</ele>
        <time>2019-05-30T10:03:08.000Z</time>
      </trkpt>
      <trkpt lat="47.25065" lon="-2.31492">
        <ele>20.200000762939</ele>
        <time>2019-05-30T10:03:12.000Z</time>
      </trkpt>
      <trkpt lat="47.25063" lon="-2.31487">
        <ele>20.200000762939</ele>
        <time>2019-05-30T10:03:13.000Z</time>
      </trkpt>
      <trkpt lat="47.25058" lon="-2.31467">
        <ele>20.200000762939</ele>
        <time>2019-05-30T10:03:17.000Z</time>
      </trkpt>
      <trkpt lat="47.25051" lon="-2.31445">
        <ele>20.200000762939</ele>
        <time>2019-05-30T10:03:23.000Z</time>
      </trkpt>
      <trkpt lat="47.25045" lon="-2.31425">
        <ele>20.60000038147</ele>
        <time>2019-05-30T10:03:28.000Z</time>
      </trkpt>
      <trkpt lat="47.25043" lon="-2.31421">
        <ele>21</ele>
        <time>2019-05-30T10:03:29.000Z</time>
      </trkpt>
      <trkpt lat="47.25042" lon="-2.31417">
        <ele>21.39999961853</ele>
        <time>2019-05-30T10:03:30.000Z</time>
      </trkpt>
      <trkpt lat="47.2504" lon="-2.31412">
        <ele>21.799999237061</ele>
        <time>2019-05-30T10:03:31.000Z</time>
      </trkpt>
      <trkpt lat="47.25039" lon="-2.31408">
        <ele>22.200000762939</ele>
        <time>2019-05-30T10:03:32.000Z</time>
      </trkpt>
      <trkpt lat="47.25034" lon="-2.31392">
        <ele>22.200000762939</ele>
        <time>2019-05-30T10:03:35.000Z</time>
      </trkpt>
      <trkpt lat="47.25031" lon="-2.31382">
        <ele>22.200000762939</ele>
        <time>2019-05-30T10:03:37.000Z</time>
      </trkpt>
      <trkpt lat="47.25028" lon="-2.3137">
        <ele>22.200000762939</ele>
        <time>2019-05-30T10:03:39.000Z</time>
      </trkpt>
      <trkpt lat="47.25026" lon="-2.31364">
        <ele>22.200000762939</ele>
        <time>2019-05-30T10:03:40.000Z</time>
      </trkpt>
      <trkpt lat="47.25022" lon="-2.31347">
        <ele>22.200000762939</ele>
        <time>2019-05-30T10:03:43.000Z</time>
      </trkpt>
      <trkpt lat="47.25018" lon="-2.31328">
        <ele>22.200000762939</ele>
        <time>2019-05-30T10:03:46.000Z</time>
      </trkpt>
      <trkpt lat="47.25015" lon="-2.31303">
        <ele>22.200000762939</ele>
        <time>2019-05-30T10:03:50.000Z</time>
      </trkpt>
      <trkpt lat="47.25014" lon="-2.31288">
        <ele>22.200000762939</ele>
        <time>2019-05-30T10:03:52.000Z</time>
      </trkpt>
      <trkpt lat="47.25019" lon="-2.31239">
        <ele>22.200000762939</ele>
        <time>2019-05-30T10:03:59.000Z</time>
      </trkpt>
      <trkpt lat="47.25024" lon="-2.31203">
        <ele>22.200000762939</ele>
        <time>2019-05-30T10:04:04.000Z</time>
      </trkpt>
      <trkpt lat="47.25024" lon="-2.31189">
        <ele>22.200000762939</ele>
        <time>2019-05-30T10:04:06.000Z</time>
      </trkpt>
      <trkpt lat="47.25024" lon="-2.31144">
        <ele>22.200000762939</ele>
        <time>2019-05-30T10:04:12.000Z</time>
      </trkpt>
      <trkpt lat="47.25022" lon="-2.31129">
        <ele>22.200000762939</ele>
        <time>2019-05-30T10:04:14.000Z</time>
      </trkpt>
      <trkpt lat="47.25015" lon="-2.311">
        <ele>22.200000762939</ele>
        <time>2019-05-30T10:04:18.000Z</time>
      </trkpt>
      <trkpt lat="47.25003" lon="-2.3105">
        <ele>22.200000762939</ele>
        <time>2019-05-30T10:04:25.000Z</time>
      </trkpt>
      <trkpt lat="47.24992" lon="-2.31007">
        <ele>22.200000762939</ele>
        <time>2019-05-30T10:04:31.000Z</time>
      </trkpt>
      <trkpt lat="47.24981" lon="-2.30965">
        <ele>22.200000762939</ele>
        <time>2019-05-30T10:04:37.000Z</time>
      </trkpt>
      <trkpt lat="47.24978" lon="-2.30959">
        <ele>22.200000762939</ele>
        <time>2019-05-30T10:04:38.000Z</time>
      </trkpt>
      <trkpt lat="47.24965" lon="-2.30911">
        <ele>22.200000762939</ele>
        <time>2019-05-30T10:04:45.000Z</time>
      </trkpt>
      <trkpt lat="47.24963" lon="-2.30904">
        <ele>22.60000038147</ele>
        <time>2019-05-30T10:04:46.000Z</time>
      </trkpt>
      <trkpt lat="47.24961" lon="-2.30897">
        <ele>23</ele>
        <time>2019-05-30T10:04:47.000Z</time>
      </trkpt>
      <trkpt lat="47.24958" lon="-2.30891">
        <ele>23.39999961853</ele>
        <time>2019-05-30T10:04:48.000Z</time>
      </trkpt>
      <trkpt lat="47.24956" lon="-2.30884">
        <ele>23.799999237061</ele>
        <time>2019-05-30T10:04:49.000Z</time>
      </trkpt>
      <trkpt lat="47.24954" lon="-2.30878">
        <ele>24.200000762939</ele>
        <time>2019-05-30T10:04:50.000Z</time>
      </trkpt>
      <trkpt lat="47.24949" lon="-2.30859">
        <ele>24.200000762939</ele>
        <time>2019-05-30T10:04:53.000Z</time>
      </trkpt>
      <trkpt lat="47.24945" lon="-2.30846">
        <ele>24.200000762939</ele>
        <time>2019-05-30T10:04:55.000Z</time>
      </trkpt>
      <trkpt lat="47.24935" lon="-2.30831">
        <ele>24.200000762939</ele>
        <time>2019-05-30T10:04:58.000Z</time>
      </trkpt>
      <trkpt lat="47.24921" lon="-2.30803">
        <ele>24.200000762939</ele>
        <time>2019-05-30T10:05:03.000Z</time>
      </trkpt>
      <trkpt lat="47.24916" lon="-2.30792">
        <ele>24.200000762939</ele>
        <time>2019-05-30T10:05:05.000Z</time>
      </trkpt>
      <trkpt lat="47.24912" lon="-2.3078">
        <ele>24.60000038147</ele>
        <time>2019-05-30T10:05:07.000Z</time>
      </trkpt>
      <trkpt lat="47.24909" lon="-2.30776">
        <ele>25</ele>
        <time>2019-05-30T10:05:08.000Z</time>
      </trkpt>
      <trkpt lat="47.24905" lon="-2.30773">
        <ele>25.39999961853</ele>
        <time>2019-05-30T10:05:09.000Z</time>
      </trkpt>
      <trkpt lat="47.249" lon="-2.30772">
        <ele>26</ele>
        <time>2019-05-30T10:05:10.000Z</time>
      </trkpt>
      <trkpt lat="47.24896" lon="-2.30771">
        <ele>26.39999961853</ele>
        <time>2019-05-30T10:05:11.000Z</time>
      </trkpt>
      <trkpt lat="47.24886" lon="-2.30771">
        <ele>26.39999961853</ele>
        <time>2019-05-30T10:05:13.000Z</time>
      </trkpt>
      <trkpt lat="47.24876" lon="-2.30771">
        <ele>26.39999961853</ele>
        <time>2019-05-30T10:05:15.000Z</time>
      </trkpt>
      <trkpt lat="47.24842" lon="-2.30771">
        <ele>26.39999961853</ele>
        <time>2019-05-30T10:05:22.000Z</time>
      </trkpt>
      <trkpt lat="47.24804" lon="-2.30758">
        <ele>26.39999961853</ele>
        <time>2019-05-30T10:05:29.000Z</time>
      </trkpt>
      <trkpt lat="47.24784" lon="-2.30749">
        <ele>26.39999961853</ele>
        <time>2019-05-30T10:05:33.000Z</time>
      </trkpt>
      <trkpt lat="47.24779" lon="-2.30747">
        <ele>26.39999961853</ele>
        <time>2019-05-30T10:05:34.000Z</time>
      </trkpt>
      <trkpt lat="47.2477" lon="-2.30741">
        <ele>26.39999961853</ele>
        <time>2019-05-30T10:05:36.000Z</time>
      </trkpt>
      <trkpt lat="47.24758" lon="-2.3073">
        <ele>26.39999961853</ele>
        <time>2019-05-30T10:05:39.000Z</time>
      </trkpt>
      <trkpt lat="47.24738" lon="-2.30713">
        <ele>26.39999961853</ele>
        <time>2019-05-30T10:05:45.000Z</time>
      </trkpt>
      <trkpt lat="47.24723" lon="-2.30701">
        <ele>26.39999961853</ele>
        <time>2019-05-30T10:05:51.000Z</time>
      </trkpt>
      <trkpt lat="47.24721" lon="-2.30702">
        <ele>26.39999961853</ele>
        <time>2019-05-30T10:05:52.000Z</time>
      </trkpt>
      <trkpt lat="47.24721" lon="-2.30702">
        <ele>26.39999961853</ele>
        <time>2019-05-30T10:05:54.000Z</time>
      </trkpt>
      <trkpt lat="47.2472" lon="-2.30713">
        <ele>26.39999961853</ele>
        <time>2019-05-30T10:06:03.000Z</time>
      </trkpt>
      <trkpt lat="47.2472" lon="-2.30719">
        <ele>26.39999961853</ele>
        <time>2019-05-30T10:06:05.000Z</time>
      </trkpt>
      <trkpt lat="47.2472" lon="-2.30735">
        <ele>26</ele>
        <time>2019-05-30T10:06:10.000Z</time>
      </trkpt>
      <trkpt lat="47.2472" lon="-2.30737">
        <ele>25.60000038147</ele>
        <time>2019-05-30T10:06:11.000Z</time>
      </trkpt>
      <trkpt lat="47.2472" lon="-2.30738">
        <ele>25</ele>
        <time>2019-05-30T10:06:12.000Z</time>
      </trkpt>
      <trkpt lat="47.24721" lon="-2.3074">
        <ele>24.60000038147</ele>
        <time>2019-05-30T10:06:13.000Z</time>
      </trkpt>
      <trkpt lat="47.2472" lon="-2.3074">
        <ele>24.200000762939</ele>
        <time>2019-05-30T10:06:14.000Z</time>
      </trkpt>
      <trkpt lat="47.2472" lon="-2.3074">
        <ele>24.200000762939</ele>
        <time>2019-05-30T10:06:15.000Z</time>
      </trkpt>
      <trkpt lat="47.2472" lon="-2.30744">
        <ele>24.200000762939</ele>
        <time>2019-05-30T10:06:21.000Z</time>
      </trkpt>
      <trkpt lat="47.24719" lon="-2.30746">
        <ele>24.200000762939</ele>
        <time>2019-05-30T10:06:22.000Z</time>
      </trkpt>
      <trkpt lat="47.24717" lon="-2.30747">
        <ele>24.200000762939</ele>
        <time>2019-05-30T10:06:23.000Z</time>
      </trkpt>
      <trkpt lat="47.24716" lon="-2.30746">
        <ele>24.200000762939</ele>
        <time>2019-05-30T10:06:26.000Z</time>
      </trkpt>
      <trkpt lat="47.2472" lon="-2.30735">
        <ele>20.200000762939</ele>
        <time>2019-05-30T11:08:04.000Z</time>
      </trkpt>
      <trkpt lat="47.24719" lon="-2.30713">
        <ele>20.200000762939</ele>
        <time>2019-05-30T11:08:11.000Z</time>
      </trkpt>
      <trkpt lat="47.24719" lon="-2.30703">
        <ele>20.200000762939</ele>
        <time>2019-05-30T11:08:15.000Z</time>
      </trkpt>
      <trkpt lat="47.2472" lon="-2.30702">
        <ele>20.200000762939</ele>
        <time>2019-05-30T11:08:16.000Z</time>
      </trkpt>
      <trkpt lat="47.24724" lon="-2.30702">
        <ele>20.200000762939</ele>
        <time>2019-05-30T11:08:18.000Z</time>
      </trkpt>
      <trkpt lat="47.24731" lon="-2.30708">
        <ele>20.200000762939</ele>
        <time>2019-05-30T11:08:20.000Z</time>
      </trkpt>
      <trkpt lat="47.24755" lon="-2.30724">
        <ele>20.200000762939</ele>
        <time>2019-05-30T11:08:25.000Z</time>
      </trkpt>
      <trkpt lat="47.24777" lon="-2.30741">
        <ele>20.200000762939</ele>
        <time>2019-05-30T11:08:30.000Z</time>
      </trkpt>
      <trkpt lat="47.24787" lon="-2.30746">
        <ele>20.200000762939</ele>
        <time>2019-05-30T11:08:32.000Z</time>
      </trkpt>
      <trkpt lat="47.2481" lon="-2.30757">
        <ele>20.200000762939</ele>
        <time>2019-05-30T11:08:37.000Z</time>
      </trkpt>
      <trkpt lat="47.24844" lon="-2.30767">
        <ele>20.60000038147</ele>
        <time>2019-05-30T11:08:44.000Z</time>
      </trkpt>
      <trkpt lat="47.24849" lon="-2.30768">
        <ele>21</ele>
        <time>2019-05-30T11:08:45.000Z</time>
      </trkpt>
      <trkpt lat="47.24854" lon="-2.30769">
        <ele>21.39999961853</ele>
        <time>2019-05-30T11:08:46.000Z</time>
      </trkpt>
      <trkpt lat="47.24859" lon="-2.3077">
        <ele>21.799999237061</ele>
        <time>2019-05-30T11:08:47.000Z</time>
      </trkpt>
      <trkpt lat="47.24864" lon="-2.3077">
        <ele>22.200000762939</ele>
        <time>2019-05-30T11:08:48.000Z</time>
      </trkpt>
      <trkpt lat="47.24887" lon="-2.30771">
        <ele>22.200000762939</ele>
        <time>2019-05-30T11:08:53.000Z</time>
      </trkpt>
      <trkpt lat="47.24896" lon="-2.3077">
        <ele>22.200000762939</ele>
        <time>2019-05-30T11:08:55.000Z</time>
      </trkpt>
      <trkpt lat="47.24904" lon="-2.30768">
        <ele>22.200000762939</ele>
        <time>2019-05-30T11:08:58.000Z</time>
      </trkpt>
      <trkpt lat="47.2491" lon="-2.30766">
        <ele>22.200000762939</ele>
        <time>2019-05-30T11:09:01.000Z</time>
      </trkpt>
      <trkpt lat="47.24912" lon="-2.30768">
        <ele>22.200000762939</ele>
        <time>2019-05-30T11:09:02.000Z</time>
      </trkpt>
      <trkpt lat="47.24922" lon="-2.30788">
        <ele>22.200000762939</ele>
        <time>2019-05-30T11:09:06.000Z</time>
      </trkpt>
      <trkpt lat="47.24933" lon="-2.30812">
        <ele>22.200000762939</ele>
        <time>2019-05-30T11:09:10.000Z</time>
      </trkpt>
      <trkpt lat="47.24944" lon="-2.30831">
        <ele>22.200000762939</ele>
        <time>2019-05-30T11:09:13.000Z</time>
      </trkpt>
      <trkpt lat="47.24951" lon="-2.30843">
        <ele>22.200000762939</ele>
        <time>2019-05-30T11:09:15.000Z</time>
      </trkpt>
      <trkpt lat="47.24958" lon="-2.30865">
        <ele>22.200000762939</ele>
        <time>2019-05-30T11:09:18.000Z</time>
      </trkpt>
      <trkpt lat="47.24965" lon="-2.30888">
        <ele>22.200000762939</ele>
        <time>2019-05-30T11:09:21.000Z</time>
      </trkpt>
      <trkpt lat="47.24973" lon="-2.30919">
        <ele>22.200000762939</ele>
        <time>2019-05-30T11:09:25.000Z</time>
      </trkpt>
      <trkpt lat="47.24987" lon="-2.30974">
        <ele>22.200000762939</ele>
        <time>2019-05-30T11:09:32.000Z</time>
      </trkpt>
      <trkpt lat="47.25001" lon="-2.31032">
        <ele>21.799999237061</ele>
        <time>2019-05-30T11:09:39.000Z</time>
      </trkpt>
      <trkpt lat="47.25003" lon="-2.31039">
        <ele>21.39999961853</ele>
        <time>2019-05-30T11:09:40.000Z</time>
      </trkpt>
      <trkpt lat="47.25006" lon="-2.31048">
        <ele>20.799999237061</ele>
        <time>2019-05-30T11:09:41.000Z</time>
      </trkpt>
      <trkpt lat="47.25008" lon="-2.31056">
        <ele>20.39999961853</ele>
        <time>2019-05-30T11:09:42.000Z</time>
      </trkpt>
      <trkpt lat="47.2501" lon="-2.31064">
        <ele>20</ele>
        <time>2019-05-30T11:09:43.000Z</time>
      </trkpt>
      <trkpt lat="47.25018" lon="-2.31097">
        <ele>20</ele>
        <time>2019-05-30T11:09:47.000Z</time>
      </trkpt>
      <trkpt lat="47.25029" lon="-2.31144">
        <ele>20</ele>
        <time>2019-05-30T11:09:53.000Z</time>
      </trkpt>
      <trkpt lat="47.25031" lon="-2.31161">
        <ele>20</ele>
        <time>2019-05-30T11:09:55.000Z</time>
      </trkpt>
      <trkpt lat="47.25032" lon="-2.31194">
        <ele>20</ele>
        <time>2019-05-30T11:09:59.000Z</time>
      </trkpt>
      <trkpt lat="47.25033" lon="-2.31208">
        <ele>20</ele>
        <time>2019-05-30T11:10:01.000Z</time>
      </trkpt>
      <trkpt lat="47.25032" lon="-2.31223">
        <ele>20</ele>
        <time>2019-05-30T11:10:03.000Z</time>
      </trkpt>
      <trkpt lat="47.25027" lon="-2.31237">
        <ele>20</ele>
        <time>2019-05-30T11:10:05.000Z</time>
      </trkpt>
      <trkpt lat="47.25025" lon="-2.31245">
        <ele>20</ele>
        <time>2019-05-30T11:10:06.000Z</time>
      </trkpt>
      <trkpt lat="47.25023" lon="-2.31253">
        <ele>20</ele>
        <time>2019-05-30T11:10:07.000Z</time>
      </trkpt>
      <trkpt lat="47.25021" lon="-2.31268">
        <ele>20</ele>
        <time>2019-05-30T11:10:09.000Z</time>
      </trkpt>
      <trkpt lat="47.2502" lon="-2.31301">
        <ele>20</ele>
        <time>2019-05-30T11:10:13.000Z</time>
      </trkpt>
      <trkpt lat="47.25023" lon="-2.31339">
        <ele>20</ele>
        <time>2019-05-30T11:10:18.000Z</time>
      </trkpt>
      <trkpt lat="47.25035" lon="-2.31386">
        <ele>20</ele>
        <time>2019-05-30T11:10:24.000Z</time>
      </trkpt>
      <trkpt lat="47.2505" lon="-2.31429">
        <ele>20</ele>
        <time>2019-05-30T11:10:30.000Z</time>
      </trkpt>
      <trkpt lat="47.25061" lon="-2.31463">
        <ele>20</ele>
        <time>2019-05-30T11:10:36.000Z</time>
      </trkpt>
      <trkpt lat="47.25075" lon="-2.31508">
        <ele>20</ele>
        <time>2019-05-30T11:10:42.000Z</time>
      </trkpt>
      <trkpt lat="47.25089" lon="-2.31562">
        <ele>20</ele>
        <time>2019-05-30T11:10:49.000Z</time>
      </trkpt>
      <trkpt lat="47.25091" lon="-2.31569">
        <ele>19.39999961853</ele>
        <time>2019-05-30T11:10:50.000Z</time>
      </trkpt>
      <trkpt lat="47.25093" lon="-2.31575">
        <ele>19</ele>
        <time>2019-05-30T11:10:51.000Z</time>
      </trkpt>
      <trkpt lat="47.25096" lon="-2.31581">
        <ele>18.60000038147</ele>
        <time>2019-05-30T11:10:52.000Z</time>
      </trkpt>
      <trkpt lat="47.25101" lon="-2.31583">
        <ele>18.200000762939</ele>
        <time>2019-05-30T11:10:53.000Z</time>
      </trkpt>
      <trkpt lat="47.25106" lon="-2.31581">
        <ele>17.60000038147</ele>
        <time>2019-05-30T11:10:54.000Z</time>
      </trkpt>
      <trkpt lat="47.25111" lon="-2.31578">
        <ele>17.60000038147</ele>
        <time>2019-05-30T11:10:55.000Z</time>
      </trkpt>
      <trkpt lat="47.25138" lon="-2.31555">
        <ele>17.60000038147</ele>
        <time>2019-05-30T11:11:00.000Z</time>
      </trkpt>
      <trkpt lat="47.25148" lon="-2.31544">
        <ele>17.60000038147</ele>
        <time>2019-05-30T11:11:02.000Z</time>
      </trkpt>
      <trkpt lat="47.25168" lon="-2.3152">
        <ele>17.60000038147</ele>
        <time>2019-05-30T11:11:06.000Z</time>
      </trkpt>
      <trkpt lat="47.25185" lon="-2.31496">
        <ele>17.200000762939</ele>
        <time>2019-05-30T11:11:10.000Z</time>
      </trkpt>
      <trkpt lat="47.25189" lon="-2.31488">
        <ele>16.799999237061</ele>
        <time>2019-05-30T11:11:11.000Z</time>
      </trkpt>
      <trkpt lat="47.25192" lon="-2.31481">
        <ele>16</ele>
        <time>2019-05-30T11:11:12.000Z</time>
      </trkpt>
      <trkpt lat="47.25196" lon="-2.31475">
        <ele>15.60000038147</ele>
        <time>2019-05-30T11:11:13.000Z</time>
      </trkpt>
      <trkpt lat="47.25207" lon="-2.31468">
        <ele>15.60000038147</ele>
        <time>2019-05-30T11:11:15.000Z</time>
      </trkpt>
      <trkpt lat="47.25213" lon="-2.31465">
        <ele>15.60000038147</ele>
        <time>2019-05-30T11:11:16.000Z</time>
      </trkpt>
      <trkpt lat="47.25232" lon="-2.31454">
        <ele>15.60000038147</ele>
        <time>2019-05-30T11:11:19.000Z</time>
      </trkpt>
      <trkpt lat="47.25239" lon="-2.3145">
        <ele>15.60000038147</ele>
        <time>2019-05-30T11:11:20.000Z</time>
      </trkpt>
      <trkpt lat="47.25271" lon="-2.31434">
        <ele>15.60000038147</ele>
        <time>2019-05-30T11:11:25.000Z</time>
      </trkpt>
      <trkpt lat="47.25285" lon="-2.3143">
        <ele>15.60000038147</ele>
        <time>2019-05-30T11:11:27.000Z</time>
      </trkpt>
      <trkpt lat="47.25312" lon="-2.3142">
        <ele>15.60000038147</ele>
        <time>2019-05-30T11:11:32.000Z</time>
      </trkpt>
      <trkpt lat="47.25317" lon="-2.31416">
        <ele>15.60000038147</ele>
        <time>2019-05-30T11:11:33.000Z</time>
      </trkpt>
      <trkpt lat="47.25332" lon="-2.31411">
        <ele>15.60000038147</ele>
        <time>2019-05-30T11:11:36.000Z</time>
      </trkpt>
      <trkpt lat="47.25336" lon="-2.31423">
        <ele>15.60000038147</ele>
        <time>2019-05-30T11:11:38.000Z</time>
      </trkpt>
      <trkpt lat="47.25331" lon="-2.31447">
        <ele>15.60000038147</ele>
        <time>2019-05-30T11:11:41.000Z</time>
      </trkpt>
      <trkpt lat="47.25328" lon="-2.31464">
        <ele>15.60000038147</ele>
        <time>2019-05-30T11:11:43.000Z</time>
      </trkpt>
      <trkpt lat="47.25329" lon="-2.31491">
        <ele>15.60000038147</ele>
        <time>2019-05-30T11:11:46.000Z</time>
      </trkpt>
      <trkpt lat="47.2533" lon="-2.315">
        <ele>15.60000038147</ele>
        <time>2019-05-30T11:11:47.000Z</time>
      </trkpt>
      <trkpt lat="47.2534" lon="-2.31545">
        <ele>15.60000038147</ele>
        <time>2019-05-30T11:11:52.000Z</time>
      </trkpt>
      <trkpt lat="47.2535" lon="-2.31569">
        <ele>15.60000038147</ele>
        <time>2019-05-30T11:11:55.000Z</time>
      </trkpt>
      <trkpt lat="47.25359" lon="-2.31583">
        <ele>15.60000038147</ele>
        <time>2019-05-30T11:11:57.000Z</time>
      </trkpt>
      <trkpt lat="47.25372" lon="-2.31602">
        <ele>15.199999809265</ele>
        <time>2019-05-30T11:12:00.000Z</time>
      </trkpt>
      <trkpt lat="47.25376" lon="-2.31609">
        <ele>14.39999961853</ele>
        <time>2019-05-30T11:12:01.000Z</time>
      </trkpt>
      <trkpt lat="47.25381" lon="-2.31617">
        <ele>14</ele>
        <time>2019-05-30T11:12:02.000Z</time>
      </trkpt>
      <trkpt lat="47.25385" lon="-2.31624">
        <ele>13.60000038147</ele>
        <time>2019-05-30T11:12:03.000Z</time>
      </trkpt>
      <trkpt lat="47.25412" lon="-2.31678">
        <ele>13.60000038147</ele>
        <time>2019-05-30T11:12:10.000Z</time>
      </trkpt>
      <trkpt lat="47.2542" lon="-2.31694">
        <ele>13.199999809265</ele>
        <time>2019-05-30T11:12:12.000Z</time>
      </trkpt>
      <trkpt lat="47.25423" lon="-2.31702">
        <ele>12.800000190735</ele>
        <time>2019-05-30T11:12:13.000Z</time>
      </trkpt>
      <trkpt lat="47.25426" lon="-2.3171">
        <ele>12.39999961853</ele>
        <time>2019-05-30T11:12:14.000Z</time>
      </trkpt>
      <trkpt lat="47.25429" lon="-2.31718">
        <ele>12</ele>
        <time>2019-05-30T11:12:15.000Z</time>
      </trkpt>
      <trkpt lat="47.25432" lon="-2.31726">
        <ele>11.60000038147</ele>
        <time>2019-05-30T11:12:16.000Z</time>
      </trkpt>
      <trkpt lat="47.25446" lon="-2.31776">
        <ele>11.60000038147</ele>
        <time>2019-05-30T11:12:22.000Z</time>
      </trkpt>
      <trkpt lat="47.25456" lon="-2.3182">
        <ele>11.60000038147</ele>
        <time>2019-05-30T11:12:27.000Z</time>
      </trkpt>
      <trkpt lat="47.25465" lon="-2.31829">
        <ele>11.60000038147</ele>
        <time>2019-05-30T11:12:29.000Z</time>
      </trkpt>
      <trkpt lat="47.25482" lon="-2.31828">
        <ele>11.60000038147</ele>
        <time>2019-05-30T11:12:32.000Z</time>
      </trkpt>
      <trkpt lat="47.25488" lon="-2.31826">
        <ele>11.60000038147</ele>
        <time>2019-05-30T11:12:33.000Z</time>
      </trkpt>
      <trkpt lat="47.25493" lon="-2.31824">
        <ele>11.60000038147</ele>
        <time>2019-05-30T11:12:34.000Z</time>
      </trkpt>
      <trkpt lat="47.25508" lon="-2.31817">
        <ele>11.60000038147</ele>
        <time>2019-05-30T11:12:37.000Z</time>
      </trkpt>
      <trkpt lat="47.25518" lon="-2.31813">
        <ele>11.199999809265</ele>
        <time>2019-05-30T11:12:39.000Z</time>
      </trkpt>
      <trkpt lat="47.25522" lon="-2.31811">
        <ele>10.800000190735</ele>
        <time>2019-05-30T11:12:40.000Z</time>
      </trkpt>
      <trkpt lat="47.25527" lon="-2.31809">
        <ele>10.39999961853</ele>
        <time>2019-05-30T11:12:41.000Z</time>
      </trkpt>
      <trkpt lat="47.25533" lon="-2.31807">
        <ele>10</ele>
        <time>2019-05-30T11:12:42.000Z</time>
      </trkpt>
      <trkpt lat="47.25538" lon="-2.31805">
        <ele>9.6000003814697</ele>
        <time>2019-05-30T11:12:43.000Z</time>
      </trkpt>
      <trkpt lat="47.25543" lon="-2.31803">
        <ele>9.6000003814697</ele>
        <time>2019-05-30T11:12:44.000Z</time>
      </trkpt>
      <trkpt lat="47.25557" lon="-2.31793">
        <ele>9.6000003814697</ele>
        <time>2019-05-30T11:12:48.000Z</time>
      </trkpt>
      <trkpt lat="47.2556" lon="-2.31789">
        <ele>9.6000003814697</ele>
        <time>2019-05-30T11:12:49.000Z</time>
      </trkpt>
      <trkpt lat="47.25568" lon="-2.31773">
        <ele>9.1999998092651</ele>
        <time>2019-05-30T11:12:52.000Z</time>
      </trkpt>
      <trkpt lat="47.25571" lon="-2.31769">
        <ele>8.8000001907349</ele>
        <time>2019-05-30T11:12:53.000Z</time>
      </trkpt>
      <trkpt lat="47.25575" lon="-2.31763">
        <ele>8.3999996185303</ele>
        <time>2019-05-30T11:12:54.000Z</time>
      </trkpt>
      <trkpt lat="47.25579" lon="-2.31757">
        <ele>8</ele>
        <time>2019-05-30T11:12:55.000Z</time>
      </trkpt>
      <trkpt lat="47.25583" lon="-2.31749">
        <ele>7.5999999046326</ele>
        <time>2019-05-30T11:12:56.000Z</time>
      </trkpt>
      <trkpt lat="47.25592" lon="-2.31719">
        <ele>7.5999999046326</ele>
        <time>2019-05-30T11:13:00.000Z</time>
      </trkpt>
      <trkpt lat="47.25606" lon="-2.31708">
        <ele>7.5999999046326</ele>
        <time>2019-05-30T11:13:03.000Z</time>
      </trkpt>
      <trkpt lat="47.25622" lon="-2.31706">
        <ele>7.5999999046326</ele>
        <time>2019-05-30T11:13:06.000Z</time>
      </trkpt>
      <trkpt lat="47.25647" lon="-2.31686">
        <ele>7.5999999046326</ele>
        <time>2019-05-30T11:13:10.000Z</time>
      </trkpt>
      <trkpt lat="47.25652" lon="-2.31677">
        <ele>7</ele>
        <time>2019-05-30T11:13:11.000Z</time>
      </trkpt>
      <trkpt lat="47.25655" lon="-2.31668">
        <ele>6.5999999046326</ele>
        <time>2019-05-30T11:13:12.000Z</time>
      </trkpt>
      <trkpt lat="47.25659" lon="-2.31663">
        <ele>6</ele>
        <time>2019-05-30T11:13:13.000Z</time>
      </trkpt>
      <trkpt lat="47.25664" lon="-2.31661">
        <ele>5.5999999046326</ele>
        <time>2019-05-30T11:13:14.000Z</time>
      </trkpt>
      <trkpt lat="47.25669" lon="-2.31663">
        <ele>5</ele>
        <time>2019-05-30T11:13:15.000Z</time>
      </trkpt>
      <trkpt lat="47.2568" lon="-2.31672">
        <ele>5</ele>
        <time>2019-05-30T11:13:17.000Z</time>
      </trkpt>
      <trkpt lat="47.25686" lon="-2.31675">
        <ele>5</ele>
        <time>2019-05-30T11:13:18.000Z</time>
      </trkpt>
      <trkpt lat="47.257" lon="-2.31681">
        <ele>4.5999999046326</ele>
        <time>2019-05-30T11:13:20.000Z</time>
      </trkpt>
      <trkpt lat="47.25707" lon="-2.31686">
        <ele>4</ele>
        <time>2019-05-30T11:13:21.000Z</time>
      </trkpt>
      <trkpt lat="47.25714" lon="-2.31692">
        <ele>3.5999999046326</ele>
        <time>2019-05-30T11:13:22.000Z</time>
      </trkpt>
      <trkpt lat="47.25721" lon="-2.31696">
        <ele>3.2000000476837</ele>
        <time>2019-05-30T11:13:23.000Z</time>
      </trkpt>
      <trkpt lat="47.25729" lon="-2.31697">
        <ele>2.5999999046326</ele>
        <time>2019-05-30T11:13:24.000Z</time>
      </trkpt>
      <trkpt lat="47.25736" lon="-2.31694">
        <ele>2.5999999046326</ele>
        <time>2019-05-30T11:13:25.000Z</time>
      </trkpt>
      <trkpt lat="47.25748" lon="-2.31684">
        <ele>2.5999999046326</ele>
        <time>2019-05-30T11:13:27.000Z</time>
      </trkpt>
      <trkpt lat="47.25755" lon="-2.3168">
        <ele>2.5999999046326</ele>
        <time>2019-05-30T11:13:28.000Z</time>
      </trkpt>
      <trkpt lat="47.25787" lon="-2.31653">
        <ele>2.5999999046326</ele>
        <time>2019-05-30T11:13:34.000Z</time>
      </trkpt>
      <trkpt lat="47.25836" lon="-2.31614">
        <ele>2.5999999046326</ele>
        <time>2019-05-30T11:13:43.000Z</time>
      </trkpt>
      <trkpt lat="47.2587" lon="-2.31581">
        <ele>2.5999999046326</ele>
        <time>2019-05-30T11:13:49.000Z</time>
      </trkpt>
      <trkpt lat="47.25882" lon="-2.31565">
        <ele>2.5999999046326</ele>
        <time>2019-05-30T11:13:51.000Z</time>
      </trkpt>
      <trkpt lat="47.25891" lon="-2.31545">
        <ele>2.5999999046326</ele>
        <time>2019-05-30T11:13:53.000Z</time>
      </trkpt>
      <trkpt lat="47.25902" lon="-2.31521">
        <ele>2.5999999046326</ele>
        <time>2019-05-30T11:13:56.000Z</time>
      </trkpt>
      <trkpt lat="47.25905" lon="-2.31516">
        <ele>2.5999999046326</ele>
        <time>2019-05-30T11:13:57.000Z</time>
      </trkpt>
      <trkpt lat="47.25911" lon="-2.3151">
        <ele>2.2000000476837</ele>
        <time>2019-05-30T11:13:59.000Z</time>
      </trkpt>
      <trkpt lat="47.25912" lon="-2.31508">
        <ele>1.6000000238419</ele>
        <time>2019-05-30T11:14:00.000Z</time>
      </trkpt>
      <trkpt lat="47.25913" lon="-2.31506">
        <ele>1.2000000476837</ele>
        <time>2019-05-30T11:14:01.000Z</time>
      </trkpt>
      <trkpt lat="47.25914" lon="-2.31504">
        <ele>0.80000001192093</ele>
        <time>2019-05-30T11:14:02.000Z</time>
      </trkpt>
      <trkpt lat="47.25914" lon="-2.31504">
        <ele>0.20000000298023</ele>
        <time>2019-05-30T11:14:03.000Z</time>
      </trkpt>
      <trkpt lat="47.25915" lon="-2.315">
        <ele>0.20000000298023</ele>
        <time>2019-05-30T11:14:05.000Z</time>
      </trkpt>
      <trkpt lat="47.25919" lon="-2.31483">
        <ele>0.20000000298023</ele>
        <time>2019-05-30T11:14:08.000Z</time>
      </trkpt>
      <trkpt lat="47.25929" lon="-2.31458">
        <ele>0.20000000298023</ele>
        <time>2019-05-30T11:14:12.000Z</time>
      </trkpt>
      <trkpt lat="47.25933" lon="-2.31456">
        <ele>0.20000000298023</ele>
        <time>2019-05-30T11:14:13.000Z</time>
      </trkpt>
      <trkpt lat="47.25947" lon="-2.31464">
        <ele>0.20000000298023</ele>
        <time>2019-05-30T11:14:16.000Z</time>
      </trkpt>
      <trkpt lat="47.25957" lon="-2.31473">
        <ele>0.20000000298023</ele>
        <time>2019-05-30T11:14:18.000Z</time>
      </trkpt>
      <trkpt lat="47.25971" lon="-2.31489">
        <ele>0.20000000298023</ele>
        <time>2019-05-30T11:14:21.000Z</time>
      </trkpt>
      <trkpt lat="47.25983" lon="-2.31518">
        <ele>0.20000000298023</ele>
        <time>2019-05-30T11:14:25.000Z</time>
      </trkpt>
      <trkpt lat="47.25986" lon="-2.31523">
        <ele>0.20000000298023</ele>
        <time>2019-05-30T11:14:26.000Z</time>
      </trkpt>
      <trkpt lat="47.26004" lon="-2.31553">
        <ele>0.20000000298023</ele>
        <time>2019-05-30T11:14:31.000Z</time>
      </trkpt>
      <trkpt lat="47.26007" lon="-2.31559">
        <ele>0.20000000298023</ele>
        <time>2019-05-30T11:14:32.000Z</time>
      </trkpt>
      <trkpt lat="47.26011" lon="-2.31563">
        <ele>0.20000000298023</ele>
        <time>2019-05-30T11:14:33.000Z</time>
      </trkpt>
      <trkpt lat="47.26019" lon="-2.31562">
        <ele>0.20000000298023</ele>
        <time>2019-05-30T11:14:35.000Z</time>
      </trkpt>
      <trkpt lat="47.26028" lon="-2.31543">
        <ele>0.20000000298023</ele>
        <time>2019-05-30T11:14:38.000Z</time>
      </trkpt>
      <trkpt lat="47.2603" lon="-2.31536">
        <ele>0.20000000298023</ele>
        <time>2019-05-30T11:14:39.000Z</time>
      </trkpt>
      <trkpt lat="47.26039" lon="-2.31529">
        <ele>0.20000000298023</ele>
        <time>2019-05-30T11:14:42.000Z</time>
      </trkpt>
      <trkpt lat="47.26049" lon="-2.3153">
        <ele>-0.20000000298023</ele>
        <time>2019-05-30T11:14:44.000Z</time>
      </trkpt>
      <trkpt lat="47.26054" lon="-2.31531">
        <ele>-0.60000002384186</ele>
        <time>2019-05-30T11:14:45.000Z</time>
      </trkpt>
      <trkpt lat="47.26058" lon="-2.31536">
        <ele>-1</ele>
        <time>2019-05-30T11:14:46.000Z</time>
      </trkpt>
      <trkpt lat="47.26061" lon="-2.31542">
        <ele>-1.3999999761581</ele>
        <time>2019-05-30T11:14:47.000Z</time>
      </trkpt>
      <trkpt lat="47.26064" lon="-2.31549">
        <ele>-1.7999999523163</ele>
        <time>2019-05-30T11:14:48.000Z</time>
      </trkpt>
      <trkpt lat="47.26069" lon="-2.31563">
        <ele>-1.7999999523163</ele>
        <time>2019-05-30T11:14:50.000Z</time>
      </trkpt>
      <trkpt lat="47.26075" lon="-2.31575">
        <ele>-1.7999999523163</ele>
        <time>2019-05-30T11:14:52.000Z</time>
      </trkpt>
      <trkpt lat="47.26078" lon="-2.31577">
        <ele>-1.7999999523163</ele>
        <time>2019-05-30T11:14:53.000Z</time>
      </trkpt>
      <trkpt lat="47.26089" lon="-2.31586">
        <ele>-1.7999999523163</ele>
        <time>2019-05-30T11:14:56.000Z</time>
      </trkpt>
      <trkpt lat="47.26093" lon="-2.31591">
        <ele>-1.7999999523163</ele>
        <time>2019-05-30T11:14:57.000Z</time>
      </trkpt>
      <trkpt lat="47.261" lon="-2.31603">
        <ele>-1.7999999523163</ele>
        <time>2019-05-30T11:14:59.000Z</time>
      </trkpt>
      <trkpt lat="47.26107" lon="-2.31614">
        <ele>-1.7999999523163</ele>
        <time>2019-05-30T11:15:01.000Z</time>
      </trkpt>
      <trkpt lat="47.26124" lon="-2.31615">
        <ele>-2.2000000476837</ele>
        <time>2019-05-30T11:15:04.000Z</time>
      </trkpt>
      <trkpt lat="47.2613" lon="-2.31613">
        <ele>-2.5999999046326</ele>
        <time>2019-05-30T11:15:05.000Z</time>
      </trkpt>
      <trkpt lat="47.26136" lon="-2.31612">
        <ele>-3</ele>
        <time>2019-05-30T11:15:06.000Z</time>
      </trkpt>
      <trkpt lat="47.26142" lon="-2.3161">
        <ele>-3.4000000953674</ele>
        <time>2019-05-30T11:15:07.000Z</time>
      </trkpt>
      <trkpt lat="47.26148" lon="-2.31609">
        <ele>-3.7999999523163</ele>
        <time>2019-05-30T11:15:08.000Z</time>
      </trkpt>
      <trkpt lat="47.26166" lon="-2.31604">
        <ele>-3.7999999523163</ele>
        <time>2019-05-30T11:15:11.000Z</time>
      </trkpt>
      <trkpt lat="47.26204" lon="-2.3159">
        <ele>-3.7999999523163</ele>
        <time>2019-05-30T11:15:18.000Z</time>
      </trkpt>
      <trkpt lat="47.26209" lon="-2.3159">
        <ele>-3.7999999523163</ele>
        <time>2019-05-30T11:15:19.000Z</time>
      </trkpt>
      <trkpt lat="47.26225" lon="-2.31595">
        <ele>-3.7999999523163</ele>
        <time>2019-05-30T11:15:22.000Z</time>
      </trkpt>
      <trkpt lat="47.26234" lon="-2.316">
        <ele>-3.7999999523163</ele>
        <time>2019-05-30T11:15:24.000Z</time>
      </trkpt>
      <trkpt lat="47.26239" lon="-2.31605">
        <ele>-3.7999999523163</ele>
        <time>2019-05-30T11:15:25.000Z</time>
      </trkpt>
      <trkpt lat="47.26248" lon="-2.31616">
        <ele>-3.7999999523163</ele>
        <time>2019-05-30T11:15:27.000Z</time>
      </trkpt>
      <trkpt lat="47.26256" lon="-2.3163">
        <ele>-3.7999999523163</ele>
        <time>2019-05-30T11:15:29.000Z</time>
      </trkpt>
      <trkpt lat="47.26266" lon="-2.31649">
        <ele>-3.7999999523163</ele>
        <time>2019-05-30T11:15:32.000Z</time>
      </trkpt>
      <trkpt lat="47.26288" lon="-2.31696">
        <ele>-3.7999999523163</ele>
        <time>2019-05-30T11:15:39.000Z</time>
      </trkpt>
      <trkpt lat="47.26295" lon="-2.31707">
        <ele>-3.7999999523163</ele>
        <time>2019-05-30T11:15:41.000Z</time>
      </trkpt>
      <trkpt lat="47.26308" lon="-2.31713">
        <ele>-3.7999999523163</ele>
        <time>2019-05-30T11:15:44.000Z</time>
      </trkpt>
      <trkpt lat="47.26317" lon="-2.31709">
        <ele>-3.7999999523163</ele>
        <time>2019-05-30T11:15:46.000Z</time>
      </trkpt>
      <trkpt lat="47.26322" lon="-2.31708">
        <ele>-3.4000000953674</ele>
        <time>2019-05-30T11:15:47.000Z</time>
      </trkpt>
      <trkpt lat="47.26326" lon="-2.31706">
        <ele>-3</ele>
        <time>2019-05-30T11:15:48.000Z</time>
      </trkpt>
      <trkpt lat="47.26329" lon="-2.31705">
        <ele>-2.5999999046326</ele>
        <time>2019-05-30T11:15:49.000Z</time>
      </trkpt>
      <trkpt lat="47.26332" lon="-2.31701">
        <ele>-2.2000000476837</ele>
        <time>2019-05-30T11:15:50.000Z</time>
      </trkpt>
      <trkpt lat="47.26334" lon="-2.31696">
        <ele>-1.6000000238419</ele>
        <time>2019-05-30T11:15:51.000Z</time>
      </trkpt>
      <trkpt lat="47.26336" lon="-2.31691">
        <ele>-1.6000000238419</ele>
        <time>2019-05-30T11:15:52.000Z</time>
      </trkpt>
      <trkpt lat="47.26339" lon="-2.31688">
        <ele>-1.6000000238419</ele>
        <time>2019-05-30T11:15:53.000Z</time>
      </trkpt>
      <trkpt lat="47.26346" lon="-2.31684">
        <ele>-1.6000000238419</ele>
        <time>2019-05-30T11:15:55.000Z</time>
      </trkpt>
      <trkpt lat="47.2636" lon="-2.31678">
        <ele>-1.2000000476837</ele>
        <time>2019-05-30T11:15:59.000Z</time>
      </trkpt>
      <trkpt lat="47.26364" lon="-2.31676">
        <ele>-0.80000001192093</ele>
        <time>2019-05-30T11:16:00.000Z</time>
      </trkpt>
      <trkpt lat="47.26368" lon="-2.31674">
        <ele>-0.40000000596046</ele>
        <time>2019-05-30T11:16:01.000Z</time>
      </trkpt>
      <trkpt lat="47.26373" lon="-2.31672">
        <ele>0.20000000298023</ele>
        <time>2019-05-30T11:16:02.000Z</time>
      </trkpt>
      <trkpt lat="47.26377" lon="-2.3167">
        <ele>0.60000002384186</ele>
        <time>2019-05-30T11:16:03.000Z</time>
      </trkpt>
      <trkpt lat="47.26385" lon="-2.31665">
        <ele>0.60000002384186</ele>
        <time>2019-05-30T11:16:05.000Z</time>
      </trkpt>
      <trkpt lat="47.26397" lon="-2.31659">
        <ele>0.60000002384186</ele>
        <time>2019-05-30T11:16:08.000Z</time>
      </trkpt>
      <trkpt lat="47.26409" lon="-2.31644">
        <ele>0.60000002384186</ele>
        <time>2019-05-30T11:16:13.000Z</time>
      </trkpt>
      <trkpt lat="47.26411" lon="-2.31623">
        <ele>0.60000002384186</ele>
        <time>2019-05-30T11:16:17.000Z</time>
      </trkpt>
      <trkpt lat="47.2641" lon="-2.3159">
        <ele>0.60000002384186</ele>
        <time>2019-05-30T11:16:23.000Z</time>
      </trkpt>
      <trkpt lat="47.2641" lon="-2.31556">
        <ele>0.60000002384186</ele>
        <time>2019-05-30T11:16:30.000Z</time>
      </trkpt>
      <trkpt lat="47.26411" lon="-2.31555">
        <ele>0.60000002384186</ele>
        <time>2019-05-30T11:16:31.000Z</time>
      </trkpt>
      <trkpt lat="47.26415" lon="-2.31556">
        <ele>0.60000002384186</ele>
        <time>2019-05-30T11:16:33.000Z</time>
      </trkpt>
      <trkpt lat="47.26416" lon="-2.31556">
        <ele>1</ele>
        <time>2019-05-30T11:16:35.000Z</time>
      </trkpt>
      <trkpt lat="47.26416" lon="-2.31556">
        <ele>1.3999999761581</ele>
        <time>2019-05-30T11:16:36.000Z</time>
      </trkpt>
    </trkseg>
  </trk>
</gpx>